<?xml version="1.0" encoding="utf-8"?>
<gpx xmlns:xsi="http://www.w3.org/2001/XMLSchema-instance" xmlns:xsd="http://www.w3.org/2001/XMLSchema" version="1.1" creator="Shapelink.com" xmlns="http://www.topografix.com/GPX/1/1" xmlns:gpxtpx="http://www.garmin.com/xmlschemas/TrackPointExtension/v1">
  <metadata>
    <name>Andet 6.53 km, 2016-05-17</name>
    <desc></desc>
    <author><name>Stein Falk-Larssen</name></author> 
    <time>1970-01-01T01:00:00Z</time>
  </metadata>
  <trk>
    <name>Andet 6.53 km, 2016-05-17</name>
    <trkseg>
      <trkpt lat="63.4122845" lon="10.471991">
        <ele>0</ele>
        <time>1970-01-01T01:00:00Z</time>
      </trkpt>
      <trkpt lat="63.4122715" lon="10.47196917">
        <ele>0</ele>
        <time>1970-01-01T01:00:00Z</time>
      </trkpt>
      <trkpt lat="63.41225383" lon="10.47194183">
        <ele>0</ele>
        <time>1970-01-01T01:00:00Z</time>
      </trkpt>
      <trkpt lat="63.412231" lon="10.47190233">
        <ele>0</ele>
        <time>1970-01-01T01:00:00Z</time>
      </trkpt>
      <trkpt lat="63.41221717" lon="10.47188383">
        <ele>0</ele>
        <time>1970-01-01T01:00:00Z</time>
      </trkpt>
      <trkpt lat="63.412204" lon="10.471867">
        <ele>0</ele>
        <time>1970-01-01T01:00:00Z</time>
      </trkpt>
      <trkpt lat="63.41219367" lon="10.47185983">
        <ele>0</ele>
        <time>1970-01-01T01:00:00Z</time>
      </trkpt>
      <trkpt lat="63.41218333" lon="10.47185183">
        <ele>0</ele>
        <time>1970-01-01T01:00:00Z</time>
      </trkpt>
      <trkpt lat="63.412172" lon="10.47184017">
        <ele>0</ele>
        <time>1970-01-01T01:00:00Z</time>
      </trkpt>
      <trkpt lat="63.41215817" lon="10.47182817">
        <ele>0</ele>
        <time>1970-01-01T01:00:00Z</time>
      </trkpt>
      <trkpt lat="63.41214483" lon="10.47181633">
        <ele>0</ele>
        <time>1970-01-01T01:00:00Z</time>
      </trkpt>
      <trkpt lat="63.4121325" lon="10.47181133">
        <ele>0</ele>
        <time>1970-01-01T01:00:00Z</time>
      </trkpt>
      <trkpt lat="63.41212083" lon="10.47180867">
        <ele>0</ele>
        <time>1970-01-01T01:00:00Z</time>
      </trkpt>
      <trkpt lat="63.41210767" lon="10.47180767">
        <ele>0</ele>
        <time>1970-01-01T01:00:00Z</time>
      </trkpt>
      <trkpt lat="63.412094" lon="10.4718095">
        <ele>0</ele>
        <time>1970-01-01T01:00:00Z</time>
      </trkpt>
      <trkpt lat="63.41207983" lon="10.4718125">
        <ele>0</ele>
        <time>1970-01-01T01:00:00Z</time>
      </trkpt>
      <trkpt lat="63.4120655" lon="10.47181333">
        <ele>0</ele>
        <time>1970-01-01T01:00:00Z</time>
      </trkpt>
      <trkpt lat="63.41205083" lon="10.471812">
        <ele>0</ele>
        <time>1970-01-01T01:00:00Z</time>
      </trkpt>
      <trkpt lat="63.41203617" lon="10.471811">
        <ele>0</ele>
        <time>1970-01-01T01:00:00Z</time>
      </trkpt>
      <trkpt lat="63.4120215" lon="10.47181083">
        <ele>0</ele>
        <time>1970-01-01T01:00:00Z</time>
      </trkpt>
      <trkpt lat="63.41200867" lon="10.47181133">
        <ele>0</ele>
        <time>1970-01-01T01:00:00Z</time>
      </trkpt>
      <trkpt lat="63.411995" lon="10.47180517">
        <ele>0</ele>
        <time>1970-01-01T01:00:00Z</time>
      </trkpt>
      <trkpt lat="63.4119815" lon="10.47179383">
        <ele>0</ele>
        <time>1970-01-01T01:00:00Z</time>
      </trkpt>
      <trkpt lat="63.4119655" lon="10.47177783">
        <ele>0</ele>
        <time>1970-01-01T01:00:00Z</time>
      </trkpt>
      <trkpt lat="63.41195067" lon="10.471766">
        <ele>0</ele>
        <time>1970-01-01T01:00:00Z</time>
      </trkpt>
      <trkpt lat="63.41193717" lon="10.4717555">
        <ele>0</ele>
        <time>1970-01-01T01:00:00Z</time>
      </trkpt>
      <trkpt lat="63.4119235" lon="10.4717395">
        <ele>0</ele>
        <time>1970-01-01T01:00:00Z</time>
      </trkpt>
      <trkpt lat="63.41191133" lon="10.471719">
        <ele>0</ele>
        <time>1970-01-01T01:00:00Z</time>
      </trkpt>
      <trkpt lat="63.41189883" lon="10.47169433">
        <ele>0</ele>
        <time>1970-01-01T01:00:00Z</time>
      </trkpt>
      <trkpt lat="63.41189" lon="10.47167317">
        <ele>0</ele>
        <time>1970-01-01T01:00:00Z</time>
      </trkpt>
      <trkpt lat="63.4118795" lon="10.47165183">
        <ele>0</ele>
        <time>1970-01-01T01:00:00Z</time>
      </trkpt>
      <trkpt lat="63.41186967" lon="10.471632">
        <ele>0</ele>
        <time>1970-01-01T01:00:00Z</time>
      </trkpt>
      <trkpt lat="63.41185833" lon="10.47161">
        <ele>0</ele>
        <time>1970-01-01T01:00:00Z</time>
      </trkpt>
      <trkpt lat="63.41184717" lon="10.47158817">
        <ele>0</ele>
        <time>1970-01-01T01:00:00Z</time>
      </trkpt>
      <trkpt lat="63.41183533" lon="10.47156633">
        <ele>0</ele>
        <time>1970-01-01T01:00:00Z</time>
      </trkpt>
      <trkpt lat="63.41182367" lon="10.471546">
        <ele>0</ele>
        <time>1970-01-01T01:00:00Z</time>
      </trkpt>
      <trkpt lat="63.411811" lon="10.47153017">
        <ele>0</ele>
        <time>1970-01-01T01:00:00Z</time>
      </trkpt>
      <trkpt lat="63.41179717" lon="10.47151717">
        <ele>0</ele>
        <time>1970-01-01T01:00:00Z</time>
      </trkpt>
      <trkpt lat="63.41178217" lon="10.47150133">
        <ele>0</ele>
        <time>1970-01-01T01:00:00Z</time>
      </trkpt>
      <trkpt lat="63.411768" lon="10.47147983">
        <ele>0</ele>
        <time>1970-01-01T01:00:00Z</time>
      </trkpt>
      <trkpt lat="63.41175467" lon="10.4714555">
        <ele>0</ele>
        <time>1970-01-01T01:00:00Z</time>
      </trkpt>
      <trkpt lat="63.4117405" lon="10.47143317">
        <ele>0</ele>
        <time>1970-01-01T01:00:00Z</time>
      </trkpt>
      <trkpt lat="63.41172633" lon="10.47141283">
        <ele>0</ele>
        <time>1970-01-01T01:00:00Z</time>
      </trkpt>
      <trkpt lat="63.411712" lon="10.47139367">
        <ele>0</ele>
        <time>1970-01-01T01:00:00Z</time>
      </trkpt>
      <trkpt lat="63.41169867" lon="10.47137783">
        <ele>0</ele>
        <time>1970-01-01T01:00:00Z</time>
      </trkpt>
      <trkpt lat="63.411686" lon="10.47135983">
        <ele>0</ele>
        <time>1970-01-01T01:00:00Z</time>
      </trkpt>
      <trkpt lat="63.41167533" lon="10.4713425">
        <ele>0</ele>
        <time>1970-01-01T01:00:00Z</time>
      </trkpt>
      <trkpt lat="63.41166417" lon="10.4713255">
        <ele>0</ele>
        <time>1970-01-01T01:00:00Z</time>
      </trkpt>
      <trkpt lat="63.4116515" lon="10.47131217">
        <ele>0</ele>
        <time>1970-01-01T01:00:00Z</time>
      </trkpt>
      <trkpt lat="63.41163667" lon="10.47129917">
        <ele>0</ele>
        <time>1970-01-01T01:00:00Z</time>
      </trkpt>
      <trkpt lat="63.41162267" lon="10.47128283">
        <ele>0</ele>
        <time>1970-01-01T01:00:00Z</time>
      </trkpt>
      <trkpt lat="63.41161083" lon="10.47126617">
        <ele>0</ele>
        <time>1970-01-01T01:00:00Z</time>
      </trkpt>
      <trkpt lat="63.41159767" lon="10.47125117">
        <ele>0</ele>
        <time>1970-01-01T01:00:00Z</time>
      </trkpt>
      <trkpt lat="63.41158417" lon="10.47123917">
        <ele>0</ele>
        <time>1970-01-01T01:00:00Z</time>
      </trkpt>
      <trkpt lat="63.41157117" lon="10.471227">
        <ele>0</ele>
        <time>1970-01-01T01:00:00Z</time>
      </trkpt>
      <trkpt lat="63.411557" lon="10.47121267">
        <ele>0</ele>
        <time>1970-01-01T01:00:00Z</time>
      </trkpt>
      <trkpt lat="63.41154267" lon="10.47119833">
        <ele>0</ele>
        <time>1970-01-01T01:00:00Z</time>
      </trkpt>
      <trkpt lat="63.41152517" lon="10.47118233">
        <ele>0</ele>
        <time>1970-01-01T01:00:00Z</time>
      </trkpt>
      <trkpt lat="63.41151133" lon="10.4711655">
        <ele>0</ele>
        <time>1970-01-01T01:00:00Z</time>
      </trkpt>
      <trkpt lat="63.41149917" lon="10.4711505">
        <ele>0</ele>
        <time>1970-01-01T01:00:00Z</time>
      </trkpt>
      <trkpt lat="63.41148633" lon="10.47113333">
        <ele>0</ele>
        <time>1970-01-01T01:00:00Z</time>
      </trkpt>
      <trkpt lat="63.411473" lon="10.471116">
        <ele>0</ele>
        <time>1970-01-01T01:00:00Z</time>
      </trkpt>
      <trkpt lat="63.411458" lon="10.4710955">
        <ele>0</ele>
        <time>1970-01-01T01:00:00Z</time>
      </trkpt>
      <trkpt lat="63.41144667" lon="10.471078">
        <ele>0</ele>
        <time>1970-01-01T01:00:00Z</time>
      </trkpt>
      <trkpt lat="63.41143467" lon="10.4710555">
        <ele>0</ele>
        <time>1970-01-01T01:00:00Z</time>
      </trkpt>
      <trkpt lat="63.41142233" lon="10.4710365">
        <ele>0</ele>
        <time>1970-01-01T01:00:00Z</time>
      </trkpt>
      <trkpt lat="63.4114105" lon="10.4710215">
        <ele>0</ele>
        <time>1970-01-01T01:00:00Z</time>
      </trkpt>
      <trkpt lat="63.4113995" lon="10.4710085">
        <ele>0</ele>
        <time>1970-01-01T01:00:00Z</time>
      </trkpt>
      <trkpt lat="63.41139017" lon="10.47099267">
        <ele>0</ele>
        <time>1970-01-01T01:00:00Z</time>
      </trkpt>
      <trkpt lat="63.4113765" lon="10.47096917">
        <ele>0</ele>
        <time>1970-01-01T01:00:00Z</time>
      </trkpt>
      <trkpt lat="63.411363" lon="10.47095067">
        <ele>0</ele>
        <time>1970-01-01T01:00:00Z</time>
      </trkpt>
      <trkpt lat="63.41135033" lon="10.47093267">
        <ele>0</ele>
        <time>1970-01-01T01:00:00Z</time>
      </trkpt>
      <trkpt lat="63.41134017" lon="10.47092">
        <ele>0</ele>
        <time>1970-01-01T01:00:00Z</time>
      </trkpt>
      <trkpt lat="63.411327" lon="10.4709005">
        <ele>0</ele>
        <time>1970-01-01T01:00:00Z</time>
      </trkpt>
      <trkpt lat="63.41131283" lon="10.47088183">
        <ele>0</ele>
        <time>1970-01-01T01:00:00Z</time>
      </trkpt>
      <trkpt lat="63.41129633" lon="10.47085867">
        <ele>0</ele>
        <time>1970-01-01T01:00:00Z</time>
      </trkpt>
      <trkpt lat="63.41128167" lon="10.470839">
        <ele>0</ele>
        <time>1970-01-01T01:00:00Z</time>
      </trkpt>
      <trkpt lat="63.41126533" lon="10.47081483">
        <ele>0</ele>
        <time>1970-01-01T01:00:00Z</time>
      </trkpt>
      <trkpt lat="63.41124883" lon="10.47079517">
        <ele>0</ele>
        <time>1970-01-01T01:00:00Z</time>
      </trkpt>
      <trkpt lat="63.41123017" lon="10.4707695">
        <ele>0</ele>
        <time>1970-01-01T01:00:00Z</time>
      </trkpt>
      <trkpt lat="63.41121217" lon="10.470744">
        <ele>0</ele>
        <time>1970-01-01T01:00:00Z</time>
      </trkpt>
      <trkpt lat="63.41119483" lon="10.47071683">
        <ele>0</ele>
        <time>1970-01-01T01:00:00Z</time>
      </trkpt>
      <trkpt lat="63.41118" lon="10.47069617">
        <ele>0</ele>
        <time>1970-01-01T01:00:00Z</time>
      </trkpt>
      <trkpt lat="63.41116467" lon="10.470678">
        <ele>0</ele>
        <time>1970-01-01T01:00:00Z</time>
      </trkpt>
      <trkpt lat="63.41115017" lon="10.47066">
        <ele>0</ele>
        <time>1970-01-01T01:00:00Z</time>
      </trkpt>
      <trkpt lat="63.41113683" lon="10.47064333">
        <ele>0</ele>
        <time>1970-01-01T01:00:00Z</time>
      </trkpt>
      <trkpt lat="63.41112467" lon="10.4706265">
        <ele>0</ele>
        <time>1970-01-01T01:00:00Z</time>
      </trkpt>
      <trkpt lat="63.41111383" lon="10.47060983">
        <ele>0</ele>
        <time>1970-01-01T01:00:00Z</time>
      </trkpt>
      <trkpt lat="63.41110133" lon="10.47059267">
        <ele>0</ele>
        <time>1970-01-01T01:00:00Z</time>
      </trkpt>
      <trkpt lat="63.41108967" lon="10.47057467">
        <ele>0</ele>
        <time>1970-01-01T01:00:00Z</time>
      </trkpt>
      <trkpt lat="63.41107817" lon="10.47055717">
        <ele>0</ele>
        <time>1970-01-01T01:00:00Z</time>
      </trkpt>
      <trkpt lat="63.41106767" lon="10.47053967">
        <ele>0</ele>
        <time>1970-01-01T01:00:00Z</time>
      </trkpt>
      <trkpt lat="63.41105667" lon="10.47052367">
        <ele>0</ele>
        <time>1970-01-01T01:00:00Z</time>
      </trkpt>
      <trkpt lat="63.41104617" lon="10.47050617">
        <ele>133.961</ele>
        <time>1970-01-01T01:00:00Z</time>
      </trkpt>
      <trkpt lat="63.411036" lon="10.470487">
        <ele>133.961</ele>
        <time>1970-01-01T01:00:00Z</time>
      </trkpt>
      <trkpt lat="63.41102617" lon="10.470469">
        <ele>133.961</ele>
        <time>1970-01-01T01:00:00Z</time>
      </trkpt>
      <trkpt lat="63.41101633" lon="10.47045283">
        <ele>133.961</ele>
        <time>1970-01-01T01:00:00Z</time>
      </trkpt>
      <trkpt lat="63.411006" lon="10.47043817">
        <ele>134.114</ele>
        <time>1970-01-01T01:00:00Z</time>
      </trkpt>
      <trkpt lat="63.4109965" lon="10.47042283">
        <ele>134.114</ele>
        <time>1970-01-01T01:00:00Z</time>
      </trkpt>
      <trkpt lat="63.41098617" lon="10.47040283">
        <ele>134.266</ele>
        <time>1970-01-01T01:00:00Z</time>
      </trkpt>
      <trkpt lat="63.41097633" lon="10.47038117">
        <ele>134.266</ele>
        <time>1970-01-01T01:00:00Z</time>
      </trkpt>
      <trkpt lat="63.410965" lon="10.47036">
        <ele>134.418</ele>
        <time>1970-01-01T01:00:00Z</time>
      </trkpt>
      <trkpt lat="63.41095417" lon="10.47034233">
        <ele>134.418</ele>
        <time>1970-01-01T01:00:00Z</time>
      </trkpt>
      <trkpt lat="63.41094433" lon="10.47032567">
        <ele>134.571</ele>
        <time>1970-01-01T01:00:00Z</time>
      </trkpt>
      <trkpt lat="63.410934" lon="10.47030767">
        <ele>134.571</ele>
        <time>1970-01-01T01:00:00Z</time>
      </trkpt>
      <trkpt lat="63.410924" lon="10.4702935">
        <ele>134.876</ele>
        <time>1970-01-01T01:00:00Z</time>
      </trkpt>
      <trkpt lat="63.41091283" lon="10.47028133">
        <ele>134.876</ele>
        <time>1970-01-01T01:00:00Z</time>
      </trkpt>
      <trkpt lat="63.41090417" lon="10.47027517">
        <ele>135.028</ele>
        <time>1970-01-01T01:00:00Z</time>
      </trkpt>
      <trkpt lat="63.41089667" lon="10.47027033">
        <ele>135.028</ele>
        <time>1970-01-01T01:00:00Z</time>
      </trkpt>
      <trkpt lat="63.41089017" lon="10.470268">
        <ele>135.333</ele>
        <time>1970-01-01T01:00:00Z</time>
      </trkpt>
      <trkpt lat="63.4108835" lon="10.47026483">
        <ele>135.333</ele>
        <time>1970-01-01T01:00:00Z</time>
      </trkpt>
      <trkpt lat="63.41087383" lon="10.47025917">
        <ele>135.485</ele>
        <time>1970-01-01T01:00:00Z</time>
      </trkpt>
      <trkpt lat="63.4108635" lon="10.4702525">
        <ele>135.485</ele>
        <time>1970-01-01T01:00:00Z</time>
      </trkpt>
      <trkpt lat="63.4108525" lon="10.47024467">
        <ele>135.485</ele>
        <time>1970-01-01T01:00:00Z</time>
      </trkpt>
      <trkpt lat="63.41084333" lon="10.47023917">
        <ele>135.485</ele>
        <time>1970-01-01T01:00:00Z</time>
      </trkpt>
      <trkpt lat="63.41083383" lon="10.47023333">
        <ele>135.485</ele>
        <time>1970-01-01T01:00:00Z</time>
      </trkpt>
      <trkpt lat="63.41082383" lon="10.47022583">
        <ele>135.485</ele>
        <time>1970-01-01T01:00:00Z</time>
      </trkpt>
      <trkpt lat="63.41081367" lon="10.4702175">
        <ele>135.18</ele>
        <time>1970-01-01T01:00:00Z</time>
      </trkpt>
      <trkpt lat="63.410805" lon="10.4702095">
        <ele>135.18</ele>
        <time>1970-01-01T01:00:00Z</time>
      </trkpt>
      <trkpt lat="63.41079667" lon="10.4702035">
        <ele>134.876</ele>
        <time>1970-01-01T01:00:00Z</time>
      </trkpt>
      <trkpt lat="63.41078767" lon="10.4701995">
        <ele>134.876</ele>
        <time>1970-01-01T01:00:00Z</time>
      </trkpt>
      <trkpt lat="63.41077683" lon="10.470195">
        <ele>134.723</ele>
        <time>1970-01-01T01:00:00Z</time>
      </trkpt>
      <trkpt lat="63.41076633" lon="10.47019283">
        <ele>134.723</ele>
        <time>1970-01-01T01:00:00Z</time>
      </trkpt>
      <trkpt lat="63.41075583" lon="10.47018767">
        <ele>134.723</ele>
        <time>1970-01-01T01:00:00Z</time>
      </trkpt>
      <trkpt lat="63.41074583" lon="10.47017967">
        <ele>134.723</ele>
        <time>1970-01-01T01:00:00Z</time>
      </trkpt>
      <trkpt lat="63.41073567" lon="10.470168">
        <ele>134.723</ele>
        <time>1970-01-01T01:00:00Z</time>
      </trkpt>
      <trkpt lat="63.41072633" lon="10.47015583">
        <ele>134.723</ele>
        <time>1970-01-01T01:00:00Z</time>
      </trkpt>
      <trkpt lat="63.41071567" lon="10.470144">
        <ele>134.723</ele>
        <time>1970-01-01T01:00:00Z</time>
      </trkpt>
      <trkpt lat="63.41070483" lon="10.4701295">
        <ele>134.723</ele>
        <time>1970-01-01T01:00:00Z</time>
      </trkpt>
      <trkpt lat="63.410694" lon="10.470121">
        <ele>134.876</ele>
        <time>1970-01-01T01:00:00Z</time>
      </trkpt>
      <trkpt lat="63.41068267" lon="10.47011583">
        <ele>134.876</ele>
        <time>1970-01-01T01:00:00Z</time>
      </trkpt>
      <trkpt lat="63.410671" lon="10.47011883">
        <ele>134.876</ele>
        <time>1970-01-01T01:00:00Z</time>
      </trkpt>
      <trkpt lat="63.410659" lon="10.47012417">
        <ele>134.876</ele>
        <time>1970-01-01T01:00:00Z</time>
      </trkpt>
      <trkpt lat="63.41065" lon="10.4701395">
        <ele>134.876</ele>
        <time>1970-01-01T01:00:00Z</time>
      </trkpt>
      <trkpt lat="63.410642" lon="10.47015967">
        <ele>134.876</ele>
        <time>1970-01-01T01:00:00Z</time>
      </trkpt>
      <trkpt lat="63.41063417" lon="10.470182">
        <ele>134.876</ele>
        <time>1970-01-01T01:00:00Z</time>
      </trkpt>
      <trkpt lat="63.41062717" lon="10.470204">
        <ele>134.876</ele>
        <time>1970-01-01T01:00:00Z</time>
      </trkpt>
      <trkpt lat="63.41062117" lon="10.47022933">
        <ele>134.876</ele>
        <time>1970-01-01T01:00:00Z</time>
      </trkpt>
      <trkpt lat="63.41061617" lon="10.470257">
        <ele>134.876</ele>
        <time>1970-01-01T01:00:00Z</time>
      </trkpt>
      <trkpt lat="63.41061033" lon="10.47028683">
        <ele>135.028</ele>
        <time>1970-01-01T01:00:00Z</time>
      </trkpt>
      <trkpt lat="63.41060417" lon="10.470315">
        <ele>135.028</ele>
        <time>1970-01-01T01:00:00Z</time>
      </trkpt>
      <trkpt lat="63.41059833" lon="10.4703475">
        <ele>135.028</ele>
        <time>1970-01-01T01:00:00Z</time>
      </trkpt>
      <trkpt lat="63.41059483" lon="10.470383">
        <ele>135.028</ele>
        <time>1970-01-01T01:00:00Z</time>
      </trkpt>
      <trkpt lat="63.41059183" lon="10.47041933">
        <ele>135.18</ele>
        <time>1970-01-01T01:00:00Z</time>
      </trkpt>
      <trkpt lat="63.41058933" lon="10.470453">
        <ele>135.18</ele>
        <time>1970-01-01T01:00:00Z</time>
      </trkpt>
      <trkpt lat="63.41058583" lon="10.47048367">
        <ele>135.333</ele>
        <time>1970-01-01T01:00:00Z</time>
      </trkpt>
      <trkpt lat="63.41058133" lon="10.47051117">
        <ele>135.333</ele>
        <time>1970-01-01T01:00:00Z</time>
      </trkpt>
      <trkpt lat="63.41057533" lon="10.4705355">
        <ele>135.485</ele>
        <time>1970-01-01T01:00:00Z</time>
      </trkpt>
      <trkpt lat="63.4105695" lon="10.47055983">
        <ele>135.485</ele>
        <time>1970-01-01T01:00:00Z</time>
      </trkpt>
      <trkpt lat="63.41056517" lon="10.4705895">
        <ele>135.79</ele>
        <time>1970-01-01T01:00:00Z</time>
      </trkpt>
      <trkpt lat="63.4105615" lon="10.4706225">
        <ele>135.79</ele>
        <time>1970-01-01T01:00:00Z</time>
      </trkpt>
      <trkpt lat="63.4105565" lon="10.47065583">
        <ele>136.095</ele>
        <time>1970-01-01T01:00:00Z</time>
      </trkpt>
      <trkpt lat="63.410548" lon="10.47068567">
        <ele>136.095</ele>
        <time>1970-01-01T01:00:00Z</time>
      </trkpt>
      <trkpt lat="63.410536" lon="10.47071067">
        <ele>136.4</ele>
        <time>1970-01-01T01:00:00Z</time>
      </trkpt>
      <trkpt lat="63.41052083" lon="10.4707295">
        <ele>136.4</ele>
        <time>1970-01-01T01:00:00Z</time>
      </trkpt>
      <trkpt lat="63.41050517" lon="10.4707425">
        <ele>136.704</ele>
        <time>1970-01-01T01:00:00Z</time>
      </trkpt>
      <trkpt lat="63.41048633" lon="10.47075117">
        <ele>136.704</ele>
        <time>1970-01-01T01:00:00Z</time>
      </trkpt>
      <trkpt lat="63.41046817" lon="10.47076033">
        <ele>137.009</ele>
        <time>1970-01-01T01:00:00Z</time>
      </trkpt>
      <trkpt lat="63.41044933" lon="10.47076867">
        <ele>137.009</ele>
        <time>1970-01-01T01:00:00Z</time>
      </trkpt>
      <trkpt lat="63.410435" lon="10.47077683">
        <ele>137.466</ele>
        <time>1970-01-01T01:00:00Z</time>
      </trkpt>
      <trkpt lat="63.4104215" lon="10.47078267">
        <ele>137.466</ele>
        <time>1970-01-01T01:00:00Z</time>
      </trkpt>
      <trkpt lat="63.41040833" lon="10.47079083">
        <ele>137.771</ele>
        <time>1970-01-01T01:00:00Z</time>
      </trkpt>
      <trkpt lat="63.4103945" lon="10.47080383">
        <ele>137.771</ele>
        <time>1970-01-01T01:00:00Z</time>
      </trkpt>
      <trkpt lat="63.41038183" lon="10.47081967">
        <ele>138.076</ele>
        <time>1970-01-01T01:00:00Z</time>
      </trkpt>
      <trkpt lat="63.41037183" lon="10.4708345">
        <ele>138.076</ele>
        <time>1970-01-01T01:00:00Z</time>
      </trkpt>
      <trkpt lat="63.410362" lon="10.470846">
        <ele>138.228</ele>
        <time>1970-01-01T01:00:00Z</time>
      </trkpt>
      <trkpt lat="63.410351" lon="10.47085717">
        <ele>138.228</ele>
        <time>1970-01-01T01:00:00Z</time>
      </trkpt>
      <trkpt lat="63.410338" lon="10.470871">
        <ele>138.381</ele>
        <time>1970-01-01T01:00:00Z</time>
      </trkpt>
      <trkpt lat="63.410324" lon="10.47088433">
        <ele>138.381</ele>
        <time>1970-01-01T01:00:00Z</time>
      </trkpt>
      <trkpt lat="63.41031083" lon="10.47089783">
        <ele>138.381</ele>
        <time>1970-01-01T01:00:00Z</time>
      </trkpt>
      <trkpt lat="63.41029917" lon="10.4709105">
        <ele>138.381</ele>
        <time>1970-01-01T01:00:00Z</time>
      </trkpt>
      <trkpt lat="63.41029067" lon="10.4709245">
        <ele>138.381</ele>
        <time>1970-01-01T01:00:00Z</time>
      </trkpt>
      <trkpt lat="63.41028383" lon="10.47093983">
        <ele>138.381</ele>
        <time>1970-01-01T01:00:00Z</time>
      </trkpt>
      <trkpt lat="63.41027717" lon="10.47095467">
        <ele>138.381</ele>
        <time>1970-01-01T01:00:00Z</time>
      </trkpt>
      <trkpt lat="63.41026883" lon="10.47097217">
        <ele>138.381</ele>
        <time>1970-01-01T01:00:00Z</time>
      </trkpt>
      <trkpt lat="63.41025783" lon="10.47099217">
        <ele>138.228</ele>
        <time>1970-01-01T01:00:00Z</time>
      </trkpt>
      <trkpt lat="63.410248" lon="10.4710115">
        <ele>138.228</ele>
        <time>1970-01-01T01:00:00Z</time>
      </trkpt>
      <trkpt lat="63.41023867" lon="10.47102883">
        <ele>138.228</ele>
        <time>1970-01-01T01:00:00Z</time>
      </trkpt>
      <trkpt lat="63.4102275" lon="10.47104">
        <ele>138.228</ele>
        <time>1970-01-01T01:00:00Z</time>
      </trkpt>
      <trkpt lat="63.41021483" lon="10.47105033">
        <ele>138.228</ele>
        <time>1970-01-01T01:00:00Z</time>
      </trkpt>
      <trkpt lat="63.41020183" lon="10.47106067">
        <ele>138.228</ele>
        <time>1970-01-01T01:00:00Z</time>
      </trkpt>
      <trkpt lat="63.41019167" lon="10.47107517">
        <ele>138.076</ele>
        <time>1970-01-01T01:00:00Z</time>
      </trkpt>
      <trkpt lat="63.41018317" lon="10.47109267">
        <ele>138.076</ele>
        <time>1970-01-01T01:00:00Z</time>
      </trkpt>
      <trkpt lat="63.41017567" lon="10.47111267">
        <ele>137.924</ele>
        <time>1970-01-01T01:00:00Z</time>
      </trkpt>
      <trkpt lat="63.41016817" lon="10.47113083">
        <ele>137.924</ele>
        <time>1970-01-01T01:00:00Z</time>
      </trkpt>
      <trkpt lat="63.410161" lon="10.4711465">
        <ele>137.771</ele>
        <time>1970-01-01T01:00:00Z</time>
      </trkpt>
      <trkpt lat="63.41015417" lon="10.47116">
        <ele>137.771</ele>
        <time>1970-01-01T01:00:00Z</time>
      </trkpt>
      <trkpt lat="63.41014667" lon="10.47117417">
        <ele>137.619</ele>
        <time>1970-01-01T01:00:00Z</time>
      </trkpt>
      <trkpt lat="63.41013883" lon="10.47119217">
        <ele>137.619</ele>
        <time>1970-01-01T01:00:00Z</time>
      </trkpt>
      <trkpt lat="63.41013" lon="10.47120983">
        <ele>137.466</ele>
        <time>1970-01-01T01:00:00Z</time>
      </trkpt>
      <trkpt lat="63.41011933" lon="10.47123167">
        <ele>137.466</ele>
        <time>1970-01-01T01:00:00Z</time>
      </trkpt>
      <trkpt lat="63.41010733" lon="10.47125333">
        <ele>137.314</ele>
        <time>1970-01-01T01:00:00Z</time>
      </trkpt>
      <trkpt lat="63.4100955" lon="10.471279">
        <ele>137.314</ele>
        <time>1970-01-01T01:00:00Z</time>
      </trkpt>
      <trkpt lat="63.4100865" lon="10.4713065">
        <ele>137.314</ele>
        <time>1970-01-01T01:00:00Z</time>
      </trkpt>
      <trkpt lat="63.41007783" lon="10.47133567">
        <ele>137.314</ele>
        <time>1970-01-01T01:00:00Z</time>
      </trkpt>
      <trkpt lat="63.41006833" lon="10.471364">
        <ele>137.314</ele>
        <time>1970-01-01T01:00:00Z</time>
      </trkpt>
      <trkpt lat="63.410058" lon="10.471388">
        <ele>137.314</ele>
        <time>1970-01-01T01:00:00Z</time>
      </trkpt>
      <trkpt lat="63.4100465" lon="10.47140883">
        <ele>137.314</ele>
        <time>1970-01-01T01:00:00Z</time>
      </trkpt>
      <trkpt lat="63.410036" lon="10.47142517">
        <ele>137.314</ele>
        <time>1970-01-01T01:00:00Z</time>
      </trkpt>
      <trkpt lat="63.41002583" lon="10.47143667">
        <ele>137.466</ele>
        <time>1970-01-01T01:00:00Z</time>
      </trkpt>
      <trkpt lat="63.41001583" lon="10.47144317">
        <ele>137.466</ele>
        <time>1970-01-01T01:00:00Z</time>
      </trkpt>
      <trkpt lat="63.41000483" lon="10.471446">
        <ele>137.771</ele>
        <time>1970-01-01T01:00:00Z</time>
      </trkpt>
      <trkpt lat="63.4099935" lon="10.47144933">
        <ele>137.771</ele>
        <time>1970-01-01T01:00:00Z</time>
      </trkpt>
      <trkpt lat="63.409981" lon="10.47144983">
        <ele>138.076</ele>
        <time>1970-01-01T01:00:00Z</time>
      </trkpt>
      <trkpt lat="63.40996917" lon="10.47145133">
        <ele>138.076</ele>
        <time>1970-01-01T01:00:00Z</time>
      </trkpt>
      <trkpt lat="63.4099565" lon="10.4714485">
        <ele>138.381</ele>
        <time>1970-01-01T01:00:00Z</time>
      </trkpt>
      <trkpt lat="63.40994483" lon="10.47144733">
        <ele>138.381</ele>
        <time>1970-01-01T01:00:00Z</time>
      </trkpt>
      <trkpt lat="63.409932" lon="10.471438">
        <ele>138.686</ele>
        <time>1970-01-01T01:00:00Z</time>
      </trkpt>
      <trkpt lat="63.40991817" lon="10.47143117">
        <ele>138.686</ele>
        <time>1970-01-01T01:00:00Z</time>
      </trkpt>
      <trkpt lat="63.40990417" lon="10.47142567">
        <ele>138.99</ele>
        <time>1970-01-01T01:00:00Z</time>
      </trkpt>
      <trkpt lat="63.40989083" lon="10.47142483">
        <ele>138.99</ele>
        <time>1970-01-01T01:00:00Z</time>
      </trkpt>
      <trkpt lat="63.40988033" lon="10.47142317">
        <ele>139.295</ele>
        <time>1970-01-01T01:00:00Z</time>
      </trkpt>
      <trkpt lat="63.4098695" lon="10.4714175">
        <ele>139.295</ele>
        <time>1970-01-01T01:00:00Z</time>
      </trkpt>
      <trkpt lat="63.40985767" lon="10.47141117">
        <ele>139.6</ele>
        <time>1970-01-01T01:00:00Z</time>
      </trkpt>
      <trkpt lat="63.409845" lon="10.471399">
        <ele>139.6</ele>
        <time>1970-01-01T01:00:00Z</time>
      </trkpt>
      <trkpt lat="63.4098325" lon="10.471391">
        <ele>139.905</ele>
        <time>1970-01-01T01:00:00Z</time>
      </trkpt>
      <trkpt lat="63.40982133" lon="10.47138483">
        <ele>139.905</ele>
        <time>1970-01-01T01:00:00Z</time>
      </trkpt>
      <trkpt lat="63.40980983" lon="10.47138733">
        <ele>140.362</ele>
        <time>1970-01-01T01:00:00Z</time>
      </trkpt>
      <trkpt lat="63.40979767" lon="10.47138967">
        <ele>140.362</ele>
        <time>1970-01-01T01:00:00Z</time>
      </trkpt>
      <trkpt lat="63.409785" lon="10.47139033">
        <ele>140.819</ele>
        <time>1970-01-01T01:00:00Z</time>
      </trkpt>
      <trkpt lat="63.409772" lon="10.471384">
        <ele>140.819</ele>
        <time>1970-01-01T01:00:00Z</time>
      </trkpt>
      <trkpt lat="63.40975867" lon="10.47137033">
        <ele>141.277</ele>
        <time>1970-01-01T01:00:00Z</time>
      </trkpt>
      <trkpt lat="63.40974583" lon="10.47135933">
        <ele>141.277</ele>
        <time>1970-01-01T01:00:00Z</time>
      </trkpt>
      <trkpt lat="63.409733" lon="10.471354">
        <ele>141.581</ele>
        <time>1970-01-01T01:00:00Z</time>
      </trkpt>
      <trkpt lat="63.40972083" lon="10.47135767">
        <ele>141.581</ele>
        <time>1970-01-01T01:00:00Z</time>
      </trkpt>
      <trkpt lat="63.40970783" lon="10.47136167">
        <ele>141.734</ele>
        <time>1970-01-01T01:00:00Z</time>
      </trkpt>
      <trkpt lat="63.40969167" lon="10.47136017">
        <ele>141.734</ele>
        <time>1970-01-01T01:00:00Z</time>
      </trkpt>
      <trkpt lat="63.40967567" lon="10.47135583">
        <ele>141.734</ele>
        <time>1970-01-01T01:00:00Z</time>
      </trkpt>
      <trkpt lat="63.409661" lon="10.47135233">
        <ele>141.734</ele>
        <time>1970-01-01T01:00:00Z</time>
      </trkpt>
      <trkpt lat="63.4096485" lon="10.47135233">
        <ele>141.734</ele>
        <time>1970-01-01T01:00:00Z</time>
      </trkpt>
      <trkpt lat="63.40963583" lon="10.471356">
        <ele>141.734</ele>
        <time>1970-01-01T01:00:00Z</time>
      </trkpt>
      <trkpt lat="63.409622" lon="10.47136717">
        <ele>141.429</ele>
        <time>1970-01-01T01:00:00Z</time>
      </trkpt>
      <trkpt lat="63.40960733" lon="10.47138">
        <ele>141.429</ele>
        <time>1970-01-01T01:00:00Z</time>
      </trkpt>
      <trkpt lat="63.4095935" lon="10.47139117">
        <ele>141.277</ele>
        <time>1970-01-01T01:00:00Z</time>
      </trkpt>
      <trkpt lat="63.409579" lon="10.47139617">
        <ele>141.277</ele>
        <time>1970-01-01T01:00:00Z</time>
      </trkpt>
      <trkpt lat="63.40956417" lon="10.4714035">
        <ele>141.124</ele>
        <time>1970-01-01T01:00:00Z</time>
      </trkpt>
      <trkpt lat="63.40954717" lon="10.471415">
        <ele>141.124</ele>
        <time>1970-01-01T01:00:00Z</time>
      </trkpt>
      <trkpt lat="63.40952983" lon="10.47142967">
        <ele>140.972</ele>
        <time>1970-01-01T01:00:00Z</time>
      </trkpt>
      <trkpt lat="63.40951467" lon="10.4714475">
        <ele>140.972</ele>
        <time>1970-01-01T01:00:00Z</time>
      </trkpt>
      <trkpt lat="63.40949983" lon="10.47146333">
        <ele>140.667</ele>
        <time>1970-01-01T01:00:00Z</time>
      </trkpt>
      <trkpt lat="63.40949067" lon="10.47147433">
        <ele>140.667</ele>
        <time>1970-01-01T01:00:00Z</time>
      </trkpt>
      <trkpt lat="63.4094825" lon="10.47148517">
        <ele>140.515</ele>
        <time>1970-01-01T01:00:00Z</time>
      </trkpt>
      <trkpt lat="63.4094765" lon="10.4714995">
        <ele>140.515</ele>
        <time>1970-01-01T01:00:00Z</time>
      </trkpt>
      <trkpt lat="63.40946733" lon="10.47151833">
        <ele>140.515</ele>
        <time>1970-01-01T01:00:00Z</time>
      </trkpt>
      <trkpt lat="63.40945783" lon="10.4715365">
        <ele>140.515</ele>
        <time>1970-01-01T01:00:00Z</time>
      </trkpt>
      <trkpt lat="63.40944917" lon="10.471556">
        <ele>140.515</ele>
        <time>1970-01-01T01:00:00Z</time>
      </trkpt>
      <trkpt lat="63.40944067" lon="10.47157733">
        <ele>140.515</ele>
        <time>1970-01-01T01:00:00Z</time>
      </trkpt>
      <trkpt lat="63.40942833" lon="10.47160283">
        <ele>140.362</ele>
        <time>1970-01-01T01:00:00Z</time>
      </trkpt>
      <trkpt lat="63.40941183" lon="10.471629">
        <ele>140.362</ele>
        <time>1970-01-01T01:00:00Z</time>
      </trkpt>
      <trkpt lat="63.40939133" lon="10.47164317">
        <ele>140.362</ele>
        <time>1970-01-01T01:00:00Z</time>
      </trkpt>
      <trkpt lat="63.4093735" lon="10.4716525">
        <ele>140.362</ele>
        <time>1970-01-01T01:00:00Z</time>
      </trkpt>
      <trkpt lat="63.40935583" lon="10.471654">
        <ele>140.362</ele>
        <time>1970-01-01T01:00:00Z</time>
      </trkpt>
      <trkpt lat="63.40933817" lon="10.47166383">
        <ele>140.362</ele>
        <time>1970-01-01T01:00:00Z</time>
      </trkpt>
      <trkpt lat="63.40931867" lon="10.47167467">
        <ele>140.515</ele>
        <time>1970-01-01T01:00:00Z</time>
      </trkpt>
      <trkpt lat="63.409301" lon="10.47168617">
        <ele>140.515</ele>
        <time>1970-01-01T01:00:00Z</time>
      </trkpt>
      <trkpt lat="63.40928517" lon="10.4716955">
        <ele>140.515</ele>
        <time>1970-01-01T01:00:00Z</time>
      </trkpt>
      <trkpt lat="63.40927" lon="10.471699">
        <ele>140.515</ele>
        <time>1970-01-01T01:00:00Z</time>
      </trkpt>
      <trkpt lat="63.40925367" lon="10.47170067">
        <ele>140.667</ele>
        <time>1970-01-01T01:00:00Z</time>
      </trkpt>
      <trkpt lat="63.40923667" lon="10.47170333">
        <ele>140.667</ele>
        <time>1970-01-01T01:00:00Z</time>
      </trkpt>
      <trkpt lat="63.40921917" lon="10.47170983">
        <ele>140.667</ele>
        <time>1970-01-01T01:00:00Z</time>
      </trkpt>
      <trkpt lat="63.4092015" lon="10.47172">
        <ele>140.667</ele>
        <time>1970-01-01T01:00:00Z</time>
      </trkpt>
      <trkpt lat="63.40918433" lon="10.47172767">
        <ele>140.819</ele>
        <time>1970-01-01T01:00:00Z</time>
      </trkpt>
      <trkpt lat="63.40916517" lon="10.47172967">
        <ele>140.819</ele>
        <time>1970-01-01T01:00:00Z</time>
      </trkpt>
      <trkpt lat="63.409145" lon="10.47172567">
        <ele>140.972</ele>
        <time>1970-01-01T01:00:00Z</time>
      </trkpt>
      <trkpt lat="63.409123" lon="10.471722">
        <ele>140.972</ele>
        <time>1970-01-01T01:00:00Z</time>
      </trkpt>
      <trkpt lat="63.4091025" lon="10.47171933">
        <ele>141.124</ele>
        <time>1970-01-01T01:00:00Z</time>
      </trkpt>
      <trkpt lat="63.40908317" lon="10.47171933">
        <ele>141.124</ele>
        <time>1970-01-01T01:00:00Z</time>
      </trkpt>
      <trkpt lat="63.4090635" lon="10.471721">
        <ele>141.277</ele>
        <time>1970-01-01T01:00:00Z</time>
      </trkpt>
      <trkpt lat="63.4090445" lon="10.4717265">
        <ele>141.277</ele>
        <time>1970-01-01T01:00:00Z</time>
      </trkpt>
      <trkpt lat="63.40902533" lon="10.4717305">
        <ele>141.429</ele>
        <time>1970-01-01T01:00:00Z</time>
      </trkpt>
      <trkpt lat="63.40900783" lon="10.47173467">
        <ele>141.429</ele>
        <time>1970-01-01T01:00:00Z</time>
      </trkpt>
      <trkpt lat="63.4089905" lon="10.471737">
        <ele>141.429</ele>
        <time>1970-01-01T01:00:00Z</time>
      </trkpt>
      <trkpt lat="63.40897467" lon="10.471745">
        <ele>141.429</ele>
        <time>1970-01-01T01:00:00Z</time>
      </trkpt>
      <trkpt lat="63.408958" lon="10.47175867">
        <ele>141.429</ele>
        <time>1970-01-01T01:00:00Z</time>
      </trkpt>
      <trkpt lat="63.4089405" lon="10.47177367">
        <ele>141.429</ele>
        <time>1970-01-01T01:00:00Z</time>
      </trkpt>
      <trkpt lat="63.40892283" lon="10.4717835">
        <ele>141.429</ele>
        <time>1970-01-01T01:00:00Z</time>
      </trkpt>
      <trkpt lat="63.40890467" lon="10.47178517">
        <ele>141.429</ele>
        <time>1970-01-01T01:00:00Z</time>
      </trkpt>
      <trkpt lat="63.4088865" lon="10.47178467">
        <ele>141.429</ele>
        <time>1970-01-01T01:00:00Z</time>
      </trkpt>
      <trkpt lat="63.408868" lon="10.47178483">
        <ele>141.429</ele>
        <time>1970-01-01T01:00:00Z</time>
      </trkpt>
      <trkpt lat="63.40884917" lon="10.471778">
        <ele>141.429</ele>
        <time>1970-01-01T01:00:00Z</time>
      </trkpt>
      <trkpt lat="63.40883133" lon="10.47176967">
        <ele>141.429</ele>
        <time>1970-01-01T01:00:00Z</time>
      </trkpt>
      <trkpt lat="63.40881233" lon="10.4717575">
        <ele>141.429</ele>
        <time>1970-01-01T01:00:00Z</time>
      </trkpt>
      <trkpt lat="63.40879517" lon="10.47174533">
        <ele>141.429</ele>
        <time>1970-01-01T01:00:00Z</time>
      </trkpt>
      <trkpt lat="63.4087795" lon="10.47172767">
        <ele>141.429</ele>
        <time>1970-01-01T01:00:00Z</time>
      </trkpt>
      <trkpt lat="63.408766" lon="10.47170483">
        <ele>141.429</ele>
        <time>1970-01-01T01:00:00Z</time>
      </trkpt>
      <trkpt lat="63.40875133" lon="10.4716845">
        <ele>141.429</ele>
        <time>1970-01-01T01:00:00Z</time>
      </trkpt>
      <trkpt lat="63.40873567" lon="10.47167317">
        <ele>141.429</ele>
        <time>1970-01-01T01:00:00Z</time>
      </trkpt>
      <trkpt lat="63.40871917" lon="10.47166783">
        <ele>141.429</ele>
        <time>1970-01-01T01:00:00Z</time>
      </trkpt>
      <trkpt lat="63.40870333" lon="10.47166683">
        <ele>141.429</ele>
        <time>1970-01-01T01:00:00Z</time>
      </trkpt>
      <trkpt lat="63.40868717" lon="10.47166083">
        <ele>141.429</ele>
        <time>1970-01-01T01:00:00Z</time>
      </trkpt>
      <trkpt lat="63.40867017" lon="10.471657">
        <ele>141.429</ele>
        <time>1970-01-01T01:00:00Z</time>
      </trkpt>
      <trkpt lat="63.408653" lon="10.47164967">
        <ele>141.429</ele>
        <time>1970-01-01T01:00:00Z</time>
      </trkpt>
      <trkpt lat="63.40863517" lon="10.47163983">
        <ele>141.429</ele>
        <time>1970-01-01T01:00:00Z</time>
      </trkpt>
      <trkpt lat="63.40861717" lon="10.47162883">
        <ele>141.429</ele>
        <time>1970-01-01T01:00:00Z</time>
      </trkpt>
      <trkpt lat="63.40859833" lon="10.471621">
        <ele>141.429</ele>
        <time>1970-01-01T01:00:00Z</time>
      </trkpt>
      <trkpt lat="63.40857933" lon="10.47161617">
        <ele>141.429</ele>
        <time>1970-01-01T01:00:00Z</time>
      </trkpt>
      <trkpt lat="63.408561" lon="10.47161033">
        <ele>141.429</ele>
        <time>1970-01-01T01:00:00Z</time>
      </trkpt>
      <trkpt lat="63.40854417" lon="10.471602">
        <ele>141.429</ele>
        <time>1970-01-01T01:00:00Z</time>
      </trkpt>
      <trkpt lat="63.408527" lon="10.47159533">
        <ele>141.429</ele>
        <time>1970-01-01T01:00:00Z</time>
      </trkpt>
      <trkpt lat="63.408509" lon="10.47159033">
        <ele>141.429</ele>
        <time>1970-01-01T01:00:00Z</time>
      </trkpt>
      <trkpt lat="63.408491" lon="10.471584">
        <ele>141.429</ele>
        <time>1970-01-01T01:00:00Z</time>
      </trkpt>
      <trkpt lat="63.4084745" lon="10.47157683">
        <ele>141.429</ele>
        <time>1970-01-01T01:00:00Z</time>
      </trkpt>
      <trkpt lat="63.40845933" lon="10.47156733">
        <ele>141.429</ele>
        <time>1970-01-01T01:00:00Z</time>
      </trkpt>
      <trkpt lat="63.40844467" lon="10.47156117">
        <ele>141.429</ele>
        <time>1970-01-01T01:00:00Z</time>
      </trkpt>
      <trkpt lat="63.4084295" lon="10.47155383">
        <ele>141.429</ele>
        <time>1970-01-01T01:00:00Z</time>
      </trkpt>
      <trkpt lat="63.4084145" lon="10.4715505">
        <ele>141.429</ele>
        <time>1970-01-01T01:00:00Z</time>
      </trkpt>
      <trkpt lat="63.4084" lon="10.47154767">
        <ele>141.429</ele>
        <time>1970-01-01T01:00:00Z</time>
      </trkpt>
      <trkpt lat="63.40838633" lon="10.47154667">
        <ele>141.429</ele>
        <time>1970-01-01T01:00:00Z</time>
      </trkpt>
      <trkpt lat="63.4083705" lon="10.47154433">
        <ele>141.429</ele>
        <time>1970-01-01T01:00:00Z</time>
      </trkpt>
      <trkpt lat="63.40835467" lon="10.47154067">
        <ele>141.429</ele>
        <time>1970-01-01T01:00:00Z</time>
      </trkpt>
      <trkpt lat="63.40833833" lon="10.4715365">
        <ele>141.429</ele>
        <time>1970-01-01T01:00:00Z</time>
      </trkpt>
      <trkpt lat="63.40832333" lon="10.47153117">
        <ele>141.581</ele>
        <time>1970-01-01T01:00:00Z</time>
      </trkpt>
      <trkpt lat="63.4083075" lon="10.47152683">
        <ele>141.581</ele>
        <time>1970-01-01T01:00:00Z</time>
      </trkpt>
      <trkpt lat="63.4082905" lon="10.47152083">
        <ele>141.581</ele>
        <time>1970-01-01T01:00:00Z</time>
      </trkpt>
      <trkpt lat="63.4082725" lon="10.47151383">
        <ele>141.581</ele>
        <time>1970-01-01T01:00:00Z</time>
      </trkpt>
      <trkpt lat="63.40825467" lon="10.471506">
        <ele>141.734</ele>
        <time>1970-01-01T01:00:00Z</time>
      </trkpt>
      <trkpt lat="63.40824133" lon="10.47150117">
        <ele>141.734</ele>
        <time>1970-01-01T01:00:00Z</time>
      </trkpt>
      <trkpt lat="63.408233" lon="10.47150033">
        <ele>141.734</ele>
        <time>1970-01-01T01:00:00Z</time>
      </trkpt>
      <trkpt lat="63.40823017" lon="10.47150267">
        <ele>141.734</ele>
        <time>1970-01-01T01:00:00Z</time>
      </trkpt>
      <trkpt lat="63.40822517" lon="10.471513">
        <ele>141.734</ele>
        <time>1970-01-01T01:00:00Z</time>
      </trkpt>
      <trkpt lat="63.4082185" lon="10.47153317">
        <ele>141.734</ele>
        <time>1970-01-01T01:00:00Z</time>
      </trkpt>
      <trkpt lat="63.4082085" lon="10.47156267">
        <ele>141.734</ele>
        <time>1970-01-01T01:00:00Z</time>
      </trkpt>
      <trkpt lat="63.40819917" lon="10.47159233">
        <ele>141.734</ele>
        <time>1970-01-01T01:00:00Z</time>
      </trkpt>
      <trkpt lat="63.408189" lon="10.47162233">
        <ele>141.886</ele>
        <time>1970-01-01T01:00:00Z</time>
      </trkpt>
      <trkpt lat="63.40817867" lon="10.47165083">
        <ele>141.886</ele>
        <time>1970-01-01T01:00:00Z</time>
      </trkpt>
      <trkpt lat="63.40816717" lon="10.47167883">
        <ele>141.886</ele>
        <time>1970-01-01T01:00:00Z</time>
      </trkpt>
      <trkpt lat="63.408154" lon="10.4717005">
        <ele>141.886</ele>
        <time>1970-01-01T01:00:00Z</time>
      </trkpt>
      <trkpt lat="63.40813733" lon="10.47171983">
        <ele>142.039</ele>
        <time>1970-01-01T01:00:00Z</time>
      </trkpt>
      <trkpt lat="63.40812067" lon="10.47173683">
        <ele>142.039</ele>
        <time>1970-01-01T01:00:00Z</time>
      </trkpt>
      <trkpt lat="63.4081055" lon="10.47175517">
        <ele>142.039</ele>
        <time>1970-01-01T01:00:00Z</time>
      </trkpt>
      <trkpt lat="63.4080935" lon="10.471772">
        <ele>142.039</ele>
        <time>1970-01-01T01:00:00Z</time>
      </trkpt>
      <trkpt lat="63.40808217" lon="10.47178717">
        <ele>142.191</ele>
        <time>1970-01-01T01:00:00Z</time>
      </trkpt>
      <trkpt lat="63.40807017" lon="10.47179617">
        <ele>142.191</ele>
        <time>1970-01-01T01:00:00Z</time>
      </trkpt>
      <trkpt lat="63.4080585" lon="10.47180483">
        <ele>142.191</ele>
        <time>1970-01-01T01:00:00Z</time>
      </trkpt>
      <trkpt lat="63.40804683" lon="10.4718125">
        <ele>142.191</ele>
        <time>1970-01-01T01:00:00Z</time>
      </trkpt>
      <trkpt lat="63.40803617" lon="10.471827">
        <ele>142.343</ele>
        <time>1970-01-01T01:00:00Z</time>
      </trkpt>
      <trkpt lat="63.40802167" lon="10.4718395">
        <ele>142.343</ele>
        <time>1970-01-01T01:00:00Z</time>
      </trkpt>
      <trkpt lat="63.408006" lon="10.47185167">
        <ele>142.343</ele>
        <time>1970-01-01T01:00:00Z</time>
      </trkpt>
      <trkpt lat="63.40798917" lon="10.471863">
        <ele>142.343</ele>
        <time>1970-01-01T01:00:00Z</time>
      </trkpt>
      <trkpt lat="63.40797383" lon="10.47187633">
        <ele>142.496</ele>
        <time>1970-01-01T01:00:00Z</time>
      </trkpt>
      <trkpt lat="63.40796033" lon="10.47189367">
        <ele>142.496</ele>
        <time>1970-01-01T01:00:00Z</time>
      </trkpt>
      <trkpt lat="63.40794833" lon="10.4719145">
        <ele>142.496</ele>
        <time>1970-01-01T01:00:00Z</time>
      </trkpt>
      <trkpt lat="63.4079365" lon="10.47193817">
        <ele>142.496</ele>
        <time>1970-01-01T01:00:00Z</time>
      </trkpt>
      <trkpt lat="63.407924" lon="10.47196617">
        <ele>142.496</ele>
        <time>1970-01-01T01:00:00Z</time>
      </trkpt>
      <trkpt lat="63.40791267" lon="10.471995">
        <ele>142.496</ele>
        <time>1970-01-01T01:00:00Z</time>
      </trkpt>
      <trkpt lat="63.40790517" lon="10.4720235">
        <ele>142.648</ele>
        <time>1970-01-01T01:00:00Z</time>
      </trkpt>
      <trkpt lat="63.4079" lon="10.47205117">
        <ele>142.648</ele>
        <time>1970-01-01T01:00:00Z</time>
      </trkpt>
      <trkpt lat="63.40789417" lon="10.472078">
        <ele>142.648</ele>
        <time>1970-01-01T01:00:00Z</time>
      </trkpt>
      <trkpt lat="63.407887" lon="10.47210983">
        <ele>142.648</ele>
        <time>1970-01-01T01:00:00Z</time>
      </trkpt>
      <trkpt lat="63.40787867" lon="10.47214117">
        <ele>142.648</ele>
        <time>1970-01-01T01:00:00Z</time>
      </trkpt>
      <trkpt lat="63.40787117" lon="10.47217567">
        <ele>142.648</ele>
        <time>1970-01-01T01:00:00Z</time>
      </trkpt>
      <trkpt lat="63.40786367" lon="10.47221133">
        <ele>142.801</ele>
        <time>1970-01-01T01:00:00Z</time>
      </trkpt>
      <trkpt lat="63.4078555" lon="10.47225">
        <ele>142.801</ele>
        <time>1970-01-01T01:00:00Z</time>
      </trkpt>
      <trkpt lat="63.4078475" lon="10.47228417">
        <ele>142.801</ele>
        <time>1970-01-01T01:00:00Z</time>
      </trkpt>
      <trkpt lat="63.407841" lon="10.47231517">
        <ele>142.801</ele>
        <time>1970-01-01T01:00:00Z</time>
      </trkpt>
      <trkpt lat="63.40783733" lon="10.4723485">
        <ele>142.801</ele>
        <time>1970-01-01T01:00:00Z</time>
      </trkpt>
      <trkpt lat="63.40783383" lon="10.4723865">
        <ele>142.801</ele>
        <time>1970-01-01T01:00:00Z</time>
      </trkpt>
      <trkpt lat="63.40783" lon="10.47242567">
        <ele>142.801</ele>
        <time>1970-01-01T01:00:00Z</time>
      </trkpt>
      <trkpt lat="63.407826" lon="10.4724595">
        <ele>142.801</ele>
        <time>1970-01-01T01:00:00Z</time>
      </trkpt>
      <trkpt lat="63.40782367" lon="10.472489">
        <ele>142.801</ele>
        <time>1970-01-01T01:00:00Z</time>
      </trkpt>
      <trkpt lat="63.407821" lon="10.472518">
        <ele>142.801</ele>
        <time>1970-01-01T01:00:00Z</time>
      </trkpt>
      <trkpt lat="63.407819" lon="10.47255017">
        <ele>142.801</ele>
        <time>1970-01-01T01:00:00Z</time>
      </trkpt>
      <trkpt lat="63.4078175" lon="10.47258517">
        <ele>142.801</ele>
        <time>1970-01-01T01:00:00Z</time>
      </trkpt>
      <trkpt lat="63.40781867" lon="10.47262033">
        <ele>142.801</ele>
        <time>1970-01-01T01:00:00Z</time>
      </trkpt>
      <trkpt lat="63.40782117" lon="10.4726545">
        <ele>142.801</ele>
        <time>1970-01-01T01:00:00Z</time>
      </trkpt>
      <trkpt lat="63.40782567" lon="10.472691">
        <ele>142.801</ele>
        <time>1970-01-01T01:00:00Z</time>
      </trkpt>
      <trkpt lat="63.40783033" lon="10.47272667">
        <ele>142.801</ele>
        <time>1970-01-01T01:00:00Z</time>
      </trkpt>
      <trkpt lat="63.4078345" lon="10.47276267">
        <ele>142.801</ele>
        <time>1970-01-01T01:00:00Z</time>
      </trkpt>
      <trkpt lat="63.40783667" lon="10.47279767">
        <ele>142.801</ele>
        <time>1970-01-01T01:00:00Z</time>
      </trkpt>
      <trkpt lat="63.407839" lon="10.47283167">
        <ele>142.953</ele>
        <time>1970-01-01T01:00:00Z</time>
      </trkpt>
      <trkpt lat="63.4078405" lon="10.47286783">
        <ele>142.953</ele>
        <time>1970-01-01T01:00:00Z</time>
      </trkpt>
      <trkpt lat="63.40784167" lon="10.47290383">
        <ele>142.953</ele>
        <time>1970-01-01T01:00:00Z</time>
      </trkpt>
      <trkpt lat="63.4078415" lon="10.47294133">
        <ele>142.953</ele>
        <time>1970-01-01T01:00:00Z</time>
      </trkpt>
      <trkpt lat="63.40784167" lon="10.47297583">
        <ele>142.953</ele>
        <time>1970-01-01T01:00:00Z</time>
      </trkpt>
      <trkpt lat="63.40784" lon="10.4730105">
        <ele>142.953</ele>
        <time>1970-01-01T01:00:00Z</time>
      </trkpt>
      <trkpt lat="63.40783733" lon="10.47304467">
        <ele>143.105</ele>
        <time>1970-01-01T01:00:00Z</time>
      </trkpt>
      <trkpt lat="63.40783433" lon="10.4730785">
        <ele>143.105</ele>
        <time>1970-01-01T01:00:00Z</time>
      </trkpt>
      <trkpt lat="63.4078335" lon="10.4731115">
        <ele>143.105</ele>
        <time>1970-01-01T01:00:00Z</time>
      </trkpt>
      <trkpt lat="63.40783517" lon="10.47314283">
        <ele>143.105</ele>
        <time>1970-01-01T01:00:00Z</time>
      </trkpt>
      <trkpt lat="63.40783833" lon="10.473176">
        <ele>143.258</ele>
        <time>1970-01-01T01:00:00Z</time>
      </trkpt>
      <trkpt lat="63.40784283" lon="10.473213">
        <ele>143.258</ele>
        <time>1970-01-01T01:00:00Z</time>
      </trkpt>
      <trkpt lat="63.40784733" lon="10.47325467">
        <ele>143.563</ele>
        <time>1970-01-01T01:00:00Z</time>
      </trkpt>
      <trkpt lat="63.40785217" lon="10.47329567">
        <ele>143.563</ele>
        <time>1970-01-01T01:00:00Z</time>
      </trkpt>
      <trkpt lat="63.40785533" lon="10.473334">
        <ele>143.715</ele>
        <time>1970-01-01T01:00:00Z</time>
      </trkpt>
      <trkpt lat="63.40785733" lon="10.47337367">
        <ele>143.715</ele>
        <time>1970-01-01T01:00:00Z</time>
      </trkpt>
      <trkpt lat="63.40785883" lon="10.47341167">
        <ele>143.715</ele>
        <time>1970-01-01T01:00:00Z</time>
      </trkpt>
      <trkpt lat="63.40785917" lon="10.47344867">
        <ele>143.715</ele>
        <time>1970-01-01T01:00:00Z</time>
      </trkpt>
      <trkpt lat="63.40785933" lon="10.47348133">
        <ele>143.867</ele>
        <time>1970-01-01T01:00:00Z</time>
      </trkpt>
      <trkpt lat="63.407859" lon="10.4735135">
        <ele>143.867</ele>
        <time>1970-01-01T01:00:00Z</time>
      </trkpt>
      <trkpt lat="63.40786017" lon="10.47354317">
        <ele>144.02</ele>
        <time>1970-01-01T01:00:00Z</time>
      </trkpt>
      <trkpt lat="63.407861" lon="10.47357283">
        <ele>144.02</ele>
        <time>1970-01-01T01:00:00Z</time>
      </trkpt>
      <trkpt lat="63.40786217" lon="10.47360233">
        <ele>144.172</ele>
        <time>1970-01-01T01:00:00Z</time>
      </trkpt>
      <trkpt lat="63.4078625" lon="10.47363783">
        <ele>144.172</ele>
        <time>1970-01-01T01:00:00Z</time>
      </trkpt>
      <trkpt lat="63.40786267" lon="10.47367783">
        <ele>144.325</ele>
        <time>1970-01-01T01:00:00Z</time>
      </trkpt>
      <trkpt lat="63.40786233" lon="10.47372167">
        <ele>144.325</ele>
        <time>1970-01-01T01:00:00Z</time>
      </trkpt>
      <trkpt lat="63.40786233" lon="10.47376367">
        <ele>144.477</ele>
        <time>1970-01-01T01:00:00Z</time>
      </trkpt>
      <trkpt lat="63.40786017" lon="10.473804">
        <ele>144.477</ele>
        <time>1970-01-01T01:00:00Z</time>
      </trkpt>
      <trkpt lat="63.40785583" lon="10.47384283">
        <ele>144.629</ele>
        <time>1970-01-01T01:00:00Z</time>
      </trkpt>
      <trkpt lat="63.40785167" lon="10.473885">
        <ele>144.629</ele>
        <time>1970-01-01T01:00:00Z</time>
      </trkpt>
      <trkpt lat="63.40784817" lon="10.47392467">
        <ele>144.782</ele>
        <time>1970-01-01T01:00:00Z</time>
      </trkpt>
      <trkpt lat="63.407849" lon="10.4739605">
        <ele>144.782</ele>
        <time>1970-01-01T01:00:00Z</time>
      </trkpt>
      <trkpt lat="63.40784933" lon="10.47399117">
        <ele>144.934</ele>
        <time>1970-01-01T01:00:00Z</time>
      </trkpt>
      <trkpt lat="63.40785067" lon="10.4740205">
        <ele>144.934</ele>
        <time>1970-01-01T01:00:00Z</time>
      </trkpt>
      <trkpt lat="63.40785067" lon="10.47405583">
        <ele>145.087</ele>
        <time>1970-01-01T01:00:00Z</time>
      </trkpt>
      <trkpt lat="63.40785" lon="10.474092">
        <ele>145.087</ele>
        <time>1970-01-01T01:00:00Z</time>
      </trkpt>
      <trkpt lat="63.40785067" lon="10.47412883">
        <ele>145.239</ele>
        <time>1970-01-01T01:00:00Z</time>
      </trkpt>
      <trkpt lat="63.40785067" lon="10.47416133">
        <ele>145.239</ele>
        <time>1970-01-01T01:00:00Z</time>
      </trkpt>
      <trkpt lat="63.40785067" lon="10.474192">
        <ele>145.239</ele>
        <time>1970-01-01T01:00:00Z</time>
      </trkpt>
      <trkpt lat="63.40784917" lon="10.474225">
        <ele>145.239</ele>
        <time>1970-01-01T01:00:00Z</time>
      </trkpt>
      <trkpt lat="63.407845" lon="10.474258">
        <ele>145.391</ele>
        <time>1970-01-01T01:00:00Z</time>
      </trkpt>
      <trkpt lat="63.40784183" lon="10.47429033">
        <ele>145.391</ele>
        <time>1970-01-01T01:00:00Z</time>
      </trkpt>
      <trkpt lat="63.4078375" lon="10.47432383">
        <ele>145.391</ele>
        <time>1970-01-01T01:00:00Z</time>
      </trkpt>
      <trkpt lat="63.40783317" lon="10.47435767">
        <ele>145.391</ele>
        <time>1970-01-01T01:00:00Z</time>
      </trkpt>
      <trkpt lat="63.40782733" lon="10.47438967">
        <ele>145.391</ele>
        <time>1970-01-01T01:00:00Z</time>
      </trkpt>
      <trkpt lat="63.40782283" lon="10.4744165">
        <ele>145.391</ele>
        <time>1970-01-01T01:00:00Z</time>
      </trkpt>
      <trkpt lat="63.40781833" lon="10.47444883">
        <ele>145.391</ele>
        <time>1970-01-01T01:00:00Z</time>
      </trkpt>
      <trkpt lat="63.4078155" lon="10.474485">
        <ele>145.391</ele>
        <time>1970-01-01T01:00:00Z</time>
      </trkpt>
      <trkpt lat="63.40781233" lon="10.474525">
        <ele>145.239</ele>
        <time>1970-01-01T01:00:00Z</time>
      </trkpt>
      <trkpt lat="63.40781083" lon="10.4745625">
        <ele>145.239</ele>
        <time>1970-01-01T01:00:00Z</time>
      </trkpt>
      <trkpt lat="63.4078095" lon="10.47460017">
        <ele>145.239</ele>
        <time>1970-01-01T01:00:00Z</time>
      </trkpt>
      <trkpt lat="63.40780917" lon="10.47463833">
        <ele>145.239</ele>
        <time>1970-01-01T01:00:00Z</time>
      </trkpt>
      <trkpt lat="63.40780833" lon="10.474675">
        <ele>145.239</ele>
        <time>1970-01-01T01:00:00Z</time>
      </trkpt>
      <trkpt lat="63.40780767" lon="10.47471117">
        <ele>145.239</ele>
        <time>1970-01-01T01:00:00Z</time>
      </trkpt>
      <trkpt lat="63.40780783" lon="10.47474683">
        <ele>145.087</ele>
        <time>1970-01-01T01:00:00Z</time>
      </trkpt>
      <trkpt lat="63.40780983" lon="10.47478167">
        <ele>145.087</ele>
        <time>1970-01-01T01:00:00Z</time>
      </trkpt>
      <trkpt lat="63.40781167" lon="10.47481417">
        <ele>145.087</ele>
        <time>1970-01-01T01:00:00Z</time>
      </trkpt>
      <trkpt lat="63.4078135" lon="10.47484533">
        <ele>145.087</ele>
        <time>1970-01-01T01:00:00Z</time>
      </trkpt>
      <trkpt lat="63.407814" lon="10.47487683">
        <ele>144.934</ele>
        <time>1970-01-01T01:00:00Z</time>
      </trkpt>
      <trkpt lat="63.40781433" lon="10.47491033">
        <ele>144.934</ele>
        <time>1970-01-01T01:00:00Z</time>
      </trkpt>
      <trkpt lat="63.407814" lon="10.47494433">
        <ele>144.934</ele>
        <time>1970-01-01T01:00:00Z</time>
      </trkpt>
      <trkpt lat="63.40781317" lon="10.47498083">
        <ele>144.934</ele>
        <time>1970-01-01T01:00:00Z</time>
      </trkpt>
      <trkpt lat="63.40781217" lon="10.47501817">
        <ele>144.934</ele>
        <time>1970-01-01T01:00:00Z</time>
      </trkpt>
      <trkpt lat="63.40781067" lon="10.47505617">
        <ele>144.934</ele>
        <time>1970-01-01T01:00:00Z</time>
      </trkpt>
      <trkpt lat="63.40780983" lon="10.47509383">
        <ele>144.934</ele>
        <time>1970-01-01T01:00:00Z</time>
      </trkpt>
      <trkpt lat="63.4078085" lon="10.47513117">
        <ele>144.934</ele>
        <time>1970-01-01T01:00:00Z</time>
      </trkpt>
      <trkpt lat="63.40780883" lon="10.47516967">
        <ele>144.934</ele>
        <time>1970-01-01T01:00:00Z</time>
      </trkpt>
      <trkpt lat="63.40780883" lon="10.47520583">
        <ele>144.934</ele>
        <time>1970-01-01T01:00:00Z</time>
      </trkpt>
      <trkpt lat="63.40780933" lon="10.47524217">
        <ele>144.934</ele>
        <time>1970-01-01T01:00:00Z</time>
      </trkpt>
      <trkpt lat="63.40780867" lon="10.47527817">
        <ele>144.934</ele>
        <time>1970-01-01T01:00:00Z</time>
      </trkpt>
      <trkpt lat="63.40780767" lon="10.47531583">
        <ele>144.934</ele>
        <time>1970-01-01T01:00:00Z</time>
      </trkpt>
      <trkpt lat="63.40780667" lon="10.4753535">
        <ele>144.934</ele>
        <time>1970-01-01T01:00:00Z</time>
      </trkpt>
      <trkpt lat="63.40780517" lon="10.47539083">
        <ele>144.934</ele>
        <time>1970-01-01T01:00:00Z</time>
      </trkpt>
      <trkpt lat="63.40780267" lon="10.475426">
        <ele>144.934</ele>
        <time>1970-01-01T01:00:00Z</time>
      </trkpt>
      <trkpt lat="63.40779667" lon="10.475461">
        <ele>144.934</ele>
        <time>1970-01-01T01:00:00Z</time>
      </trkpt>
      <trkpt lat="63.40779033" lon="10.47549417">
        <ele>144.934</ele>
        <time>1970-01-01T01:00:00Z</time>
      </trkpt>
      <trkpt lat="63.4077855" lon="10.47552967">
        <ele>144.934</ele>
        <time>1970-01-01T01:00:00Z</time>
      </trkpt>
      <trkpt lat="63.40778417" lon="10.4755635">
        <ele>144.934</ele>
        <time>1970-01-01T01:00:00Z</time>
      </trkpt>
      <trkpt lat="63.40778317" lon="10.47560117">
        <ele>144.934</ele>
        <time>1970-01-01T01:00:00Z</time>
      </trkpt>
      <trkpt lat="63.40778033" lon="10.47563617">
        <ele>144.934</ele>
        <time>1970-01-01T01:00:00Z</time>
      </trkpt>
      <trkpt lat="63.4077765" lon="10.475673">
        <ele>144.782</ele>
        <time>1970-01-01T01:00:00Z</time>
      </trkpt>
      <trkpt lat="63.40777183" lon="10.47570683">
        <ele>144.782</ele>
        <time>1970-01-01T01:00:00Z</time>
      </trkpt>
      <trkpt lat="63.407767" lon="10.47574017">
        <ele>144.782</ele>
        <time>1970-01-01T01:00:00Z</time>
      </trkpt>
      <trkpt lat="63.40776217" lon="10.4757715">
        <ele>144.782</ele>
        <time>1970-01-01T01:00:00Z</time>
      </trkpt>
      <trkpt lat="63.40775633" lon="10.47580117">
        <ele>144.629</ele>
        <time>1970-01-01T01:00:00Z</time>
      </trkpt>
      <trkpt lat="63.40775117" lon="10.47583033">
        <ele>144.629</ele>
        <time>1970-01-01T01:00:00Z</time>
      </trkpt>
      <trkpt lat="63.40774517" lon="10.4758595">
        <ele>144.629</ele>
        <time>1970-01-01T01:00:00Z</time>
      </trkpt>
      <trkpt lat="63.40773967" lon="10.47588867">
        <ele>144.629</ele>
        <time>1970-01-01T01:00:00Z</time>
      </trkpt>
      <trkpt lat="63.407734" lon="10.47591883">
        <ele>144.629</ele>
        <time>1970-01-01T01:00:00Z</time>
      </trkpt>
      <trkpt lat="63.40772867" lon="10.4759505">
        <ele>144.629</ele>
        <time>1970-01-01T01:00:00Z</time>
      </trkpt>
      <trkpt lat="63.40772367" lon="10.4759825">
        <ele>144.629</ele>
        <time>1970-01-01T01:00:00Z</time>
      </trkpt>
      <trkpt lat="63.4077195" lon="10.476016">
        <ele>144.629</ele>
        <time>1970-01-01T01:00:00Z</time>
      </trkpt>
      <trkpt lat="63.40771617" lon="10.4760515">
        <ele>144.629</ele>
        <time>1970-01-01T01:00:00Z</time>
      </trkpt>
      <trkpt lat="63.40771283" lon="10.4760895">
        <ele>144.629</ele>
        <time>1970-01-01T01:00:00Z</time>
      </trkpt>
      <trkpt lat="63.40770867" lon="10.47612717">
        <ele>144.629</ele>
        <time>1970-01-01T01:00:00Z</time>
      </trkpt>
      <trkpt lat="63.40770417" lon="10.47616383">
        <ele>144.629</ele>
        <time>1970-01-01T01:00:00Z</time>
      </trkpt>
      <trkpt lat="63.40770033" lon="10.476201">
        <ele>144.782</ele>
        <time>1970-01-01T01:00:00Z</time>
      </trkpt>
      <trkpt lat="63.40769767" lon="10.47623717">
        <ele>144.782</ele>
        <time>1970-01-01T01:00:00Z</time>
      </trkpt>
      <trkpt lat="63.4076955" lon="10.47627183">
        <ele>144.782</ele>
        <time>1970-01-01T01:00:00Z</time>
      </trkpt>
      <trkpt lat="63.40769317" lon="10.47630467">
        <ele>144.782</ele>
        <time>1970-01-01T01:00:00Z</time>
      </trkpt>
      <trkpt lat="63.40769017" lon="10.47633733">
        <ele>144.934</ele>
        <time>1970-01-01T01:00:00Z</time>
      </trkpt>
      <trkpt lat="63.407687" lon="10.4763695">
        <ele>144.934</ele>
        <time>1970-01-01T01:00:00Z</time>
      </trkpt>
      <trkpt lat="63.407684" lon="10.4764035">
        <ele>145.087</ele>
        <time>1970-01-01T01:00:00Z</time>
      </trkpt>
      <trkpt lat="63.40768117" lon="10.47643767">
        <ele>145.087</ele>
        <time>1970-01-01T01:00:00Z</time>
      </trkpt>
      <trkpt lat="63.407679" lon="10.476472">
        <ele>145.239</ele>
        <time>1970-01-01T01:00:00Z</time>
      </trkpt>
      <trkpt lat="63.40767667" lon="10.4765055">
        <ele>145.239</ele>
        <time>1970-01-01T01:00:00Z</time>
      </trkpt>
      <trkpt lat="63.407675" lon="10.47654083">
        <ele>145.391</ele>
        <time>1970-01-01T01:00:00Z</time>
      </trkpt>
      <trkpt lat="63.40767267" lon="10.47657783">
        <ele>145.391</ele>
        <time>1970-01-01T01:00:00Z</time>
      </trkpt>
      <trkpt lat="63.40767083" lon="10.47661533">
        <ele>145.544</ele>
        <time>1970-01-01T01:00:00Z</time>
      </trkpt>
      <trkpt lat="63.4076685" lon="10.4766525">
        <ele>145.544</ele>
        <time>1970-01-01T01:00:00Z</time>
      </trkpt>
      <trkpt lat="63.4076665" lon="10.47669">
        <ele>145.696</ele>
        <time>1970-01-01T01:00:00Z</time>
      </trkpt>
      <trkpt lat="63.40766433" lon="10.476726">
        <ele>145.696</ele>
        <time>1970-01-01T01:00:00Z</time>
      </trkpt>
      <trkpt lat="63.40766267" lon="10.47676233">
        <ele>145.849</ele>
        <time>1970-01-01T01:00:00Z</time>
      </trkpt>
      <trkpt lat="63.40766133" lon="10.47679667">
        <ele>145.849</ele>
        <time>1970-01-01T01:00:00Z</time>
      </trkpt>
      <trkpt lat="63.40766" lon="10.47683">
        <ele>146.001</ele>
        <time>1970-01-01T01:00:00Z</time>
      </trkpt>
      <trkpt lat="63.40765817" lon="10.47686067">
        <ele>146.001</ele>
        <time>1970-01-01T01:00:00Z</time>
      </trkpt>
      <trkpt lat="63.40765617" lon="10.47689183">
        <ele>146.001</ele>
        <time>1970-01-01T01:00:00Z</time>
      </trkpt>
      <trkpt lat="63.40765417" lon="10.47692717">
        <ele>146.001</ele>
        <time>1970-01-01T01:00:00Z</time>
      </trkpt>
      <trkpt lat="63.40765383" lon="10.476963">
        <ele>146.153</ele>
        <time>1970-01-01T01:00:00Z</time>
      </trkpt>
      <trkpt lat="63.40765267" lon="10.47700183">
        <ele>146.153</ele>
        <time>1970-01-01T01:00:00Z</time>
      </trkpt>
      <trkpt lat="63.40765167" lon="10.477037">
        <ele>146.306</ele>
        <time>1970-01-01T01:00:00Z</time>
      </trkpt>
      <trkpt lat="63.4076495" lon="10.4770745">
        <ele>146.306</ele>
        <time>1970-01-01T01:00:00Z</time>
      </trkpt>
      <trkpt lat="63.40764917" lon="10.47710767">
        <ele>146.306</ele>
        <time>1970-01-01T01:00:00Z</time>
      </trkpt>
      <trkpt lat="63.40764833" lon="10.47714317">
        <ele>146.306</ele>
        <time>1970-01-01T01:00:00Z</time>
      </trkpt>
      <trkpt lat="63.407647" lon="10.47717983">
        <ele>146.458</ele>
        <time>1970-01-01T01:00:00Z</time>
      </trkpt>
      <trkpt lat="63.407645" lon="10.47721767">
        <ele>146.458</ele>
        <time>1970-01-01T01:00:00Z</time>
      </trkpt>
      <trkpt lat="63.407644" lon="10.477254">
        <ele>146.458</ele>
        <time>1970-01-01T01:00:00Z</time>
      </trkpt>
      <trkpt lat="63.40764367" lon="10.477288">
        <ele>146.458</ele>
        <time>1970-01-01T01:00:00Z</time>
      </trkpt>
      <trkpt lat="63.4076435" lon="10.4773225">
        <ele>146.611</ele>
        <time>1970-01-01T01:00:00Z</time>
      </trkpt>
      <trkpt lat="63.407643" lon="10.477356">
        <ele>146.611</ele>
        <time>1970-01-01T01:00:00Z</time>
      </trkpt>
      <trkpt lat="63.40764183" lon="10.47739083">
        <ele>146.763</ele>
        <time>1970-01-01T01:00:00Z</time>
      </trkpt>
      <trkpt lat="63.40764067" lon="10.47742683">
        <ele>146.763</ele>
        <time>1970-01-01T01:00:00Z</time>
      </trkpt>
      <trkpt lat="63.40763933" lon="10.477464">
        <ele>146.915</ele>
        <time>1970-01-01T01:00:00Z</time>
      </trkpt>
      <trkpt lat="63.407638" lon="10.47750133">
        <ele>146.915</ele>
        <time>1970-01-01T01:00:00Z</time>
      </trkpt>
      <trkpt lat="63.40763633" lon="10.47753617">
        <ele>146.915</ele>
        <time>1970-01-01T01:00:00Z</time>
      </trkpt>
      <trkpt lat="63.407635" lon="10.47757117">
        <ele>146.915</ele>
        <time>1970-01-01T01:00:00Z</time>
      </trkpt>
      <trkpt lat="63.40763333" lon="10.47760517">
        <ele>147.068</ele>
        <time>1970-01-01T01:00:00Z</time>
      </trkpt>
      <trkpt lat="63.40763233" lon="10.4776395">
        <ele>147.068</ele>
        <time>1970-01-01T01:00:00Z</time>
      </trkpt>
      <trkpt lat="63.40763167" lon="10.47767133">
        <ele>147.22</ele>
        <time>1970-01-01T01:00:00Z</time>
      </trkpt>
      <trkpt lat="63.40763183" lon="10.477701">
        <ele>147.22</ele>
        <time>1970-01-01T01:00:00Z</time>
      </trkpt>
      <trkpt lat="63.40763283" lon="10.4777305">
        <ele>147.22</ele>
        <time>1970-01-01T01:00:00Z</time>
      </trkpt>
      <trkpt lat="63.40763333" lon="10.477762">
        <ele>147.22</ele>
        <time>1970-01-01T01:00:00Z</time>
      </trkpt>
      <trkpt lat="63.40763333" lon="10.47779583">
        <ele>147.373</ele>
        <time>1970-01-01T01:00:00Z</time>
      </trkpt>
      <trkpt lat="63.4076305" lon="10.47783217">
        <ele>147.373</ele>
        <time>1970-01-01T01:00:00Z</time>
      </trkpt>
      <trkpt lat="63.40762717" lon="10.47787033">
        <ele>147.373</ele>
        <time>1970-01-01T01:00:00Z</time>
      </trkpt>
      <trkpt lat="63.40762283" lon="10.47791133">
        <ele>147.373</ele>
        <time>1970-01-01T01:00:00Z</time>
      </trkpt>
      <trkpt lat="63.4076205" lon="10.47795217">
        <ele>147.525</ele>
        <time>1970-01-01T01:00:00Z</time>
      </trkpt>
      <trkpt lat="63.40761867" lon="10.47799133">
        <ele>147.525</ele>
        <time>1970-01-01T01:00:00Z</time>
      </trkpt>
      <trkpt lat="63.40761783" lon="10.47802767">
        <ele>147.525</ele>
        <time>1970-01-01T01:00:00Z</time>
      </trkpt>
      <trkpt lat="63.4076165" lon="10.47806283">
        <ele>147.525</ele>
        <time>1970-01-01T01:00:00Z</time>
      </trkpt>
      <trkpt lat="63.40761417" lon="10.4780985">
        <ele>147.677</ele>
        <time>1970-01-01T01:00:00Z</time>
      </trkpt>
      <trkpt lat="63.40761267" lon="10.4781335">
        <ele>147.677</ele>
        <time>1970-01-01T01:00:00Z</time>
      </trkpt>
      <trkpt lat="63.40761083" lon="10.47816917">
        <ele>147.677</ele>
        <time>1970-01-01T01:00:00Z</time>
      </trkpt>
      <trkpt lat="63.40760967" lon="10.47820433">
        <ele>147.677</ele>
        <time>1970-01-01T01:00:00Z</time>
      </trkpt>
      <trkpt lat="63.4076055" lon="10.4782385">
        <ele>147.83</ele>
        <time>1970-01-01T01:00:00Z</time>
      </trkpt>
      <trkpt lat="63.4076005" lon="10.478272">
        <ele>147.83</ele>
        <time>1970-01-01T01:00:00Z</time>
      </trkpt>
      <trkpt lat="63.40759367" lon="10.47830683">
        <ele>147.83</ele>
        <time>1970-01-01T01:00:00Z</time>
      </trkpt>
      <trkpt lat="63.407588" lon="10.47834067">
        <ele>147.83</ele>
        <time>1970-01-01T01:00:00Z</time>
      </trkpt>
      <trkpt lat="63.40758133" lon="10.47837167">
        <ele>147.982</ele>
        <time>1970-01-01T01:00:00Z</time>
      </trkpt>
      <trkpt lat="63.407574" lon="10.4784">
        <ele>147.982</ele>
        <time>1970-01-01T01:00:00Z</time>
      </trkpt>
      <trkpt lat="63.40756533" lon="10.47842717">
        <ele>147.982</ele>
        <time>1970-01-01T01:00:00Z</time>
      </trkpt>
      <trkpt lat="63.40755667" lon="10.47845383">
        <ele>147.982</ele>
        <time>1970-01-01T01:00:00Z</time>
      </trkpt>
      <trkpt lat="63.40754767" lon="10.478477">
        <ele>148.135</ele>
        <time>1970-01-01T01:00:00Z</time>
      </trkpt>
      <trkpt lat="63.40753867" lon="10.4784995">
        <ele>148.135</ele>
        <time>1970-01-01T01:00:00Z</time>
      </trkpt>
      <trkpt lat="63.4075285" lon="10.4785205">
        <ele>148.135</ele>
        <time>1970-01-01T01:00:00Z</time>
      </trkpt>
      <trkpt lat="63.407519" lon="10.4785415">
        <ele>148.135</ele>
        <time>1970-01-01T01:00:00Z</time>
      </trkpt>
      <trkpt lat="63.40750917" lon="10.47856133">
        <ele>148.287</ele>
        <time>1970-01-01T01:00:00Z</time>
      </trkpt>
      <trkpt lat="63.40750033" lon="10.47858183">
        <ele>148.287</ele>
        <time>1970-01-01T01:00:00Z</time>
      </trkpt>
      <trkpt lat="63.407489" lon="10.478601">
        <ele>148.439</ele>
        <time>1970-01-01T01:00:00Z</time>
      </trkpt>
      <trkpt lat="63.4074775" lon="10.47861817">
        <ele>148.439</ele>
        <time>1970-01-01T01:00:00Z</time>
      </trkpt>
      <trkpt lat="63.40746433" lon="10.47863467">
        <ele>148.439</ele>
        <time>1970-01-01T01:00:00Z</time>
      </trkpt>
      <trkpt lat="63.40745317" lon="10.47865417">
        <ele>148.439</ele>
        <time>1970-01-01T01:00:00Z</time>
      </trkpt>
      <trkpt lat="63.40744167" lon="10.47867783">
        <ele>148.592</ele>
        <time>1970-01-01T01:00:00Z</time>
      </trkpt>
      <trkpt lat="63.4074295" lon="10.47870167">
        <ele>148.592</ele>
        <time>1970-01-01T01:00:00Z</time>
      </trkpt>
      <trkpt lat="63.40741717" lon="10.47872333">
        <ele>148.744</ele>
        <time>1970-01-01T01:00:00Z</time>
      </trkpt>
      <trkpt lat="63.40740583" lon="10.478742">
        <ele>148.744</ele>
        <time>1970-01-01T01:00:00Z</time>
      </trkpt>
      <trkpt lat="63.40739517" lon="10.47876017">
        <ele>148.744</ele>
        <time>1970-01-01T01:00:00Z</time>
      </trkpt>
      <trkpt lat="63.40738533" lon="10.4787795">
        <ele>148.744</ele>
        <time>1970-01-01T01:00:00Z</time>
      </trkpt>
      <trkpt lat="63.40737367" lon="10.478802">
        <ele>148.897</ele>
        <time>1970-01-01T01:00:00Z</time>
      </trkpt>
      <trkpt lat="63.40736183" lon="10.47882683">
        <ele>148.897</ele>
        <time>1970-01-01T01:00:00Z</time>
      </trkpt>
      <trkpt lat="63.40735033" lon="10.47885317">
        <ele>149.049</ele>
        <time>1970-01-01T01:00:00Z</time>
      </trkpt>
      <trkpt lat="63.40733983" lon="10.478882">
        <ele>149.049</ele>
        <time>1970-01-01T01:00:00Z</time>
      </trkpt>
      <trkpt lat="63.40732983" lon="10.4789115">
        <ele>149.201</ele>
        <time>1970-01-01T01:00:00Z</time>
      </trkpt>
      <trkpt lat="63.4073175" lon="10.47894183">
        <ele>149.201</ele>
        <time>1970-01-01T01:00:00Z</time>
      </trkpt>
      <trkpt lat="63.40730417" lon="10.47896367">
        <ele>149.201</ele>
        <time>1970-01-01T01:00:00Z</time>
      </trkpt>
      <trkpt lat="63.40729083" lon="10.47898567">
        <ele>149.201</ele>
        <time>1970-01-01T01:00:00Z</time>
      </trkpt>
      <trkpt lat="63.40727833" lon="10.479002">
        <ele>149.354</ele>
        <time>1970-01-01T01:00:00Z</time>
      </trkpt>
      <trkpt lat="63.407266" lon="10.47902183">
        <ele>149.354</ele>
        <time>1970-01-01T01:00:00Z</time>
      </trkpt>
      <trkpt lat="63.40725317" lon="10.47904">
        <ele>149.506</ele>
        <time>1970-01-01T01:00:00Z</time>
      </trkpt>
      <trkpt lat="63.40724" lon="10.47906083">
        <ele>149.506</ele>
        <time>1970-01-01T01:00:00Z</time>
      </trkpt>
      <trkpt lat="63.4072275" lon="10.4790795">
        <ele>149.506</ele>
        <time>1970-01-01T01:00:00Z</time>
      </trkpt>
      <trkpt lat="63.40721433" lon="10.47909767">
        <ele>149.506</ele>
        <time>1970-01-01T01:00:00Z</time>
      </trkpt>
      <trkpt lat="63.4072005" lon="10.47911233">
        <ele>149.659</ele>
        <time>1970-01-01T01:00:00Z</time>
      </trkpt>
      <trkpt lat="63.4071855" lon="10.47912733">
        <ele>149.659</ele>
        <time>1970-01-01T01:00:00Z</time>
      </trkpt>
      <trkpt lat="63.40717033" lon="10.47914133">
        <ele>149.659</ele>
        <time>1970-01-01T01:00:00Z</time>
      </trkpt>
      <trkpt lat="63.4071545" lon="10.47915667">
        <ele>149.659</ele>
        <time>1970-01-01T01:00:00Z</time>
      </trkpt>
      <trkpt lat="63.40713833" lon="10.4791685">
        <ele>149.811</ele>
        <time>1970-01-01T01:00:00Z</time>
      </trkpt>
      <trkpt lat="63.40712117" lon="10.479177">
        <ele>149.811</ele>
        <time>1970-01-01T01:00:00Z</time>
      </trkpt>
      <trkpt lat="63.40710433" lon="10.47918533">
        <ele>149.963</ele>
        <time>1970-01-01T01:00:00Z</time>
      </trkpt>
      <trkpt lat="63.4070875" lon="10.479198">
        <ele>149.963</ele>
        <time>1970-01-01T01:00:00Z</time>
      </trkpt>
      <trkpt lat="63.40707" lon="10.4792125">
        <ele>149.963</ele>
        <time>1970-01-01T01:00:00Z</time>
      </trkpt>
      <trkpt lat="63.407053" lon="10.4792265">
        <ele>149.963</ele>
        <time>1970-01-01T01:00:00Z</time>
      </trkpt>
      <trkpt lat="63.407035" lon="10.4792345">
        <ele>150.116</ele>
        <time>1970-01-01T01:00:00Z</time>
      </trkpt>
      <trkpt lat="63.4070175" lon="10.47924183">
        <ele>150.116</ele>
        <time>1970-01-01T01:00:00Z</time>
      </trkpt>
      <trkpt lat="63.40699833" lon="10.4792485">
        <ele>150.268</ele>
        <time>1970-01-01T01:00:00Z</time>
      </trkpt>
      <trkpt lat="63.40697917" lon="10.4792595">
        <ele>150.268</ele>
        <time>1970-01-01T01:00:00Z</time>
      </trkpt>
      <trkpt lat="63.40696083" lon="10.47926833">
        <ele>150.268</ele>
        <time>1970-01-01T01:00:00Z</time>
      </trkpt>
      <trkpt lat="63.406944" lon="10.47927483">
        <ele>150.268</ele>
        <time>1970-01-01T01:00:00Z</time>
      </trkpt>
      <trkpt lat="63.4069285" lon="10.47928033">
        <ele>150.421</ele>
        <time>1970-01-01T01:00:00Z</time>
      </trkpt>
      <trkpt lat="63.40691283" lon="10.47928683">
        <ele>150.421</ele>
        <time>1970-01-01T01:00:00Z</time>
      </trkpt>
      <trkpt lat="63.4068975" lon="10.4792945">
        <ele>150.421</ele>
        <time>1970-01-01T01:00:00Z</time>
      </trkpt>
      <trkpt lat="63.406882" lon="10.47930217">
        <ele>150.421</ele>
        <time>1970-01-01T01:00:00Z</time>
      </trkpt>
      <trkpt lat="63.40686667" lon="10.47931">
        <ele>150.573</ele>
        <time>1970-01-01T01:00:00Z</time>
      </trkpt>
      <trkpt lat="63.40685067" lon="10.47931633">
        <ele>150.573</ele>
        <time>1970-01-01T01:00:00Z</time>
      </trkpt>
      <trkpt lat="63.40683517" lon="10.479321">
        <ele>150.573</ele>
        <time>1970-01-01T01:00:00Z</time>
      </trkpt>
      <trkpt lat="63.40681817" lon="10.4793235">
        <ele>150.573</ele>
        <time>1970-01-01T01:00:00Z</time>
      </trkpt>
      <trkpt lat="63.40680217" lon="10.47932633">
        <ele>150.573</ele>
        <time>1970-01-01T01:00:00Z</time>
      </trkpt>
      <trkpt lat="63.40678567" lon="10.479332">
        <ele>150.573</ele>
        <time>1970-01-01T01:00:00Z</time>
      </trkpt>
      <trkpt lat="63.4067705" lon="10.479336">
        <ele>150.573</ele>
        <time>1970-01-01T01:00:00Z</time>
      </trkpt>
      <trkpt lat="63.4067545" lon="10.47933967">
        <ele>150.573</ele>
        <time>1970-01-01T01:00:00Z</time>
      </trkpt>
      <trkpt lat="63.4067385" lon="10.4793385">
        <ele>150.573</ele>
        <time>1970-01-01T01:00:00Z</time>
      </trkpt>
      <trkpt lat="63.40672117" lon="10.47933633">
        <ele>150.573</ele>
        <time>1970-01-01T01:00:00Z</time>
      </trkpt>
      <trkpt lat="63.4067035" lon="10.47933233">
        <ele>150.573</ele>
        <time>1970-01-01T01:00:00Z</time>
      </trkpt>
      <trkpt lat="63.4066855" lon="10.47932917">
        <ele>150.573</ele>
        <time>1970-01-01T01:00:00Z</time>
      </trkpt>
      <trkpt lat="63.406669" lon="10.47932617">
        <ele>150.573</ele>
        <time>1970-01-01T01:00:00Z</time>
      </trkpt>
      <trkpt lat="63.40665317" lon="10.479325">
        <ele>150.573</ele>
        <time>1970-01-01T01:00:00Z</time>
      </trkpt>
      <trkpt lat="63.40663833" lon="10.47931917">
        <ele>150.573</ele>
        <time>1970-01-01T01:00:00Z</time>
      </trkpt>
      <trkpt lat="63.4066235" lon="10.4793145">
        <ele>150.573</ele>
        <time>1970-01-01T01:00:00Z</time>
      </trkpt>
      <trkpt lat="63.406608" lon="10.47930667">
        <ele>150.421</ele>
        <time>1970-01-01T01:00:00Z</time>
      </trkpt>
      <trkpt lat="63.4065915" lon="10.47930283">
        <ele>150.421</ele>
        <time>1970-01-01T01:00:00Z</time>
      </trkpt>
      <trkpt lat="63.40657467" lon="10.47929883">
        <ele>150.421</ele>
        <time>1970-01-01T01:00:00Z</time>
      </trkpt>
      <trkpt lat="63.40655867" lon="10.47929433">
        <ele>150.421</ele>
        <time>1970-01-01T01:00:00Z</time>
      </trkpt>
      <trkpt lat="63.40654417" lon="10.47929033">
        <ele>150.421</ele>
        <time>1970-01-01T01:00:00Z</time>
      </trkpt>
      <trkpt lat="63.40653067" lon="10.47928333">
        <ele>150.421</ele>
        <time>1970-01-01T01:00:00Z</time>
      </trkpt>
      <trkpt lat="63.406515" lon="10.47927933">
        <ele>150.421</ele>
        <time>1970-01-01T01:00:00Z</time>
      </trkpt>
      <trkpt lat="63.4064975" lon="10.47927167">
        <ele>150.421</ele>
        <time>1970-01-01T01:00:00Z</time>
      </trkpt>
      <trkpt lat="63.406479" lon="10.479269">
        <ele>150.268</ele>
        <time>1970-01-01T01:00:00Z</time>
      </trkpt>
      <trkpt lat="63.4064625" lon="10.47926533">
        <ele>150.268</ele>
        <time>1970-01-01T01:00:00Z</time>
      </trkpt>
      <trkpt lat="63.40644767" lon="10.47926483">
        <ele>150.268</ele>
        <time>1970-01-01T01:00:00Z</time>
      </trkpt>
      <trkpt lat="63.40643283" lon="10.47926283">
        <ele>150.268</ele>
        <time>1970-01-01T01:00:00Z</time>
      </trkpt>
      <trkpt lat="63.406418" lon="10.47926117">
        <ele>150.268</ele>
        <time>1970-01-01T01:00:00Z</time>
      </trkpt>
      <trkpt lat="63.4064015" lon="10.47925617">
        <ele>150.268</ele>
        <time>1970-01-01T01:00:00Z</time>
      </trkpt>
      <trkpt lat="63.40638417" lon="10.47924533">
        <ele>150.116</ele>
        <time>1970-01-01T01:00:00Z</time>
      </trkpt>
      <trkpt lat="63.40636617" lon="10.47923283">
        <ele>150.116</ele>
        <time>1970-01-01T01:00:00Z</time>
      </trkpt>
      <trkpt lat="63.4063485" lon="10.479221">
        <ele>149.963</ele>
        <time>1970-01-01T01:00:00Z</time>
      </trkpt>
      <trkpt lat="63.4063325" lon="10.4792145">
        <ele>149.963</ele>
        <time>1970-01-01T01:00:00Z</time>
      </trkpt>
      <trkpt lat="63.406316" lon="10.47920717">
        <ele>149.963</ele>
        <time>1970-01-01T01:00:00Z</time>
      </trkpt>
      <trkpt lat="63.4063015" lon="10.4792">
        <ele>149.963</ele>
        <time>1970-01-01T01:00:00Z</time>
      </trkpt>
      <trkpt lat="63.406285" lon="10.47919217">
        <ele>149.811</ele>
        <time>1970-01-01T01:00:00Z</time>
      </trkpt>
      <trkpt lat="63.40627017" lon="10.47918667">
        <ele>149.811</ele>
        <time>1970-01-01T01:00:00Z</time>
      </trkpt>
      <trkpt lat="63.406254" lon="10.47918183">
        <ele>149.811</ele>
        <time>1970-01-01T01:00:00Z</time>
      </trkpt>
      <trkpt lat="63.40623983" lon="10.479177">
        <ele>149.811</ele>
        <time>1970-01-01T01:00:00Z</time>
      </trkpt>
      <trkpt lat="63.40622483" lon="10.47917">
        <ele>149.659</ele>
        <time>1970-01-01T01:00:00Z</time>
      </trkpt>
      <trkpt lat="63.40621033" lon="10.47916217">
        <ele>149.659</ele>
        <time>1970-01-01T01:00:00Z</time>
      </trkpt>
      <trkpt lat="63.406195" lon="10.4791535">
        <ele>149.659</ele>
        <time>1970-01-01T01:00:00Z</time>
      </trkpt>
      <trkpt lat="63.40617967" lon="10.47914467">
        <ele>149.659</ele>
        <time>1970-01-01T01:00:00Z</time>
      </trkpt>
      <trkpt lat="63.406165" lon="10.47913783">
        <ele>149.659</ele>
        <time>1970-01-01T01:00:00Z</time>
      </trkpt>
      <trkpt lat="63.406152" lon="10.47913133">
        <ele>149.659</ele>
        <time>1970-01-01T01:00:00Z</time>
      </trkpt>
      <trkpt lat="63.40613867" lon="10.47912567">
        <ele>149.506</ele>
        <time>1970-01-01T01:00:00Z</time>
      </trkpt>
      <trkpt lat="63.40612467" lon="10.4791195">
        <ele>149.506</ele>
        <time>1970-01-01T01:00:00Z</time>
      </trkpt>
      <trkpt lat="63.40610933" lon="10.47911133">
        <ele>149.506</ele>
        <time>1970-01-01T01:00:00Z</time>
      </trkpt>
      <trkpt lat="63.406094" lon="10.47910183">
        <ele>149.506</ele>
        <time>1970-01-01T01:00:00Z</time>
      </trkpt>
      <trkpt lat="63.4060785" lon="10.47908917">
        <ele>149.506</ele>
        <time>1970-01-01T01:00:00Z</time>
      </trkpt>
      <trkpt lat="63.40606267" lon="10.47907533">
        <ele>149.506</ele>
        <time>1970-01-01T01:00:00Z</time>
      </trkpt>
      <trkpt lat="63.4060465" lon="10.47906433">
        <ele>149.354</ele>
        <time>1970-01-01T01:00:00Z</time>
      </trkpt>
      <trkpt lat="63.406031" lon="10.47905683">
        <ele>149.354</ele>
        <time>1970-01-01T01:00:00Z</time>
      </trkpt>
      <trkpt lat="63.40601633" lon="10.47905283">
        <ele>149.354</ele>
        <time>1970-01-01T01:00:00Z</time>
      </trkpt>
      <trkpt lat="63.40600067" lon="10.47904617">
        <ele>149.354</ele>
        <time>1970-01-01T01:00:00Z</time>
      </trkpt>
      <trkpt lat="63.40598467" lon="10.47903883">
        <ele>149.201</ele>
        <time>1970-01-01T01:00:00Z</time>
      </trkpt>
      <trkpt lat="63.40596767" lon="10.4790305">
        <ele>149.201</ele>
        <time>1970-01-01T01:00:00Z</time>
      </trkpt>
      <trkpt lat="63.40595283" lon="10.47902317">
        <ele>149.201</ele>
        <time>1970-01-01T01:00:00Z</time>
      </trkpt>
      <trkpt lat="63.40593817" lon="10.47901483">
        <ele>149.201</ele>
        <time>1970-01-01T01:00:00Z</time>
      </trkpt>
      <trkpt lat="63.40592383" lon="10.479008">
        <ele>149.049</ele>
        <time>1970-01-01T01:00:00Z</time>
      </trkpt>
      <trkpt lat="63.40590883" lon="10.47900167">
        <ele>149.049</ele>
        <time>1970-01-01T01:00:00Z</time>
      </trkpt>
      <trkpt lat="63.40589217" lon="10.478996">
        <ele>149.049</ele>
        <time>1970-01-01T01:00:00Z</time>
      </trkpt>
      <trkpt lat="63.40587367" lon="10.47898783">
        <ele>149.049</ele>
        <time>1970-01-01T01:00:00Z</time>
      </trkpt>
      <trkpt lat="63.40585517" lon="10.47897767">
        <ele>148.897</ele>
        <time>1970-01-01T01:00:00Z</time>
      </trkpt>
      <trkpt lat="63.40583833" lon="10.4789675">
        <ele>148.897</ele>
        <time>1970-01-01T01:00:00Z</time>
      </trkpt>
      <trkpt lat="63.40582333" lon="10.47895917">
        <ele>148.744</ele>
        <time>1970-01-01T01:00:00Z</time>
      </trkpt>
      <trkpt lat="63.4058095" lon="10.47895183">
        <ele>148.744</ele>
        <time>1970-01-01T01:00:00Z</time>
      </trkpt>
      <trkpt lat="63.40579617" lon="10.478943">
        <ele>148.592</ele>
        <time>1970-01-01T01:00:00Z</time>
      </trkpt>
      <trkpt lat="63.40578267" lon="10.478932">
        <ele>148.592</ele>
        <time>1970-01-01T01:00:00Z</time>
      </trkpt>
      <trkpt lat="63.4057685" lon="10.47892017">
        <ele>148.439</ele>
        <time>1970-01-01T01:00:00Z</time>
      </trkpt>
      <trkpt lat="63.40575333" lon="10.478911">
        <ele>148.439</ele>
        <time>1970-01-01T01:00:00Z</time>
      </trkpt>
      <trkpt lat="63.40573833" lon="10.47890317">
        <ele>148.439</ele>
        <time>1970-01-01T01:00:00Z</time>
      </trkpt>
      <trkpt lat="63.40572367" lon="10.478895">
        <ele>148.439</ele>
        <time>1970-01-01T01:00:00Z</time>
      </trkpt>
      <trkpt lat="63.40571" lon="10.4788855">
        <ele>148.287</ele>
        <time>1970-01-01T01:00:00Z</time>
      </trkpt>
      <trkpt lat="63.4056965" lon="10.47887717">
        <ele>148.287</ele>
        <time>1970-01-01T01:00:00Z</time>
      </trkpt>
      <trkpt lat="63.405682" lon="10.4788695">
        <ele>148.135</ele>
        <time>1970-01-01T01:00:00Z</time>
      </trkpt>
      <trkpt lat="63.40566733" lon="10.478861">
        <ele>148.135</ele>
        <time>1970-01-01T01:00:00Z</time>
      </trkpt>
      <trkpt lat="63.405652" lon="10.4788495">
        <ele>147.982</ele>
        <time>1970-01-01T01:00:00Z</time>
      </trkpt>
      <trkpt lat="63.40563783" lon="10.4788365">
        <ele>147.982</ele>
        <time>1970-01-01T01:00:00Z</time>
      </trkpt>
      <trkpt lat="63.40562517" lon="10.47882717">
        <ele>147.83</ele>
        <time>1970-01-01T01:00:00Z</time>
      </trkpt>
      <trkpt lat="63.40561117" lon="10.47881933">
        <ele>147.83</ele>
        <time>1970-01-01T01:00:00Z</time>
      </trkpt>
      <trkpt lat="63.40559667" lon="10.47881217">
        <ele>147.677</ele>
        <time>1970-01-01T01:00:00Z</time>
      </trkpt>
      <trkpt lat="63.40558017" lon="10.4788035">
        <ele>147.677</ele>
        <time>1970-01-01T01:00:00Z</time>
      </trkpt>
      <trkpt lat="63.4055645" lon="10.478795">
        <ele>147.525</ele>
        <time>1970-01-01T01:00:00Z</time>
      </trkpt>
      <trkpt lat="63.4055485" lon="10.47878933">
        <ele>147.525</ele>
        <time>1970-01-01T01:00:00Z</time>
      </trkpt>
      <trkpt lat="63.40553283" lon="10.4787835">
        <ele>147.373</ele>
        <time>1970-01-01T01:00:00Z</time>
      </trkpt>
      <trkpt lat="63.40551767" lon="10.47877883">
        <ele>147.373</ele>
        <time>1970-01-01T01:00:00Z</time>
      </trkpt>
      <trkpt lat="63.4055035" lon="10.47877367">
        <ele>147.22</ele>
        <time>1970-01-01T01:00:00Z</time>
      </trkpt>
      <trkpt lat="63.4054895" lon="10.47876983">
        <ele>147.22</ele>
        <time>1970-01-01T01:00:00Z</time>
      </trkpt>
      <trkpt lat="63.40547467" lon="10.478766">
        <ele>147.068</ele>
        <time>1970-01-01T01:00:00Z</time>
      </trkpt>
      <trkpt lat="63.40545867" lon="10.47876183">
        <ele>147.068</ele>
        <time>1970-01-01T01:00:00Z</time>
      </trkpt>
      <trkpt lat="63.405444" lon="10.47875717">
        <ele>146.915</ele>
        <time>1970-01-01T01:00:00Z</time>
      </trkpt>
      <trkpt lat="63.40543033" lon="10.47874967">
        <ele>146.915</ele>
        <time>1970-01-01T01:00:00Z</time>
      </trkpt>
      <trkpt lat="63.40541717" lon="10.47874083">
        <ele>146.763</ele>
        <time>1970-01-01T01:00:00Z</time>
      </trkpt>
      <trkpt lat="63.40540217" lon="10.47873">
        <ele>146.763</ele>
        <time>1970-01-01T01:00:00Z</time>
      </trkpt>
      <trkpt lat="63.40538567" lon="10.47872">
        <ele>146.611</ele>
        <time>1970-01-01T01:00:00Z</time>
      </trkpt>
      <trkpt lat="63.40536833" lon="10.4787095">
        <ele>146.611</ele>
        <time>1970-01-01T01:00:00Z</time>
      </trkpt>
      <trkpt lat="63.40535167" lon="10.47869867">
        <ele>146.458</ele>
        <time>1970-01-01T01:00:00Z</time>
      </trkpt>
      <trkpt lat="63.40533433" lon="10.47868817">
        <ele>146.458</ele>
        <time>1970-01-01T01:00:00Z</time>
      </trkpt>
      <trkpt lat="63.40531733" lon="10.47868183">
        <ele>146.458</ele>
        <time>1970-01-01T01:00:00Z</time>
      </trkpt>
      <trkpt lat="63.40530133" lon="10.47867667">
        <ele>146.458</ele>
        <time>1970-01-01T01:00:00Z</time>
      </trkpt>
      <trkpt lat="63.40528833" lon="10.478673">
        <ele>146.306</ele>
        <time>1970-01-01T01:00:00Z</time>
      </trkpt>
      <trkpt lat="63.4052765" lon="10.47866833">
        <ele>146.306</ele>
        <time>1970-01-01T01:00:00Z</time>
      </trkpt>
      <trkpt lat="63.40526367" lon="10.47866383">
        <ele>146.153</ele>
        <time>1970-01-01T01:00:00Z</time>
      </trkpt>
      <trkpt lat="63.40524983" lon="10.47865933">
        <ele>146.153</ele>
        <time>1970-01-01T01:00:00Z</time>
      </trkpt>
      <trkpt lat="63.4052345" lon="10.47865317">
        <ele>146.001</ele>
        <time>1970-01-01T01:00:00Z</time>
      </trkpt>
      <trkpt lat="63.40521933" lon="10.47864617">
        <ele>146.001</ele>
        <time>1970-01-01T01:00:00Z</time>
      </trkpt>
      <trkpt lat="63.40520367" lon="10.47863883">
        <ele>145.849</ele>
        <time>1970-01-01T01:00:00Z</time>
      </trkpt>
      <trkpt lat="63.40518883" lon="10.47863183">
        <ele>145.849</ele>
        <time>1970-01-01T01:00:00Z</time>
      </trkpt>
      <trkpt lat="63.4051745" lon="10.4786235">
        <ele>145.696</ele>
        <time>1970-01-01T01:00:00Z</time>
      </trkpt>
      <trkpt lat="63.40516067" lon="10.47861367">
        <ele>145.696</ele>
        <time>1970-01-01T01:00:00Z</time>
      </trkpt>
      <trkpt lat="63.40514783" lon="10.47860217">
        <ele>145.544</ele>
        <time>1970-01-01T01:00:00Z</time>
      </trkpt>
      <trkpt lat="63.4051335" lon="10.47859183">
        <ele>145.544</ele>
        <time>1970-01-01T01:00:00Z</time>
      </trkpt>
      <trkpt lat="63.40511867" lon="10.4785815">
        <ele>145.391</ele>
        <time>1970-01-01T01:00:00Z</time>
      </trkpt>
      <trkpt lat="63.40510417" lon="10.47856667">
        <ele>145.391</ele>
        <time>1970-01-01T01:00:00Z</time>
      </trkpt>
      <trkpt lat="63.40509067" lon="10.47854933">
        <ele>145.239</ele>
        <time>1970-01-01T01:00:00Z</time>
      </trkpt>
      <trkpt lat="63.4050765" lon="10.47853083">
        <ele>145.239</ele>
        <time>1970-01-01T01:00:00Z</time>
      </trkpt>
      <trkpt lat="63.4050605" lon="10.47851317">
        <ele>145.087</ele>
        <time>1970-01-01T01:00:00Z</time>
      </trkpt>
      <trkpt lat="63.405044" lon="10.47849467">
        <ele>145.087</ele>
        <time>1970-01-01T01:00:00Z</time>
      </trkpt>
      <trkpt lat="63.40502867" lon="10.47847667">
        <ele>144.782</ele>
        <time>1970-01-01T01:00:00Z</time>
      </trkpt>
      <trkpt lat="63.4050145" lon="10.47845983">
        <ele>144.782</ele>
        <time>1970-01-01T01:00:00Z</time>
      </trkpt>
      <trkpt lat="63.4049995" lon="10.47844583">
        <ele>144.629</ele>
        <time>1970-01-01T01:00:00Z</time>
      </trkpt>
      <trkpt lat="63.40498467" lon="10.47843383">
        <ele>144.629</ele>
        <time>1970-01-01T01:00:00Z</time>
      </trkpt>
      <trkpt lat="63.40496917" lon="10.47842383">
        <ele>144.477</ele>
        <time>1970-01-01T01:00:00Z</time>
      </trkpt>
      <trkpt lat="63.40495417" lon="10.47841367">
        <ele>144.477</ele>
        <time>1970-01-01T01:00:00Z</time>
      </trkpt>
      <trkpt lat="63.40493917" lon="10.47840267">
        <ele>144.325</ele>
        <time>1970-01-01T01:00:00Z</time>
      </trkpt>
      <trkpt lat="63.40492417" lon="10.47839067">
        <ele>144.325</ele>
        <time>1970-01-01T01:00:00Z</time>
      </trkpt>
      <trkpt lat="63.40490983" lon="10.47837833">
        <ele>144.172</ele>
        <time>1970-01-01T01:00:00Z</time>
      </trkpt>
      <trkpt lat="63.40489617" lon="10.47836433">
        <ele>144.172</ele>
        <time>1970-01-01T01:00:00Z</time>
      </trkpt>
      <trkpt lat="63.4048835" lon="10.4783495">
        <ele>144.02</ele>
        <time>1970-01-01T01:00:00Z</time>
      </trkpt>
      <trkpt lat="63.40487067" lon="10.478334">
        <ele>144.02</ele>
        <time>1970-01-01T01:00:00Z</time>
      </trkpt>
      <trkpt lat="63.40485717" lon="10.47831783">
        <ele>143.867</ele>
        <time>1970-01-01T01:00:00Z</time>
      </trkpt>
      <trkpt lat="63.40484133" lon="10.4783035">
        <ele>143.867</ele>
        <time>1970-01-01T01:00:00Z</time>
      </trkpt>
      <trkpt lat="63.40482433" lon="10.478289">
        <ele>143.715</ele>
        <time>1970-01-01T01:00:00Z</time>
      </trkpt>
      <trkpt lat="63.40480667" lon="10.47827483">
        <ele>143.715</ele>
        <time>1970-01-01T01:00:00Z</time>
      </trkpt>
      <trkpt lat="63.4047905" lon="10.4782605">
        <ele>143.563</ele>
        <time>1970-01-01T01:00:00Z</time>
      </trkpt>
      <trkpt lat="63.40477483" lon="10.47824433">
        <ele>143.563</ele>
        <time>1970-01-01T01:00:00Z</time>
      </trkpt>
      <trkpt lat="63.40475967" lon="10.47822933">
        <ele>143.41</ele>
        <time>1970-01-01T01:00:00Z</time>
      </trkpt>
      <trkpt lat="63.40474483" lon="10.47821583">
        <ele>143.41</ele>
        <time>1970-01-01T01:00:00Z</time>
      </trkpt>
      <trkpt lat="63.40473017" lon="10.47820617">
        <ele>143.41</ele>
        <time>1970-01-01T01:00:00Z</time>
      </trkpt>
      <trkpt lat="63.4047155" lon="10.47819833">
        <ele>143.41</ele>
        <time>1970-01-01T01:00:00Z</time>
      </trkpt>
      <trkpt lat="63.404701" lon="10.47819317">
        <ele>143.258</ele>
        <time>1970-01-01T01:00:00Z</time>
      </trkpt>
      <trkpt lat="63.4046865" lon="10.47818933">
        <ele>143.258</ele>
        <time>1970-01-01T01:00:00Z</time>
      </trkpt>
      <trkpt lat="63.40467217" lon="10.47818717">
        <ele>143.105</ele>
        <time>1970-01-01T01:00:00Z</time>
      </trkpt>
      <trkpt lat="63.4046575" lon="10.478185">
        <ele>143.105</ele>
        <time>1970-01-01T01:00:00Z</time>
      </trkpt>
      <trkpt lat="63.40464317" lon="10.47818683">
        <ele>143.105</ele>
        <time>1970-01-01T01:00:00Z</time>
      </trkpt>
      <trkpt lat="63.40462867" lon="10.47819167">
        <ele>143.105</ele>
        <time>1970-01-01T01:00:00Z</time>
      </trkpt>
      <trkpt lat="63.40461367" lon="10.47819683">
        <ele>142.953</ele>
        <time>1970-01-01T01:00:00Z</time>
      </trkpt>
      <trkpt lat="63.40459933" lon="10.47819833">
        <ele>142.953</ele>
        <time>1970-01-01T01:00:00Z</time>
      </trkpt>
      <trkpt lat="63.40458517" lon="10.47820067">
        <ele>142.953</ele>
        <time>1970-01-01T01:00:00Z</time>
      </trkpt>
      <trkpt lat="63.40457217" lon="10.47820283">
        <ele>142.953</ele>
        <time>1970-01-01T01:00:00Z</time>
      </trkpt>
      <trkpt lat="63.404558" lon="10.47820283">
        <ele>142.801</ele>
        <time>1970-01-01T01:00:00Z</time>
      </trkpt>
      <trkpt lat="63.40454317" lon="10.47820283">
        <ele>142.801</ele>
        <time>1970-01-01T01:00:00Z</time>
      </trkpt>
      <trkpt lat="63.40452883" lon="10.47820383">
        <ele>142.801</ele>
        <time>1970-01-01T01:00:00Z</time>
      </trkpt>
      <trkpt lat="63.40451433" lon="10.478208">
        <ele>142.801</ele>
        <time>1970-01-01T01:00:00Z</time>
      </trkpt>
      <trkpt lat="63.40450017" lon="10.47821183">
        <ele>142.648</ele>
        <time>1970-01-01T01:00:00Z</time>
      </trkpt>
      <trkpt lat="63.40448483" lon="10.47821617">
        <ele>142.648</ele>
        <time>1970-01-01T01:00:00Z</time>
      </trkpt>
      <trkpt lat="63.40446933" lon="10.47822217">
        <ele>142.648</ele>
        <time>1970-01-01T01:00:00Z</time>
      </trkpt>
      <trkpt lat="63.40445433" lon="10.47822733">
        <ele>142.648</ele>
        <time>1970-01-01T01:00:00Z</time>
      </trkpt>
      <trkpt lat="63.40443867" lon="10.47823467">
        <ele>142.496</ele>
        <time>1970-01-01T01:00:00Z</time>
      </trkpt>
      <trkpt lat="63.4044235" lon="10.478242">
        <ele>142.496</ele>
        <time>1970-01-01T01:00:00Z</time>
      </trkpt>
      <trkpt lat="63.40440783" lon="10.47824967">
        <ele>142.496</ele>
        <time>1970-01-01T01:00:00Z</time>
      </trkpt>
      <trkpt lat="63.40439233" lon="10.47825683">
        <ele>142.496</ele>
        <time>1970-01-01T01:00:00Z</time>
      </trkpt>
      <trkpt lat="63.4043775" lon="10.478265">
        <ele>142.496</ele>
        <time>1970-01-01T01:00:00Z</time>
      </trkpt>
      <trkpt lat="63.40436333" lon="10.4782735">
        <ele>142.496</ele>
        <time>1970-01-01T01:00:00Z</time>
      </trkpt>
      <trkpt lat="63.4043495" lon="10.478281">
        <ele>142.496</ele>
        <time>1970-01-01T01:00:00Z</time>
      </trkpt>
      <trkpt lat="63.40433533" lon="10.478289">
        <ele>142.496</ele>
        <time>1970-01-01T01:00:00Z</time>
      </trkpt>
      <trkpt lat="63.40432133" lon="10.47829617">
        <ele>142.343</ele>
        <time>1970-01-01T01:00:00Z</time>
      </trkpt>
      <trkpt lat="63.4043075" lon="10.47830333">
        <ele>142.343</ele>
        <time>1970-01-01T01:00:00Z</time>
      </trkpt>
      <trkpt lat="63.40429417" lon="10.47830917">
        <ele>142.343</ele>
        <time>1970-01-01T01:00:00Z</time>
      </trkpt>
      <trkpt lat="63.40428033" lon="10.4783145">
        <ele>142.343</ele>
        <time>1970-01-01T01:00:00Z</time>
      </trkpt>
      <trkpt lat="63.404266" lon="10.478319">
        <ele>142.343</ele>
        <time>1970-01-01T01:00:00Z</time>
      </trkpt>
      <trkpt lat="63.404251" lon="10.47832333">
        <ele>142.343</ele>
        <time>1970-01-01T01:00:00Z</time>
      </trkpt>
      <trkpt lat="63.40423617" lon="10.47832867">
        <ele>142.191</ele>
        <time>1970-01-01T01:00:00Z</time>
      </trkpt>
      <trkpt lat="63.40422133" lon="10.478334">
        <ele>142.191</ele>
        <time>1970-01-01T01:00:00Z</time>
      </trkpt>
      <trkpt lat="63.404207" lon="10.47834017">
        <ele>142.191</ele>
        <time>1970-01-01T01:00:00Z</time>
      </trkpt>
      <trkpt lat="63.40419217" lon="10.47834583">
        <ele>142.191</ele>
        <time>1970-01-01T01:00:00Z</time>
      </trkpt>
      <trkpt lat="63.40417767" lon="10.47835367">
        <ele>142.191</ele>
        <time>1970-01-01T01:00:00Z</time>
      </trkpt>
      <trkpt lat="63.40416417" lon="10.4783635">
        <ele>142.191</ele>
        <time>1970-01-01T01:00:00Z</time>
      </trkpt>
      <trkpt lat="63.40415133" lon="10.47837717">
        <ele>142.191</ele>
        <time>1970-01-01T01:00:00Z</time>
      </trkpt>
      <trkpt lat="63.4041385" lon="10.47839333">
        <ele>142.191</ele>
        <time>1970-01-01T01:00:00Z</time>
      </trkpt>
      <trkpt lat="63.40412533" lon="10.47841133">
        <ele>142.191</ele>
        <time>1970-01-01T01:00:00Z</time>
      </trkpt>
      <trkpt lat="63.4041125" lon="10.47843017">
        <ele>142.191</ele>
        <time>1970-01-01T01:00:00Z</time>
      </trkpt>
      <trkpt lat="63.40410083" lon="10.478449">
        <ele>142.191</ele>
        <time>1970-01-01T01:00:00Z</time>
      </trkpt>
      <trkpt lat="63.40408983" lon="10.4784695">
        <ele>142.191</ele>
        <time>1970-01-01T01:00:00Z</time>
      </trkpt>
      <trkpt lat="63.40408133" lon="10.4784915">
        <ele>142.191</ele>
        <time>1970-01-01T01:00:00Z</time>
      </trkpt>
      <trkpt lat="63.40407433" lon="10.478519">
        <ele>142.191</ele>
        <time>1970-01-01T01:00:00Z</time>
      </trkpt>
      <trkpt lat="63.40406867" lon="10.4785505">
        <ele>142.191</ele>
        <time>1970-01-01T01:00:00Z</time>
      </trkpt>
      <trkpt lat="63.40406417" lon="10.47858517">
        <ele>142.191</ele>
        <time>1970-01-01T01:00:00Z</time>
      </trkpt>
      <trkpt lat="63.40406017" lon="10.47861983">
        <ele>142.343</ele>
        <time>1970-01-01T01:00:00Z</time>
      </trkpt>
      <trkpt lat="63.4040575" lon="10.47865267">
        <ele>142.343</ele>
        <time>1970-01-01T01:00:00Z</time>
      </trkpt>
      <trkpt lat="63.40405583" lon="10.47868483">
        <ele>142.343</ele>
        <time>1970-01-01T01:00:00Z</time>
      </trkpt>
      <trkpt lat="63.40405617" lon="10.47871767">
        <ele>142.343</ele>
        <time>1970-01-01T01:00:00Z</time>
      </trkpt>
      <trkpt lat="63.40405817" lon="10.47875017">
        <ele>142.343</ele>
        <time>1970-01-01T01:00:00Z</time>
      </trkpt>
      <trkpt lat="63.40406117" lon="10.478782">
        <ele>142.343</ele>
        <time>1970-01-01T01:00:00Z</time>
      </trkpt>
      <trkpt lat="63.40406533" lon="10.47880967">
        <ele>142.343</ele>
        <time>1970-01-01T01:00:00Z</time>
      </trkpt>
      <trkpt lat="63.40407033" lon="10.4788375">
        <ele>142.343</ele>
        <time>1970-01-01T01:00:00Z</time>
      </trkpt>
      <trkpt lat="63.404076" lon="10.47886333">
        <ele>142.343</ele>
        <time>1970-01-01T01:00:00Z</time>
      </trkpt>
      <trkpt lat="63.40408283" lon="10.47888933">
        <ele>142.343</ele>
        <time>1970-01-01T01:00:00Z</time>
      </trkpt>
      <trkpt lat="63.40408967" lon="10.47891267">
        <ele>142.496</ele>
        <time>1970-01-01T01:00:00Z</time>
      </trkpt>
      <trkpt lat="63.4040995" lon="10.478936">
        <ele>142.496</ele>
        <time>1970-01-01T01:00:00Z</time>
      </trkpt>
      <trkpt lat="63.40410933" lon="10.4789565">
        <ele>142.496</ele>
        <time>1970-01-01T01:00:00Z</time>
      </trkpt>
      <trkpt lat="63.404122" lon="10.47897367">
        <ele>142.496</ele>
        <time>1970-01-01T01:00:00Z</time>
      </trkpt>
      <trkpt lat="63.40413433" lon="10.47898767">
        <ele>142.648</ele>
        <time>1970-01-01T01:00:00Z</time>
      </trkpt>
      <trkpt lat="63.40414583" lon="10.47900183">
        <ele>142.648</ele>
        <time>1970-01-01T01:00:00Z</time>
      </trkpt>
      <trkpt lat="63.404157" lon="10.47901883">
        <ele>142.648</ele>
        <time>1970-01-01T01:00:00Z</time>
      </trkpt>
      <trkpt lat="63.40416783" lon="10.47904017">
        <ele>142.648</ele>
        <time>1970-01-01T01:00:00Z</time>
      </trkpt>
      <trkpt lat="63.40418017" lon="10.47906533">
        <ele>142.801</ele>
        <time>1970-01-01T01:00:00Z</time>
      </trkpt>
      <trkpt lat="63.40419217" lon="10.4790955">
        <ele>142.801</ele>
        <time>1970-01-01T01:00:00Z</time>
      </trkpt>
      <trkpt lat="63.40420283" lon="10.47912817">
        <ele>142.953</ele>
        <time>1970-01-01T01:00:00Z</time>
      </trkpt>
      <trkpt lat="63.40421267" lon="10.47916417">
        <ele>142.953</ele>
        <time>1970-01-01T01:00:00Z</time>
      </trkpt>
      <trkpt lat="63.40422183" lon="10.47919967">
        <ele>142.953</ele>
        <time>1970-01-01T01:00:00Z</time>
      </trkpt>
      <trkpt lat="63.404231" lon="10.4792345">
        <ele>142.953</ele>
        <time>1970-01-01T01:00:00Z</time>
      </trkpt>
      <trkpt lat="63.4042395" lon="10.47926417">
        <ele>143.105</ele>
        <time>1970-01-01T01:00:00Z</time>
      </trkpt>
      <trkpt lat="63.404241" lon="10.479291">
        <ele>143.105</ele>
        <time>1970-01-01T01:00:00Z</time>
      </trkpt>
      <trkpt lat="63.40424" lon="10.47932017">
        <ele>143.258</ele>
        <time>1970-01-01T01:00:00Z</time>
      </trkpt>
      <trkpt lat="63.40423733" lon="10.479354">
        <ele>143.258</ele>
        <time>1970-01-01T01:00:00Z</time>
      </trkpt>
      <trkpt lat="63.40423783" lon="10.47938983">
        <ele>143.41</ele>
        <time>1970-01-01T01:00:00Z</time>
      </trkpt>
      <trkpt lat="63.40423783" lon="10.47942283">
        <ele>143.41</ele>
        <time>1970-01-01T01:00:00Z</time>
      </trkpt>
      <trkpt lat="63.40423583" lon="10.47945417">
        <ele>143.563</ele>
        <time>1970-01-01T01:00:00Z</time>
      </trkpt>
      <trkpt lat="63.404234" lon="10.47948817">
        <ele>143.563</ele>
        <time>1970-01-01T01:00:00Z</time>
      </trkpt>
      <trkpt lat="63.4042305" lon="10.47952067">
        <ele>143.715</ele>
        <time>1970-01-01T01:00:00Z</time>
      </trkpt>
      <trkpt lat="63.40423083" lon="10.47955717">
        <ele>143.715</ele>
        <time>1970-01-01T01:00:00Z</time>
      </trkpt>
      <trkpt lat="63.40422933" lon="10.47959">
        <ele>143.867</ele>
        <time>1970-01-01T01:00:00Z</time>
      </trkpt>
      <trkpt lat="63.404229" lon="10.47962383">
        <ele>143.867</ele>
        <time>1970-01-01T01:00:00Z</time>
      </trkpt>
      <trkpt lat="63.40422533" lon="10.47965167">
        <ele>144.02</ele>
        <time>1970-01-01T01:00:00Z</time>
      </trkpt>
      <trkpt lat="63.40422267" lon="10.47967783">
        <ele>144.02</ele>
        <time>1970-01-01T01:00:00Z</time>
      </trkpt>
      <trkpt lat="63.4042215" lon="10.47970283">
        <ele>144.02</ele>
        <time>1970-01-01T01:00:00Z</time>
      </trkpt>
      <trkpt lat="63.40421917" lon="10.479732">
        <ele>144.02</ele>
        <time>1970-01-01T01:00:00Z</time>
      </trkpt>
      <trkpt lat="63.40421717" lon="10.47976317">
        <ele>144.172</ele>
        <time>1970-01-01T01:00:00Z</time>
      </trkpt>
      <trkpt lat="63.40421433" lon="10.479796">
        <ele>144.172</ele>
        <time>1970-01-01T01:00:00Z</time>
      </trkpt>
      <trkpt lat="63.404212" lon="10.47982583">
        <ele>144.325</ele>
        <time>1970-01-01T01:00:00Z</time>
      </trkpt>
      <trkpt lat="63.40420967" lon="10.479858">
        <ele>144.325</ele>
        <time>1970-01-01T01:00:00Z</time>
      </trkpt>
      <trkpt lat="63.40420683" lon="10.4798895">
        <ele>144.477</ele>
        <time>1970-01-01T01:00:00Z</time>
      </trkpt>
      <trkpt lat="63.40420383" lon="10.47992083">
        <ele>144.477</ele>
        <time>1970-01-01T01:00:00Z</time>
      </trkpt>
      <trkpt lat="63.40420033" lon="10.47994967">
        <ele>144.629</ele>
        <time>1970-01-01T01:00:00Z</time>
      </trkpt>
      <trkpt lat="63.40419683" lon="10.47998083">
        <ele>144.629</ele>
        <time>1970-01-01T01:00:00Z</time>
      </trkpt>
      <trkpt lat="63.404194" lon="10.48001417">
        <ele>144.782</ele>
        <time>1970-01-01T01:00:00Z</time>
      </trkpt>
      <trkpt lat="63.40419033" lon="10.48004533">
        <ele>144.782</ele>
        <time>1970-01-01T01:00:00Z</time>
      </trkpt>
      <trkpt lat="63.40418667" lon="10.48007683">
        <ele>144.934</ele>
        <time>1970-01-01T01:00:00Z</time>
      </trkpt>
      <trkpt lat="63.40418233" lon="10.480106">
        <ele>144.934</ele>
        <time>1970-01-01T01:00:00Z</time>
      </trkpt>
      <trkpt lat="63.404179" lon="10.48014033">
        <ele>145.239</ele>
        <time>1970-01-01T01:00:00Z</time>
      </trkpt>
      <trkpt lat="63.40417667" lon="10.48017267">
        <ele>145.239</ele>
        <time>1970-01-01T01:00:00Z</time>
      </trkpt>
      <trkpt lat="63.404174" lon="10.48020617">
        <ele>145.391</ele>
        <time>1970-01-01T01:00:00Z</time>
      </trkpt>
      <trkpt lat="63.40417183" lon="10.48023833">
        <ele>145.391</ele>
        <time>1970-01-01T01:00:00Z</time>
      </trkpt>
      <trkpt lat="63.4041685" lon="10.48027083">
        <ele>145.544</ele>
        <time>1970-01-01T01:00:00Z</time>
      </trkpt>
      <trkpt lat="63.4041675" lon="10.4803005">
        <ele>145.544</ele>
        <time>1970-01-01T01:00:00Z</time>
      </trkpt>
      <trkpt lat="63.404167" lon="10.480327">
        <ele>145.696</ele>
        <time>1970-01-01T01:00:00Z</time>
      </trkpt>
      <trkpt lat="63.40416683" lon="10.48035433">
        <ele>145.696</ele>
        <time>1970-01-01T01:00:00Z</time>
      </trkpt>
      <trkpt lat="63.404167" lon="10.48038483">
        <ele>146.001</ele>
        <time>1970-01-01T01:00:00Z</time>
      </trkpt>
      <trkpt lat="63.404167" lon="10.480417">
        <ele>146.001</ele>
        <time>1970-01-01T01:00:00Z</time>
      </trkpt>
      <trkpt lat="63.404167" lon="10.4804465">
        <ele>146.153</ele>
        <time>1970-01-01T01:00:00Z</time>
      </trkpt>
      <trkpt lat="63.40416667" lon="10.48047467">
        <ele>146.153</ele>
        <time>1970-01-01T01:00:00Z</time>
      </trkpt>
      <trkpt lat="63.40416683" lon="10.48050383">
        <ele>146.458</ele>
        <time>1970-01-01T01:00:00Z</time>
      </trkpt>
      <trkpt lat="63.40416667" lon="10.48053267">
        <ele>146.458</ele>
        <time>1970-01-01T01:00:00Z</time>
      </trkpt>
      <trkpt lat="63.4041675" lon="10.48056267">
        <ele>146.763</ele>
        <time>1970-01-01T01:00:00Z</time>
      </trkpt>
      <trkpt lat="63.40416733" lon="10.48059367">
        <ele>146.763</ele>
        <time>1970-01-01T01:00:00Z</time>
      </trkpt>
      <trkpt lat="63.40416817" lon="10.48062433">
        <ele>146.915</ele>
        <time>1970-01-01T01:00:00Z</time>
      </trkpt>
      <trkpt lat="63.40416783" lon="10.48065633">
        <ele>146.915</ele>
        <time>1970-01-01T01:00:00Z</time>
      </trkpt>
      <trkpt lat="63.40416817" lon="10.48068633">
        <ele>147.22</ele>
        <time>1970-01-01T01:00:00Z</time>
      </trkpt>
      <trkpt lat="63.40416833" lon="10.480716">
        <ele>147.22</ele>
        <time>1970-01-01T01:00:00Z</time>
      </trkpt>
      <trkpt lat="63.40416833" lon="10.48074367">
        <ele>147.525</ele>
        <time>1970-01-01T01:00:00Z</time>
      </trkpt>
      <trkpt lat="63.40416867" lon="10.48077283">
        <ele>147.525</ele>
        <time>1970-01-01T01:00:00Z</time>
      </trkpt>
      <trkpt lat="63.40416867" lon="10.4808045">
        <ele>147.83</ele>
        <time>1970-01-01T01:00:00Z</time>
      </trkpt>
      <trkpt lat="63.404169" lon="10.48083717">
        <ele>147.83</ele>
        <time>1970-01-01T01:00:00Z</time>
      </trkpt>
      <trkpt lat="63.40416983" lon="10.48087117">
        <ele>148.135</ele>
        <time>1970-01-01T01:00:00Z</time>
      </trkpt>
      <trkpt lat="63.40417083" lon="10.4809035">
        <ele>148.135</ele>
        <time>1970-01-01T01:00:00Z</time>
      </trkpt>
      <trkpt lat="63.4041715" lon="10.48093267">
        <ele>148.287</ele>
        <time>1970-01-01T01:00:00Z</time>
      </trkpt>
      <trkpt lat="63.40417167" lon="10.48095983">
        <ele>148.287</ele>
        <time>1970-01-01T01:00:00Z</time>
      </trkpt>
      <trkpt lat="63.40417333" lon="10.48099">
        <ele>148.592</ele>
        <time>1970-01-01T01:00:00Z</time>
      </trkpt>
      <trkpt lat="63.40417483" lon="10.48102433">
        <ele>148.592</ele>
        <time>1970-01-01T01:00:00Z</time>
      </trkpt>
      <trkpt lat="63.4041775" lon="10.48105933">
        <ele>148.897</ele>
        <time>1970-01-01T01:00:00Z</time>
      </trkpt>
      <trkpt lat="63.40417983" lon="10.4810915">
        <ele>148.897</ele>
        <time>1970-01-01T01:00:00Z</time>
      </trkpt>
      <trkpt lat="63.40418267" lon="10.4811205">
        <ele>149.049</ele>
        <time>1970-01-01T01:00:00Z</time>
      </trkpt>
      <trkpt lat="63.4041855" lon="10.4811485">
        <ele>149.049</ele>
        <time>1970-01-01T01:00:00Z</time>
      </trkpt>
      <trkpt lat="63.40418767" lon="10.4811755">
        <ele>149.354</ele>
        <time>1970-01-01T01:00:00Z</time>
      </trkpt>
      <trkpt lat="63.40419" lon="10.48120617">
        <ele>149.354</ele>
        <time>1970-01-01T01:00:00Z</time>
      </trkpt>
      <trkpt lat="63.404192" lon="10.48123833">
        <ele>149.659</ele>
        <time>1970-01-01T01:00:00Z</time>
      </trkpt>
      <trkpt lat="63.4041945" lon="10.4812725">
        <ele>149.659</ele>
        <time>1970-01-01T01:00:00Z</time>
      </trkpt>
      <trkpt lat="63.40419767" lon="10.48130517">
        <ele>149.811</ele>
        <time>1970-01-01T01:00:00Z</time>
      </trkpt>
      <trkpt lat="63.40420117" lon="10.48133867">
        <ele>149.811</ele>
        <time>1970-01-01T01:00:00Z</time>
      </trkpt>
      <trkpt lat="63.40420417" lon="10.4813705">
        <ele>150.116</ele>
        <time>1970-01-01T01:00:00Z</time>
      </trkpt>
      <trkpt lat="63.4042065" lon="10.48140133">
        <ele>150.116</ele>
        <time>1970-01-01T01:00:00Z</time>
      </trkpt>
      <trkpt lat="63.40420967" lon="10.48143167">
        <ele>150.421</ele>
        <time>1970-01-01T01:00:00Z</time>
      </trkpt>
      <trkpt lat="63.40421317" lon="10.48146183">
        <ele>150.421</ele>
        <time>1970-01-01T01:00:00Z</time>
      </trkpt>
      <trkpt lat="63.4042175" lon="10.48149233">
        <ele>150.573</ele>
        <time>1970-01-01T01:00:00Z</time>
      </trkpt>
      <trkpt lat="63.404221" lon="10.48152217">
        <ele>150.573</ele>
        <time>1970-01-01T01:00:00Z</time>
      </trkpt>
      <trkpt lat="63.4042245" lon="10.48155167">
        <ele>150.878</ele>
        <time>1970-01-01T01:00:00Z</time>
      </trkpt>
      <trkpt lat="63.40422767" lon="10.48158133">
        <ele>150.878</ele>
        <time>1970-01-01T01:00:00Z</time>
      </trkpt>
      <trkpt lat="63.404231" lon="10.481612">
        <ele>151.183</ele>
        <time>1970-01-01T01:00:00Z</time>
      </trkpt>
      <trkpt lat="63.40423433" lon="10.48164267">
        <ele>151.183</ele>
        <time>1970-01-01T01:00:00Z</time>
      </trkpt>
      <trkpt lat="63.40423817" lon="10.481673">
        <ele>151.487</ele>
        <time>1970-01-01T01:00:00Z</time>
      </trkpt>
      <trkpt lat="63.4042425" lon="10.481703">
        <ele>151.487</ele>
        <time>1970-01-01T01:00:00Z</time>
      </trkpt>
      <trkpt lat="63.40424783" lon="10.48173367">
        <ele>151.792</ele>
        <time>1970-01-01T01:00:00Z</time>
      </trkpt>
      <trkpt lat="63.40425283" lon="10.4817635">
        <ele>151.792</ele>
        <time>1970-01-01T01:00:00Z</time>
      </trkpt>
      <trkpt lat="63.4042575" lon="10.481792">
        <ele>152.097</ele>
        <time>1970-01-01T01:00:00Z</time>
      </trkpt>
      <trkpt lat="63.40426267" lon="10.48181967">
        <ele>152.097</ele>
        <time>1970-01-01T01:00:00Z</time>
      </trkpt>
      <trkpt lat="63.40426683" lon="10.48184783">
        <ele>152.402</ele>
        <time>1970-01-01T01:00:00Z</time>
      </trkpt>
      <trkpt lat="63.404272" lon="10.48187733">
        <ele>152.402</ele>
        <time>1970-01-01T01:00:00Z</time>
      </trkpt>
      <trkpt lat="63.40427717" lon="10.48190733">
        <ele>152.707</ele>
        <time>1970-01-01T01:00:00Z</time>
      </trkpt>
      <trkpt lat="63.40428417" lon="10.48193767">
        <ele>152.707</ele>
        <time>1970-01-01T01:00:00Z</time>
      </trkpt>
      <trkpt lat="63.4042915" lon="10.481967">
        <ele>153.011</ele>
        <time>1970-01-01T01:00:00Z</time>
      </trkpt>
      <trkpt lat="63.40429783" lon="10.48199567">
        <ele>153.011</ele>
        <time>1970-01-01T01:00:00Z</time>
      </trkpt>
      <trkpt lat="63.404303" lon="10.48202417">
        <ele>153.316</ele>
        <time>1970-01-01T01:00:00Z</time>
      </trkpt>
      <trkpt lat="63.4043085" lon="10.48205267">
        <ele>153.316</ele>
        <time>1970-01-01T01:00:00Z</time>
      </trkpt>
      <trkpt lat="63.40431517" lon="10.48208083">
        <ele>153.621</ele>
        <time>1970-01-01T01:00:00Z</time>
      </trkpt>
      <trkpt lat="63.40432367" lon="10.4821085">
        <ele>153.621</ele>
        <time>1970-01-01T01:00:00Z</time>
      </trkpt>
      <trkpt lat="63.404333" lon="10.48213433">
        <ele>153.926</ele>
        <time>1970-01-01T01:00:00Z</time>
      </trkpt>
      <trkpt lat="63.40434167" lon="10.482159">
        <ele>153.926</ele>
        <time>1970-01-01T01:00:00Z</time>
      </trkpt>
      <trkpt lat="63.4043475" lon="10.4821825">
        <ele>154.383</ele>
        <time>1970-01-01T01:00:00Z</time>
      </trkpt>
      <trkpt lat="63.4043525" lon="10.48220683">
        <ele>154.383</ele>
        <time>1970-01-01T01:00:00Z</time>
      </trkpt>
      <trkpt lat="63.40435883" lon="10.48223083">
        <ele>154.688</ele>
        <time>1970-01-01T01:00:00Z</time>
      </trkpt>
      <trkpt lat="63.40436683" lon="10.482256">
        <ele>154.688</ele>
        <time>1970-01-01T01:00:00Z</time>
      </trkpt>
      <trkpt lat="63.40437467" lon="10.48228017">
        <ele>154.993</ele>
        <time>1970-01-01T01:00:00Z</time>
      </trkpt>
      <trkpt lat="63.40438033" lon="10.48230583">
        <ele>154.993</ele>
        <time>1970-01-01T01:00:00Z</time>
      </trkpt>
      <trkpt lat="63.4043865" lon="10.482329">
        <ele>155.45</ele>
        <time>1970-01-01T01:00:00Z</time>
      </trkpt>
      <trkpt lat="63.404392" lon="10.482353">
        <ele>155.45</ele>
        <time>1970-01-01T01:00:00Z</time>
      </trkpt>
      <trkpt lat="63.404398" lon="10.48237467">
        <ele>155.755</ele>
        <time>1970-01-01T01:00:00Z</time>
      </trkpt>
      <trkpt lat="63.40440467" lon="10.4823975">
        <ele>155.755</ele>
        <time>1970-01-01T01:00:00Z</time>
      </trkpt>
      <trkpt lat="63.40441183" lon="10.482419">
        <ele>156.059</ele>
        <time>1970-01-01T01:00:00Z</time>
      </trkpt>
      <trkpt lat="63.40442033" lon="10.48244383">
        <ele>156.059</ele>
        <time>1970-01-01T01:00:00Z</time>
      </trkpt>
      <trkpt lat="63.40443033" lon="10.48247">
        <ele>156.517</ele>
        <time>1970-01-01T01:00:00Z</time>
      </trkpt>
      <trkpt lat="63.40443967" lon="10.482497">
        <ele>156.517</ele>
        <time>1970-01-01T01:00:00Z</time>
      </trkpt>
      <trkpt lat="63.404448" lon="10.482523">
        <ele>156.822</ele>
        <time>1970-01-01T01:00:00Z</time>
      </trkpt>
      <trkpt lat="63.40445583" lon="10.4825515">
        <ele>156.822</ele>
        <time>1970-01-01T01:00:00Z</time>
      </trkpt>
      <trkpt lat="63.404463" lon="10.48257917">
        <ele>157.279</ele>
        <time>1970-01-01T01:00:00Z</time>
      </trkpt>
      <trkpt lat="63.404469" lon="10.48260483">
        <ele>157.279</ele>
        <time>1970-01-01T01:00:00Z</time>
      </trkpt>
      <trkpt lat="63.404474" lon="10.48262717">
        <ele>157.584</ele>
        <time>1970-01-01T01:00:00Z</time>
      </trkpt>
      <trkpt lat="63.40448017" lon="10.48264867">
        <ele>157.584</ele>
        <time>1970-01-01T01:00:00Z</time>
      </trkpt>
      <trkpt lat="63.404488" lon="10.4826705">
        <ele>157.888</ele>
        <time>1970-01-01T01:00:00Z</time>
      </trkpt>
      <trkpt lat="63.4044955" lon="10.48269167">
        <ele>157.888</ele>
        <time>1970-01-01T01:00:00Z</time>
      </trkpt>
      <trkpt lat="63.40450233" lon="10.48271533">
        <ele>158.346</ele>
        <time>1970-01-01T01:00:00Z</time>
      </trkpt>
      <trkpt lat="63.40450933" lon="10.48273983">
        <ele>158.346</ele>
        <time>1970-01-01T01:00:00Z</time>
      </trkpt>
      <trkpt lat="63.404517" lon="10.4827655">
        <ele>158.65</ele>
        <time>1970-01-01T01:00:00Z</time>
      </trkpt>
      <trkpt lat="63.40452733" lon="10.48279383">
        <ele>158.65</ele>
        <time>1970-01-01T01:00:00Z</time>
      </trkpt>
      <trkpt lat="63.40453417" lon="10.48281883">
        <ele>158.955</ele>
        <time>1970-01-01T01:00:00Z</time>
      </trkpt>
      <trkpt lat="63.40454217" lon="10.482841">
        <ele>158.955</ele>
        <time>1970-01-01T01:00:00Z</time>
      </trkpt>
      <trkpt lat="63.40454967" lon="10.48286217">
        <ele>159.26</ele>
        <time>1970-01-01T01:00:00Z</time>
      </trkpt>
      <trkpt lat="63.40456017" lon="10.48288967">
        <ele>159.26</ele>
        <time>1970-01-01T01:00:00Z</time>
      </trkpt>
      <trkpt lat="63.40457" lon="10.482921">
        <ele>159.565</ele>
        <time>1970-01-01T01:00:00Z</time>
      </trkpt>
      <trkpt lat="63.4045785" lon="10.48294967">
        <ele>159.565</ele>
        <time>1970-01-01T01:00:00Z</time>
      </trkpt>
      <trkpt lat="63.40458917" lon="10.48297883">
        <ele>160.022</ele>
        <time>1970-01-01T01:00:00Z</time>
      </trkpt>
      <trkpt lat="63.40459967" lon="10.483007">
        <ele>160.022</ele>
        <time>1970-01-01T01:00:00Z</time>
      </trkpt>
      <trkpt lat="63.40461183" lon="10.48303683">
        <ele>160.327</ele>
        <time>1970-01-01T01:00:00Z</time>
      </trkpt>
      <trkpt lat="63.40462317" lon="10.483063">
        <ele>160.327</ele>
        <time>1970-01-01T01:00:00Z</time>
      </trkpt>
      <trkpt lat="63.40463517" lon="10.48309017">
        <ele>160.632</ele>
        <time>1970-01-01T01:00:00Z</time>
      </trkpt>
      <trkpt lat="63.40464667" lon="10.48311667">
        <ele>160.632</ele>
        <time>1970-01-01T01:00:00Z</time>
      </trkpt>
      <trkpt lat="63.40465783" lon="10.4831445">
        <ele>160.936</ele>
        <time>1970-01-01T01:00:00Z</time>
      </trkpt>
      <trkpt lat="63.404668" lon="10.48317183">
        <ele>160.936</ele>
        <time>1970-01-01T01:00:00Z</time>
      </trkpt>
      <trkpt lat="63.40467667" lon="10.48320017">
        <ele>161.241</ele>
        <time>1970-01-01T01:00:00Z</time>
      </trkpt>
      <trkpt lat="63.40468133" lon="10.48322817">
        <ele>161.241</ele>
        <time>1970-01-01T01:00:00Z</time>
      </trkpt>
      <trkpt lat="63.40468667" lon="10.48325767">
        <ele>161.546</ele>
        <time>1970-01-01T01:00:00Z</time>
      </trkpt>
      <trkpt lat="63.40469183" lon="10.48328617">
        <ele>161.546</ele>
        <time>1970-01-01T01:00:00Z</time>
      </trkpt>
      <trkpt lat="63.404701" lon="10.4833135">
        <ele>161.851</ele>
        <time>1970-01-01T01:00:00Z</time>
      </trkpt>
      <trkpt lat="63.404712" lon="10.48333717">
        <ele>161.851</ele>
        <time>1970-01-01T01:00:00Z</time>
      </trkpt>
      <trkpt lat="63.40472367" lon="10.48336283">
        <ele>162.156</ele>
        <time>1970-01-01T01:00:00Z</time>
      </trkpt>
      <trkpt lat="63.4047355" lon="10.48339183">
        <ele>162.156</ele>
        <time>1970-01-01T01:00:00Z</time>
      </trkpt>
      <trkpt lat="63.404746" lon="10.48342383">
        <ele>162.46</ele>
        <time>1970-01-01T01:00:00Z</time>
      </trkpt>
      <trkpt lat="63.4047545" lon="10.483454">
        <ele>162.46</ele>
        <time>1970-01-01T01:00:00Z</time>
      </trkpt>
      <trkpt lat="63.40476133" lon="10.483483">
        <ele>162.765</ele>
        <time>1970-01-01T01:00:00Z</time>
      </trkpt>
      <trkpt lat="63.40476683" lon="10.48351067">
        <ele>162.765</ele>
        <time>1970-01-01T01:00:00Z</time>
      </trkpt>
      <trkpt lat="63.40477283" lon="10.48353683">
        <ele>162.918</ele>
        <time>1970-01-01T01:00:00Z</time>
      </trkpt>
      <trkpt lat="63.4047795" lon="10.48356083">
        <ele>162.918</ele>
        <time>1970-01-01T01:00:00Z</time>
      </trkpt>
      <trkpt lat="63.4047875" lon="10.48358583">
        <ele>163.222</ele>
        <time>1970-01-01T01:00:00Z</time>
      </trkpt>
      <trkpt lat="63.40479667" lon="10.48361267">
        <ele>163.222</ele>
        <time>1970-01-01T01:00:00Z</time>
      </trkpt>
      <trkpt lat="63.40480517" lon="10.483642">
        <ele>163.375</ele>
        <time>1970-01-01T01:00:00Z</time>
      </trkpt>
      <trkpt lat="63.40481083" lon="10.48367017">
        <ele>163.375</ele>
        <time>1970-01-01T01:00:00Z</time>
      </trkpt>
      <trkpt lat="63.40481617" lon="10.48370133">
        <ele>163.68</ele>
        <time>1970-01-01T01:00:00Z</time>
      </trkpt>
      <trkpt lat="63.404819" lon="10.48373483">
        <ele>163.68</ele>
        <time>1970-01-01T01:00:00Z</time>
      </trkpt>
      <trkpt lat="63.40482217" lon="10.48376983">
        <ele>163.832</ele>
        <time>1970-01-01T01:00:00Z</time>
      </trkpt>
      <trkpt lat="63.404826" lon="10.483802">
        <ele>163.832</ele>
        <time>1970-01-01T01:00:00Z</time>
      </trkpt>
      <trkpt lat="63.40483183" lon="10.48383333">
        <ele>164.137</ele>
        <time>1970-01-01T01:00:00Z</time>
      </trkpt>
      <trkpt lat="63.4048385" lon="10.483862">
        <ele>164.137</ele>
        <time>1970-01-01T01:00:00Z</time>
      </trkpt>
      <trkpt lat="63.40484383" lon="10.48389217">
        <ele>164.289</ele>
        <time>1970-01-01T01:00:00Z</time>
      </trkpt>
      <trkpt lat="63.40484917" lon="10.483921">
        <ele>164.289</ele>
        <time>1970-01-01T01:00:00Z</time>
      </trkpt>
      <trkpt lat="63.40485333" lon="10.4839515">
        <ele>164.442</ele>
        <time>1970-01-01T01:00:00Z</time>
      </trkpt>
      <trkpt lat="63.40485617" lon="10.4839825">
        <ele>164.442</ele>
        <time>1970-01-01T01:00:00Z</time>
      </trkpt>
      <trkpt lat="63.40485783" lon="10.484012">
        <ele>164.594</ele>
        <time>1970-01-01T01:00:00Z</time>
      </trkpt>
      <trkpt lat="63.4048595" lon="10.48404533">
        <ele>164.594</ele>
        <time>1970-01-01T01:00:00Z</time>
      </trkpt>
      <trkpt lat="63.40486183" lon="10.484079">
        <ele>164.899</ele>
        <time>1970-01-01T01:00:00Z</time>
      </trkpt>
      <trkpt lat="63.40486417" lon="10.484114">
        <ele>164.899</ele>
        <time>1970-01-01T01:00:00Z</time>
      </trkpt>
      <trkpt lat="63.40486733" lon="10.48414617">
        <ele>165.051</ele>
        <time>1970-01-01T01:00:00Z</time>
      </trkpt>
      <trkpt lat="63.4048705" lon="10.4841765">
        <ele>165.051</ele>
        <time>1970-01-01T01:00:00Z</time>
      </trkpt>
      <trkpt lat="63.4048745" lon="10.48420517">
        <ele>165.204</ele>
        <time>1970-01-01T01:00:00Z</time>
      </trkpt>
      <trkpt lat="63.40487983" lon="10.48423283">
        <ele>165.204</ele>
        <time>1970-01-01T01:00:00Z</time>
      </trkpt>
      <trkpt lat="63.40488383" lon="10.48426183">
        <ele>165.204</ele>
        <time>1970-01-01T01:00:00Z</time>
      </trkpt>
      <trkpt lat="63.404887" lon="10.4842905">
        <ele>165.204</ele>
        <time>1970-01-01T01:00:00Z</time>
      </trkpt>
      <trkpt lat="63.404889" lon="10.48431717">
        <ele>165.204</ele>
        <time>1970-01-01T01:00:00Z</time>
      </trkpt>
      <trkpt lat="63.40489517" lon="10.48434">
        <ele>165.204</ele>
        <time>1970-01-01T01:00:00Z</time>
      </trkpt>
      <trkpt lat="63.40490267" lon="10.484364">
        <ele>165.356</ele>
        <time>1970-01-01T01:00:00Z</time>
      </trkpt>
      <trkpt lat="63.40491183" lon="10.48438933">
        <ele>165.356</ele>
        <time>1970-01-01T01:00:00Z</time>
      </trkpt>
      <trkpt lat="63.40492" lon="10.48441667">
        <ele>165.356</ele>
        <time>1970-01-01T01:00:00Z</time>
      </trkpt>
      <trkpt lat="63.40492583" lon="10.4844425">
        <ele>165.356</ele>
        <time>1970-01-01T01:00:00Z</time>
      </trkpt>
      <trkpt lat="63.40492833" lon="10.48446667">
        <ele>165.356</ele>
        <time>1970-01-01T01:00:00Z</time>
      </trkpt>
      <trkpt lat="63.4049285" lon="10.484491">
        <ele>165.356</ele>
        <time>1970-01-01T01:00:00Z</time>
      </trkpt>
      <trkpt lat="63.40493167" lon="10.48451533">
        <ele>165.356</ele>
        <time>1970-01-01T01:00:00Z</time>
      </trkpt>
      <trkpt lat="63.40493533" lon="10.4845395">
        <ele>165.356</ele>
        <time>1970-01-01T01:00:00Z</time>
      </trkpt>
      <trkpt lat="63.404939" lon="10.48456317">
        <ele>165.356</ele>
        <time>1970-01-01T01:00:00Z</time>
      </trkpt>
      <trkpt lat="63.40493933" lon="10.484587">
        <ele>165.356</ele>
        <time>1970-01-01T01:00:00Z</time>
      </trkpt>
      <trkpt lat="63.404939" lon="10.48461233">
        <ele>165.356</ele>
        <time>1970-01-01T01:00:00Z</time>
      </trkpt>
      <trkpt lat="63.40493717" lon="10.4846375">
        <ele>165.356</ele>
        <time>1970-01-01T01:00:00Z</time>
      </trkpt>
      <trkpt lat="63.40493483" lon="10.4846625">
        <ele>165.508</ele>
        <time>1970-01-01T01:00:00Z</time>
      </trkpt>
      <trkpt lat="63.40493267" lon="10.4846875">
        <ele>165.508</ele>
        <time>1970-01-01T01:00:00Z</time>
      </trkpt>
      <trkpt lat="63.40493067" lon="10.48471267">
        <ele>165.508</ele>
        <time>1970-01-01T01:00:00Z</time>
      </trkpt>
      <trkpt lat="63.40493083" lon="10.484737">
        <ele>165.508</ele>
        <time>1970-01-01T01:00:00Z</time>
      </trkpt>
      <trkpt lat="63.40493217" lon="10.484762">
        <ele>165.661</ele>
        <time>1970-01-01T01:00:00Z</time>
      </trkpt>
      <trkpt lat="63.40493433" lon="10.48478867">
        <ele>165.661</ele>
        <time>1970-01-01T01:00:00Z</time>
      </trkpt>
      <trkpt lat="63.40493467" lon="10.484818">
        <ele>165.661</ele>
        <time>1970-01-01T01:00:00Z</time>
      </trkpt>
      <trkpt lat="63.40493567" lon="10.4848495">
        <ele>165.661</ele>
        <time>1970-01-01T01:00:00Z</time>
      </trkpt>
      <trkpt lat="63.40493817" lon="10.48487767">
        <ele>165.813</ele>
        <time>1970-01-01T01:00:00Z</time>
      </trkpt>
      <trkpt lat="63.404942" lon="10.484903">
        <ele>165.813</ele>
        <time>1970-01-01T01:00:00Z</time>
      </trkpt>
      <trkpt lat="63.40494517" lon="10.4849275">
        <ele>165.966</ele>
        <time>1970-01-01T01:00:00Z</time>
      </trkpt>
      <trkpt lat="63.40494617" lon="10.48495483">
        <ele>165.966</ele>
        <time>1970-01-01T01:00:00Z</time>
      </trkpt>
      <trkpt lat="63.4049435" lon="10.48498117">
        <ele>165.966</ele>
        <time>1970-01-01T01:00:00Z</time>
      </trkpt>
      <trkpt lat="63.40493883" lon="10.485002">
        <ele>165.966</ele>
        <time>1970-01-01T01:00:00Z</time>
      </trkpt>
      <trkpt lat="63.40493333" lon="10.48501583">
        <ele>166.118</ele>
        <time>1970-01-01T01:00:00Z</time>
      </trkpt>
      <trkpt lat="63.40492817" lon="10.485026">
        <ele>166.118</ele>
        <time>1970-01-01T01:00:00Z</time>
      </trkpt>
      <trkpt lat="63.404922" lon="10.48503317">
        <ele>166.118</ele>
        <time>1970-01-01T01:00:00Z</time>
      </trkpt>
      <trkpt lat="63.40491517" lon="10.48504017">
        <ele>166.118</ele>
        <time>1970-01-01T01:00:00Z</time>
      </trkpt>
      <trkpt lat="63.40490967" lon="10.48504917">
        <ele>166.27</ele>
        <time>1970-01-01T01:00:00Z</time>
      </trkpt>
      <trkpt lat="63.404904" lon="10.48505833">
        <ele>166.27</ele>
        <time>1970-01-01T01:00:00Z</time>
      </trkpt>
      <trkpt lat="63.4048985" lon="10.48506483">
        <ele>166.27</ele>
        <time>1970-01-01T01:00:00Z</time>
      </trkpt>
      <trkpt lat="63.40489233" lon="10.48507">
        <ele>166.27</ele>
        <time>1970-01-01T01:00:00Z</time>
      </trkpt>
      <trkpt lat="63.4048825" lon="10.4850745">
        <ele>166.423</ele>
        <time>1970-01-01T01:00:00Z</time>
      </trkpt>
      <trkpt lat="63.404872" lon="10.48507917">
        <ele>166.423</ele>
        <time>1970-01-01T01:00:00Z</time>
      </trkpt>
      <trkpt lat="63.40486333" lon="10.48508217">
        <ele>166.575</ele>
        <time>1970-01-01T01:00:00Z</time>
      </trkpt>
      <trkpt lat="63.404859" lon="10.48508367">
        <ele>166.575</ele>
        <time>1970-01-01T01:00:00Z</time>
      </trkpt>
      <trkpt lat="63.40485567" lon="10.48508517">
        <ele>166.575</ele>
        <time>1970-01-01T01:00:00Z</time>
      </trkpt>
      <trkpt lat="63.40485167" lon="10.48508383">
        <ele>166.575</ele>
        <time>1970-01-01T01:00:00Z</time>
      </trkpt>
      <trkpt lat="63.40484683" lon="10.4850825">
        <ele>166.728</ele>
        <time>1970-01-01T01:00:00Z</time>
      </trkpt>
      <trkpt lat="63.4048405" lon="10.48507817">
        <ele>166.728</ele>
        <time>1970-01-01T01:00:00Z</time>
      </trkpt>
      <trkpt lat="63.40483283" lon="10.48507383">
        <ele>166.88</ele>
        <time>1970-01-01T01:00:00Z</time>
      </trkpt>
      <trkpt lat="63.40482467" lon="10.48507033">
        <ele>166.88</ele>
        <time>1970-01-01T01:00:00Z</time>
      </trkpt>
      <trkpt lat="63.40481917" lon="10.48506883">
        <ele>167.032</ele>
        <time>1970-01-01T01:00:00Z</time>
      </trkpt>
      <trkpt lat="63.40481433" lon="10.4850675">
        <ele>167.032</ele>
        <time>1970-01-01T01:00:00Z</time>
      </trkpt>
      <trkpt lat="63.40480967" lon="10.48506167">
        <ele>167.185</ele>
        <time>1970-01-01T01:00:00Z</time>
      </trkpt>
      <trkpt lat="63.40480417" lon="10.48505183">
        <ele>167.185</ele>
        <time>1970-01-01T01:00:00Z</time>
      </trkpt>
      <trkpt lat="63.4047975" lon="10.4850425">
        <ele>167.337</ele>
        <time>1970-01-01T01:00:00Z</time>
      </trkpt>
      <trkpt lat="63.40478667" lon="10.485035">
        <ele>167.337</ele>
        <time>1970-01-01T01:00:00Z</time>
      </trkpt>
      <trkpt lat="63.404774" lon="10.48502967">
        <ele>167.49</ele>
        <time>1970-01-01T01:00:00Z</time>
      </trkpt>
      <trkpt lat="63.40475983" lon="10.4850245">
        <ele>167.49</ele>
        <time>1970-01-01T01:00:00Z</time>
      </trkpt>
      <trkpt lat="63.40475017" lon="10.48501717">
        <ele>167.642</ele>
        <time>1970-01-01T01:00:00Z</time>
      </trkpt>
      <trkpt lat="63.40474217" lon="10.48501">
        <ele>167.642</ele>
        <time>1970-01-01T01:00:00Z</time>
      </trkpt>
      <trkpt lat="63.404735" lon="10.48500483">
        <ele>167.794</ele>
        <time>1970-01-01T01:00:00Z</time>
      </trkpt>
      <trkpt lat="63.40472817" lon="10.485006">
        <ele>167.794</ele>
        <time>1970-01-01T01:00:00Z</time>
      </trkpt>
      <trkpt lat="63.40471933" lon="10.485004">
        <ele>168.099</ele>
        <time>1970-01-01T01:00:00Z</time>
      </trkpt>
      <trkpt lat="63.4047105" lon="10.48499883">
        <ele>168.099</ele>
        <time>1970-01-01T01:00:00Z</time>
      </trkpt>
      <trkpt lat="63.40470067" lon="10.48499133">
        <ele>168.252</ele>
        <time>1970-01-01T01:00:00Z</time>
      </trkpt>
      <trkpt lat="63.40469217" lon="10.48498783">
        <ele>168.252</ele>
        <time>1970-01-01T01:00:00Z</time>
      </trkpt>
      <trkpt lat="63.40468467" lon="10.48498517">
        <ele>168.404</ele>
        <time>1970-01-01T01:00:00Z</time>
      </trkpt>
      <trkpt lat="63.40467817" lon="10.484979">
        <ele>168.404</ele>
        <time>1970-01-01T01:00:00Z</time>
      </trkpt>
      <trkpt lat="63.40467" lon="10.48497383">
        <ele>168.709</ele>
        <time>1970-01-01T01:00:00Z</time>
      </trkpt>
      <trkpt lat="63.40465733" lon="10.48496883">
        <ele>168.709</ele>
        <time>1970-01-01T01:00:00Z</time>
      </trkpt>
      <trkpt lat="63.404641" lon="10.4849685">
        <ele>168.861</ele>
        <time>1970-01-01T01:00:00Z</time>
      </trkpt>
      <trkpt lat="63.404625" lon="10.4849665">
        <ele>168.861</ele>
        <time>1970-01-01T01:00:00Z</time>
      </trkpt>
      <trkpt lat="63.4046125" lon="10.4849625">
        <ele>169.014</ele>
        <time>1970-01-01T01:00:00Z</time>
      </trkpt>
      <trkpt lat="63.40460267" lon="10.48495917">
        <ele>169.014</ele>
        <time>1970-01-01T01:00:00Z</time>
      </trkpt>
      <trkpt lat="63.404594" lon="10.48495883">
        <ele>169.318</ele>
        <time>1970-01-01T01:00:00Z</time>
      </trkpt>
      <trkpt lat="63.40458567" lon="10.48495967">
        <ele>169.318</ele>
        <time>1970-01-01T01:00:00Z</time>
      </trkpt>
      <trkpt lat="63.40457883" lon="10.484955">
        <ele>169.471</ele>
        <time>1970-01-01T01:00:00Z</time>
      </trkpt>
      <trkpt lat="63.404569" lon="10.484947">
        <ele>169.471</ele>
        <time>1970-01-01T01:00:00Z</time>
      </trkpt>
      <trkpt lat="63.40455917" lon="10.48493933">
        <ele>169.776</ele>
        <time>1970-01-01T01:00:00Z</time>
      </trkpt>
      <trkpt lat="63.404548" lon="10.48493383">
        <ele>169.776</ele>
        <time>1970-01-01T01:00:00Z</time>
      </trkpt>
      <trkpt lat="63.404539" lon="10.48493283">
        <ele>170.08</ele>
        <time>1970-01-01T01:00:00Z</time>
      </trkpt>
      <trkpt lat="63.40453033" lon="10.48493217">
        <ele>170.08</ele>
        <time>1970-01-01T01:00:00Z</time>
      </trkpt>
      <trkpt lat="63.4045225" lon="10.48492917">
        <ele>170.385</ele>
        <time>1970-01-01T01:00:00Z</time>
      </trkpt>
      <trkpt lat="63.4045135" lon="10.48492617">
        <ele>170.385</ele>
        <time>1970-01-01T01:00:00Z</time>
      </trkpt>
      <trkpt lat="63.40450283" lon="10.4849235">
        <ele>170.69</ele>
        <time>1970-01-01T01:00:00Z</time>
      </trkpt>
      <trkpt lat="63.40448583" lon="10.4849285">
        <ele>170.69</ele>
        <time>1970-01-01T01:00:00Z</time>
      </trkpt>
      <trkpt lat="63.40446817" lon="10.484932">
        <ele>171.147</ele>
        <time>1970-01-01T01:00:00Z</time>
      </trkpt>
      <trkpt lat="63.40444917" lon="10.48493767">
        <ele>171.147</ele>
        <time>1970-01-01T01:00:00Z</time>
      </trkpt>
      <trkpt lat="63.404435" lon="10.4849395">
        <ele>171.452</ele>
        <time>1970-01-01T01:00:00Z</time>
      </trkpt>
      <trkpt lat="63.40442167" lon="10.48494233">
        <ele>171.452</ele>
        <time>1970-01-01T01:00:00Z</time>
      </trkpt>
      <trkpt lat="63.40440667" lon="10.48494483">
        <ele>171.757</ele>
        <time>1970-01-01T01:00:00Z</time>
      </trkpt>
      <trkpt lat="63.40439" lon="10.484949">
        <ele>171.757</ele>
        <time>1970-01-01T01:00:00Z</time>
      </trkpt>
      <trkpt lat="63.40437267" lon="10.48495417">
        <ele>172.214</ele>
        <time>1970-01-01T01:00:00Z</time>
      </trkpt>
      <trkpt lat="63.404358" lon="10.4849595">
        <ele>172.214</ele>
        <time>1970-01-01T01:00:00Z</time>
      </trkpt>
      <trkpt lat="63.40434567" lon="10.484966">
        <ele>172.519</ele>
        <time>1970-01-01T01:00:00Z</time>
      </trkpt>
      <trkpt lat="63.40433217" lon="10.48496917">
        <ele>172.519</ele>
        <time>1970-01-01T01:00:00Z</time>
      </trkpt>
      <trkpt lat="63.404319" lon="10.48496817">
        <ele>172.976</ele>
        <time>1970-01-01T01:00:00Z</time>
      </trkpt>
      <trkpt lat="63.40430233" lon="10.484963">
        <ele>172.976</ele>
        <time>1970-01-01T01:00:00Z</time>
      </trkpt>
      <trkpt lat="63.404286" lon="10.48496117">
        <ele>173.281</ele>
        <time>1970-01-01T01:00:00Z</time>
      </trkpt>
      <trkpt lat="63.40426967" lon="10.484963">
        <ele>173.281</ele>
        <time>1970-01-01T01:00:00Z</time>
      </trkpt>
      <trkpt lat="63.404255" lon="10.48497133">
        <ele>173.738</ele>
        <time>1970-01-01T01:00:00Z</time>
      </trkpt>
      <trkpt lat="63.404242" lon="10.48497883">
        <ele>173.738</ele>
        <time>1970-01-01T01:00:00Z</time>
      </trkpt>
      <trkpt lat="63.4042295" lon="10.48498633">
        <ele>174.195</ele>
        <time>1970-01-01T01:00:00Z</time>
      </trkpt>
      <trkpt lat="63.4042165" lon="10.48498917">
        <ele>174.195</ele>
        <time>1970-01-01T01:00:00Z</time>
      </trkpt>
      <trkpt lat="63.40420267" lon="10.48499033">
        <ele>174.5</ele>
        <time>1970-01-01T01:00:00Z</time>
      </trkpt>
      <trkpt lat="63.4041875" lon="10.48498683">
        <ele>174.5</ele>
        <time>1970-01-01T01:00:00Z</time>
      </trkpt>
      <trkpt lat="63.404175" lon="10.48498233">
        <ele>175.11</ele>
        <time>1970-01-01T01:00:00Z</time>
      </trkpt>
      <trkpt lat="63.4041635" lon="10.48497767">
        <ele>175.11</ele>
        <time>1970-01-01T01:00:00Z</time>
      </trkpt>
      <trkpt lat="63.4041535" lon="10.484977">
        <ele>175.567</ele>
        <time>1970-01-01T01:00:00Z</time>
      </trkpt>
      <trkpt lat="63.4041415" lon="10.48497617">
        <ele>175.567</ele>
        <time>1970-01-01T01:00:00Z</time>
      </trkpt>
      <trkpt lat="63.4041305" lon="10.48497383">
        <ele>176.024</ele>
        <time>1970-01-01T01:00:00Z</time>
      </trkpt>
      <trkpt lat="63.4041175" lon="10.4849705">
        <ele>176.024</ele>
        <time>1970-01-01T01:00:00Z</time>
      </trkpt>
      <trkpt lat="63.40410567" lon="10.48496833">
        <ele>176.481</ele>
        <time>1970-01-01T01:00:00Z</time>
      </trkpt>
      <trkpt lat="63.404093" lon="10.48497067">
        <ele>176.481</ele>
        <time>1970-01-01T01:00:00Z</time>
      </trkpt>
      <trkpt lat="63.40408167" lon="10.484976">
        <ele>177.091</ele>
        <time>1970-01-01T01:00:00Z</time>
      </trkpt>
      <trkpt lat="63.40406983" lon="10.48498033">
        <ele>177.091</ele>
        <time>1970-01-01T01:00:00Z</time>
      </trkpt>
      <trkpt lat="63.40405733" lon="10.48497883">
        <ele>177.548</ele>
        <time>1970-01-01T01:00:00Z</time>
      </trkpt>
      <trkpt lat="63.404045" lon="10.48497283">
        <ele>177.548</ele>
        <time>1970-01-01T01:00:00Z</time>
      </trkpt>
      <trkpt lat="63.40403433" lon="10.48497017">
        <ele>178.158</ele>
        <time>1970-01-01T01:00:00Z</time>
      </trkpt>
      <trkpt lat="63.4040275" lon="10.48497233">
        <ele>178.158</ele>
        <time>1970-01-01T01:00:00Z</time>
      </trkpt>
      <trkpt lat="63.40402383" lon="10.48497983">
        <ele>178.767</ele>
        <time>1970-01-01T01:00:00Z</time>
      </trkpt>
      <trkpt lat="63.40402183" lon="10.484986">
        <ele>178.767</ele>
        <time>1970-01-01T01:00:00Z</time>
      </trkpt>
      <trkpt lat="63.40402033" lon="10.48499133">
        <ele>179.225</ele>
        <time>1970-01-01T01:00:00Z</time>
      </trkpt>
      <trkpt lat="63.40401867" lon="10.48499417">
        <ele>179.225</ele>
        <time>1970-01-01T01:00:00Z</time>
      </trkpt>
      <trkpt lat="63.4040185" lon="10.48499267">
        <ele>179.834</ele>
        <time>1970-01-01T01:00:00Z</time>
      </trkpt>
      <trkpt lat="63.404019" lon="10.484989">
        <ele>179.834</ele>
        <time>1970-01-01T01:00:00Z</time>
      </trkpt>
      <trkpt lat="63.40402083" lon="10.48498317">
        <ele>180.291</ele>
        <time>1970-01-01T01:00:00Z</time>
      </trkpt>
      <trkpt lat="63.4040225" lon="10.48497883">
        <ele>180.291</ele>
        <time>1970-01-01T01:00:00Z</time>
      </trkpt>
      <trkpt lat="63.40402383" lon="10.48497283">
        <ele>180.749</ele>
        <time>1970-01-01T01:00:00Z</time>
      </trkpt>
      <trkpt lat="63.404025" lon="10.48496383">
        <ele>180.749</ele>
        <time>1970-01-01T01:00:00Z</time>
      </trkpt>
      <trkpt lat="63.4040255" lon="10.484953">
        <ele>181.206</ele>
        <time>1970-01-01T01:00:00Z</time>
      </trkpt>
      <trkpt lat="63.404026" lon="10.48494133">
        <ele>181.206</ele>
        <time>1970-01-01T01:00:00Z</time>
      </trkpt>
      <trkpt lat="63.404026" lon="10.48493217">
        <ele>181.815</ele>
        <time>1970-01-01T01:00:00Z</time>
      </trkpt>
      <trkpt lat="63.404026" lon="10.484922">
        <ele>181.815</ele>
        <time>1970-01-01T01:00:00Z</time>
      </trkpt>
      <trkpt lat="63.40402583" lon="10.48491033">
        <ele>182.273</ele>
        <time>1970-01-01T01:00:00Z</time>
      </trkpt>
      <trkpt lat="63.40402533" lon="10.484897">
        <ele>182.273</ele>
        <time>1970-01-01T01:00:00Z</time>
      </trkpt>
      <trkpt lat="63.40402367" lon="10.48488417">
        <ele>182.73</ele>
        <time>1970-01-01T01:00:00Z</time>
      </trkpt>
      <trkpt lat="63.40402133" lon="10.48487233">
        <ele>182.73</ele>
        <time>1970-01-01T01:00:00Z</time>
      </trkpt>
      <trkpt lat="63.404018" lon="10.48486183">
        <ele>183.187</ele>
        <time>1970-01-01T01:00:00Z</time>
      </trkpt>
      <trkpt lat="63.4040165" lon="10.4848575">
        <ele>183.187</ele>
        <time>1970-01-01T01:00:00Z</time>
      </trkpt>
      <trkpt lat="63.4040155" lon="10.48485717">
        <ele>183.797</ele>
        <time>1970-01-01T01:00:00Z</time>
      </trkpt>
      <trkpt lat="63.40401533" lon="10.48486067">
        <ele>183.797</ele>
        <time>1970-01-01T01:00:00Z</time>
      </trkpt>
      <trkpt lat="63.40401433" lon="10.48486333">
        <ele>184.406</ele>
        <time>1970-01-01T01:00:00Z</time>
      </trkpt>
      <trkpt lat="63.404014" lon="10.48486617">
        <ele>184.406</ele>
        <time>1970-01-01T01:00:00Z</time>
      </trkpt>
      <trkpt lat="63.40401383" lon="10.48486867">
        <ele>185.016</ele>
        <time>1970-01-01T01:00:00Z</time>
      </trkpt>
      <trkpt lat="63.40401433" lon="10.48487033">
        <ele>185.016</ele>
        <time>1970-01-01T01:00:00Z</time>
      </trkpt>
      <trkpt lat="63.40401483" lon="10.48487133">
        <ele>185.625</ele>
        <time>1970-01-01T01:00:00Z</time>
      </trkpt>
      <trkpt lat="63.40401567" lon="10.48487233">
        <ele>185.625</ele>
        <time>1970-01-01T01:00:00Z</time>
      </trkpt>
      <trkpt lat="63.40401633" lon="10.484873">
        <ele>186.235</ele>
        <time>1970-01-01T01:00:00Z</time>
      </trkpt>
      <trkpt lat="63.40401683" lon="10.48487383">
        <ele>186.235</ele>
        <time>1970-01-01T01:00:00Z</time>
      </trkpt>
      <trkpt lat="63.40401717" lon="10.48487483">
        <ele>186.845</ele>
        <time>1970-01-01T01:00:00Z</time>
      </trkpt>
      <trkpt lat="63.4040175" lon="10.48487583">
        <ele>186.845</ele>
        <time>1970-01-01T01:00:00Z</time>
      </trkpt>
      <trkpt lat="63.40401783" lon="10.4848775">
        <ele>187.454</ele>
        <time>1970-01-01T01:00:00Z</time>
      </trkpt>
      <trkpt lat="63.4040185" lon="10.4848785">
        <ele>187.454</ele>
        <time>1970-01-01T01:00:00Z</time>
      </trkpt>
      <trkpt lat="63.40401917" lon="10.48487933">
        <ele>188.064</ele>
        <time>1970-01-01T01:00:00Z</time>
      </trkpt>
      <trkpt lat="63.40401967" lon="10.4848815">
        <ele>188.064</ele>
        <time>1970-01-01T01:00:00Z</time>
      </trkpt>
      <trkpt lat="63.40402017" lon="10.48488733">
        <ele>188.673</ele>
        <time>1970-01-01T01:00:00Z</time>
      </trkpt>
      <trkpt lat="63.404022" lon="10.48489517">
        <ele>188.673</ele>
        <time>1970-01-01T01:00:00Z</time>
      </trkpt>
      <trkpt lat="63.4040245" lon="10.484903">
        <ele>189.283</ele>
        <time>1970-01-01T01:00:00Z</time>
      </trkpt>
      <trkpt lat="63.40402683" lon="10.48491">
        <ele>189.283</ele>
        <time>1970-01-01T01:00:00Z</time>
      </trkpt>
      <trkpt lat="63.40402817" lon="10.48491617">
        <ele>189.74</ele>
        <time>1970-01-01T01:00:00Z</time>
      </trkpt>
      <trkpt lat="63.4040285" lon="10.48492083">
        <ele>189.74</ele>
        <time>1970-01-01T01:00:00Z</time>
      </trkpt>
      <trkpt lat="63.40402833" lon="10.484924">
        <ele>190.35</ele>
        <time>1970-01-01T01:00:00Z</time>
      </trkpt>
      <trkpt lat="63.40402817" lon="10.48492617">
        <ele>190.35</ele>
        <time>1970-01-01T01:00:00Z</time>
      </trkpt>
      <trkpt lat="63.40402833" lon="10.484928">
        <ele>190.96</ele>
        <time>1970-01-01T01:00:00Z</time>
      </trkpt>
      <trkpt lat="63.40402867" lon="10.48492983">
        <ele>190.96</ele>
        <time>1970-01-01T01:00:00Z</time>
      </trkpt>
      <trkpt lat="63.404029" lon="10.48493183">
        <ele>191.417</ele>
        <time>1970-01-01T01:00:00Z</time>
      </trkpt>
      <trkpt lat="63.40402933" lon="10.484934">
        <ele>191.417</ele>
        <time>1970-01-01T01:00:00Z</time>
      </trkpt>
      <trkpt lat="63.40402983" lon="10.48493617">
        <ele>191.874</ele>
        <time>1970-01-01T01:00:00Z</time>
      </trkpt>
      <trkpt lat="63.40403033" lon="10.48493833">
        <ele>191.874</ele>
        <time>1970-01-01T01:00:00Z</time>
      </trkpt>
      <trkpt lat="63.404031" lon="10.48494017">
        <ele>192.331</ele>
        <time>1970-01-01T01:00:00Z</time>
      </trkpt>
      <trkpt lat="63.4040315" lon="10.48494183">
        <ele>192.331</ele>
        <time>1970-01-01T01:00:00Z</time>
      </trkpt>
      <trkpt lat="63.40403183" lon="10.4849435">
        <ele>192.788</ele>
        <time>1970-01-01T01:00:00Z</time>
      </trkpt>
      <trkpt lat="63.404032" lon="10.48494567">
        <ele>192.788</ele>
        <time>1970-01-01T01:00:00Z</time>
      </trkpt>
      <trkpt lat="63.40403283" lon="10.484948">
        <ele>193.246</ele>
        <time>1970-01-01T01:00:00Z</time>
      </trkpt>
      <trkpt lat="63.404034" lon="10.4849525">
        <ele>193.246</ele>
        <time>1970-01-01T01:00:00Z</time>
      </trkpt>
      <trkpt lat="63.40403417" lon="10.48495567">
        <ele>193.703</ele>
        <time>1970-01-01T01:00:00Z</time>
      </trkpt>
      <trkpt lat="63.40403383" lon="10.484959">
        <ele>193.703</ele>
        <time>1970-01-01T01:00:00Z</time>
      </trkpt>
      <trkpt lat="63.40403367" lon="10.48496">
        <ele>194.16</ele>
        <time>1970-01-01T01:00:00Z</time>
      </trkpt>
      <trkpt lat="63.40403367" lon="10.484962">
        <ele>194.16</ele>
        <time>1970-01-01T01:00:00Z</time>
      </trkpt>
      <trkpt lat="63.40403433" lon="10.48496117">
        <ele>194.465</ele>
        <time>1970-01-01T01:00:00Z</time>
      </trkpt>
      <trkpt lat="63.40403467" lon="10.48496183">
        <ele>194.465</ele>
        <time>1970-01-01T01:00:00Z</time>
      </trkpt>
      <trkpt lat="63.40403583" lon="10.4849625">
        <ele>194.922</ele>
        <time>1970-01-01T01:00:00Z</time>
      </trkpt>
      <trkpt lat="63.4040365" lon="10.48496533">
        <ele>194.922</ele>
        <time>1970-01-01T01:00:00Z</time>
      </trkpt>
      <trkpt lat="63.4040375" lon="10.48496717">
        <ele>195.227</ele>
        <time>1970-01-01T01:00:00Z</time>
      </trkpt>
      <trkpt lat="63.40403867" lon="10.48496867">
        <ele>195.227</ele>
        <time>1970-01-01T01:00:00Z</time>
      </trkpt>
      <trkpt lat="63.40404" lon="10.4849705">
        <ele>195.684</ele>
        <time>1970-01-01T01:00:00Z</time>
      </trkpt>
      <trkpt lat="63.4040415" lon="10.484972">
        <ele>195.684</ele>
        <time>1970-01-01T01:00:00Z</time>
      </trkpt>
      <trkpt lat="63.40404317" lon="10.48497333">
        <ele>195.989</ele>
        <time>1970-01-01T01:00:00Z</time>
      </trkpt>
      <trkpt lat="63.40404467" lon="10.48497533">
        <ele>195.989</ele>
        <time>1970-01-01T01:00:00Z</time>
      </trkpt>
      <trkpt lat="63.404045" lon="10.48497967">
        <ele>196.294</ele>
        <time>1970-01-01T01:00:00Z</time>
      </trkpt>
      <trkpt lat="63.404044" lon="10.48498533">
        <ele>196.294</ele>
        <time>1970-01-01T01:00:00Z</time>
      </trkpt>
      <trkpt lat="63.40404117" lon="10.48499433">
        <ele>196.598</ele>
        <time>1970-01-01T01:00:00Z</time>
      </trkpt>
      <trkpt lat="63.40403883" lon="10.48500217">
        <ele>196.598</ele>
        <time>1970-01-01T01:00:00Z</time>
      </trkpt>
      <trkpt lat="63.40403767" lon="10.4850115">
        <ele>197.056</ele>
        <time>1970-01-01T01:00:00Z</time>
      </trkpt>
      <trkpt lat="63.40403833" lon="10.48501933">
        <ele>197.056</ele>
        <time>1970-01-01T01:00:00Z</time>
      </trkpt>
      <trkpt lat="63.4040395" lon="10.48502467">
        <ele>197.36</ele>
        <time>1970-01-01T01:00:00Z</time>
      </trkpt>
      <trkpt lat="63.40404033" lon="10.48502833">
        <ele>197.36</ele>
        <time>1970-01-01T01:00:00Z</time>
      </trkpt>
      <trkpt lat="63.4040405" lon="10.48502833">
        <ele>197.665</ele>
        <time>1970-01-01T01:00:00Z</time>
      </trkpt>
      <trkpt lat="63.404041" lon="10.4850285">
        <ele>197.665</ele>
        <time>1970-01-01T01:00:00Z</time>
      </trkpt>
      <trkpt lat="63.40404183" lon="10.48502667">
        <ele>197.97</ele>
        <time>1970-01-01T01:00:00Z</time>
      </trkpt>
      <trkpt lat="63.40404283" lon="10.48502483">
        <ele>197.97</ele>
        <time>1970-01-01T01:00:00Z</time>
      </trkpt>
      <trkpt lat="63.4040435" lon="10.48502267">
        <ele>198.275</ele>
        <time>1970-01-01T01:00:00Z</time>
      </trkpt>
      <trkpt lat="63.40404383" lon="10.48502083">
        <ele>198.275</ele>
        <time>1970-01-01T01:00:00Z</time>
      </trkpt>
      <trkpt lat="63.40404367" lon="10.4850195">
        <ele>198.58</ele>
        <time>1970-01-01T01:00:00Z</time>
      </trkpt>
      <trkpt lat="63.40404333" lon="10.485018">
        <ele>198.58</ele>
        <time>1970-01-01T01:00:00Z</time>
      </trkpt>
      <trkpt lat="63.40404317" lon="10.4850165">
        <ele>198.884</ele>
        <time>1970-01-01T01:00:00Z</time>
      </trkpt>
      <trkpt lat="63.404043" lon="10.48501467">
        <ele>198.884</ele>
        <time>1970-01-01T01:00:00Z</time>
      </trkpt>
      <trkpt lat="63.40404283" lon="10.485013">
        <ele>199.189</ele>
        <time>1970-01-01T01:00:00Z</time>
      </trkpt>
      <trkpt lat="63.4040425" lon="10.485011">
        <ele>199.189</ele>
        <time>1970-01-01T01:00:00Z</time>
      </trkpt>
      <trkpt lat="63.40404233" lon="10.48500933">
        <ele>199.494</ele>
        <time>1970-01-01T01:00:00Z</time>
      </trkpt>
      <trkpt lat="63.40404317" lon="10.48501067">
        <ele>199.494</ele>
        <time>1970-01-01T01:00:00Z</time>
      </trkpt>
      <trkpt lat="63.40404467" lon="10.48501517">
        <ele>199.951</ele>
        <time>1970-01-01T01:00:00Z</time>
      </trkpt>
      <trkpt lat="63.40404533" lon="10.48502067">
        <ele>199.951</ele>
        <time>1970-01-01T01:00:00Z</time>
      </trkpt>
      <trkpt lat="63.40404383" lon="10.48502117">
        <ele>200.256</ele>
        <time>1970-01-01T01:00:00Z</time>
      </trkpt>
      <trkpt lat="63.40404283" lon="10.48502217">
        <ele>200.256</ele>
        <time>1970-01-01T01:00:00Z</time>
      </trkpt>
      <trkpt lat="63.40404183" lon="10.48502533">
        <ele>200.561</ele>
        <time>1970-01-01T01:00:00Z</time>
      </trkpt>
      <trkpt lat="63.40404133" lon="10.48503883">
        <ele>200.561</ele>
        <time>1970-01-01T01:00:00Z</time>
      </trkpt>
      <trkpt lat="63.40404017" lon="10.48505167">
        <ele>200.866</ele>
        <time>1970-01-01T01:00:00Z</time>
      </trkpt>
      <trkpt lat="63.40403867" lon="10.48506417">
        <ele>200.866</ele>
        <time>1970-01-01T01:00:00Z</time>
      </trkpt>
      <trkpt lat="63.40403633" lon="10.48507183">
        <ele>201.17</ele>
        <time>1970-01-01T01:00:00Z</time>
      </trkpt>
      <trkpt lat="63.40403367" lon="10.48507833">
        <ele>201.17</ele>
        <time>1970-01-01T01:00:00Z</time>
      </trkpt>
      <trkpt lat="63.40403133" lon="10.48508483">
        <ele>201.475</ele>
        <time>1970-01-01T01:00:00Z</time>
      </trkpt>
      <trkpt lat="63.40403083" lon="10.48508967">
        <ele>201.475</ele>
        <time>1970-01-01T01:00:00Z</time>
      </trkpt>
      <trkpt lat="63.4040305" lon="10.4850955">
        <ele>201.932</ele>
        <time>1970-01-01T01:00:00Z</time>
      </trkpt>
      <trkpt lat="63.40403083" lon="10.485097">
        <ele>201.932</ele>
        <time>1970-01-01T01:00:00Z</time>
      </trkpt>
      <trkpt lat="63.40403183" lon="10.4850975">
        <ele>202.237</ele>
        <time>1970-01-01T01:00:00Z</time>
      </trkpt>
      <trkpt lat="63.404032" lon="10.4850945">
        <ele>202.237</ele>
        <time>1970-01-01T01:00:00Z</time>
      </trkpt>
      <trkpt lat="63.40403133" lon="10.48509167">
        <ele>202.542</ele>
        <time>1970-01-01T01:00:00Z</time>
      </trkpt>
      <trkpt lat="63.40402967" lon="10.48508517">
        <ele>202.542</ele>
        <time>1970-01-01T01:00:00Z</time>
      </trkpt>
      <trkpt lat="63.40402783" lon="10.4850775">
        <ele>202.847</ele>
        <time>1970-01-01T01:00:00Z</time>
      </trkpt>
      <trkpt lat="63.40402583" lon="10.48506933">
        <ele>202.847</ele>
        <time>1970-01-01T01:00:00Z</time>
      </trkpt>
      <trkpt lat="63.4040235" lon="10.48506217">
        <ele>203.304</ele>
        <time>1970-01-01T01:00:00Z</time>
      </trkpt>
      <trkpt lat="63.404021" lon="10.48505683">
        <ele>203.304</ele>
        <time>1970-01-01T01:00:00Z</time>
      </trkpt>
      <trkpt lat="63.40401767" lon="10.48505117">
        <ele>203.609</ele>
        <time>1970-01-01T01:00:00Z</time>
      </trkpt>
      <trkpt lat="63.4040155" lon="10.48504483">
        <ele>203.609</ele>
        <time>1970-01-01T01:00:00Z</time>
      </trkpt>
      <trkpt lat="63.404014" lon="10.48503717">
        <ele>204.066</ele>
        <time>1970-01-01T01:00:00Z</time>
      </trkpt>
      <trkpt lat="63.404014" lon="10.48502983">
        <ele>204.066</ele>
        <time>1970-01-01T01:00:00Z</time>
      </trkpt>
      <trkpt lat="63.40401383" lon="10.48502533">
        <ele>204.371</ele>
        <time>1970-01-01T01:00:00Z</time>
      </trkpt>
      <trkpt lat="63.40401417" lon="10.485024">
        <ele>204.371</ele>
        <time>1970-01-01T01:00:00Z</time>
      </trkpt>
      <trkpt lat="63.40401417" lon="10.48502417">
        <ele>204.676</ele>
        <time>1970-01-01T01:00:00Z</time>
      </trkpt>
      <trkpt lat="63.40401433" lon="10.48502517">
        <ele>204.676</ele>
        <time>1970-01-01T01:00:00Z</time>
      </trkpt>
      <trkpt lat="63.40401467" lon="10.48502533">
        <ele>205.133</ele>
        <time>1970-01-01T01:00:00Z</time>
      </trkpt>
      <trkpt lat="63.40401533" lon="10.48502617">
        <ele>205.133</ele>
        <time>1970-01-01T01:00:00Z</time>
      </trkpt>
      <trkpt lat="63.40401633" lon="10.4850275">
        <ele>205.438</ele>
        <time>1970-01-01T01:00:00Z</time>
      </trkpt>
      <trkpt lat="63.40401733" lon="10.48502817">
        <ele>205.438</ele>
        <time>1970-01-01T01:00:00Z</time>
      </trkpt>
      <trkpt lat="63.40401883" lon="10.48503067">
        <ele>205.742</ele>
        <time>1970-01-01T01:00:00Z</time>
      </trkpt>
      <trkpt lat="63.40402167" lon="10.48503733">
        <ele>205.742</ele>
        <time>1970-01-01T01:00:00Z</time>
      </trkpt>
      <trkpt lat="63.40402483" lon="10.4850555">
        <ele>206.047</ele>
        <time>1970-01-01T01:00:00Z</time>
      </trkpt>
      <trkpt lat="63.40402717" lon="10.48508067">
        <ele>206.047</ele>
        <time>1970-01-01T01:00:00Z</time>
      </trkpt>
      <trkpt lat="63.40402833" lon="10.4851135">
        <ele>206.505</ele>
        <time>1970-01-01T01:00:00Z</time>
      </trkpt>
      <trkpt lat="63.4040295" lon="10.4851445">
        <ele>206.505</ele>
        <time>1970-01-01T01:00:00Z</time>
      </trkpt>
      <trkpt lat="63.40403233" lon="10.485179">
        <ele>206.809</ele>
        <time>1970-01-01T01:00:00Z</time>
      </trkpt>
      <trkpt lat="63.40403617" lon="10.48520833">
        <ele>206.809</ele>
        <time>1970-01-01T01:00:00Z</time>
      </trkpt>
      <trkpt lat="63.40404" lon="10.485241">
        <ele>207.114</ele>
        <time>1970-01-01T01:00:00Z</time>
      </trkpt>
      <trkpt lat="63.40404517" lon="10.48526683">
        <ele>207.114</ele>
        <time>1970-01-01T01:00:00Z</time>
      </trkpt>
      <trkpt lat="63.404052" lon="10.48529717">
        <ele>207.571</ele>
        <time>1970-01-01T01:00:00Z</time>
      </trkpt>
      <trkpt lat="63.40405967" lon="10.485326">
        <ele>207.571</ele>
        <time>1970-01-01T01:00:00Z</time>
      </trkpt>
      <trkpt lat="63.40406583" lon="10.48535583">
        <ele>207.876</ele>
        <time>1970-01-01T01:00:00Z</time>
      </trkpt>
      <trkpt lat="63.4040705" lon="10.48537317">
        <ele>207.876</ele>
        <time>1970-01-01T01:00:00Z</time>
      </trkpt>
      <trkpt lat="63.40407783" lon="10.48538983">
        <ele>208.333</ele>
        <time>1970-01-01T01:00:00Z</time>
      </trkpt>
      <trkpt lat="63.404086" lon="10.48540567">
        <ele>208.333</ele>
        <time>1970-01-01T01:00:00Z</time>
      </trkpt>
      <trkpt lat="63.40409467" lon="10.485428">
        <ele>208.638</ele>
        <time>1970-01-01T01:00:00Z</time>
      </trkpt>
      <trkpt lat="63.40410083" lon="10.4854475">
        <ele>208.638</ele>
        <time>1970-01-01T01:00:00Z</time>
      </trkpt>
      <trkpt lat="63.40410517" lon="10.4854645">
        <ele>209.095</ele>
        <time>1970-01-01T01:00:00Z</time>
      </trkpt>
      <trkpt lat="63.40411033" lon="10.48548167">
        <ele>209.095</ele>
        <time>1970-01-01T01:00:00Z</time>
      </trkpt>
      <trkpt lat="63.404115" lon="10.4854955">
        <ele>209.4</ele>
        <time>1970-01-01T01:00:00Z</time>
      </trkpt>
      <trkpt lat="63.40412083" lon="10.4855135">
        <ele>209.4</ele>
        <time>1970-01-01T01:00:00Z</time>
      </trkpt>
      <trkpt lat="63.4041265" lon="10.48552867">
        <ele>209.705</ele>
        <time>1970-01-01T01:00:00Z</time>
      </trkpt>
      <trkpt lat="63.40413267" lon="10.48554417">
        <ele>209.705</ele>
        <time>1970-01-01T01:00:00Z</time>
      </trkpt>
      <trkpt lat="63.40413683" lon="10.48555617">
        <ele>210.162</ele>
        <time>1970-01-01T01:00:00Z</time>
      </trkpt>
      <trkpt lat="63.40413983" lon="10.4855685">
        <ele>210.162</ele>
        <time>1970-01-01T01:00:00Z</time>
      </trkpt>
      <trkpt lat="63.40414283" lon="10.48558317">
        <ele>210.467</ele>
        <time>1970-01-01T01:00:00Z</time>
      </trkpt>
      <trkpt lat="63.40414633" lon="10.48560033">
        <ele>210.467</ele>
        <time>1970-01-01T01:00:00Z</time>
      </trkpt>
      <trkpt lat="63.40414917" lon="10.48561683">
        <ele>210.924</ele>
        <time>1970-01-01T01:00:00Z</time>
      </trkpt>
      <trkpt lat="63.40415333" lon="10.48563417">
        <ele>210.924</ele>
        <time>1970-01-01T01:00:00Z</time>
      </trkpt>
      <trkpt lat="63.40415933" lon="10.48565483">
        <ele>211.229</ele>
        <time>1970-01-01T01:00:00Z</time>
      </trkpt>
      <trkpt lat="63.40416617" lon="10.48568">
        <ele>211.229</ele>
        <time>1970-01-01T01:00:00Z</time>
      </trkpt>
      <trkpt lat="63.4041715" lon="10.48570483">
        <ele>211.534</ele>
        <time>1970-01-01T01:00:00Z</time>
      </trkpt>
      <trkpt lat="63.4041765" lon="10.485725">
        <ele>211.534</ele>
        <time>1970-01-01T01:00:00Z</time>
      </trkpt>
      <trkpt lat="63.40418117" lon="10.48574283">
        <ele>211.839</ele>
        <time>1970-01-01T01:00:00Z</time>
      </trkpt>
      <trkpt lat="63.404186" lon="10.48575917">
        <ele>211.839</ele>
        <time>1970-01-01T01:00:00Z</time>
      </trkpt>
      <trkpt lat="63.4041895" lon="10.48578383">
        <ele>212.143</ele>
        <time>1970-01-01T01:00:00Z</time>
      </trkpt>
      <trkpt lat="63.40419233" lon="10.485812">
        <ele>212.143</ele>
        <time>1970-01-01T01:00:00Z</time>
      </trkpt>
      <trkpt lat="63.4041945" lon="10.48584667">
        <ele>212.448</ele>
        <time>1970-01-01T01:00:00Z</time>
      </trkpt>
      <trkpt lat="63.40419483" lon="10.48587667">
        <ele>212.448</ele>
        <time>1970-01-01T01:00:00Z</time>
      </trkpt>
      <trkpt lat="63.40419667" lon="10.485906">
        <ele>212.753</ele>
        <time>1970-01-01T01:00:00Z</time>
      </trkpt>
      <trkpt lat="63.40419683" lon="10.4859285">
        <ele>212.753</ele>
        <time>1970-01-01T01:00:00Z</time>
      </trkpt>
      <trkpt lat="63.40419733" lon="10.48594917">
        <ele>213.058</ele>
        <time>1970-01-01T01:00:00Z</time>
      </trkpt>
      <trkpt lat="63.40419733" lon="10.485969">
        <ele>213.058</ele>
        <time>1970-01-01T01:00:00Z</time>
      </trkpt>
      <trkpt lat="63.404199" lon="10.485992">
        <ele>213.363</ele>
        <time>1970-01-01T01:00:00Z</time>
      </trkpt>
      <trkpt lat="63.40420117" lon="10.48601283">
        <ele>213.363</ele>
        <time>1970-01-01T01:00:00Z</time>
      </trkpt>
      <trkpt lat="63.404201" lon="10.48603617">
        <ele>213.667</ele>
        <time>1970-01-01T01:00:00Z</time>
      </trkpt>
      <trkpt lat="63.4042" lon="10.4860585">
        <ele>213.667</ele>
        <time>1970-01-01T01:00:00Z</time>
      </trkpt>
      <trkpt lat="63.404198" lon="10.48608667">
        <ele>213.972</ele>
        <time>1970-01-01T01:00:00Z</time>
      </trkpt>
      <trkpt lat="63.40419267" lon="10.4861075">
        <ele>213.972</ele>
        <time>1970-01-01T01:00:00Z</time>
      </trkpt>
      <trkpt lat="63.40418817" lon="10.48612983">
        <ele>214.277</ele>
        <time>1970-01-01T01:00:00Z</time>
      </trkpt>
      <trkpt lat="63.40418217" lon="10.48615133">
        <ele>214.277</ele>
        <time>1970-01-01T01:00:00Z</time>
      </trkpt>
      <trkpt lat="63.40417967" lon="10.48617833">
        <ele>214.734</ele>
        <time>1970-01-01T01:00:00Z</time>
      </trkpt>
      <trkpt lat="63.40417617" lon="10.4862045">
        <ele>214.734</ele>
        <time>1970-01-01T01:00:00Z</time>
      </trkpt>
      <trkpt lat="63.40417417" lon="10.48623233">
        <ele>215.039</ele>
        <time>1970-01-01T01:00:00Z</time>
      </trkpt>
      <trkpt lat="63.40417233" lon="10.48626133">
        <ele>215.039</ele>
        <time>1970-01-01T01:00:00Z</time>
      </trkpt>
      <trkpt lat="63.40416883" lon="10.48629283">
        <ele>215.344</ele>
        <time>1970-01-01T01:00:00Z</time>
      </trkpt>
      <trkpt lat="63.40416517" lon="10.48632333">
        <ele>215.344</ele>
        <time>1970-01-01T01:00:00Z</time>
      </trkpt>
      <trkpt lat="63.404162" lon="10.486355">
        <ele>215.801</ele>
        <time>1970-01-01T01:00:00Z</time>
      </trkpt>
      <trkpt lat="63.40416" lon="10.48638417">
        <ele>215.801</ele>
        <time>1970-01-01T01:00:00Z</time>
      </trkpt>
      <trkpt lat="63.4041555" lon="10.48641333">
        <ele>216.106</ele>
        <time>1970-01-01T01:00:00Z</time>
      </trkpt>
      <trkpt lat="63.40415033" lon="10.48644">
        <ele>216.106</ele>
        <time>1970-01-01T01:00:00Z</time>
      </trkpt>
      <trkpt lat="63.40414417" lon="10.48646717">
        <ele>216.563</ele>
        <time>1970-01-01T01:00:00Z</time>
      </trkpt>
      <trkpt lat="63.40414067" lon="10.48649083">
        <ele>216.563</ele>
        <time>1970-01-01T01:00:00Z</time>
      </trkpt>
      <trkpt lat="63.4041345" lon="10.486515">
        <ele>216.868</ele>
        <time>1970-01-01T01:00:00Z</time>
      </trkpt>
      <trkpt lat="63.40412867" lon="10.486541">
        <ele>216.868</ele>
        <time>1970-01-01T01:00:00Z</time>
      </trkpt>
      <trkpt lat="63.40412233" lon="10.48657217">
        <ele>217.325</ele>
        <time>1970-01-01T01:00:00Z</time>
      </trkpt>
      <trkpt lat="63.40411817" lon="10.48660267">
        <ele>217.325</ele>
        <time>1970-01-01T01:00:00Z</time>
      </trkpt>
      <trkpt lat="63.404114" lon="10.48662983">
        <ele>217.782</ele>
        <time>1970-01-01T01:00:00Z</time>
      </trkpt>
      <trkpt lat="63.40411017" lon="10.48665067">
        <ele>217.782</ele>
        <time>1970-01-01T01:00:00Z</time>
      </trkpt>
      <trkpt lat="63.40410633" lon="10.48666867">
        <ele>218.239</ele>
        <time>1970-01-01T01:00:00Z</time>
      </trkpt>
      <trkpt lat="63.404102" lon="10.48668583">
        <ele>218.239</ele>
        <time>1970-01-01T01:00:00Z</time>
      </trkpt>
      <trkpt lat="63.40409783" lon="10.486706">
        <ele>218.697</ele>
        <time>1970-01-01T01:00:00Z</time>
      </trkpt>
      <trkpt lat="63.4040925" lon="10.48672667">
        <ele>218.697</ele>
        <time>1970-01-01T01:00:00Z</time>
      </trkpt>
      <trkpt lat="63.40408833" lon="10.48674783">
        <ele>219.154</ele>
        <time>1970-01-01T01:00:00Z</time>
      </trkpt>
      <trkpt lat="63.40408017" lon="10.48676617">
        <ele>219.154</ele>
        <time>1970-01-01T01:00:00Z</time>
      </trkpt>
      <trkpt lat="63.404072" lon="10.48678417">
        <ele>219.611</ele>
        <time>1970-01-01T01:00:00Z</time>
      </trkpt>
      <trkpt lat="63.40406167" lon="10.48680067">
        <ele>219.611</ele>
        <time>1970-01-01T01:00:00Z</time>
      </trkpt>
      <trkpt lat="63.404052" lon="10.48681817">
        <ele>220.068</ele>
        <time>1970-01-01T01:00:00Z</time>
      </trkpt>
      <trkpt lat="63.40404167" lon="10.48683517">
        <ele>220.068</ele>
        <time>1970-01-01T01:00:00Z</time>
      </trkpt>
      <trkpt lat="63.40403033" lon="10.48685383">
        <ele>220.678</ele>
        <time>1970-01-01T01:00:00Z</time>
      </trkpt>
      <trkpt lat="63.40401883" lon="10.4868705">
        <ele>220.678</ele>
        <time>1970-01-01T01:00:00Z</time>
      </trkpt>
      <trkpt lat="63.4040075" lon="10.4868865">
        <ele>221.135</ele>
        <time>1970-01-01T01:00:00Z</time>
      </trkpt>
      <trkpt lat="63.40399617" lon="10.486901">
        <ele>221.135</ele>
        <time>1970-01-01T01:00:00Z</time>
      </trkpt>
      <trkpt lat="63.40398283" lon="10.486912">
        <ele>221.745</ele>
        <time>1970-01-01T01:00:00Z</time>
      </trkpt>
      <trkpt lat="63.40396783" lon="10.48691883">
        <ele>221.745</ele>
        <time>1970-01-01T01:00:00Z</time>
      </trkpt>
      <trkpt lat="63.403953" lon="10.48692167">
        <ele>222.202</ele>
        <time>1970-01-01T01:00:00Z</time>
      </trkpt>
      <trkpt lat="63.40394267" lon="10.48692617">
        <ele>222.202</ele>
        <time>1970-01-01T01:00:00Z</time>
      </trkpt>
      <trkpt lat="63.40393417" lon="10.48693517">
        <ele>222.812</ele>
        <time>1970-01-01T01:00:00Z</time>
      </trkpt>
      <trkpt lat="63.40392667" lon="10.486951">
        <ele>222.812</ele>
        <time>1970-01-01T01:00:00Z</time>
      </trkpt>
      <trkpt lat="63.40391983" lon="10.48697">
        <ele>223.269</ele>
        <time>1970-01-01T01:00:00Z</time>
      </trkpt>
      <trkpt lat="63.40391367" lon="10.48698783">
        <ele>223.269</ele>
        <time>1970-01-01T01:00:00Z</time>
      </trkpt>
      <trkpt lat="63.40390767" lon="10.48700117">
        <ele>223.726</ele>
        <time>1970-01-01T01:00:00Z</time>
      </trkpt>
      <trkpt lat="63.40389833" lon="10.48701833">
        <ele>223.726</ele>
        <time>1970-01-01T01:00:00Z</time>
      </trkpt>
      <trkpt lat="63.403889" lon="10.48703733">
        <ele>224.336</ele>
        <time>1970-01-01T01:00:00Z</time>
      </trkpt>
      <trkpt lat="63.40388017" lon="10.48706083">
        <ele>224.336</ele>
        <time>1970-01-01T01:00:00Z</time>
      </trkpt>
      <trkpt lat="63.40387333" lon="10.48708117">
        <ele>224.793</ele>
        <time>1970-01-01T01:00:00Z</time>
      </trkpt>
      <trkpt lat="63.403866" lon="10.48710017">
        <ele>224.793</ele>
        <time>1970-01-01T01:00:00Z</time>
      </trkpt>
      <trkpt lat="63.40385783" lon="10.487115">
        <ele>225.25</ele>
        <time>1970-01-01T01:00:00Z</time>
      </trkpt>
      <trkpt lat="63.40385033" lon="10.4871335">
        <ele>225.25</ele>
        <time>1970-01-01T01:00:00Z</time>
      </trkpt>
      <trkpt lat="63.40384333" lon="10.4871545">
        <ele>225.707</ele>
        <time>1970-01-01T01:00:00Z</time>
      </trkpt>
      <trkpt lat="63.40383433" lon="10.48717983">
        <ele>225.707</ele>
        <time>1970-01-01T01:00:00Z</time>
      </trkpt>
      <trkpt lat="63.40382517" lon="10.48720117">
        <ele>226.164</ele>
        <time>1970-01-01T01:00:00Z</time>
      </trkpt>
      <trkpt lat="63.4038155" lon="10.487219">
        <ele>226.164</ele>
        <time>1970-01-01T01:00:00Z</time>
      </trkpt>
      <trkpt lat="63.40380967" lon="10.4872355">
        <ele>226.622</ele>
        <time>1970-01-01T01:00:00Z</time>
      </trkpt>
      <trkpt lat="63.40380117" lon="10.48725517">
        <ele>226.622</ele>
        <time>1970-01-01T01:00:00Z</time>
      </trkpt>
      <trkpt lat="63.4037915" lon="10.48727683">
        <ele>227.079</ele>
        <time>1970-01-01T01:00:00Z</time>
      </trkpt>
      <trkpt lat="63.40378033" lon="10.48729533">
        <ele>227.079</ele>
        <time>1970-01-01T01:00:00Z</time>
      </trkpt>
      <trkpt lat="63.40377217" lon="10.48731">
        <ele>227.384</ele>
        <time>1970-01-01T01:00:00Z</time>
      </trkpt>
      <trkpt lat="63.40376667" lon="10.48732183">
        <ele>227.384</ele>
        <time>1970-01-01T01:00:00Z</time>
      </trkpt>
      <trkpt lat="63.4037575" lon="10.4873295">
        <ele>227.841</ele>
        <time>1970-01-01T01:00:00Z</time>
      </trkpt>
      <trkpt lat="63.4037405" lon="10.48733133">
        <ele>227.841</ele>
        <time>1970-01-01T01:00:00Z</time>
      </trkpt>
      <trkpt lat="63.40371933" lon="10.4873315">
        <ele>228.298</ele>
        <time>1970-01-01T01:00:00Z</time>
      </trkpt>
      <trkpt lat="63.40369883" lon="10.48733833">
        <ele>228.298</ele>
        <time>1970-01-01T01:00:00Z</time>
      </trkpt>
      <trkpt lat="63.4036835" lon="10.48734967">
        <ele>228.603</ele>
        <time>1970-01-01T01:00:00Z</time>
      </trkpt>
      <trkpt lat="63.40366817" lon="10.48736083">
        <ele>228.603</ele>
        <time>1970-01-01T01:00:00Z</time>
      </trkpt>
      <trkpt lat="63.40365417" lon="10.48736533">
        <ele>229.06</ele>
        <time>1970-01-01T01:00:00Z</time>
      </trkpt>
      <trkpt lat="63.403641" lon="10.48736533">
        <ele>229.06</ele>
        <time>1970-01-01T01:00:00Z</time>
      </trkpt>
      <trkpt lat="63.40362817" lon="10.48736367">
        <ele>229.365</ele>
        <time>1970-01-01T01:00:00Z</time>
      </trkpt>
      <trkpt lat="63.403615" lon="10.48736417">
        <ele>229.365</ele>
        <time>1970-01-01T01:00:00Z</time>
      </trkpt>
      <trkpt lat="63.40360183" lon="10.48736883">
        <ele>229.822</ele>
        <time>1970-01-01T01:00:00Z</time>
      </trkpt>
      <trkpt lat="63.4035895" lon="10.48737533">
        <ele>229.822</ele>
        <time>1970-01-01T01:00:00Z</time>
      </trkpt>
      <trkpt lat="63.4035765" lon="10.48738083">
        <ele>230.127</ele>
        <time>1970-01-01T01:00:00Z</time>
      </trkpt>
      <trkpt lat="63.40356217" lon="10.48738683">
        <ele>230.127</ele>
        <time>1970-01-01T01:00:00Z</time>
      </trkpt>
      <trkpt lat="63.40354717" lon="10.4873975">
        <ele>230.584</ele>
        <time>1970-01-01T01:00:00Z</time>
      </trkpt>
      <trkpt lat="63.40353033" lon="10.487411">
        <ele>230.584</ele>
        <time>1970-01-01T01:00:00Z</time>
      </trkpt>
      <trkpt lat="63.40351417" lon="10.48742617">
        <ele>230.889</ele>
        <time>1970-01-01T01:00:00Z</time>
      </trkpt>
      <trkpt lat="63.4034975" lon="10.48743833">
        <ele>230.889</ele>
        <time>1970-01-01T01:00:00Z</time>
      </trkpt>
      <trkpt lat="63.40348383" lon="10.48744817">
        <ele>231.194</ele>
        <time>1970-01-01T01:00:00Z</time>
      </trkpt>
      <trkpt lat="63.4034725" lon="10.48745467">
        <ele>231.194</ele>
        <time>1970-01-01T01:00:00Z</time>
      </trkpt>
      <trkpt lat="63.40346467" lon="10.4874605">
        <ele>231.651</ele>
        <time>1970-01-01T01:00:00Z</time>
      </trkpt>
      <trkpt lat="63.40346067" lon="10.48746717">
        <ele>231.651</ele>
        <time>1970-01-01T01:00:00Z</time>
      </trkpt>
      <trkpt lat="63.4034585" lon="10.48747283">
        <ele>231.956</ele>
        <time>1970-01-01T01:00:00Z</time>
      </trkpt>
      <trkpt lat="63.403457" lon="10.48747317">
        <ele>231.956</ele>
        <time>1970-01-01T01:00:00Z</time>
      </trkpt>
      <trkpt lat="63.40345533" lon="10.4874715">
        <ele>232.413</ele>
        <time>1970-01-01T01:00:00Z</time>
      </trkpt>
      <trkpt lat="63.403454" lon="10.48747267">
        <ele>232.413</ele>
        <time>1970-01-01T01:00:00Z</time>
      </trkpt>
      <trkpt lat="63.40345383" lon="10.48747983">
        <ele>232.87</ele>
        <time>1970-01-01T01:00:00Z</time>
      </trkpt>
      <trkpt lat="63.40345317" lon="10.48748767">
        <ele>232.87</ele>
        <time>1970-01-01T01:00:00Z</time>
      </trkpt>
      <trkpt lat="63.4034525" lon="10.4874925">
        <ele>233.327</ele>
        <time>1970-01-01T01:00:00Z</time>
      </trkpt>
      <trkpt lat="63.40345133" lon="10.48749283">
        <ele>233.327</ele>
        <time>1970-01-01T01:00:00Z</time>
      </trkpt>
      <trkpt lat="63.40345" lon="10.48748967">
        <ele>233.784</ele>
        <time>1970-01-01T01:00:00Z</time>
      </trkpt>
      <trkpt lat="63.40344817" lon="10.4874845">
        <ele>233.784</ele>
        <time>1970-01-01T01:00:00Z</time>
      </trkpt>
      <trkpt lat="63.40344633" lon="10.4874795">
        <ele>234.242</ele>
        <time>1970-01-01T01:00:00Z</time>
      </trkpt>
      <trkpt lat="63.40344483" lon="10.487476">
        <ele>234.242</ele>
        <time>1970-01-01T01:00:00Z</time>
      </trkpt>
      <trkpt lat="63.40344383" lon="10.48747267">
        <ele>234.699</ele>
        <time>1970-01-01T01:00:00Z</time>
      </trkpt>
      <trkpt lat="63.40344333" lon="10.487469">
        <ele>234.699</ele>
        <time>1970-01-01T01:00:00Z</time>
      </trkpt>
      <trkpt lat="63.403443" lon="10.48746533">
        <ele>235.004</ele>
        <time>1970-01-01T01:00:00Z</time>
      </trkpt>
      <trkpt lat="63.40344233" lon="10.48746117">
        <ele>235.004</ele>
        <time>1970-01-01T01:00:00Z</time>
      </trkpt>
      <trkpt lat="63.40344167" lon="10.487456">
        <ele>235.461</ele>
        <time>1970-01-01T01:00:00Z</time>
      </trkpt>
      <trkpt lat="63.40344133" lon="10.48744983">
        <ele>235.461</ele>
        <time>1970-01-01T01:00:00Z</time>
      </trkpt>
      <trkpt lat="63.40344083" lon="10.48744267">
        <ele>235.766</ele>
        <time>1970-01-01T01:00:00Z</time>
      </trkpt>
      <trkpt lat="63.40343983" lon="10.487437">
        <ele>235.766</ele>
        <time>1970-01-01T01:00:00Z</time>
      </trkpt>
      <trkpt lat="63.40343667" lon="10.4874355">
        <ele>236.07</ele>
        <time>1970-01-01T01:00:00Z</time>
      </trkpt>
      <trkpt lat="63.403433" lon="10.48743883">
        <ele>236.07</ele>
        <time>1970-01-01T01:00:00Z</time>
      </trkpt>
      <trkpt lat="63.40342833" lon="10.487448">
        <ele>236.375</ele>
        <time>1970-01-01T01:00:00Z</time>
      </trkpt>
      <trkpt lat="63.40342467" lon="10.487459">
        <ele>236.375</ele>
        <time>1970-01-01T01:00:00Z</time>
      </trkpt>
      <trkpt lat="63.40342" lon="10.48747617">
        <ele>236.68</ele>
        <time>1970-01-01T01:00:00Z</time>
      </trkpt>
      <trkpt lat="63.40341567" lon="10.4874955">
        <ele>236.68</ele>
        <time>1970-01-01T01:00:00Z</time>
      </trkpt>
      <trkpt lat="63.40341117" lon="10.48751767">
        <ele>236.985</ele>
        <time>1970-01-01T01:00:00Z</time>
      </trkpt>
      <trkpt lat="63.4034075" lon="10.4875415">
        <ele>236.985</ele>
        <time>1970-01-01T01:00:00Z</time>
      </trkpt>
      <trkpt lat="63.40340317" lon="10.48756567">
        <ele>237.137</ele>
        <time>1970-01-01T01:00:00Z</time>
      </trkpt>
      <trkpt lat="63.40339867" lon="10.48759017">
        <ele>237.137</ele>
        <time>1970-01-01T01:00:00Z</time>
      </trkpt>
      <trkpt lat="63.40339317" lon="10.48761283">
        <ele>237.29</ele>
        <time>1970-01-01T01:00:00Z</time>
      </trkpt>
      <trkpt lat="63.40338517" lon="10.48763583">
        <ele>237.29</ele>
        <time>1970-01-01T01:00:00Z</time>
      </trkpt>
      <trkpt lat="63.4033775" lon="10.48766183">
        <ele>237.594</ele>
        <time>1970-01-01T01:00:00Z</time>
      </trkpt>
      <trkpt lat="63.40336967" lon="10.48769133">
        <ele>237.594</ele>
        <time>1970-01-01T01:00:00Z</time>
      </trkpt>
      <trkpt lat="63.403366" lon="10.48772067">
        <ele>237.747</ele>
        <time>1970-01-01T01:00:00Z</time>
      </trkpt>
      <trkpt lat="63.40336217" lon="10.48774733">
        <ele>237.747</ele>
        <time>1970-01-01T01:00:00Z</time>
      </trkpt>
      <trkpt lat="63.40335933" lon="10.487776">
        <ele>238.052</ele>
        <time>1970-01-01T01:00:00Z</time>
      </trkpt>
      <trkpt lat="63.403355" lon="10.48780517">
        <ele>238.052</ele>
        <time>1970-01-01T01:00:00Z</time>
      </trkpt>
      <trkpt lat="63.4033525" lon="10.48783517">
        <ele>238.356</ele>
        <time>1970-01-01T01:00:00Z</time>
      </trkpt>
      <trkpt lat="63.40334867" lon="10.48785683">
        <ele>238.356</ele>
        <time>1970-01-01T01:00:00Z</time>
      </trkpt>
      <trkpt lat="63.4033435" lon="10.487883">
        <ele>238.661</ele>
        <time>1970-01-01T01:00:00Z</time>
      </trkpt>
      <trkpt lat="63.40333767" lon="10.48791217">
        <ele>238.661</ele>
        <time>1970-01-01T01:00:00Z</time>
      </trkpt>
      <trkpt lat="63.40333217" lon="10.487946">
        <ele>238.966</ele>
        <time>1970-01-01T01:00:00Z</time>
      </trkpt>
      <trkpt lat="63.40333017" lon="10.4879775">
        <ele>238.966</ele>
        <time>1970-01-01T01:00:00Z</time>
      </trkpt>
      <trkpt lat="63.4033265" lon="10.488008">
        <ele>239.271</ele>
        <time>1970-01-01T01:00:00Z</time>
      </trkpt>
      <trkpt lat="63.40332317" lon="10.48803917">
        <ele>239.271</ele>
        <time>1970-01-01T01:00:00Z</time>
      </trkpt>
      <trkpt lat="63.40331683" lon="10.48807083">
        <ele>239.576</ele>
        <time>1970-01-01T01:00:00Z</time>
      </trkpt>
      <trkpt lat="63.40331183" lon="10.48810333">
        <ele>239.576</ele>
        <time>1970-01-01T01:00:00Z</time>
      </trkpt>
      <trkpt lat="63.403308" lon="10.48813483">
        <ele>239.881</ele>
        <time>1970-01-01T01:00:00Z</time>
      </trkpt>
      <trkpt lat="63.40330517" lon="10.48816667">
        <ele>239.881</ele>
        <time>1970-01-01T01:00:00Z</time>
      </trkpt>
      <trkpt lat="63.4033015" lon="10.4882005">
        <ele>240.185</ele>
        <time>1970-01-01T01:00:00Z</time>
      </trkpt>
      <trkpt lat="63.40329717" lon="10.488236">
        <ele>240.185</ele>
        <time>1970-01-01T01:00:00Z</time>
      </trkpt>
      <trkpt lat="63.40329133" lon="10.4882685">
        <ele>240.643</ele>
        <time>1970-01-01T01:00:00Z</time>
      </trkpt>
      <trkpt lat="63.40328667" lon="10.48830083">
        <ele>240.643</ele>
        <time>1970-01-01T01:00:00Z</time>
      </trkpt>
      <trkpt lat="63.403281" lon="10.488333">
        <ele>240.947</ele>
        <time>1970-01-01T01:00:00Z</time>
      </trkpt>
      <trkpt lat="63.4032745" lon="10.4883675">
        <ele>240.947</ele>
        <time>1970-01-01T01:00:00Z</time>
      </trkpt>
      <trkpt lat="63.403266" lon="10.48839517">
        <ele>241.252</ele>
        <time>1970-01-01T01:00:00Z</time>
      </trkpt>
      <trkpt lat="63.40325733" lon="10.48842233">
        <ele>241.252</ele>
        <time>1970-01-01T01:00:00Z</time>
      </trkpt>
      <trkpt lat="63.40324983" lon="10.4884535">
        <ele>241.709</ele>
        <time>1970-01-01T01:00:00Z</time>
      </trkpt>
      <trkpt lat="63.40324217" lon="10.48849067">
        <ele>241.709</ele>
        <time>1970-01-01T01:00:00Z</time>
      </trkpt>
      <trkpt lat="63.40323317" lon="10.488527">
        <ele>242.014</ele>
        <time>1970-01-01T01:00:00Z</time>
      </trkpt>
      <trkpt lat="63.40322367" lon="10.4885645">
        <ele>242.014</ele>
        <time>1970-01-01T01:00:00Z</time>
      </trkpt>
      <trkpt lat="63.40321367" lon="10.48860133">
        <ele>242.471</ele>
        <time>1970-01-01T01:00:00Z</time>
      </trkpt>
      <trkpt lat="63.40320383" lon="10.48863367">
        <ele>242.471</ele>
        <time>1970-01-01T01:00:00Z</time>
      </trkpt>
      <trkpt lat="63.4031935" lon="10.48865717">
        <ele>242.776</ele>
        <time>1970-01-01T01:00:00Z</time>
      </trkpt>
      <trkpt lat="63.40318433" lon="10.48867717">
        <ele>242.776</ele>
        <time>1970-01-01T01:00:00Z</time>
      </trkpt>
      <trkpt lat="63.40317783" lon="10.48870033">
        <ele>243.233</ele>
        <time>1970-01-01T01:00:00Z</time>
      </trkpt>
      <trkpt lat="63.403171" lon="10.48872733">
        <ele>243.233</ele>
        <time>1970-01-01T01:00:00Z</time>
      </trkpt>
      <trkpt lat="63.403163" lon="10.48875617">
        <ele>243.691</ele>
        <time>1970-01-01T01:00:00Z</time>
      </trkpt>
      <trkpt lat="63.40315217" lon="10.4887845">
        <ele>243.691</ele>
        <time>1970-01-01T01:00:00Z</time>
      </trkpt>
      <trkpt lat="63.40314183" lon="10.48881033">
        <ele>243.995</ele>
        <time>1970-01-01T01:00:00Z</time>
      </trkpt>
      <trkpt lat="63.403131" lon="10.48883467">
        <ele>243.995</ele>
        <time>1970-01-01T01:00:00Z</time>
      </trkpt>
      <trkpt lat="63.40312083" lon="10.4888575">
        <ele>244.453</ele>
        <time>1970-01-01T01:00:00Z</time>
      </trkpt>
      <trkpt lat="63.40310967" lon="10.48887783">
        <ele>244.453</ele>
        <time>1970-01-01T01:00:00Z</time>
      </trkpt>
      <trkpt lat="63.40309817" lon="10.48889817">
        <ele>244.757</ele>
        <time>1970-01-01T01:00:00Z</time>
      </trkpt>
      <trkpt lat="63.4030855" lon="10.488917">
        <ele>244.757</ele>
        <time>1970-01-01T01:00:00Z</time>
      </trkpt>
      <trkpt lat="63.4030725" lon="10.48893633">
        <ele>245.215</ele>
        <time>1970-01-01T01:00:00Z</time>
      </trkpt>
      <trkpt lat="63.40305933" lon="10.48895533">
        <ele>245.215</ele>
        <time>1970-01-01T01:00:00Z</time>
      </trkpt>
      <trkpt lat="63.40304633" lon="10.4889735">
        <ele>245.672</ele>
        <time>1970-01-01T01:00:00Z</time>
      </trkpt>
      <trkpt lat="63.40303217" lon="10.488994">
        <ele>245.672</ele>
        <time>1970-01-01T01:00:00Z</time>
      </trkpt>
      <trkpt lat="63.40301967" lon="10.48901233">
        <ele>245.977</ele>
        <time>1970-01-01T01:00:00Z</time>
      </trkpt>
      <trkpt lat="63.40300633" lon="10.4890325">
        <ele>245.977</ele>
        <time>1970-01-01T01:00:00Z</time>
      </trkpt>
      <trkpt lat="63.40299433" lon="10.48905067">
        <ele>246.434</ele>
        <time>1970-01-01T01:00:00Z</time>
      </trkpt>
      <trkpt lat="63.4029795" lon="10.48906967">
        <ele>246.434</ele>
        <time>1970-01-01T01:00:00Z</time>
      </trkpt>
      <trkpt lat="63.40296467" lon="10.4890875">
        <ele>246.739</ele>
        <time>1970-01-01T01:00:00Z</time>
      </trkpt>
      <trkpt lat="63.40294983" lon="10.48910667">
        <ele>246.739</ele>
        <time>1970-01-01T01:00:00Z</time>
      </trkpt>
      <trkpt lat="63.40293617" lon="10.48912917">
        <ele>247.043</ele>
        <time>1970-01-01T01:00:00Z</time>
      </trkpt>
      <trkpt lat="63.40292333" lon="10.48915283">
        <ele>247.043</ele>
        <time>1970-01-01T01:00:00Z</time>
      </trkpt>
      <trkpt lat="63.4029095" lon="10.48917433">
        <ele>247.348</ele>
        <time>1970-01-01T01:00:00Z</time>
      </trkpt>
      <trkpt lat="63.402895" lon="10.48919433">
        <ele>247.348</ele>
        <time>1970-01-01T01:00:00Z</time>
      </trkpt>
      <trkpt lat="63.40288" lon="10.489213">
        <ele>247.653</ele>
        <time>1970-01-01T01:00:00Z</time>
      </trkpt>
      <trkpt lat="63.402866" lon="10.48923367">
        <ele>247.653</ele>
        <time>1970-01-01T01:00:00Z</time>
      </trkpt>
      <trkpt lat="63.40285283" lon="10.48925083">
        <ele>247.958</ele>
        <time>1970-01-01T01:00:00Z</time>
      </trkpt>
      <trkpt lat="63.40283967" lon="10.48927017">
        <ele>247.958</ele>
        <time>1970-01-01T01:00:00Z</time>
      </trkpt>
      <trkpt lat="63.40282617" lon="10.48928867">
        <ele>248.263</ele>
        <time>1970-01-01T01:00:00Z</time>
      </trkpt>
      <trkpt lat="63.4028125" lon="10.48931033">
        <ele>248.263</ele>
        <time>1970-01-01T01:00:00Z</time>
      </trkpt>
      <trkpt lat="63.4027995" lon="10.48933117">
        <ele>248.567</ele>
        <time>1970-01-01T01:00:00Z</time>
      </trkpt>
      <trkpt lat="63.40278683" lon="10.48935233">
        <ele>248.567</ele>
        <time>1970-01-01T01:00:00Z</time>
      </trkpt>
      <trkpt lat="63.40277433" lon="10.48937367">
        <ele>248.72</ele>
        <time>1970-01-01T01:00:00Z</time>
      </trkpt>
      <trkpt lat="63.40276083" lon="10.48939633">
        <ele>248.72</ele>
        <time>1970-01-01T01:00:00Z</time>
      </trkpt>
      <trkpt lat="63.40274767" lon="10.48941817">
        <ele>249.025</ele>
        <time>1970-01-01T01:00:00Z</time>
      </trkpt>
      <trkpt lat="63.4027355" lon="10.48944117">
        <ele>249.025</ele>
        <time>1970-01-01T01:00:00Z</time>
      </trkpt>
      <trkpt lat="63.40272433" lon="10.48946467">
        <ele>249.177</ele>
        <time>1970-01-01T01:00:00Z</time>
      </trkpt>
      <trkpt lat="63.40271167" lon="10.48948933">
        <ele>249.177</ele>
        <time>1970-01-01T01:00:00Z</time>
      </trkpt>
      <trkpt lat="63.40269733" lon="10.48951367">
        <ele>249.329</ele>
        <time>1970-01-01T01:00:00Z</time>
      </trkpt>
      <trkpt lat="63.40268133" lon="10.48953583">
        <ele>249.329</ele>
        <time>1970-01-01T01:00:00Z</time>
      </trkpt>
      <trkpt lat="63.40266533" lon="10.489556">
        <ele>249.482</ele>
        <time>1970-01-01T01:00:00Z</time>
      </trkpt>
      <trkpt lat="63.40265067" lon="10.48957483">
        <ele>249.482</ele>
        <time>1970-01-01T01:00:00Z</time>
      </trkpt>
      <trkpt lat="63.40263683" lon="10.48959583">
        <ele>249.634</ele>
        <time>1970-01-01T01:00:00Z</time>
      </trkpt>
      <trkpt lat="63.4026235" lon="10.48961467">
        <ele>249.634</ele>
        <time>1970-01-01T01:00:00Z</time>
      </trkpt>
      <trkpt lat="63.4026095" lon="10.48963233">
        <ele>249.787</ele>
        <time>1970-01-01T01:00:00Z</time>
      </trkpt>
      <trkpt lat="63.4025955" lon="10.48964633">
        <ele>249.787</ele>
        <time>1970-01-01T01:00:00Z</time>
      </trkpt>
      <trkpt lat="63.40258167" lon="10.48966367">
        <ele>249.939</ele>
        <time>1970-01-01T01:00:00Z</time>
      </trkpt>
      <trkpt lat="63.40256783" lon="10.48967967">
        <ele>249.939</ele>
        <time>1970-01-01T01:00:00Z</time>
      </trkpt>
      <trkpt lat="63.40255517" lon="10.489697">
        <ele>249.939</ele>
        <time>1970-01-01T01:00:00Z</time>
      </trkpt>
      <trkpt lat="63.40254333" lon="10.48971283">
        <ele>249.939</ele>
        <time>1970-01-01T01:00:00Z</time>
      </trkpt>
      <trkpt lat="63.40253133" lon="10.48973">
        <ele>250.091</ele>
        <time>1970-01-01T01:00:00Z</time>
      </trkpt>
      <trkpt lat="63.4025185" lon="10.489748">
        <ele>250.091</ele>
        <time>1970-01-01T01:00:00Z</time>
      </trkpt>
      <trkpt lat="63.40250517" lon="10.48976883">
        <ele>250.091</ele>
        <time>1970-01-01T01:00:00Z</time>
      </trkpt>
      <trkpt lat="63.40249167" lon="10.489791">
        <ele>250.091</ele>
        <time>1970-01-01T01:00:00Z</time>
      </trkpt>
      <trkpt lat="63.40247783" lon="10.489808">
        <ele>250.244</ele>
        <time>1970-01-01T01:00:00Z</time>
      </trkpt>
      <trkpt lat="63.402463" lon="10.4898185">
        <ele>250.244</ele>
        <time>1970-01-01T01:00:00Z</time>
      </trkpt>
      <trkpt lat="63.40244717" lon="10.489827">
        <ele>250.244</ele>
        <time>1970-01-01T01:00:00Z</time>
      </trkpt>
      <trkpt lat="63.40243017" lon="10.48983333">
        <ele>250.244</ele>
        <time>1970-01-01T01:00:00Z</time>
      </trkpt>
      <trkpt lat="63.40241267" lon="10.48984183">
        <ele>250.244</ele>
        <time>1970-01-01T01:00:00Z</time>
      </trkpt>
      <trkpt lat="63.4023955" lon="10.48984667">
        <ele>250.244</ele>
        <time>1970-01-01T01:00:00Z</time>
      </trkpt>
      <trkpt lat="63.40237967" lon="10.48985167">
        <ele>250.244</ele>
        <time>1970-01-01T01:00:00Z</time>
      </trkpt>
      <trkpt lat="63.4023645" lon="10.48985483">
        <ele>250.244</ele>
        <time>1970-01-01T01:00:00Z</time>
      </trkpt>
      <trkpt lat="63.40235" lon="10.48986283">
        <ele>250.244</ele>
        <time>1970-01-01T01:00:00Z</time>
      </trkpt>
      <trkpt lat="63.40233467" lon="10.48987217">
        <ele>250.244</ele>
        <time>1970-01-01T01:00:00Z</time>
      </trkpt>
      <trkpt lat="63.402321" lon="10.4898815">
        <ele>250.244</ele>
        <time>1970-01-01T01:00:00Z</time>
      </trkpt>
      <trkpt lat="63.402308" lon="10.48988583">
        <ele>250.244</ele>
        <time>1970-01-01T01:00:00Z</time>
      </trkpt>
      <trkpt lat="63.40229617" lon="10.4898905">
        <ele>250.244</ele>
        <time>1970-01-01T01:00:00Z</time>
      </trkpt>
      <trkpt lat="63.40228333" lon="10.48989567">
        <ele>250.244</ele>
        <time>1970-01-01T01:00:00Z</time>
      </trkpt>
      <trkpt lat="63.40227" lon="10.48989967">
        <ele>250.091</ele>
        <time>1970-01-01T01:00:00Z</time>
      </trkpt>
      <trkpt lat="63.40225633" lon="10.48990333">
        <ele>250.091</ele>
        <time>1970-01-01T01:00:00Z</time>
      </trkpt>
      <trkpt lat="63.402243" lon="10.48990717">
        <ele>250.091</ele>
        <time>1970-01-01T01:00:00Z</time>
      </trkpt>
      <trkpt lat="63.4022295" lon="10.48991267">
        <ele>250.091</ele>
        <time>1970-01-01T01:00:00Z</time>
      </trkpt>
      <trkpt lat="63.40221667" lon="10.48991783">
        <ele>250.091</ele>
        <time>1970-01-01T01:00:00Z</time>
      </trkpt>
      <trkpt lat="63.40220383" lon="10.48992083">
        <ele>250.091</ele>
        <time>1970-01-01T01:00:00Z</time>
      </trkpt>
      <trkpt lat="63.4021885" lon="10.4899195">
        <ele>250.091</ele>
        <time>1970-01-01T01:00:00Z</time>
      </trkpt>
      <trkpt lat="63.402174" lon="10.48991267">
        <ele>250.091</ele>
        <time>1970-01-01T01:00:00Z</time>
      </trkpt>
      <trkpt lat="63.4021575" lon="10.48990783">
        <ele>250.091</ele>
        <time>1970-01-01T01:00:00Z</time>
      </trkpt>
      <trkpt lat="63.40214483" lon="10.48990667">
        <ele>250.091</ele>
        <time>1970-01-01T01:00:00Z</time>
      </trkpt>
      <trkpt lat="63.402129" lon="10.48990583">
        <ele>249.939</ele>
        <time>1970-01-01T01:00:00Z</time>
      </trkpt>
      <trkpt lat="63.40211367" lon="10.4899015">
        <ele>249.939</ele>
        <time>1970-01-01T01:00:00Z</time>
      </trkpt>
      <trkpt lat="63.40209617" lon="10.489896">
        <ele>249.939</ele>
        <time>1970-01-01T01:00:00Z</time>
      </trkpt>
      <trkpt lat="63.402079" lon="10.48989117">
        <ele>249.939</ele>
        <time>1970-01-01T01:00:00Z</time>
      </trkpt>
      <trkpt lat="63.40206167" lon="10.48988817">
        <ele>249.939</ele>
        <time>1970-01-01T01:00:00Z</time>
      </trkpt>
      <trkpt lat="63.40204467" lon="10.48988667">
        <ele>249.939</ele>
        <time>1970-01-01T01:00:00Z</time>
      </trkpt>
      <trkpt lat="63.40202933" lon="10.48989067">
        <ele>249.939</ele>
        <time>1970-01-01T01:00:00Z</time>
      </trkpt>
      <trkpt lat="63.40201567" lon="10.48989917">
        <ele>249.939</ele>
        <time>1970-01-01T01:00:00Z</time>
      </trkpt>
      <trkpt lat="63.40200267" lon="10.48991333">
        <ele>249.939</ele>
        <time>1970-01-01T01:00:00Z</time>
      </trkpt>
      <trkpt lat="63.4019895" lon="10.4899265">
        <ele>249.939</ele>
        <time>1970-01-01T01:00:00Z</time>
      </trkpt>
      <trkpt lat="63.40197717" lon="10.48993817">
        <ele>249.787</ele>
        <time>1970-01-01T01:00:00Z</time>
      </trkpt>
      <trkpt lat="63.40196283" lon="10.48994733">
        <ele>249.787</ele>
        <time>1970-01-01T01:00:00Z</time>
      </trkpt>
      <trkpt lat="63.40194667" lon="10.489956">
        <ele>249.787</ele>
        <time>1970-01-01T01:00:00Z</time>
      </trkpt>
      <trkpt lat="63.40192983" lon="10.48996433">
        <ele>249.787</ele>
        <time>1970-01-01T01:00:00Z</time>
      </trkpt>
      <trkpt lat="63.401916" lon="10.4899685">
        <ele>249.787</ele>
        <time>1970-01-01T01:00:00Z</time>
      </trkpt>
      <trkpt lat="63.40190283" lon="10.489975">
        <ele>249.787</ele>
        <time>1970-01-01T01:00:00Z</time>
      </trkpt>
      <trkpt lat="63.401888" lon="10.48998033">
        <ele>249.634</ele>
        <time>1970-01-01T01:00:00Z</time>
      </trkpt>
      <trkpt lat="63.40187117" lon="10.489988">
        <ele>249.634</ele>
        <time>1970-01-01T01:00:00Z</time>
      </trkpt>
      <trkpt lat="63.40185583" lon="10.48999467">
        <ele>249.634</ele>
        <time>1970-01-01T01:00:00Z</time>
      </trkpt>
      <trkpt lat="63.40184367" lon="10.48999883">
        <ele>249.634</ele>
        <time>1970-01-01T01:00:00Z</time>
      </trkpt>
      <trkpt lat="63.4018325" lon="10.49000167">
        <ele>249.482</ele>
        <time>1970-01-01T01:00:00Z</time>
      </trkpt>
      <trkpt lat="63.4018225" lon="10.49000367">
        <ele>249.482</ele>
        <time>1970-01-01T01:00:00Z</time>
      </trkpt>
      <trkpt lat="63.40181067" lon="10.49001067">
        <ele>249.482</ele>
        <time>1970-01-01T01:00:00Z</time>
      </trkpt>
      <trkpt lat="63.40179983" lon="10.490015">
        <ele>249.482</ele>
        <time>1970-01-01T01:00:00Z</time>
      </trkpt>
      <trkpt lat="63.4017875" lon="10.49001867">
        <ele>249.329</ele>
        <time>1970-01-01T01:00:00Z</time>
      </trkpt>
      <trkpt lat="63.4017765" lon="10.490019">
        <ele>249.329</ele>
        <time>1970-01-01T01:00:00Z</time>
      </trkpt>
      <trkpt lat="63.40176433" lon="10.49002033">
        <ele>249.329</ele>
        <time>1970-01-01T01:00:00Z</time>
      </trkpt>
      <trkpt lat="63.40175317" lon="10.490022">
        <ele>249.329</ele>
        <time>1970-01-01T01:00:00Z</time>
      </trkpt>
      <trkpt lat="63.40174017" lon="10.49001933">
        <ele>249.177</ele>
        <time>1970-01-01T01:00:00Z</time>
      </trkpt>
      <trkpt lat="63.40172683" lon="10.490019">
        <ele>249.177</ele>
        <time>1970-01-01T01:00:00Z</time>
      </trkpt>
      <trkpt lat="63.401714" lon="10.49001633">
        <ele>249.177</ele>
        <time>1970-01-01T01:00:00Z</time>
      </trkpt>
      <trkpt lat="63.40170033" lon="10.4900115">
        <ele>249.177</ele>
        <time>1970-01-01T01:00:00Z</time>
      </trkpt>
      <trkpt lat="63.40168783" lon="10.49000267">
        <ele>249.177</ele>
        <time>1970-01-01T01:00:00Z</time>
      </trkpt>
      <trkpt lat="63.40167417" lon="10.48999083">
        <ele>249.177</ele>
        <time>1970-01-01T01:00:00Z</time>
      </trkpt>
      <trkpt lat="63.4016615" lon="10.48997833">
        <ele>249.025</ele>
        <time>1970-01-01T01:00:00Z</time>
      </trkpt>
      <trkpt lat="63.40164983" lon="10.489965">
        <ele>249.025</ele>
        <time>1970-01-01T01:00:00Z</time>
      </trkpt>
      <trkpt lat="63.4016385" lon="10.4899515">
        <ele>249.025</ele>
        <time>1970-01-01T01:00:00Z</time>
      </trkpt>
      <trkpt lat="63.40162617" lon="10.4899405">
        <ele>249.025</ele>
        <time>1970-01-01T01:00:00Z</time>
      </trkpt>
      <trkpt lat="63.40161267" lon="10.48993217">
        <ele>249.025</ele>
        <time>1970-01-01T01:00:00Z</time>
      </trkpt>
      <trkpt lat="63.40159967" lon="10.48992567">
        <ele>249.025</ele>
        <time>1970-01-01T01:00:00Z</time>
      </trkpt>
      <trkpt lat="63.40158717" lon="10.4899215">
        <ele>248.872</ele>
        <time>1970-01-01T01:00:00Z</time>
      </trkpt>
      <trkpt lat="63.4015745" lon="10.48991733">
        <ele>248.872</ele>
        <time>1970-01-01T01:00:00Z</time>
      </trkpt>
      <trkpt lat="63.4015615" lon="10.4899145">
        <ele>248.872</ele>
        <time>1970-01-01T01:00:00Z</time>
      </trkpt>
      <trkpt lat="63.40154883" lon="10.48991283">
        <ele>248.872</ele>
        <time>1970-01-01T01:00:00Z</time>
      </trkpt>
      <trkpt lat="63.40153533" lon="10.48991067">
        <ele>248.872</ele>
        <time>1970-01-01T01:00:00Z</time>
      </trkpt>
      <trkpt lat="63.40152117" lon="10.4899085">
        <ele>248.872</ele>
        <time>1970-01-01T01:00:00Z</time>
      </trkpt>
      <trkpt lat="63.40150783" lon="10.48990333">
        <ele>248.872</ele>
        <time>1970-01-01T01:00:00Z</time>
      </trkpt>
      <trkpt lat="63.40149733" lon="10.48989483">
        <ele>248.872</ele>
        <time>1970-01-01T01:00:00Z</time>
      </trkpt>
      <trkpt lat="63.4014865" lon="10.4898855">
        <ele>248.872</ele>
        <time>1970-01-01T01:00:00Z</time>
      </trkpt>
      <trkpt lat="63.40147467" lon="10.48987367">
        <ele>248.872</ele>
        <time>1970-01-01T01:00:00Z</time>
      </trkpt>
      <trkpt lat="63.40146217" lon="10.48986533">
        <ele>248.72</ele>
        <time>1970-01-01T01:00:00Z</time>
      </trkpt>
      <trkpt lat="63.40145167" lon="10.48985583">
        <ele>248.72</ele>
        <time>1970-01-01T01:00:00Z</time>
      </trkpt>
      <trkpt lat="63.40144033" lon="10.48984817">
        <ele>248.72</ele>
        <time>1970-01-01T01:00:00Z</time>
      </trkpt>
      <trkpt lat="63.40142933" lon="10.48984133">
        <ele>248.72</ele>
        <time>1970-01-01T01:00:00Z</time>
      </trkpt>
      <trkpt lat="63.40141633" lon="10.4898305">
        <ele>248.72</ele>
        <time>1970-01-01T01:00:00Z</time>
      </trkpt>
      <trkpt lat="63.40140483" lon="10.48981783">
        <ele>248.72</ele>
        <time>1970-01-01T01:00:00Z</time>
      </trkpt>
      <trkpt lat="63.401394" lon="10.4897995">
        <ele>248.72</ele>
        <time>1970-01-01T01:00:00Z</time>
      </trkpt>
      <trkpt lat="63.40138217" lon="10.48978667">
        <ele>248.72</ele>
        <time>1970-01-01T01:00:00Z</time>
      </trkpt>
      <trkpt lat="63.40136683" lon="10.48977517">
        <ele>248.872</ele>
        <time>1970-01-01T01:00:00Z</time>
      </trkpt>
      <trkpt lat="63.40134917" lon="10.4897655">
        <ele>248.872</ele>
        <time>1970-01-01T01:00:00Z</time>
      </trkpt>
      <trkpt lat="63.4013325" lon="10.4897545">
        <ele>248.872</ele>
        <time>1970-01-01T01:00:00Z</time>
      </trkpt>
      <trkpt lat="63.4013215" lon="10.48974233">
        <ele>248.872</ele>
        <time>1970-01-01T01:00:00Z</time>
      </trkpt>
      <trkpt lat="63.40131333" lon="10.48973017">
        <ele>249.025</ele>
        <time>1970-01-01T01:00:00Z</time>
      </trkpt>
      <trkpt lat="63.40130433" lon="10.48971633">
        <ele>249.025</ele>
        <time>1970-01-01T01:00:00Z</time>
      </trkpt>
      <trkpt lat="63.401292" lon="10.48970817">
        <ele>249.025</ele>
        <time>1970-01-01T01:00:00Z</time>
      </trkpt>
      <trkpt lat="63.40127333" lon="10.48970183">
        <ele>249.025</ele>
        <time>1970-01-01T01:00:00Z</time>
      </trkpt>
      <trkpt lat="63.40125767" lon="10.48969917">
        <ele>249.025</ele>
        <time>1970-01-01T01:00:00Z</time>
      </trkpt>
      <trkpt lat="63.40124167" lon="10.48969617">
        <ele>249.025</ele>
        <time>1970-01-01T01:00:00Z</time>
      </trkpt>
      <trkpt lat="63.40122817" lon="10.48969217">
        <ele>249.177</ele>
        <time>1970-01-01T01:00:00Z</time>
      </trkpt>
      <trkpt lat="63.401212" lon="10.48968533">
        <ele>249.177</ele>
        <time>1970-01-01T01:00:00Z</time>
      </trkpt>
      <trkpt lat="63.4011955" lon="10.48967733">
        <ele>249.177</ele>
        <time>1970-01-01T01:00:00Z</time>
      </trkpt>
      <trkpt lat="63.40117917" lon="10.4896695">
        <ele>249.177</ele>
        <time>1970-01-01T01:00:00Z</time>
      </trkpt>
      <trkpt lat="63.40116317" lon="10.48966367">
        <ele>249.177</ele>
        <time>1970-01-01T01:00:00Z</time>
      </trkpt>
      <trkpt lat="63.40114783" lon="10.48965767">
        <ele>249.177</ele>
        <time>1970-01-01T01:00:00Z</time>
      </trkpt>
      <trkpt lat="63.40113267" lon="10.48965467">
        <ele>249.329</ele>
        <time>1970-01-01T01:00:00Z</time>
      </trkpt>
      <trkpt lat="63.40111733" lon="10.4896545">
        <ele>249.329</ele>
        <time>1970-01-01T01:00:00Z</time>
      </trkpt>
      <trkpt lat="63.401103" lon="10.4896565">
        <ele>249.329</ele>
        <time>1970-01-01T01:00:00Z</time>
      </trkpt>
      <trkpt lat="63.40108933" lon="10.489658">
        <ele>249.329</ele>
        <time>1970-01-01T01:00:00Z</time>
      </trkpt>
      <trkpt lat="63.40107633" lon="10.489658">
        <ele>249.482</ele>
        <time>1970-01-01T01:00:00Z</time>
      </trkpt>
      <trkpt lat="63.40106283" lon="10.48965933">
        <ele>249.482</ele>
        <time>1970-01-01T01:00:00Z</time>
      </trkpt>
      <trkpt lat="63.401048" lon="10.4896615">
        <ele>249.482</ele>
        <time>1970-01-01T01:00:00Z</time>
      </trkpt>
      <trkpt lat="63.4010305" lon="10.489662">
        <ele>249.482</ele>
        <time>1970-01-01T01:00:00Z</time>
      </trkpt>
      <trkpt lat="63.4010115" lon="10.48965617">
        <ele>249.482</ele>
        <time>1970-01-01T01:00:00Z</time>
      </trkpt>
      <trkpt lat="63.40099433" lon="10.48964533">
        <ele>249.482</ele>
        <time>1970-01-01T01:00:00Z</time>
      </trkpt>
      <trkpt lat="63.40097783" lon="10.48963067">
        <ele>249.634</ele>
        <time>1970-01-01T01:00:00Z</time>
      </trkpt>
      <trkpt lat="63.400962" lon="10.489616">
        <ele>249.634</ele>
        <time>1970-01-01T01:00:00Z</time>
      </trkpt>
      <trkpt lat="63.4009445" lon="10.48960383">
        <ele>249.634</ele>
        <time>1970-01-01T01:00:00Z</time>
      </trkpt>
      <trkpt lat="63.40092817" lon="10.489596">
        <ele>249.634</ele>
        <time>1970-01-01T01:00:00Z</time>
      </trkpt>
      <trkpt lat="63.40091333" lon="10.48958783">
        <ele>249.787</ele>
        <time>1970-01-01T01:00:00Z</time>
      </trkpt>
      <trkpt lat="63.40090017" lon="10.48958267">
        <ele>249.787</ele>
        <time>1970-01-01T01:00:00Z</time>
      </trkpt>
      <trkpt lat="63.4008875" lon="10.48957367">
        <ele>249.787</ele>
        <time>1970-01-01T01:00:00Z</time>
      </trkpt>
      <trkpt lat="63.40087383" lon="10.4895635">
        <ele>249.787</ele>
        <time>1970-01-01T01:00:00Z</time>
      </trkpt>
      <trkpt lat="63.400859" lon="10.4895485">
        <ele>249.939</ele>
        <time>1970-01-01T01:00:00Z</time>
      </trkpt>
      <trkpt lat="63.4008445" lon="10.48953433">
        <ele>249.939</ele>
        <time>1970-01-01T01:00:00Z</time>
      </trkpt>
      <trkpt lat="63.4008315" lon="10.48951817">
        <ele>249.939</ele>
        <time>1970-01-01T01:00:00Z</time>
      </trkpt>
      <trkpt lat="63.40081817" lon="10.48950283">
        <ele>249.939</ele>
        <time>1970-01-01T01:00:00Z</time>
      </trkpt>
      <trkpt lat="63.400803" lon="10.48948967">
        <ele>250.091</ele>
        <time>1970-01-01T01:00:00Z</time>
      </trkpt>
      <trkpt lat="63.40078567" lon="10.489478">
        <ele>250.091</ele>
        <time>1970-01-01T01:00:00Z</time>
      </trkpt>
      <trkpt lat="63.40076983" lon="10.48946833">
        <ele>250.244</ele>
        <time>1970-01-01T01:00:00Z</time>
      </trkpt>
      <trkpt lat="63.40075517" lon="10.489457">
        <ele>250.244</ele>
        <time>1970-01-01T01:00:00Z</time>
      </trkpt>
      <trkpt lat="63.400741" lon="10.489451">
        <ele>250.396</ele>
        <time>1970-01-01T01:00:00Z</time>
      </trkpt>
      <trkpt lat="63.400725" lon="10.489445">
        <ele>250.396</ele>
        <time>1970-01-01T01:00:00Z</time>
      </trkpt>
      <trkpt lat="63.40070833" lon="10.48943717">
        <ele>250.396</ele>
        <time>1970-01-01T01:00:00Z</time>
      </trkpt>
      <trkpt lat="63.4006925" lon="10.489426">
        <ele>250.396</ele>
        <time>1970-01-01T01:00:00Z</time>
      </trkpt>
      <trkpt lat="63.40067683" lon="10.489413">
        <ele>250.549</ele>
        <time>1970-01-01T01:00:00Z</time>
      </trkpt>
      <trkpt lat="63.40066217" lon="10.4894025">
        <ele>250.549</ele>
        <time>1970-01-01T01:00:00Z</time>
      </trkpt>
      <trkpt lat="63.40064767" lon="10.48939617">
        <ele>250.701</ele>
        <time>1970-01-01T01:00:00Z</time>
      </trkpt>
      <trkpt lat="63.40063317" lon="10.48938917">
        <ele>250.701</ele>
        <time>1970-01-01T01:00:00Z</time>
      </trkpt>
      <trkpt lat="63.40061867" lon="10.48938117">
        <ele>250.853</ele>
        <time>1970-01-01T01:00:00Z</time>
      </trkpt>
      <trkpt lat="63.40060317" lon="10.48937267">
        <ele>250.853</ele>
        <time>1970-01-01T01:00:00Z</time>
      </trkpt>
      <trkpt lat="63.40058783" lon="10.48936417">
        <ele>251.006</ele>
        <time>1970-01-01T01:00:00Z</time>
      </trkpt>
      <trkpt lat="63.40057433" lon="10.489351">
        <ele>251.006</ele>
        <time>1970-01-01T01:00:00Z</time>
      </trkpt>
      <trkpt lat="63.4005625" lon="10.48933267">
        <ele>251.158</ele>
        <time>1970-01-01T01:00:00Z</time>
      </trkpt>
      <trkpt lat="63.4005525" lon="10.48931367">
        <ele>251.158</ele>
        <time>1970-01-01T01:00:00Z</time>
      </trkpt>
      <trkpt lat="63.40054133" lon="10.4893015">
        <ele>251.311</ele>
        <time>1970-01-01T01:00:00Z</time>
      </trkpt>
      <trkpt lat="63.4005295" lon="10.489291">
        <ele>251.311</ele>
        <time>1970-01-01T01:00:00Z</time>
      </trkpt>
      <trkpt lat="63.4005165" lon="10.48928183">
        <ele>251.615</ele>
        <time>1970-01-01T01:00:00Z</time>
      </trkpt>
      <trkpt lat="63.4005035" lon="10.48926917">
        <ele>251.615</ele>
        <time>1970-01-01T01:00:00Z</time>
      </trkpt>
      <trkpt lat="63.4004895" lon="10.48925683">
        <ele>251.768</ele>
        <time>1970-01-01T01:00:00Z</time>
      </trkpt>
      <trkpt lat="63.40047533" lon="10.48924367">
        <ele>251.768</ele>
        <time>1970-01-01T01:00:00Z</time>
      </trkpt>
      <trkpt lat="63.4004595" lon="10.48923617">
        <ele>251.92</ele>
        <time>1970-01-01T01:00:00Z</time>
      </trkpt>
      <trkpt lat="63.40044533" lon="10.48922667">
        <ele>251.92</ele>
        <time>1970-01-01T01:00:00Z</time>
      </trkpt>
      <trkpt lat="63.400432" lon="10.48921783">
        <ele>252.073</ele>
        <time>1970-01-01T01:00:00Z</time>
      </trkpt>
      <trkpt lat="63.40042033" lon="10.4892035">
        <ele>252.073</ele>
        <time>1970-01-01T01:00:00Z</time>
      </trkpt>
      <trkpt lat="63.40040717" lon="10.48919017">
        <ele>252.377</ele>
        <time>1970-01-01T01:00:00Z</time>
      </trkpt>
      <trkpt lat="63.40039317" lon="10.48917517">
        <ele>252.377</ele>
        <time>1970-01-01T01:00:00Z</time>
      </trkpt>
      <trkpt lat="63.4003775" lon="10.48916267">
        <ele>252.53</ele>
        <time>1970-01-01T01:00:00Z</time>
      </trkpt>
      <trkpt lat="63.400363" lon="10.489147">
        <ele>252.53</ele>
        <time>1970-01-01T01:00:00Z</time>
      </trkpt>
      <trkpt lat="63.40034933" lon="10.48913183">
        <ele>252.835</ele>
        <time>1970-01-01T01:00:00Z</time>
      </trkpt>
      <trkpt lat="63.40033633" lon="10.48911617">
        <ele>252.835</ele>
        <time>1970-01-01T01:00:00Z</time>
      </trkpt>
      <trkpt lat="63.40032117" lon="10.48910033">
        <ele>252.987</ele>
        <time>1970-01-01T01:00:00Z</time>
      </trkpt>
      <trkpt lat="63.40030517" lon="10.48908533">
        <ele>252.987</ele>
        <time>1970-01-01T01:00:00Z</time>
      </trkpt>
      <trkpt lat="63.40028883" lon="10.489066">
        <ele>253.292</ele>
        <time>1970-01-01T01:00:00Z</time>
      </trkpt>
      <trkpt lat="63.400274" lon="10.489045">
        <ele>253.292</ele>
        <time>1970-01-01T01:00:00Z</time>
      </trkpt>
      <trkpt lat="63.4002585" lon="10.489023">
        <ele>253.444</ele>
        <time>1970-01-01T01:00:00Z</time>
      </trkpt>
      <trkpt lat="63.40024217" lon="10.48900367">
        <ele>253.444</ele>
        <time>1970-01-01T01:00:00Z</time>
      </trkpt>
      <trkpt lat="63.400226" lon="10.48898783">
        <ele>253.749</ele>
        <time>1970-01-01T01:00:00Z</time>
      </trkpt>
      <trkpt lat="63.40021067" lon="10.48897267">
        <ele>253.749</ele>
        <time>1970-01-01T01:00:00Z</time>
      </trkpt>
      <trkpt lat="63.400195" lon="10.488959">
        <ele>254.054</ele>
        <time>1970-01-01T01:00:00Z</time>
      </trkpt>
      <trkpt lat="63.40017867" lon="10.48894767">
        <ele>254.054</ele>
        <time>1970-01-01T01:00:00Z</time>
      </trkpt>
      <trkpt lat="63.40016167" lon="10.48893617">
        <ele>254.206</ele>
        <time>1970-01-01T01:00:00Z</time>
      </trkpt>
      <trkpt lat="63.40014567" lon="10.48892567">
        <ele>254.206</ele>
        <time>1970-01-01T01:00:00Z</time>
      </trkpt>
      <trkpt lat="63.400131" lon="10.4889155">
        <ele>254.511</ele>
        <time>1970-01-01T01:00:00Z</time>
      </trkpt>
      <trkpt lat="63.40011633" lon="10.488902">
        <ele>254.511</ele>
        <time>1970-01-01T01:00:00Z</time>
      </trkpt>
      <trkpt lat="63.40010167" lon="10.48888717">
        <ele>254.816</ele>
        <time>1970-01-01T01:00:00Z</time>
      </trkpt>
      <trkpt lat="63.40008583" lon="10.4888725">
        <ele>254.816</ele>
        <time>1970-01-01T01:00:00Z</time>
      </trkpt>
      <trkpt lat="63.40007067" lon="10.48885967">
        <ele>255.121</ele>
        <time>1970-01-01T01:00:00Z</time>
      </trkpt>
      <trkpt lat="63.40005567" lon="10.488845">
        <ele>255.121</ele>
        <time>1970-01-01T01:00:00Z</time>
      </trkpt>
      <trkpt lat="63.40004083" lon="10.4888285">
        <ele>255.425</ele>
        <time>1970-01-01T01:00:00Z</time>
      </trkpt>
      <trkpt lat="63.40002667" lon="10.4888115">
        <ele>255.425</ele>
        <time>1970-01-01T01:00:00Z</time>
      </trkpt>
      <trkpt lat="63.4000125" lon="10.48879383">
        <ele>255.578</ele>
        <time>1970-01-01T01:00:00Z</time>
      </trkpt>
      <trkpt lat="63.39999833" lon="10.48877867">
        <ele>255.578</ele>
        <time>1970-01-01T01:00:00Z</time>
      </trkpt>
      <trkpt lat="63.39998483" lon="10.488768">
        <ele>255.883</ele>
        <time>1970-01-01T01:00:00Z</time>
      </trkpt>
      <trkpt lat="63.39997233" lon="10.48875967">
        <ele>255.883</ele>
        <time>1970-01-01T01:00:00Z</time>
      </trkpt>
      <trkpt lat="63.39996033" lon="10.48874883">
        <ele>256.035</ele>
        <time>1970-01-01T01:00:00Z</time>
      </trkpt>
      <trkpt lat="63.39994833" lon="10.48873417">
        <ele>256.035</ele>
        <time>1970-01-01T01:00:00Z</time>
      </trkpt>
      <trkpt lat="63.3999355" lon="10.48871833">
        <ele>256.34</ele>
        <time>1970-01-01T01:00:00Z</time>
      </trkpt>
      <trkpt lat="63.39992267" lon="10.48869883">
        <ele>256.34</ele>
        <time>1970-01-01T01:00:00Z</time>
      </trkpt>
      <trkpt lat="63.39990817" lon="10.48867883">
        <ele>256.645</ele>
        <time>1970-01-01T01:00:00Z</time>
      </trkpt>
      <trkpt lat="63.399893" lon="10.4886565">
        <ele>256.645</ele>
        <time>1970-01-01T01:00:00Z</time>
      </trkpt>
      <trkpt lat="63.39987683" lon="10.48863767">
        <ele>256.95</ele>
        <time>1970-01-01T01:00:00Z</time>
      </trkpt>
      <trkpt lat="63.39986117" lon="10.488622">
        <ele>256.95</ele>
        <time>1970-01-01T01:00:00Z</time>
      </trkpt>
      <trkpt lat="63.39984467" lon="10.48861033">
        <ele>257.102</ele>
        <time>1970-01-01T01:00:00Z</time>
      </trkpt>
      <trkpt lat="63.39982783" lon="10.48859883">
        <ele>257.102</ele>
        <time>1970-01-01T01:00:00Z</time>
      </trkpt>
      <trkpt lat="63.39981167" lon="10.4885855">
        <ele>257.407</ele>
        <time>1970-01-01T01:00:00Z</time>
      </trkpt>
      <trkpt lat="63.39979733" lon="10.48857217">
        <ele>257.407</ele>
        <time>1970-01-01T01:00:00Z</time>
      </trkpt>
      <trkpt lat="63.39978317" lon="10.48855983">
        <ele>257.559</ele>
        <time>1970-01-01T01:00:00Z</time>
      </trkpt>
      <trkpt lat="63.39976817" lon="10.488549">
        <ele>257.559</ele>
        <time>1970-01-01T01:00:00Z</time>
      </trkpt>
      <trkpt lat="63.399752" lon="10.48853717">
        <ele>257.864</ele>
        <time>1970-01-01T01:00:00Z</time>
      </trkpt>
      <trkpt lat="63.3997355" lon="10.48852667">
        <ele>257.864</ele>
        <time>1970-01-01T01:00:00Z</time>
      </trkpt>
      <trkpt lat="63.399719" lon="10.48851683">
        <ele>258.016</ele>
        <time>1970-01-01T01:00:00Z</time>
      </trkpt>
      <trkpt lat="63.39970467" lon="10.48850583">
        <ele>258.016</ele>
        <time>1970-01-01T01:00:00Z</time>
      </trkpt>
      <trkpt lat="63.39969017" lon="10.48849583">
        <ele>258.321</ele>
        <time>1970-01-01T01:00:00Z</time>
      </trkpt>
      <trkpt lat="63.39967483" lon="10.48848667">
        <ele>258.321</ele>
        <time>1970-01-01T01:00:00Z</time>
      </trkpt>
      <trkpt lat="63.39965717" lon="10.48847883">
        <ele>258.474</ele>
        <time>1970-01-01T01:00:00Z</time>
      </trkpt>
      <trkpt lat="63.3996405" lon="10.48846883">
        <ele>258.474</ele>
        <time>1970-01-01T01:00:00Z</time>
      </trkpt>
      <trkpt lat="63.39962433" lon="10.48845583">
        <ele>258.626</ele>
        <time>1970-01-01T01:00:00Z</time>
      </trkpt>
      <trkpt lat="63.39960933" lon="10.48844483">
        <ele>258.626</ele>
        <time>1970-01-01T01:00:00Z</time>
      </trkpt>
      <trkpt lat="63.39959433" lon="10.4884325">
        <ele>258.778</ele>
        <time>1970-01-01T01:00:00Z</time>
      </trkpt>
      <trkpt lat="63.39957783" lon="10.48842033">
        <ele>258.778</ele>
        <time>1970-01-01T01:00:00Z</time>
      </trkpt>
      <trkpt lat="63.39956033" lon="10.48840583">
        <ele>259.083</ele>
        <time>1970-01-01T01:00:00Z</time>
      </trkpt>
      <trkpt lat="63.39954317" lon="10.488391">
        <ele>259.083</ele>
        <time>1970-01-01T01:00:00Z</time>
      </trkpt>
      <trkpt lat="63.39952933" lon="10.4883755">
        <ele>259.236</ele>
        <time>1970-01-01T01:00:00Z</time>
      </trkpt>
      <trkpt lat="63.39951767" lon="10.48835667">
        <ele>259.236</ele>
        <time>1970-01-01T01:00:00Z</time>
      </trkpt>
      <trkpt lat="63.39950733" lon="10.48833833">
        <ele>259.388</ele>
        <time>1970-01-01T01:00:00Z</time>
      </trkpt>
      <trkpt lat="63.39949483" lon="10.48831933">
        <ele>259.388</ele>
        <time>1970-01-01T01:00:00Z</time>
      </trkpt>
      <trkpt lat="63.39948083" lon="10.4883045">
        <ele>259.54</ele>
        <time>1970-01-01T01:00:00Z</time>
      </trkpt>
      <trkpt lat="63.39946517" lon="10.488289">
        <ele>259.54</ele>
        <time>1970-01-01T01:00:00Z</time>
      </trkpt>
      <trkpt lat="63.39945017" lon="10.4882735">
        <ele>259.693</ele>
        <time>1970-01-01T01:00:00Z</time>
      </trkpt>
      <trkpt lat="63.39943533" lon="10.48825533">
        <ele>259.693</ele>
        <time>1970-01-01T01:00:00Z</time>
      </trkpt>
      <trkpt lat="63.39942033" lon="10.48823367">
        <ele>259.845</ele>
        <time>1970-01-01T01:00:00Z</time>
      </trkpt>
      <trkpt lat="63.39940583" lon="10.48821333">
        <ele>259.845</ele>
        <time>1970-01-01T01:00:00Z</time>
      </trkpt>
      <trkpt lat="63.3993915" lon="10.48819483">
        <ele>259.998</ele>
        <time>1970-01-01T01:00:00Z</time>
      </trkpt>
      <trkpt lat="63.3993765" lon="10.48817767">
        <ele>259.998</ele>
        <time>1970-01-01T01:00:00Z</time>
      </trkpt>
      <trkpt lat="63.39936183" lon="10.48815783">
        <ele>260.15</ele>
        <time>1970-01-01T01:00:00Z</time>
      </trkpt>
      <trkpt lat="63.39934717" lon="10.48813633">
        <ele>260.15</ele>
        <time>1970-01-01T01:00:00Z</time>
      </trkpt>
      <trkpt lat="63.39933283" lon="10.4881165">
        <ele>260.302</ele>
        <time>1970-01-01T01:00:00Z</time>
      </trkpt>
      <trkpt lat="63.39931717" lon="10.48809883">
        <ele>260.302</ele>
        <time>1970-01-01T01:00:00Z</time>
      </trkpt>
      <trkpt lat="63.39930183" lon="10.4880845">
        <ele>260.607</ele>
        <time>1970-01-01T01:00:00Z</time>
      </trkpt>
      <trkpt lat="63.39928667" lon="10.488072">
        <ele>260.607</ele>
        <time>1970-01-01T01:00:00Z</time>
      </trkpt>
      <trkpt lat="63.39927267" lon="10.4880595">
        <ele>260.76</ele>
        <time>1970-01-01T01:00:00Z</time>
      </trkpt>
      <trkpt lat="63.39925817" lon="10.48804467">
        <ele>260.76</ele>
        <time>1970-01-01T01:00:00Z</time>
      </trkpt>
      <trkpt lat="63.39924317" lon="10.48802817">
        <ele>260.912</ele>
        <time>1970-01-01T01:00:00Z</time>
      </trkpt>
      <trkpt lat="63.399228" lon="10.48801267">
        <ele>260.912</ele>
        <time>1970-01-01T01:00:00Z</time>
      </trkpt>
      <trkpt lat="63.39921283" lon="10.4879955">
        <ele>261.064</ele>
        <time>1970-01-01T01:00:00Z</time>
      </trkpt>
      <trkpt lat="63.39919867" lon="10.48797717">
        <ele>261.064</ele>
        <time>1970-01-01T01:00:00Z</time>
      </trkpt>
      <trkpt lat="63.399185" lon="10.48795333">
        <ele>261.217</ele>
        <time>1970-01-01T01:00:00Z</time>
      </trkpt>
      <trkpt lat="63.39917283" lon="10.48793033">
        <ele>261.217</ele>
        <time>1970-01-01T01:00:00Z</time>
      </trkpt>
      <trkpt lat="63.39916217" lon="10.4879075">
        <ele>261.369</ele>
        <time>1970-01-01T01:00:00Z</time>
      </trkpt>
      <trkpt lat="63.39915333" lon="10.48788333">
        <ele>261.369</ele>
        <time>1970-01-01T01:00:00Z</time>
      </trkpt>
      <trkpt lat="63.39914867" lon="10.48785267">
        <ele>261.522</ele>
        <time>1970-01-01T01:00:00Z</time>
      </trkpt>
      <trkpt lat="63.39914617" lon="10.48781617">
        <ele>261.522</ele>
        <time>1970-01-01T01:00:00Z</time>
      </trkpt>
      <trkpt lat="63.39914683" lon="10.487778">
        <ele>261.674</ele>
        <time>1970-01-01T01:00:00Z</time>
      </trkpt>
      <trkpt lat="63.399148" lon="10.4877435">
        <ele>261.674</ele>
        <time>1970-01-01T01:00:00Z</time>
      </trkpt>
      <trkpt lat="63.39915067" lon="10.48771333">
        <ele>261.979</ele>
        <time>1970-01-01T01:00:00Z</time>
      </trkpt>
      <trkpt lat="63.399152" lon="10.48768667">
        <ele>261.979</ele>
        <time>1970-01-01T01:00:00Z</time>
      </trkpt>
      <trkpt lat="63.39915067" lon="10.48766067">
        <ele>262.131</ele>
        <time>1970-01-01T01:00:00Z</time>
      </trkpt>
      <trkpt lat="63.39914733" lon="10.48763467">
        <ele>262.131</ele>
        <time>1970-01-01T01:00:00Z</time>
      </trkpt>
      <trkpt lat="63.39914117" lon="10.48761">
        <ele>262.284</ele>
        <time>1970-01-01T01:00:00Z</time>
      </trkpt>
      <trkpt lat="63.39913467" lon="10.4875875">
        <ele>262.284</ele>
        <time>1970-01-01T01:00:00Z</time>
      </trkpt>
      <trkpt lat="63.3991275" lon="10.48756633">
        <ele>262.436</ele>
        <time>1970-01-01T01:00:00Z</time>
      </trkpt>
      <trkpt lat="63.39912083" lon="10.48754717">
        <ele>262.436</ele>
        <time>1970-01-01T01:00:00Z</time>
      </trkpt>
      <trkpt lat="63.39911333" lon="10.4875305">
        <ele>262.588</ele>
        <time>1970-01-01T01:00:00Z</time>
      </trkpt>
      <trkpt lat="63.39910433" lon="10.487516">
        <ele>262.588</ele>
        <time>1970-01-01T01:00:00Z</time>
      </trkpt>
      <trkpt lat="63.39909533" lon="10.48750233">
        <ele>262.741</ele>
        <time>1970-01-01T01:00:00Z</time>
      </trkpt>
      <trkpt lat="63.39908683" lon="10.48748917">
        <ele>262.741</ele>
        <time>1970-01-01T01:00:00Z</time>
      </trkpt>
      <trkpt lat="63.399079" lon="10.4874765">
        <ele>263.046</ele>
        <time>1970-01-01T01:00:00Z</time>
      </trkpt>
      <trkpt lat="63.39907033" lon="10.48746633">
        <ele>263.046</ele>
        <time>1970-01-01T01:00:00Z</time>
      </trkpt>
      <trkpt lat="63.39906017" lon="10.48745683">
        <ele>263.198</ele>
        <time>1970-01-01T01:00:00Z</time>
      </trkpt>
      <trkpt lat="63.39904967" lon="10.487451">
        <ele>263.198</ele>
        <time>1970-01-01T01:00:00Z</time>
      </trkpt>
      <trkpt lat="63.39903817" lon="10.48744383">
        <ele>263.35</ele>
        <time>1970-01-01T01:00:00Z</time>
      </trkpt>
      <trkpt lat="63.399026" lon="10.48743633">
        <ele>263.35</ele>
        <time>1970-01-01T01:00:00Z</time>
      </trkpt>
      <trkpt lat="63.3990135" lon="10.48742633">
        <ele>263.655</ele>
        <time>1970-01-01T01:00:00Z</time>
      </trkpt>
      <trkpt lat="63.39900067" lon="10.4874165">
        <ele>263.655</ele>
        <time>1970-01-01T01:00:00Z</time>
      </trkpt>
      <trkpt lat="63.39898767" lon="10.48740167">
        <ele>263.808</ele>
        <time>1970-01-01T01:00:00Z</time>
      </trkpt>
      <trkpt lat="63.39897383" lon="10.4873835">
        <ele>263.808</ele>
        <time>1970-01-01T01:00:00Z</time>
      </trkpt>
      <trkpt lat="63.398961" lon="10.4873645">
        <ele>264.112</ele>
        <time>1970-01-01T01:00:00Z</time>
      </trkpt>
      <trkpt lat="63.39894717" lon="10.48735317">
        <ele>264.112</ele>
        <time>1970-01-01T01:00:00Z</time>
      </trkpt>
      <trkpt lat="63.39893433" lon="10.48734567">
        <ele>264.265</ele>
        <time>1970-01-01T01:00:00Z</time>
      </trkpt>
      <trkpt lat="63.39891917" lon="10.4873365">
        <ele>264.265</ele>
        <time>1970-01-01T01:00:00Z</time>
      </trkpt>
      <trkpt lat="63.39890383" lon="10.48732467">
        <ele>264.417</ele>
        <time>1970-01-01T01:00:00Z</time>
      </trkpt>
      <trkpt lat="63.39888883" lon="10.48731067">
        <ele>264.417</ele>
        <time>1970-01-01T01:00:00Z</time>
      </trkpt>
      <trkpt lat="63.39887433" lon="10.48730067">
        <ele>264.57</ele>
        <time>1970-01-01T01:00:00Z</time>
      </trkpt>
      <trkpt lat="63.39886233" lon="10.4872865">
        <ele>264.57</ele>
        <time>1970-01-01T01:00:00Z</time>
      </trkpt>
      <trkpt lat="63.398849" lon="10.487276">
        <ele>264.874</ele>
        <time>1970-01-01T01:00:00Z</time>
      </trkpt>
      <trkpt lat="63.39883617" lon="10.48726483">
        <ele>264.874</ele>
        <time>1970-01-01T01:00:00Z</time>
      </trkpt>
      <trkpt lat="63.39882267" lon="10.48725633">
        <ele>265.027</ele>
        <time>1970-01-01T01:00:00Z</time>
      </trkpt>
      <trkpt lat="63.3988095" lon="10.48724333">
        <ele>265.027</ele>
        <time>1970-01-01T01:00:00Z</time>
      </trkpt>
      <trkpt lat="63.39879517" lon="10.48723083">
        <ele>265.179</ele>
        <time>1970-01-01T01:00:00Z</time>
      </trkpt>
      <trkpt lat="63.3987795" lon="10.48722117">
        <ele>265.179</ele>
        <time>1970-01-01T01:00:00Z</time>
      </trkpt>
      <trkpt lat="63.39876567" lon="10.4872155">
        <ele>265.332</ele>
        <time>1970-01-01T01:00:00Z</time>
      </trkpt>
      <trkpt lat="63.39875233" lon="10.48721067">
        <ele>265.332</ele>
        <time>1970-01-01T01:00:00Z</time>
      </trkpt>
      <trkpt lat="63.3987385" lon="10.487208">
        <ele>265.636</ele>
        <time>1970-01-01T01:00:00Z</time>
      </trkpt>
      <trkpt lat="63.398723" lon="10.48720917">
        <ele>265.636</ele>
        <time>1970-01-01T01:00:00Z</time>
      </trkpt>
      <trkpt lat="63.39870783" lon="10.48721317">
        <ele>265.789</ele>
        <time>1970-01-01T01:00:00Z</time>
      </trkpt>
      <trkpt lat="63.39869383" lon="10.487218">
        <ele>265.789</ele>
        <time>1970-01-01T01:00:00Z</time>
      </trkpt>
      <trkpt lat="63.39867817" lon="10.48722117">
        <ele>265.941</ele>
        <time>1970-01-01T01:00:00Z</time>
      </trkpt>
      <trkpt lat="63.39866283" lon="10.487222">
        <ele>265.941</ele>
        <time>1970-01-01T01:00:00Z</time>
      </trkpt>
      <trkpt lat="63.39864567" lon="10.48722467">
        <ele>266.094</ele>
        <time>1970-01-01T01:00:00Z</time>
      </trkpt>
      <trkpt lat="63.3986285" lon="10.48722667">
        <ele>266.094</ele>
        <time>1970-01-01T01:00:00Z</time>
      </trkpt>
      <trkpt lat="63.39861167" lon="10.48723517">
        <ele>266.246</ele>
        <time>1970-01-01T01:00:00Z</time>
      </trkpt>
      <trkpt lat="63.398596" lon="10.48724033">
        <ele>266.246</ele>
        <time>1970-01-01T01:00:00Z</time>
      </trkpt>
      <trkpt lat="63.39858233" lon="10.48724183">
        <ele>266.398</ele>
        <time>1970-01-01T01:00:00Z</time>
      </trkpt>
      <trkpt lat="63.3985675" lon="10.48723467">
        <ele>266.398</ele>
        <time>1970-01-01T01:00:00Z</time>
      </trkpt>
      <trkpt lat="63.39855367" lon="10.48721833">
        <ele>266.398</ele>
        <time>1970-01-01T01:00:00Z</time>
      </trkpt>
      <trkpt lat="63.39853833" lon="10.48719967">
        <ele>266.398</ele>
        <time>1970-01-01T01:00:00Z</time>
      </trkpt>
      <trkpt lat="63.398525" lon="10.48717633">
        <ele>266.551</ele>
        <time>1970-01-01T01:00:00Z</time>
      </trkpt>
      <trkpt lat="63.39851217" lon="10.48714717">
        <ele>266.551</ele>
        <time>1970-01-01T01:00:00Z</time>
      </trkpt>
      <trkpt lat="63.39850233" lon="10.48711283">
        <ele>266.703</ele>
        <time>1970-01-01T01:00:00Z</time>
      </trkpt>
      <trkpt lat="63.39849167" lon="10.487076">
        <ele>266.703</ele>
        <time>1970-01-01T01:00:00Z</time>
      </trkpt>
      <trkpt lat="63.39848017" lon="10.48704917">
        <ele>266.703</ele>
        <time>1970-01-01T01:00:00Z</time>
      </trkpt>
      <trkpt lat="63.39846833" lon="10.487027">
        <ele>266.703</ele>
        <time>1970-01-01T01:00:00Z</time>
      </trkpt>
      <trkpt lat="63.3984575" lon="10.48700033">
        <ele>266.856</ele>
        <time>1970-01-01T01:00:00Z</time>
      </trkpt>
      <trkpt lat="63.3984475" lon="10.48696917">
        <ele>266.856</ele>
        <time>1970-01-01T01:00:00Z</time>
      </trkpt>
      <trkpt lat="63.398437" lon="10.486933">
        <ele>267.008</ele>
        <time>1970-01-01T01:00:00Z</time>
      </trkpt>
      <trkpt lat="63.39842683" lon="10.48690033">
        <ele>267.008</ele>
        <time>1970-01-01T01:00:00Z</time>
      </trkpt>
      <trkpt lat="63.398417" lon="10.48686683">
        <ele>267.008</ele>
        <time>1970-01-01T01:00:00Z</time>
      </trkpt>
      <trkpt lat="63.398408" lon="10.486836">
        <ele>267.008</ele>
        <time>1970-01-01T01:00:00Z</time>
      </trkpt>
      <trkpt lat="63.39839767" lon="10.48681017">
        <ele>267.16</ele>
        <time>1970-01-01T01:00:00Z</time>
      </trkpt>
      <trkpt lat="63.39838667" lon="10.48678383">
        <ele>267.16</ele>
        <time>1970-01-01T01:00:00Z</time>
      </trkpt>
      <trkpt lat="63.3983745" lon="10.4867565">
        <ele>267.16</ele>
        <time>1970-01-01T01:00:00Z</time>
      </trkpt>
      <trkpt lat="63.398362" lon="10.48672583">
        <ele>267.16</ele>
        <time>1970-01-01T01:00:00Z</time>
      </trkpt>
      <trkpt lat="63.39835" lon="10.48669933">
        <ele>267.313</ele>
        <time>1970-01-01T01:00:00Z</time>
      </trkpt>
      <trkpt lat="63.398337" lon="10.486676">
        <ele>267.313</ele>
        <time>1970-01-01T01:00:00Z</time>
      </trkpt>
      <trkpt lat="63.39832317" lon="10.48665133">
        <ele>267.313</ele>
        <time>1970-01-01T01:00:00Z</time>
      </trkpt>
      <trkpt lat="63.39831033" lon="10.48662317">
        <ele>267.313</ele>
        <time>1970-01-01T01:00:00Z</time>
      </trkpt>
      <trkpt lat="63.39829733" lon="10.486597">
        <ele>267.465</ele>
        <time>1970-01-01T01:00:00Z</time>
      </trkpt>
      <trkpt lat="63.398285" lon="10.486573">
        <ele>267.465</ele>
        <time>1970-01-01T01:00:00Z</time>
      </trkpt>
      <trkpt lat="63.398272" lon="10.48655367">
        <ele>267.465</ele>
        <time>1970-01-01T01:00:00Z</time>
      </trkpt>
      <trkpt lat="63.39826" lon="10.48653417">
        <ele>267.465</ele>
        <time>1970-01-01T01:00:00Z</time>
      </trkpt>
      <trkpt lat="63.398249" lon="10.486515">
        <ele>267.618</ele>
        <time>1970-01-01T01:00:00Z</time>
      </trkpt>
      <trkpt lat="63.39823683" lon="10.48649683">
        <ele>267.618</ele>
        <time>1970-01-01T01:00:00Z</time>
      </trkpt>
      <trkpt lat="63.39822533" lon="10.48647883">
        <ele>267.618</ele>
        <time>1970-01-01T01:00:00Z</time>
      </trkpt>
      <trkpt lat="63.39821433" lon="10.48646567">
        <ele>267.618</ele>
        <time>1970-01-01T01:00:00Z</time>
      </trkpt>
      <trkpt lat="63.39820583" lon="10.4864595">
        <ele>267.77</ele>
        <time>1970-01-01T01:00:00Z</time>
      </trkpt>
      <trkpt lat="63.39819617" lon="10.48645267">
        <ele>267.77</ele>
        <time>1970-01-01T01:00:00Z</time>
      </trkpt>
      <trkpt lat="63.3981855" lon="10.486444">
        <ele>267.77</ele>
        <time>1970-01-01T01:00:00Z</time>
      </trkpt>
      <trkpt lat="63.39817283" lon="10.48643333">
        <ele>267.77</ele>
        <time>1970-01-01T01:00:00Z</time>
      </trkpt>
      <trkpt lat="63.398158" lon="10.48642483">
        <ele>267.77</ele>
        <time>1970-01-01T01:00:00Z</time>
      </trkpt>
      <trkpt lat="63.39814267" lon="10.486419">
        <ele>267.77</ele>
        <time>1970-01-01T01:00:00Z</time>
      </trkpt>
      <trkpt lat="63.39812617" lon="10.48641083">
        <ele>267.922</ele>
        <time>1970-01-01T01:00:00Z</time>
      </trkpt>
      <trkpt lat="63.39811133" lon="10.48640217">
        <ele>267.922</ele>
        <time>1970-01-01T01:00:00Z</time>
      </trkpt>
      <trkpt lat="63.398096" lon="10.48639667">
        <ele>267.922</ele>
        <time>1970-01-01T01:00:00Z</time>
      </trkpt>
      <trkpt lat="63.39808233" lon="10.48639183">
        <ele>267.922</ele>
        <time>1970-01-01T01:00:00Z</time>
      </trkpt>
      <trkpt lat="63.39806733" lon="10.48638567">
        <ele>267.922</ele>
        <time>1970-01-01T01:00:00Z</time>
      </trkpt>
      <trkpt lat="63.39805283" lon="10.4863755">
        <ele>267.922</ele>
        <time>1970-01-01T01:00:00Z</time>
      </trkpt>
      <trkpt lat="63.39803817" lon="10.48636517">
        <ele>267.922</ele>
        <time>1970-01-01T01:00:00Z</time>
      </trkpt>
      <trkpt lat="63.39802383" lon="10.48635917">
        <ele>267.922</ele>
        <time>1970-01-01T01:00:00Z</time>
      </trkpt>
      <trkpt lat="63.39800983" lon="10.48635467">
        <ele>267.922</ele>
        <time>1970-01-01T01:00:00Z</time>
      </trkpt>
      <trkpt lat="63.397996" lon="10.48635">
        <ele>267.922</ele>
        <time>1970-01-01T01:00:00Z</time>
      </trkpt>
      <trkpt lat="63.39798167" lon="10.48634867">
        <ele>267.922</ele>
        <time>1970-01-01T01:00:00Z</time>
      </trkpt>
      <trkpt lat="63.39796783" lon="10.48634767">
        <ele>267.922</ele>
        <time>1970-01-01T01:00:00Z</time>
      </trkpt>
      <trkpt lat="63.397955" lon="10.48634817">
        <ele>267.922</ele>
        <time>1970-01-01T01:00:00Z</time>
      </trkpt>
      <trkpt lat="63.397944" lon="10.48634917">
        <ele>267.922</ele>
        <time>1970-01-01T01:00:00Z</time>
      </trkpt>
      <trkpt lat="63.397933" lon="10.48635467">
        <ele>267.922</ele>
        <time>1970-01-01T01:00:00Z</time>
      </trkpt>
      <trkpt lat="63.39791817" lon="10.48636383">
        <ele>267.922</ele>
        <time>1970-01-01T01:00:00Z</time>
      </trkpt>
      <trkpt lat="63.39790083" lon="10.48636767">
        <ele>268.075</ele>
        <time>1970-01-01T01:00:00Z</time>
      </trkpt>
      <trkpt lat="63.397882" lon="10.486368">
        <ele>268.075</ele>
        <time>1970-01-01T01:00:00Z</time>
      </trkpt>
      <trkpt lat="63.39786533" lon="10.48636833">
        <ele>268.075</ele>
        <time>1970-01-01T01:00:00Z</time>
      </trkpt>
      <trkpt lat="63.397849" lon="10.48637217">
        <ele>268.075</ele>
        <time>1970-01-01T01:00:00Z</time>
      </trkpt>
      <trkpt lat="63.3978325" lon="10.48637383">
        <ele>268.075</ele>
        <time>1970-01-01T01:00:00Z</time>
      </trkpt>
      <trkpt lat="63.3978175" lon="10.4863705">
        <ele>268.075</ele>
        <time>1970-01-01T01:00:00Z</time>
      </trkpt>
      <trkpt lat="63.39780417" lon="10.486365">
        <ele>268.075</ele>
        <time>1970-01-01T01:00:00Z</time>
      </trkpt>
      <trkpt lat="63.397792" lon="10.4863585">
        <ele>268.075</ele>
        <time>1970-01-01T01:00:00Z</time>
      </trkpt>
      <trkpt lat="63.397778" lon="10.48635217">
        <ele>268.075</ele>
        <time>1970-01-01T01:00:00Z</time>
      </trkpt>
      <trkpt lat="63.3977645" lon="10.486344">
        <ele>268.075</ele>
        <time>1970-01-01T01:00:00Z</time>
      </trkpt>
      <trkpt lat="63.39774983" lon="10.486332">
        <ele>268.075</ele>
        <time>1970-01-01T01:00:00Z</time>
      </trkpt>
      <trkpt lat="63.397734" lon="10.48631633">
        <ele>268.075</ele>
        <time>1970-01-01T01:00:00Z</time>
      </trkpt>
      <trkpt lat="63.39771683" lon="10.48629533">
        <ele>268.075</ele>
        <time>1970-01-01T01:00:00Z</time>
      </trkpt>
      <trkpt lat="63.3976985" lon="10.48627967">
        <ele>268.075</ele>
        <time>1970-01-01T01:00:00Z</time>
      </trkpt>
      <trkpt lat="63.39767983" lon="10.4862665">
        <ele>268.075</ele>
        <time>1970-01-01T01:00:00Z</time>
      </trkpt>
      <trkpt lat="63.397661" lon="10.48625717">
        <ele>268.075</ele>
        <time>1970-01-01T01:00:00Z</time>
      </trkpt>
      <trkpt lat="63.39764317" lon="10.48624433">
        <ele>268.075</ele>
        <time>1970-01-01T01:00:00Z</time>
      </trkpt>
      <trkpt lat="63.39762533" lon="10.4862285">
        <ele>268.075</ele>
        <time>1970-01-01T01:00:00Z</time>
      </trkpt>
      <trkpt lat="63.39760833" lon="10.486209">
        <ele>268.075</ele>
        <time>1970-01-01T01:00:00Z</time>
      </trkpt>
      <trkpt lat="63.3975935" lon="10.48619317">
        <ele>268.075</ele>
        <time>1970-01-01T01:00:00Z</time>
      </trkpt>
      <trkpt lat="63.39758" lon="10.48617567">
        <ele>268.075</ele>
        <time>1970-01-01T01:00:00Z</time>
      </trkpt>
      <trkpt lat="63.397567" lon="10.48616017">
        <ele>268.075</ele>
        <time>1970-01-01T01:00:00Z</time>
      </trkpt>
      <trkpt lat="63.39755283" lon="10.48613883">
        <ele>267.922</ele>
        <time>1970-01-01T01:00:00Z</time>
      </trkpt>
      <trkpt lat="63.39753867" lon="10.48611383">
        <ele>267.922</ele>
        <time>1970-01-01T01:00:00Z</time>
      </trkpt>
      <trkpt lat="63.39752467" lon="10.4860885">
        <ele>267.922</ele>
        <time>1970-01-01T01:00:00Z</time>
      </trkpt>
      <trkpt lat="63.3975125" lon="10.486065">
        <ele>267.922</ele>
        <time>1970-01-01T01:00:00Z</time>
      </trkpt>
      <trkpt lat="63.39749967" lon="10.48604783">
        <ele>267.922</ele>
        <time>1970-01-01T01:00:00Z</time>
      </trkpt>
      <trkpt lat="63.39748483" lon="10.48603183">
        <ele>267.922</ele>
        <time>1970-01-01T01:00:00Z</time>
      </trkpt>
      <trkpt lat="63.39746983" lon="10.4860165">
        <ele>267.922</ele>
        <time>1970-01-01T01:00:00Z</time>
      </trkpt>
      <trkpt lat="63.39745517" lon="10.48599033">
        <ele>267.922</ele>
        <time>1970-01-01T01:00:00Z</time>
      </trkpt>
      <trkpt lat="63.39744183" lon="10.48596033">
        <ele>267.922</ele>
        <time>1970-01-01T01:00:00Z</time>
      </trkpt>
      <trkpt lat="63.39742717" lon="10.4859325">
        <ele>267.922</ele>
        <time>1970-01-01T01:00:00Z</time>
      </trkpt>
      <trkpt lat="63.39741433" lon="10.48591317">
        <ele>267.922</ele>
        <time>1970-01-01T01:00:00Z</time>
      </trkpt>
      <trkpt lat="63.397402" lon="10.4858935">
        <ele>267.922</ele>
        <time>1970-01-01T01:00:00Z</time>
      </trkpt>
      <trkpt lat="63.39739117" lon="10.48586817">
        <ele>267.77</ele>
        <time>1970-01-01T01:00:00Z</time>
      </trkpt>
      <trkpt lat="63.39738017" lon="10.48584183">
        <ele>267.77</ele>
        <time>1970-01-01T01:00:00Z</time>
      </trkpt>
      <trkpt lat="63.3973695" lon="10.48582">
        <ele>267.77</ele>
        <time>1970-01-01T01:00:00Z</time>
      </trkpt>
      <trkpt lat="63.39735767" lon="10.48579767">
        <ele>267.77</ele>
        <time>1970-01-01T01:00:00Z</time>
      </trkpt>
      <trkpt lat="63.39734467" lon="10.4857755">
        <ele>267.618</ele>
        <time>1970-01-01T01:00:00Z</time>
      </trkpt>
      <trkpt lat="63.39733033" lon="10.4857495">
        <ele>267.618</ele>
        <time>1970-01-01T01:00:00Z</time>
      </trkpt>
      <trkpt lat="63.39731667" lon="10.48572317">
        <ele>267.618</ele>
        <time>1970-01-01T01:00:00Z</time>
      </trkpt>
      <trkpt lat="63.39730283" lon="10.485697">
        <ele>267.618</ele>
        <time>1970-01-01T01:00:00Z</time>
      </trkpt>
      <trkpt lat="63.3972895" lon="10.48567233">
        <ele>267.465</ele>
        <time>1970-01-01T01:00:00Z</time>
      </trkpt>
      <trkpt lat="63.39727767" lon="10.48564833">
        <ele>267.465</ele>
        <time>1970-01-01T01:00:00Z</time>
      </trkpt>
      <trkpt lat="63.397269" lon="10.48562517">
        <ele>267.313</ele>
        <time>1970-01-01T01:00:00Z</time>
      </trkpt>
      <trkpt lat="63.397262" lon="10.48560767">
        <ele>267.313</ele>
        <time>1970-01-01T01:00:00Z</time>
      </trkpt>
      <trkpt lat="63.39725367" lon="10.48559317">
        <ele>267.16</ele>
        <time>1970-01-01T01:00:00Z</time>
      </trkpt>
      <trkpt lat="63.39724333" lon="10.485577">
        <ele>267.16</ele>
        <time>1970-01-01T01:00:00Z</time>
      </trkpt>
      <trkpt lat="63.3972305" lon="10.48555583">
        <ele>267.008</ele>
        <time>1970-01-01T01:00:00Z</time>
      </trkpt>
      <trkpt lat="63.39721733" lon="10.48553517">
        <ele>267.008</ele>
        <time>1970-01-01T01:00:00Z</time>
      </trkpt>
      <trkpt lat="63.39720517" lon="10.48551233">
        <ele>266.856</ele>
        <time>1970-01-01T01:00:00Z</time>
      </trkpt>
      <trkpt lat="63.39719267" lon="10.4854935">
        <ele>266.856</ele>
        <time>1970-01-01T01:00:00Z</time>
      </trkpt>
      <trkpt lat="63.39717867" lon="10.48547667">
        <ele>266.703</ele>
        <time>1970-01-01T01:00:00Z</time>
      </trkpt>
      <trkpt lat="63.3971625" lon="10.485468">
        <ele>266.703</ele>
        <time>1970-01-01T01:00:00Z</time>
      </trkpt>
      <trkpt lat="63.39714667" lon="10.48545817">
        <ele>266.551</ele>
        <time>1970-01-01T01:00:00Z</time>
      </trkpt>
      <trkpt lat="63.397131" lon="10.485446">
        <ele>266.551</ele>
        <time>1970-01-01T01:00:00Z</time>
      </trkpt>
      <trkpt lat="63.397117" lon="10.48543">
        <ele>266.246</ele>
        <time>1970-01-01T01:00:00Z</time>
      </trkpt>
      <trkpt lat="63.397104" lon="10.48541267">
        <ele>266.246</ele>
        <time>1970-01-01T01:00:00Z</time>
      </trkpt>
      <trkpt lat="63.397092" lon="10.485395">
        <ele>266.094</ele>
        <time>1970-01-01T01:00:00Z</time>
      </trkpt>
      <trkpt lat="63.39707933" lon="10.48537583">
        <ele>266.094</ele>
        <time>1970-01-01T01:00:00Z</time>
      </trkpt>
      <trkpt lat="63.39706483" lon="10.485357">
        <ele>265.789</ele>
        <time>1970-01-01T01:00:00Z</time>
      </trkpt>
      <trkpt lat="63.39705" lon="10.485339">
        <ele>265.789</ele>
        <time>1970-01-01T01:00:00Z</time>
      </trkpt>
      <trkpt lat="63.3970355" lon="10.48532517">
        <ele>265.636</ele>
        <time>1970-01-01T01:00:00Z</time>
      </trkpt>
      <trkpt lat="63.39702167" lon="10.48530983">
        <ele>265.636</ele>
        <time>1970-01-01T01:00:00Z</time>
      </trkpt>
      <trkpt lat="63.39700767" lon="10.48529283">
        <ele>265.484</ele>
        <time>1970-01-01T01:00:00Z</time>
      </trkpt>
      <trkpt lat="63.39699367" lon="10.4852755">
        <ele>265.484</ele>
        <time>1970-01-01T01:00:00Z</time>
      </trkpt>
      <trkpt lat="63.39697917" lon="10.48525967">
        <ele>265.179</ele>
        <time>1970-01-01T01:00:00Z</time>
      </trkpt>
      <trkpt lat="63.39696383" lon="10.48524767">
        <ele>265.179</ele>
        <time>1970-01-01T01:00:00Z</time>
      </trkpt>
      <trkpt lat="63.39694883" lon="10.48523267">
        <ele>265.027</ele>
        <time>1970-01-01T01:00:00Z</time>
      </trkpt>
      <trkpt lat="63.39693633" lon="10.4852155">
        <ele>265.027</ele>
        <time>1970-01-01T01:00:00Z</time>
      </trkpt>
      <trkpt lat="63.39692617" lon="10.485195">
        <ele>264.874</ele>
        <time>1970-01-01T01:00:00Z</time>
      </trkpt>
      <trkpt lat="63.39691483" lon="10.4851735">
        <ele>264.874</ele>
        <time>1970-01-01T01:00:00Z</time>
      </trkpt>
      <trkpt lat="63.39690383" lon="10.48515183">
        <ele>264.722</ele>
        <time>1970-01-01T01:00:00Z</time>
      </trkpt>
      <trkpt lat="63.39689267" lon="10.48513383">
        <ele>264.722</ele>
        <time>1970-01-01T01:00:00Z</time>
      </trkpt>
      <trkpt lat="63.39688267" lon="10.48511817">
        <ele>264.722</ele>
        <time>1970-01-01T01:00:00Z</time>
      </trkpt>
      <trkpt lat="63.396871" lon="10.48510367">
        <ele>264.722</ele>
        <time>1970-01-01T01:00:00Z</time>
      </trkpt>
      <trkpt lat="63.39685817" lon="10.48508467">
        <ele>264.57</ele>
        <time>1970-01-01T01:00:00Z</time>
      </trkpt>
      <trkpt lat="63.396845" lon="10.48506567">
        <ele>264.57</ele>
        <time>1970-01-01T01:00:00Z</time>
      </trkpt>
      <trkpt lat="63.39683233" lon="10.485043">
        <ele>264.57</ele>
        <time>1970-01-01T01:00:00Z</time>
      </trkpt>
      <trkpt lat="63.39682117" lon="10.48502233">
        <ele>264.57</ele>
        <time>1970-01-01T01:00:00Z</time>
      </trkpt>
      <trkpt lat="63.3968075" lon="10.485">
        <ele>264.417</ele>
        <time>1970-01-01T01:00:00Z</time>
      </trkpt>
      <trkpt lat="63.39679217" lon="10.48497983">
        <ele>264.417</ele>
        <time>1970-01-01T01:00:00Z</time>
      </trkpt>
      <trkpt lat="63.39677617" lon="10.4849615">
        <ele>264.417</ele>
        <time>1970-01-01T01:00:00Z</time>
      </trkpt>
      <trkpt lat="63.39676167" lon="10.48494533">
        <ele>264.417</ele>
        <time>1970-01-01T01:00:00Z</time>
      </trkpt>
      <trkpt lat="63.39674817" lon="10.48492833">
        <ele>264.417</ele>
        <time>1970-01-01T01:00:00Z</time>
      </trkpt>
      <trkpt lat="63.39673417" lon="10.484911">
        <ele>264.417</ele>
        <time>1970-01-01T01:00:00Z</time>
      </trkpt>
      <trkpt lat="63.39672183" lon="10.48489333">
        <ele>264.265</ele>
        <time>1970-01-01T01:00:00Z</time>
      </trkpt>
      <trkpt lat="63.39671117" lon="10.48487867">
        <ele>264.265</ele>
        <time>1970-01-01T01:00:00Z</time>
      </trkpt>
      <trkpt lat="63.39670033" lon="10.4848605">
        <ele>264.265</ele>
        <time>1970-01-01T01:00:00Z</time>
      </trkpt>
      <trkpt lat="63.39668833" lon="10.4848435">
        <ele>264.265</ele>
        <time>1970-01-01T01:00:00Z</time>
      </trkpt>
      <trkpt lat="63.39667483" lon="10.4848245">
        <ele>264.265</ele>
        <time>1970-01-01T01:00:00Z</time>
      </trkpt>
      <trkpt lat="63.39666133" lon="10.48480783">
        <ele>264.265</ele>
        <time>1970-01-01T01:00:00Z</time>
      </trkpt>
      <trkpt lat="63.39664817" lon="10.4847925">
        <ele>264.265</ele>
        <time>1970-01-01T01:00:00Z</time>
      </trkpt>
      <trkpt lat="63.39663667" lon="10.48477683">
        <ele>264.265</ele>
        <time>1970-01-01T01:00:00Z</time>
      </trkpt>
      <trkpt lat="63.39662417" lon="10.48475867">
        <ele>264.265</ele>
        <time>1970-01-01T01:00:00Z</time>
      </trkpt>
      <trkpt lat="63.39660983" lon="10.48473667">
        <ele>264.265</ele>
        <time>1970-01-01T01:00:00Z</time>
      </trkpt>
      <trkpt lat="63.396595" lon="10.48471517">
        <ele>264.265</ele>
        <time>1970-01-01T01:00:00Z</time>
      </trkpt>
      <trkpt lat="63.3965815" lon="10.48469567">
        <ele>264.265</ele>
        <time>1970-01-01T01:00:00Z</time>
      </trkpt>
      <trkpt lat="63.3965695" lon="10.48467783">
        <ele>264.265</ele>
        <time>1970-01-01T01:00:00Z</time>
      </trkpt>
      <trkpt lat="63.3965565" lon="10.484658">
        <ele>264.265</ele>
        <time>1970-01-01T01:00:00Z</time>
      </trkpt>
      <trkpt lat="63.3965435" lon="10.48463717">
        <ele>264.265</ele>
        <time>1970-01-01T01:00:00Z</time>
      </trkpt>
      <trkpt lat="63.3965305" lon="10.484615">
        <ele>264.265</ele>
        <time>1970-01-01T01:00:00Z</time>
      </trkpt>
      <trkpt lat="63.39651817" lon="10.4845975">
        <ele>264.265</ele>
        <time>1970-01-01T01:00:00Z</time>
      </trkpt>
      <trkpt lat="63.396503" lon="10.48458067">
        <ele>264.265</ele>
        <time>1970-01-01T01:00:00Z</time>
      </trkpt>
      <trkpt lat="63.39648733" lon="10.4845665">
        <ele>264.265</ele>
        <time>1970-01-01T01:00:00Z</time>
      </trkpt>
      <trkpt lat="63.39647217" lon="10.48454783">
        <ele>264.265</ele>
        <time>1970-01-01T01:00:00Z</time>
      </trkpt>
      <trkpt lat="63.396459" lon="10.48452933">
        <ele>264.112</ele>
        <time>1970-01-01T01:00:00Z</time>
      </trkpt>
      <trkpt lat="63.396445" lon="10.48450917">
        <ele>264.112</ele>
        <time>1970-01-01T01:00:00Z</time>
      </trkpt>
      <trkpt lat="63.396432" lon="10.4844905">
        <ele>264.112</ele>
        <time>1970-01-01T01:00:00Z</time>
      </trkpt>
      <trkpt lat="63.39641933" lon="10.4844765">
        <ele>264.112</ele>
        <time>1970-01-01T01:00:00Z</time>
      </trkpt>
      <trkpt lat="63.39640617" lon="10.48446467">
        <ele>264.112</ele>
        <time>1970-01-01T01:00:00Z</time>
      </trkpt>
      <trkpt lat="63.39639133" lon="10.48445267">
        <ele>264.112</ele>
        <time>1970-01-01T01:00:00Z</time>
      </trkpt>
      <trkpt lat="63.3963755" lon="10.48443317">
        <ele>264.112</ele>
        <time>1970-01-01T01:00:00Z</time>
      </trkpt>
      <trkpt lat="63.3963615" lon="10.484413">
        <ele>264.112</ele>
        <time>1970-01-01T01:00:00Z</time>
      </trkpt>
      <trkpt lat="63.396347" lon="10.4843925">
        <ele>263.96</ele>
        <time>1970-01-01T01:00:00Z</time>
      </trkpt>
      <trkpt lat="63.396333" lon="10.484374">
        <ele>263.96</ele>
        <time>1970-01-01T01:00:00Z</time>
      </trkpt>
      <trkpt lat="63.39631867" lon="10.484355">
        <ele>263.96</ele>
        <time>1970-01-01T01:00:00Z</time>
      </trkpt>
      <trkpt lat="63.396305" lon="10.48433817">
        <ele>263.96</ele>
        <time>1970-01-01T01:00:00Z</time>
      </trkpt>
      <trkpt lat="63.396292" lon="10.48432283">
        <ele>263.96</ele>
        <time>1970-01-01T01:00:00Z</time>
      </trkpt>
      <trkpt lat="63.39627817" lon="10.48430733">
        <ele>263.96</ele>
        <time>1970-01-01T01:00:00Z</time>
      </trkpt>
      <trkpt lat="63.39626467" lon="10.48429383">
        <ele>263.808</ele>
        <time>1970-01-01T01:00:00Z</time>
      </trkpt>
      <trkpt lat="63.39625033" lon="10.48427867">
        <ele>263.808</ele>
        <time>1970-01-01T01:00:00Z</time>
      </trkpt>
      <trkpt lat="63.396236" lon="10.48426183">
        <ele>263.655</ele>
        <time>1970-01-01T01:00:00Z</time>
      </trkpt>
      <trkpt lat="63.39622183" lon="10.48424033">
        <ele>263.655</ele>
        <time>1970-01-01T01:00:00Z</time>
      </trkpt>
      <trkpt lat="63.3962065" lon="10.48421933">
        <ele>263.655</ele>
        <time>1970-01-01T01:00:00Z</time>
      </trkpt>
      <trkpt lat="63.396191" lon="10.48419767">
        <ele>263.655</ele>
        <time>1970-01-01T01:00:00Z</time>
      </trkpt>
      <trkpt lat="63.39617383" lon="10.484178">
        <ele>263.503</ele>
        <time>1970-01-01T01:00:00Z</time>
      </trkpt>
      <trkpt lat="63.3961585" lon="10.48415883">
        <ele>263.503</ele>
        <time>1970-01-01T01:00:00Z</time>
      </trkpt>
      <trkpt lat="63.396144" lon="10.48414333">
        <ele>263.35</ele>
        <time>1970-01-01T01:00:00Z</time>
      </trkpt>
      <trkpt lat="63.39613067" lon="10.48412933">
        <ele>263.35</ele>
        <time>1970-01-01T01:00:00Z</time>
      </trkpt>
      <trkpt lat="63.39611833" lon="10.484116">
        <ele>263.198</ele>
        <time>1970-01-01T01:00:00Z</time>
      </trkpt>
      <trkpt lat="63.39610667" lon="10.484099">
        <ele>263.198</ele>
        <time>1970-01-01T01:00:00Z</time>
      </trkpt>
      <trkpt lat="63.39609533" lon="10.48408317">
        <ele>263.046</ele>
        <time>1970-01-01T01:00:00Z</time>
      </trkpt>
      <trkpt lat="63.39608217" lon="10.484067">
        <ele>263.046</ele>
        <time>1970-01-01T01:00:00Z</time>
      </trkpt>
      <trkpt lat="63.396069" lon="10.4840545">
        <ele>262.893</ele>
        <time>1970-01-01T01:00:00Z</time>
      </trkpt>
      <trkpt lat="63.39605683" lon="10.48404083">
        <ele>262.893</ele>
        <time>1970-01-01T01:00:00Z</time>
      </trkpt>
      <trkpt lat="63.396045" lon="10.48403033">
        <ele>262.741</ele>
        <time>1970-01-01T01:00:00Z</time>
      </trkpt>
      <trkpt lat="63.396032" lon="10.48401667">
        <ele>262.741</ele>
        <time>1970-01-01T01:00:00Z</time>
      </trkpt>
      <trkpt lat="63.39601733" lon="10.48400117">
        <ele>262.741</ele>
        <time>1970-01-01T01:00:00Z</time>
      </trkpt>
      <trkpt lat="63.396002" lon="10.48398183">
        <ele>262.741</ele>
        <time>1970-01-01T01:00:00Z</time>
      </trkpt>
      <trkpt lat="63.3959875" lon="10.48396167">
        <ele>262.588</ele>
        <time>1970-01-01T01:00:00Z</time>
      </trkpt>
      <trkpt lat="63.3959735" lon="10.4839395">
        <ele>262.588</ele>
        <time>1970-01-01T01:00:00Z</time>
      </trkpt>
      <trkpt lat="63.39596083" lon="10.48391867">
        <ele>262.588</ele>
        <time>1970-01-01T01:00:00Z</time>
      </trkpt>
      <trkpt lat="63.395946" lon="10.483899">
        <ele>262.588</ele>
        <time>1970-01-01T01:00:00Z</time>
      </trkpt>
      <trkpt lat="63.39592983" lon="10.483881">
        <ele>262.436</ele>
        <time>1970-01-01T01:00:00Z</time>
      </trkpt>
      <trkpt lat="63.39591333" lon="10.48386333">
        <ele>262.436</ele>
        <time>1970-01-01T01:00:00Z</time>
      </trkpt>
      <trkpt lat="63.39589983" lon="10.4838475">
        <ele>262.436</ele>
        <time>1970-01-01T01:00:00Z</time>
      </trkpt>
      <trkpt lat="63.39588733" lon="10.483832">
        <ele>262.436</ele>
        <time>1970-01-01T01:00:00Z</time>
      </trkpt>
      <trkpt lat="63.39587483" lon="10.48381483">
        <ele>262.436</ele>
        <time>1970-01-01T01:00:00Z</time>
      </trkpt>
      <trkpt lat="63.39586217" lon="10.483798">
        <ele>262.436</ele>
        <time>1970-01-01T01:00:00Z</time>
      </trkpt>
      <trkpt lat="63.39585" lon="10.48378067">
        <ele>262.436</ele>
        <time>1970-01-01T01:00:00Z</time>
      </trkpt>
      <trkpt lat="63.39583717" lon="10.48376383">
        <ele>262.436</ele>
        <time>1970-01-01T01:00:00Z</time>
      </trkpt>
      <trkpt lat="63.39582433" lon="10.4837455">
        <ele>262.284</ele>
        <time>1970-01-01T01:00:00Z</time>
      </trkpt>
      <trkpt lat="63.39581083" lon="10.48373033">
        <ele>262.284</ele>
        <time>1970-01-01T01:00:00Z</time>
      </trkpt>
      <trkpt lat="63.39579717" lon="10.48371567">
        <ele>262.284</ele>
        <time>1970-01-01T01:00:00Z</time>
      </trkpt>
      <trkpt lat="63.39578117" lon="10.4837015">
        <ele>262.284</ele>
        <time>1970-01-01T01:00:00Z</time>
      </trkpt>
      <trkpt lat="63.39576583" lon="10.48368767">
        <ele>262.284</ele>
        <time>1970-01-01T01:00:00Z</time>
      </trkpt>
      <trkpt lat="63.39574983" lon="10.483675">
        <ele>262.284</ele>
        <time>1970-01-01T01:00:00Z</time>
      </trkpt>
      <trkpt lat="63.39573633" lon="10.48366">
        <ele>262.284</ele>
        <time>1970-01-01T01:00:00Z</time>
      </trkpt>
      <trkpt lat="63.3957225" lon="10.48364333">
        <ele>262.284</ele>
        <time>1970-01-01T01:00:00Z</time>
      </trkpt>
      <trkpt lat="63.3957105" lon="10.48362517">
        <ele>262.284</ele>
        <time>1970-01-01T01:00:00Z</time>
      </trkpt>
      <trkpt lat="63.39569717" lon="10.48360933">
        <ele>262.284</ele>
        <time>1970-01-01T01:00:00Z</time>
      </trkpt>
      <trkpt lat="63.39568583" lon="10.483591">
        <ele>262.284</ele>
        <time>1970-01-01T01:00:00Z</time>
      </trkpt>
      <trkpt lat="63.39567317" lon="10.48357">
        <ele>262.284</ele>
        <time>1970-01-01T01:00:00Z</time>
      </trkpt>
      <trkpt lat="63.39566183" lon="10.4835465">
        <ele>262.284</ele>
        <time>1970-01-01T01:00:00Z</time>
      </trkpt>
      <trkpt lat="63.395648" lon="10.48352667">
        <ele>262.284</ele>
        <time>1970-01-01T01:00:00Z</time>
      </trkpt>
      <trkpt lat="63.39563583" lon="10.4835105">
        <ele>262.284</ele>
        <time>1970-01-01T01:00:00Z</time>
      </trkpt>
      <trkpt lat="63.39562317" lon="10.48349617">
        <ele>262.284</ele>
        <time>1970-01-01T01:00:00Z</time>
      </trkpt>
      <trkpt lat="63.39561233" lon="10.48348">
        <ele>262.284</ele>
        <time>1970-01-01T01:00:00Z</time>
      </trkpt>
      <trkpt lat="63.395601" lon="10.48346183">
        <ele>262.284</ele>
        <time>1970-01-01T01:00:00Z</time>
      </trkpt>
      <trkpt lat="63.39558917" lon="10.48344167">
        <ele>262.284</ele>
        <time>1970-01-01T01:00:00Z</time>
      </trkpt>
      <trkpt lat="63.39557633" lon="10.483421">
        <ele>262.284</ele>
        <time>1970-01-01T01:00:00Z</time>
      </trkpt>
      <trkpt lat="63.39556183" lon="10.48340183">
        <ele>262.284</ele>
        <time>1970-01-01T01:00:00Z</time>
      </trkpt>
      <trkpt lat="63.39554717" lon="10.48338417">
        <ele>262.284</ele>
        <time>1970-01-01T01:00:00Z</time>
      </trkpt>
      <trkpt lat="63.39553183" lon="10.4833675">
        <ele>262.131</ele>
        <time>1970-01-01T01:00:00Z</time>
      </trkpt>
      <trkpt lat="63.39551867" lon="10.48335083">
        <ele>262.131</ele>
        <time>1970-01-01T01:00:00Z</time>
      </trkpt>
      <trkpt lat="63.39550667" lon="10.48333567">
        <ele>262.131</ele>
        <time>1970-01-01T01:00:00Z</time>
      </trkpt>
      <trkpt lat="63.395495" lon="10.48331833">
        <ele>262.131</ele>
        <time>1970-01-01T01:00:00Z</time>
      </trkpt>
      <trkpt lat="63.39548267" lon="10.4833">
        <ele>262.131</ele>
        <time>1970-01-01T01:00:00Z</time>
      </trkpt>
      <trkpt lat="63.39547" lon="10.4832795">
        <ele>262.131</ele>
        <time>1970-01-01T01:00:00Z</time>
      </trkpt>
      <trkpt lat="63.3954575" lon="10.48325917">
        <ele>262.131</ele>
        <time>1970-01-01T01:00:00Z</time>
      </trkpt>
      <trkpt lat="63.39544517" lon="10.48323867">
        <ele>262.131</ele>
        <time>1970-01-01T01:00:00Z</time>
      </trkpt>
      <trkpt lat="63.39543117" lon="10.483217">
        <ele>261.979</ele>
        <time>1970-01-01T01:00:00Z</time>
      </trkpt>
      <trkpt lat="63.3954165" lon="10.48319633">
        <ele>261.979</ele>
        <time>1970-01-01T01:00:00Z</time>
      </trkpt>
      <trkpt lat="63.39540133" lon="10.483173">
        <ele>261.979</ele>
        <time>1970-01-01T01:00:00Z</time>
      </trkpt>
      <trkpt lat="63.39538717" lon="10.48314883">
        <ele>261.979</ele>
        <time>1970-01-01T01:00:00Z</time>
      </trkpt>
      <trkpt lat="63.39537283" lon="10.48312117">
        <ele>261.979</ele>
        <time>1970-01-01T01:00:00Z</time>
      </trkpt>
      <trkpt lat="63.39536017" lon="10.483095">
        <ele>261.979</ele>
        <time>1970-01-01T01:00:00Z</time>
      </trkpt>
      <trkpt lat="63.39534767" lon="10.483071">
        <ele>261.826</ele>
        <time>1970-01-01T01:00:00Z</time>
      </trkpt>
      <trkpt lat="63.39534" lon="10.4830495">
        <ele>261.826</ele>
        <time>1970-01-01T01:00:00Z</time>
      </trkpt>
      <trkpt lat="63.39533333" lon="10.483029">
        <ele>261.826</ele>
        <time>1970-01-01T01:00:00Z</time>
      </trkpt>
      <trkpt lat="63.3953275" lon="10.48300483">
        <ele>261.826</ele>
        <time>1970-01-01T01:00:00Z</time>
      </trkpt>
      <trkpt lat="63.39531883" lon="10.482981">
        <ele>261.674</ele>
        <time>1970-01-01T01:00:00Z</time>
      </trkpt>
      <trkpt lat="63.39531033" lon="10.482951">
        <ele>261.674</ele>
        <time>1970-01-01T01:00:00Z</time>
      </trkpt>
      <trkpt lat="63.39530017" lon="10.48292483">
        <ele>261.674</ele>
        <time>1970-01-01T01:00:00Z</time>
      </trkpt>
      <trkpt lat="63.39529017" lon="10.48289683">
        <ele>261.674</ele>
        <time>1970-01-01T01:00:00Z</time>
      </trkpt>
      <trkpt lat="63.39527817" lon="10.48287267">
        <ele>261.522</ele>
        <time>1970-01-01T01:00:00Z</time>
      </trkpt>
      <trkpt lat="63.39526933" lon="10.4828445">
        <ele>261.522</ele>
        <time>1970-01-01T01:00:00Z</time>
      </trkpt>
      <trkpt lat="63.3952645" lon="10.4828105">
        <ele>261.369</ele>
        <time>1970-01-01T01:00:00Z</time>
      </trkpt>
      <trkpt lat="63.3952615" lon="10.48277567">
        <ele>261.369</ele>
        <time>1970-01-01T01:00:00Z</time>
      </trkpt>
      <trkpt lat="63.3952575" lon="10.48274483">
        <ele>261.217</ele>
        <time>1970-01-01T01:00:00Z</time>
      </trkpt>
      <trkpt lat="63.395249" lon="10.482719">
        <ele>261.217</ele>
        <time>1970-01-01T01:00:00Z</time>
      </trkpt>
      <trkpt lat="63.3952385" lon="10.48269317">
        <ele>261.064</ele>
        <time>1970-01-01T01:00:00Z</time>
      </trkpt>
      <trkpt lat="63.39522733" lon="10.48266117">
        <ele>261.064</ele>
        <time>1970-01-01T01:00:00Z</time>
      </trkpt>
      <trkpt lat="63.39521633" lon="10.48262917">
        <ele>260.912</ele>
        <time>1970-01-01T01:00:00Z</time>
      </trkpt>
      <trkpt lat="63.3952075" lon="10.482593">
        <ele>260.912</ele>
        <time>1970-01-01T01:00:00Z</time>
      </trkpt>
      <trkpt lat="63.3951995" lon="10.482557">
        <ele>260.76</ele>
        <time>1970-01-01T01:00:00Z</time>
      </trkpt>
      <trkpt lat="63.3951925" lon="10.48252">
        <ele>260.76</ele>
        <time>1970-01-01T01:00:00Z</time>
      </trkpt>
      <trkpt lat="63.39518517" lon="10.482485">
        <ele>260.607</ele>
        <time>1970-01-01T01:00:00Z</time>
      </trkpt>
      <trkpt lat="63.3951785" lon="10.48245283">
        <ele>260.607</ele>
        <time>1970-01-01T01:00:00Z</time>
      </trkpt>
      <trkpt lat="63.3951715" lon="10.48242133">
        <ele>260.455</ele>
        <time>1970-01-01T01:00:00Z</time>
      </trkpt>
      <trkpt lat="63.39516533" lon="10.48239283">
        <ele>260.455</ele>
        <time>1970-01-01T01:00:00Z</time>
      </trkpt>
      <trkpt lat="63.3951585" lon="10.482364">
        <ele>260.302</ele>
        <time>1970-01-01T01:00:00Z</time>
      </trkpt>
      <trkpt lat="63.39515183" lon="10.48233933">
        <ele>260.302</ele>
        <time>1970-01-01T01:00:00Z</time>
      </trkpt>
      <trkpt lat="63.3951435" lon="10.48231467">
        <ele>260.15</ele>
        <time>1970-01-01T01:00:00Z</time>
      </trkpt>
      <trkpt lat="63.39513517" lon="10.4822865">
        <ele>260.15</ele>
        <time>1970-01-01T01:00:00Z</time>
      </trkpt>
      <trkpt lat="63.3951265" lon="10.4822565">
        <ele>259.998</ele>
        <time>1970-01-01T01:00:00Z</time>
      </trkpt>
      <trkpt lat="63.3951205" lon="10.48222417">
        <ele>259.998</ele>
        <time>1970-01-01T01:00:00Z</time>
      </trkpt>
      <trkpt lat="63.39511517" lon="10.482194">
        <ele>259.693</ele>
        <time>1970-01-01T01:00:00Z</time>
      </trkpt>
      <trkpt lat="63.39511117" lon="10.48216283">
        <ele>259.693</ele>
        <time>1970-01-01T01:00:00Z</time>
      </trkpt>
      <trkpt lat="63.39510617" lon="10.48212567">
        <ele>259.54</ele>
        <time>1970-01-01T01:00:00Z</time>
      </trkpt>
      <trkpt lat="63.3951025" lon="10.48208917">
        <ele>259.54</ele>
        <time>1970-01-01T01:00:00Z</time>
      </trkpt>
      <trkpt lat="63.39509717" lon="10.48205217">
        <ele>259.236</ele>
        <time>1970-01-01T01:00:00Z</time>
      </trkpt>
      <trkpt lat="63.395091" lon="10.48202233">
        <ele>259.236</ele>
        <time>1970-01-01T01:00:00Z</time>
      </trkpt>
      <trkpt lat="63.39508283" lon="10.48199233">
        <ele>258.931</ele>
        <time>1970-01-01T01:00:00Z</time>
      </trkpt>
      <trkpt lat="63.395075" lon="10.48196067">
        <ele>258.931</ele>
        <time>1970-01-01T01:00:00Z</time>
      </trkpt>
      <trkpt lat="63.39506867" lon="10.48192983">
        <ele>258.626</ele>
        <time>1970-01-01T01:00:00Z</time>
      </trkpt>
      <trkpt lat="63.39506217" lon="10.481898">
        <ele>258.626</ele>
        <time>1970-01-01T01:00:00Z</time>
      </trkpt>
      <trkpt lat="63.39505567" lon="10.48186967">
        <ele>258.321</ele>
        <time>1970-01-01T01:00:00Z</time>
      </trkpt>
      <trkpt lat="63.395048" lon="10.4818395">
        <ele>258.321</ele>
        <time>1970-01-01T01:00:00Z</time>
      </trkpt>
      <trkpt lat="63.39503983" lon="10.48181017">
        <ele>258.016</ele>
        <time>1970-01-01T01:00:00Z</time>
      </trkpt>
      <trkpt lat="63.39503083" lon="10.48177933">
        <ele>258.016</ele>
        <time>1970-01-01T01:00:00Z</time>
      </trkpt>
      <trkpt lat="63.395022" lon="10.4817505">
        <ele>257.559</ele>
        <time>1970-01-01T01:00:00Z</time>
      </trkpt>
      <trkpt lat="63.39501117" lon="10.48172217">
        <ele>257.559</ele>
        <time>1970-01-01T01:00:00Z</time>
      </trkpt>
      <trkpt lat="63.39499983" lon="10.4816945">
        <ele>257.254</ele>
        <time>1970-01-01T01:00:00Z</time>
      </trkpt>
      <trkpt lat="63.39499033" lon="10.48166817">
        <ele>257.254</ele>
        <time>1970-01-01T01:00:00Z</time>
      </trkpt>
      <trkpt lat="63.39498333" lon="10.481642">
        <ele>256.95</ele>
        <time>1970-01-01T01:00:00Z</time>
      </trkpt>
      <trkpt lat="63.39497667" lon="10.48161167">
        <ele>256.95</ele>
        <time>1970-01-01T01:00:00Z</time>
      </trkpt>
      <trkpt lat="63.39496917" lon="10.48157667">
        <ele>256.645</ele>
        <time>1970-01-01T01:00:00Z</time>
      </trkpt>
      <trkpt lat="63.39496083" lon="10.48154133">
        <ele>256.645</ele>
        <time>1970-01-01T01:00:00Z</time>
      </trkpt>
      <trkpt lat="63.3949505" lon="10.48150533">
        <ele>256.34</ele>
        <time>1970-01-01T01:00:00Z</time>
      </trkpt>
      <trkpt lat="63.39493933" lon="10.48147217">
        <ele>256.34</ele>
        <time>1970-01-01T01:00:00Z</time>
      </trkpt>
      <trkpt lat="63.39492867" lon="10.48144033">
        <ele>256.035</ele>
        <time>1970-01-01T01:00:00Z</time>
      </trkpt>
      <trkpt lat="63.39491967" lon="10.48141317">
        <ele>256.035</ele>
        <time>1970-01-01T01:00:00Z</time>
      </trkpt>
      <trkpt lat="63.3949105" lon="10.4813855">
        <ele>255.73</ele>
        <time>1970-01-01T01:00:00Z</time>
      </trkpt>
      <trkpt lat="63.39490083" lon="10.48135683">
        <ele>255.73</ele>
        <time>1970-01-01T01:00:00Z</time>
      </trkpt>
      <trkpt lat="63.3948945" lon="10.481324">
        <ele>255.425</ele>
        <time>1970-01-01T01:00:00Z</time>
      </trkpt>
      <trkpt lat="63.394886" lon="10.4812935">
        <ele>255.425</ele>
        <time>1970-01-01T01:00:00Z</time>
      </trkpt>
      <trkpt lat="63.394877" lon="10.48126417">
        <ele>255.121</ele>
        <time>1970-01-01T01:00:00Z</time>
      </trkpt>
      <trkpt lat="63.39486567" lon="10.48123917">
        <ele>255.121</ele>
        <time>1970-01-01T01:00:00Z</time>
      </trkpt>
      <trkpt lat="63.3948575" lon="10.48120967">
        <ele>254.816</ele>
        <time>1970-01-01T01:00:00Z</time>
      </trkpt>
      <trkpt lat="63.39485183" lon="10.48117933">
        <ele>254.816</ele>
        <time>1970-01-01T01:00:00Z</time>
      </trkpt>
      <trkpt lat="63.39484533" lon="10.481146">
        <ele>254.511</ele>
        <time>1970-01-01T01:00:00Z</time>
      </trkpt>
      <trkpt lat="63.394838" lon="10.48111417">
        <ele>254.511</ele>
        <time>1970-01-01T01:00:00Z</time>
      </trkpt>
      <trkpt lat="63.39483" lon="10.48108367">
        <ele>254.206</ele>
        <time>1970-01-01T01:00:00Z</time>
      </trkpt>
      <trkpt lat="63.39482267" lon="10.48105533">
        <ele>254.206</ele>
        <time>1970-01-01T01:00:00Z</time>
      </trkpt>
      <trkpt lat="63.39481617" lon="10.48102817">
        <ele>253.749</ele>
        <time>1970-01-01T01:00:00Z</time>
      </trkpt>
      <trkpt lat="63.39480867" lon="10.480999">
        <ele>253.749</ele>
        <time>1970-01-01T01:00:00Z</time>
      </trkpt>
      <trkpt lat="63.39480133" lon="10.4809705">
        <ele>253.444</ele>
        <time>1970-01-01T01:00:00Z</time>
      </trkpt>
      <trkpt lat="63.39479267" lon="10.4809415">
        <ele>253.444</ele>
        <time>1970-01-01T01:00:00Z</time>
      </trkpt>
      <trkpt lat="63.3947825" lon="10.4809085">
        <ele>253.139</ele>
        <time>1970-01-01T01:00:00Z</time>
      </trkpt>
      <trkpt lat="63.39477183" lon="10.48087467">
        <ele>253.139</ele>
        <time>1970-01-01T01:00:00Z</time>
      </trkpt>
      <trkpt lat="63.39476167" lon="10.4808415">
        <ele>252.835</ele>
        <time>1970-01-01T01:00:00Z</time>
      </trkpt>
      <trkpt lat="63.39475283" lon="10.48081383">
        <ele>252.835</ele>
        <time>1970-01-01T01:00:00Z</time>
      </trkpt>
      <trkpt lat="63.39474533" lon="10.48078633">
        <ele>252.53</ele>
        <time>1970-01-01T01:00:00Z</time>
      </trkpt>
      <trkpt lat="63.3947375" lon="10.480759">
        <ele>252.53</ele>
        <time>1970-01-01T01:00:00Z</time>
      </trkpt>
      <trkpt lat="63.39473017" lon="10.48073017">
        <ele>252.225</ele>
        <time>1970-01-01T01:00:00Z</time>
      </trkpt>
      <trkpt lat="63.394722" lon="10.48070267">
        <ele>252.225</ele>
        <time>1970-01-01T01:00:00Z</time>
      </trkpt>
      <trkpt lat="63.3947135" lon="10.48067117">
        <ele>251.92</ele>
        <time>1970-01-01T01:00:00Z</time>
      </trkpt>
      <trkpt lat="63.394704" lon="10.48063917">
        <ele>251.92</ele>
        <time>1970-01-01T01:00:00Z</time>
      </trkpt>
      <trkpt lat="63.39469567" lon="10.48060167">
        <ele>251.615</ele>
        <time>1970-01-01T01:00:00Z</time>
      </trkpt>
      <trkpt lat="63.394687" lon="10.4805665">
        <ele>251.615</ele>
        <time>1970-01-01T01:00:00Z</time>
      </trkpt>
      <trkpt lat="63.39468017" lon="10.4805325">
        <ele>251.311</ele>
        <time>1970-01-01T01:00:00Z</time>
      </trkpt>
      <trkpt lat="63.39467267" lon="10.48050133">
        <ele>251.311</ele>
        <time>1970-01-01T01:00:00Z</time>
      </trkpt>
      <trkpt lat="63.39466517" lon="10.480468">
        <ele>251.006</ele>
        <time>1970-01-01T01:00:00Z</time>
      </trkpt>
      <trkpt lat="63.39465933" lon="10.48043517">
        <ele>251.006</ele>
        <time>1970-01-01T01:00:00Z</time>
      </trkpt>
      <trkpt lat="63.3946515" lon="10.48040533">
        <ele>250.549</ele>
        <time>1970-01-01T01:00:00Z</time>
      </trkpt>
      <trkpt lat="63.39464467" lon="10.48037833">
        <ele>250.549</ele>
        <time>1970-01-01T01:00:00Z</time>
      </trkpt>
      <trkpt lat="63.39463667" lon="10.480353">
        <ele>250.244</ele>
        <time>1970-01-01T01:00:00Z</time>
      </trkpt>
      <trkpt lat="63.39462967" lon="10.48032667">
        <ele>250.244</ele>
        <time>1970-01-01T01:00:00Z</time>
      </trkpt>
      <trkpt lat="63.39462267" lon="10.48030083">
        <ele>250.091</ele>
        <time>1970-01-01T01:00:00Z</time>
      </trkpt>
      <trkpt lat="63.39461367" lon="10.480274">
        <ele>250.091</ele>
        <time>1970-01-01T01:00:00Z</time>
      </trkpt>
      <trkpt lat="63.39460383" lon="10.4802475">
        <ele>249.787</ele>
        <time>1970-01-01T01:00:00Z</time>
      </trkpt>
      <trkpt lat="63.39459367" lon="10.48022333">
        <ele>249.787</ele>
        <time>1970-01-01T01:00:00Z</time>
      </trkpt>
      <trkpt lat="63.39458317" lon="10.48019933">
        <ele>249.482</ele>
        <time>1970-01-01T01:00:00Z</time>
      </trkpt>
      <trkpt lat="63.39457" lon="10.48017717">
        <ele>249.482</ele>
        <time>1970-01-01T01:00:00Z</time>
      </trkpt>
      <trkpt lat="63.39455483" lon="10.480156">
        <ele>249.329</ele>
        <time>1970-01-01T01:00:00Z</time>
      </trkpt>
      <trkpt lat="63.394538" lon="10.4801355">
        <ele>249.329</ele>
        <time>1970-01-01T01:00:00Z</time>
      </trkpt>
      <trkpt lat="63.39452317" lon="10.48011733">
        <ele>249.025</ele>
        <time>1970-01-01T01:00:00Z</time>
      </trkpt>
      <trkpt lat="63.39450817" lon="10.48009817">
        <ele>249.025</ele>
        <time>1970-01-01T01:00:00Z</time>
      </trkpt>
      <trkpt lat="63.39449517" lon="10.48007767">
        <ele>248.872</ele>
        <time>1970-01-01T01:00:00Z</time>
      </trkpt>
      <trkpt lat="63.39448067" lon="10.480055">
        <ele>248.872</ele>
        <time>1970-01-01T01:00:00Z</time>
      </trkpt>
      <trkpt lat="63.39446917" lon="10.48003667">
        <ele>248.72</ele>
        <time>1970-01-01T01:00:00Z</time>
      </trkpt>
      <trkpt lat="63.39445667" lon="10.48002083">
        <ele>248.72</ele>
        <time>1970-01-01T01:00:00Z</time>
      </trkpt>
      <trkpt lat="63.39444567" lon="10.48000717">
        <ele>248.415</ele>
        <time>1970-01-01T01:00:00Z</time>
      </trkpt>
      <trkpt lat="63.39443317" lon="10.479991">
        <ele>248.415</ele>
        <time>1970-01-01T01:00:00Z</time>
      </trkpt>
      <trkpt lat="63.39442083" lon="10.479976">
        <ele>248.263</ele>
        <time>1970-01-01T01:00:00Z</time>
      </trkpt>
      <trkpt lat="63.394408" lon="10.47996167">
        <ele>248.263</ele>
        <time>1970-01-01T01:00:00Z</time>
      </trkpt>
      <trkpt lat="63.39439483" lon="10.47994733">
        <ele>248.11</ele>
        <time>1970-01-01T01:00:00Z</time>
      </trkpt>
      <trkpt lat="63.394382" lon="10.47993333">
        <ele>248.11</ele>
        <time>1970-01-01T01:00:00Z</time>
      </trkpt>
      <trkpt lat="63.39436983" lon="10.47991817">
        <ele>247.805</ele>
        <time>1970-01-01T01:00:00Z</time>
      </trkpt>
      <trkpt lat="63.39435833" lon="10.47990517">
        <ele>247.805</ele>
        <time>1970-01-01T01:00:00Z</time>
      </trkpt>
      <trkpt lat="63.39434617" lon="10.47989167">
        <ele>247.653</ele>
        <time>1970-01-01T01:00:00Z</time>
      </trkpt>
      <trkpt lat="63.39433317" lon="10.47987883">
        <ele>247.653</ele>
        <time>1970-01-01T01:00:00Z</time>
      </trkpt>
      <trkpt lat="63.39432017" lon="10.47986583">
        <ele>247.501</ele>
        <time>1970-01-01T01:00:00Z</time>
      </trkpt>
      <trkpt lat="63.39430817" lon="10.479855">
        <ele>247.501</ele>
        <time>1970-01-01T01:00:00Z</time>
      </trkpt>
      <trkpt lat="63.39429733" lon="10.47984417">
        <ele>247.348</ele>
        <time>1970-01-01T01:00:00Z</time>
      </trkpt>
      <trkpt lat="63.39428783" lon="10.47983333">
        <ele>247.348</ele>
        <time>1970-01-01T01:00:00Z</time>
      </trkpt>
      <trkpt lat="63.39427867" lon="10.4798235">
        <ele>247.348</ele>
        <time>1970-01-01T01:00:00Z</time>
      </trkpt>
      <trkpt lat="63.39426817" lon="10.47981267">
        <ele>247.348</ele>
        <time>1970-01-01T01:00:00Z</time>
      </trkpt>
      <trkpt lat="63.39425683" lon="10.47980167">
        <ele>247.348</ele>
        <time>1970-01-01T01:00:00Z</time>
      </trkpt>
      <trkpt lat="63.39424517" lon="10.4797885">
        <ele>247.348</ele>
        <time>1970-01-01T01:00:00Z</time>
      </trkpt>
      <trkpt lat="63.39423483" lon="10.47977933">
        <ele>247.348</ele>
        <time>1970-01-01T01:00:00Z</time>
      </trkpt>
      <trkpt lat="63.3942235" lon="10.4797715">
        <ele>247.348</ele>
        <time>1970-01-01T01:00:00Z</time>
      </trkpt>
      <trkpt lat="63.3942125" lon="10.4797665">
        <ele>247.348</ele>
        <time>1970-01-01T01:00:00Z</time>
      </trkpt>
      <trkpt lat="63.39420117" lon="10.47975783">
        <ele>247.348</ele>
        <time>1970-01-01T01:00:00Z</time>
      </trkpt>
      <trkpt lat="63.39418983" lon="10.47974383">
        <ele>247.348</ele>
        <time>1970-01-01T01:00:00Z</time>
      </trkpt>
      <trkpt lat="63.39417683" lon="10.4797255">
        <ele>247.348</ele>
        <time>1970-01-01T01:00:00Z</time>
      </trkpt>
      <trkpt lat="63.3941625" lon="10.479707">
        <ele>247.348</ele>
        <time>1970-01-01T01:00:00Z</time>
      </trkpt>
      <trkpt lat="63.39414917" lon="10.4796905">
        <ele>247.348</ele>
        <time>1970-01-01T01:00:00Z</time>
      </trkpt>
      <trkpt lat="63.394136" lon="10.47967417">
        <ele>247.196</ele>
        <time>1970-01-01T01:00:00Z</time>
      </trkpt>
      <trkpt lat="63.39412283" lon="10.4796595">
        <ele>247.196</ele>
        <time>1970-01-01T01:00:00Z</time>
      </trkpt>
      <trkpt lat="63.394109" lon="10.479645">
        <ele>247.196</ele>
        <time>1970-01-01T01:00:00Z</time>
      </trkpt>
      <trkpt lat="63.394095" lon="10.47963117">
        <ele>247.196</ele>
        <time>1970-01-01T01:00:00Z</time>
      </trkpt>
      <trkpt lat="63.39408067" lon="10.47961433">
        <ele>247.196</ele>
        <time>1970-01-01T01:00:00Z</time>
      </trkpt>
      <trkpt lat="63.39406717" lon="10.47959833">
        <ele>247.196</ele>
        <time>1970-01-01T01:00:00Z</time>
      </trkpt>
      <trkpt lat="63.39405533" lon="10.47958217">
        <ele>247.043</ele>
        <time>1970-01-01T01:00:00Z</time>
      </trkpt>
      <trkpt lat="63.39404267" lon="10.479562">
        <ele>247.043</ele>
        <time>1970-01-01T01:00:00Z</time>
      </trkpt>
      <trkpt lat="63.3940295" lon="10.47954233">
        <ele>247.043</ele>
        <time>1970-01-01T01:00:00Z</time>
      </trkpt>
      <trkpt lat="63.39401483" lon="10.47952167">
        <ele>247.043</ele>
        <time>1970-01-01T01:00:00Z</time>
      </trkpt>
      <trkpt lat="63.39400167" lon="10.47950367">
        <ele>247.043</ele>
        <time>1970-01-01T01:00:00Z</time>
      </trkpt>
      <trkpt lat="63.39398767" lon="10.47948117">
        <ele>247.043</ele>
        <time>1970-01-01T01:00:00Z</time>
      </trkpt>
      <trkpt lat="63.39397367" lon="10.47946017">
        <ele>246.891</ele>
        <time>1970-01-01T01:00:00Z</time>
      </trkpt>
      <trkpt lat="63.3939595" lon="10.4794405">
        <ele>246.891</ele>
        <time>1970-01-01T01:00:00Z</time>
      </trkpt>
      <trkpt lat="63.393945" lon="10.47942333">
        <ele>246.891</ele>
        <time>1970-01-01T01:00:00Z</time>
      </trkpt>
      <trkpt lat="63.39393117" lon="10.47940417">
        <ele>246.891</ele>
        <time>1970-01-01T01:00:00Z</time>
      </trkpt>
      <trkpt lat="63.39391833" lon="10.479385">
        <ele>247.043</ele>
        <time>1970-01-01T01:00:00Z</time>
      </trkpt>
      <trkpt lat="63.39390683" lon="10.47936467">
        <ele>247.043</ele>
        <time>1970-01-01T01:00:00Z</time>
      </trkpt>
      <trkpt lat="63.3938955" lon="10.4793425">
        <ele>247.043</ele>
        <time>1970-01-01T01:00:00Z</time>
      </trkpt>
      <trkpt lat="63.39388517" lon="10.479319">
        <ele>247.043</ele>
        <time>1970-01-01T01:00:00Z</time>
      </trkpt>
      <trkpt lat="63.393877" lon="10.4792935">
        <ele>247.043</ele>
        <time>1970-01-01T01:00:00Z</time>
      </trkpt>
      <trkpt lat="63.39387183" lon="10.479268">
        <ele>247.043</ele>
        <time>1970-01-01T01:00:00Z</time>
      </trkpt>
      <trkpt lat="63.39386717" lon="10.47923433">
        <ele>247.043</ele>
        <time>1970-01-01T01:00:00Z</time>
      </trkpt>
      <trkpt lat="63.3938635" lon="10.479198">
        <ele>247.043</ele>
        <time>1970-01-01T01:00:00Z</time>
      </trkpt>
      <trkpt lat="63.3938595" lon="10.47915967">
        <ele>247.043</ele>
        <time>1970-01-01T01:00:00Z</time>
      </trkpt>
      <trkpt lat="63.39385667" lon="10.4791255">
        <ele>247.043</ele>
        <time>1970-01-01T01:00:00Z</time>
      </trkpt>
      <trkpt lat="63.39385233" lon="10.47909">
        <ele>246.891</ele>
        <time>1970-01-01T01:00:00Z</time>
      </trkpt>
      <trkpt lat="63.39384817" lon="10.47905433">
        <ele>246.891</ele>
        <time>1970-01-01T01:00:00Z</time>
      </trkpt>
      <trkpt lat="63.39384367" lon="10.47902133">
        <ele>246.891</ele>
        <time>1970-01-01T01:00:00Z</time>
      </trkpt>
      <trkpt lat="63.39384017" lon="10.47899217">
        <ele>246.891</ele>
        <time>1970-01-01T01:00:00Z</time>
      </trkpt>
      <trkpt lat="63.3938375" lon="10.47896">
        <ele>246.891</ele>
        <time>1970-01-01T01:00:00Z</time>
      </trkpt>
      <trkpt lat="63.39383467" lon="10.47892617">
        <ele>246.891</ele>
        <time>1970-01-01T01:00:00Z</time>
      </trkpt>
      <trkpt lat="63.39383117" lon="10.4788895">
        <ele>246.891</ele>
        <time>1970-01-01T01:00:00Z</time>
      </trkpt>
      <trkpt lat="63.39382667" lon="10.47885883">
        <ele>246.891</ele>
        <time>1970-01-01T01:00:00Z</time>
      </trkpt>
      <trkpt lat="63.39382083" lon="10.478826">
        <ele>246.891</ele>
        <time>1970-01-01T01:00:00Z</time>
      </trkpt>
      <trkpt lat="63.39381567" lon="10.47879517">
        <ele>246.891</ele>
        <time>1970-01-01T01:00:00Z</time>
      </trkpt>
      <trkpt lat="63.39381017" lon="10.47876367">
        <ele>246.891</ele>
        <time>1970-01-01T01:00:00Z</time>
      </trkpt>
      <trkpt lat="63.393806" lon="10.4787345">
        <ele>246.891</ele>
        <time>1970-01-01T01:00:00Z</time>
      </trkpt>
      <trkpt lat="63.3938025" lon="10.47870167">
        <ele>246.891</ele>
        <time>1970-01-01T01:00:00Z</time>
      </trkpt>
      <trkpt lat="63.39380117" lon="10.47866617">
        <ele>246.891</ele>
        <time>1970-01-01T01:00:00Z</time>
      </trkpt>
      <trkpt lat="63.39379967" lon="10.47862983">
        <ele>246.891</ele>
        <time>1970-01-01T01:00:00Z</time>
      </trkpt>
      <trkpt lat="63.39379883" lon="10.47859633">
        <ele>246.891</ele>
        <time>1970-01-01T01:00:00Z</time>
      </trkpt>
      <trkpt lat="63.39379933" lon="10.47856217">
        <ele>246.739</ele>
        <time>1970-01-01T01:00:00Z</time>
      </trkpt>
      <trkpt lat="63.393801" lon="10.47852833">
        <ele>246.739</ele>
        <time>1970-01-01T01:00:00Z</time>
      </trkpt>
      <trkpt lat="63.3938035" lon="10.4784955">
        <ele>246.739</ele>
        <time>1970-01-01T01:00:00Z</time>
      </trkpt>
      <trkpt lat="63.3938055" lon="10.47845783">
        <ele>246.739</ele>
        <time>1970-01-01T01:00:00Z</time>
      </trkpt>
      <trkpt lat="63.39380883" lon="10.478419">
        <ele>246.586</ele>
        <time>1970-01-01T01:00:00Z</time>
      </trkpt>
      <trkpt lat="63.39381233" lon="10.478379">
        <ele>246.586</ele>
        <time>1970-01-01T01:00:00Z</time>
      </trkpt>
      <trkpt lat="63.393816" lon="10.47834383">
        <ele>246.586</ele>
        <time>1970-01-01T01:00:00Z</time>
      </trkpt>
      <trkpt lat="63.39382" lon="10.47831117">
        <ele>246.586</ele>
        <time>1970-01-01T01:00:00Z</time>
      </trkpt>
      <trkpt lat="63.39382433" lon="10.47827783">
        <ele>246.434</ele>
        <time>1970-01-01T01:00:00Z</time>
      </trkpt>
      <trkpt lat="63.39382983" lon="10.478247">
        <ele>246.434</ele>
        <time>1970-01-01T01:00:00Z</time>
      </trkpt>
      <trkpt lat="63.39383533" lon="10.47821667">
        <ele>246.281</ele>
        <time>1970-01-01T01:00:00Z</time>
      </trkpt>
      <trkpt lat="63.3938405" lon="10.47818767">
        <ele>246.281</ele>
        <time>1970-01-01T01:00:00Z</time>
      </trkpt>
      <trkpt lat="63.3938445" lon="10.478156">
        <ele>246.129</ele>
        <time>1970-01-01T01:00:00Z</time>
      </trkpt>
      <trkpt lat="63.39384783" lon="10.478124">
        <ele>246.129</ele>
        <time>1970-01-01T01:00:00Z</time>
      </trkpt>
      <trkpt lat="63.393851" lon="10.47809317">
        <ele>245.977</ele>
        <time>1970-01-01T01:00:00Z</time>
      </trkpt>
      <trkpt lat="63.39385367" lon="10.47806417">
        <ele>245.977</ele>
        <time>1970-01-01T01:00:00Z</time>
      </trkpt>
      <trkpt lat="63.39385533" lon="10.47803167">
        <ele>245.824</ele>
        <time>1970-01-01T01:00:00Z</time>
      </trkpt>
      <trkpt lat="63.39385733" lon="10.47799667">
        <ele>245.824</ele>
        <time>1970-01-01T01:00:00Z</time>
      </trkpt>
      <trkpt lat="63.39386017" lon="10.47795983">
        <ele>245.672</ele>
        <time>1970-01-01T01:00:00Z</time>
      </trkpt>
      <trkpt lat="63.39386367" lon="10.47792483">
        <ele>245.672</ele>
        <time>1970-01-01T01:00:00Z</time>
      </trkpt>
      <trkpt lat="63.393867" lon="10.47789267">
        <ele>245.519</ele>
        <time>1970-01-01T01:00:00Z</time>
      </trkpt>
      <trkpt lat="63.39386983" lon="10.47786367">
        <ele>245.519</ele>
        <time>1970-01-01T01:00:00Z</time>
      </trkpt>
      <trkpt lat="63.3938725" lon="10.47783833">
        <ele>245.367</ele>
        <time>1970-01-01T01:00:00Z</time>
      </trkpt>
      <trkpt lat="63.39387483" lon="10.477812">
        <ele>245.367</ele>
        <time>1970-01-01T01:00:00Z</time>
      </trkpt>
      <trkpt lat="63.39387733" lon="10.47778633">
        <ele>245.215</ele>
        <time>1970-01-01T01:00:00Z</time>
      </trkpt>
      <trkpt lat="63.39388" lon="10.4777585">
        <ele>245.215</ele>
        <time>1970-01-01T01:00:00Z</time>
      </trkpt>
      <trkpt lat="63.39388217" lon="10.47773033">
        <ele>245.062</ele>
        <time>1970-01-01T01:00:00Z</time>
      </trkpt>
      <trkpt lat="63.39388517" lon="10.47769833">
        <ele>245.062</ele>
        <time>1970-01-01T01:00:00Z</time>
      </trkpt>
      <trkpt lat="63.3938885" lon="10.47766333">
        <ele>244.91</ele>
        <time>1970-01-01T01:00:00Z</time>
      </trkpt>
      <trkpt lat="63.3938935" lon="10.47762683">
        <ele>244.91</ele>
        <time>1970-01-01T01:00:00Z</time>
      </trkpt>
      <trkpt lat="63.39389933" lon="10.47759017">
        <ele>244.91</ele>
        <time>1970-01-01T01:00:00Z</time>
      </trkpt>
      <trkpt lat="63.393905" lon="10.47755833">
        <ele>244.91</ele>
        <time>1970-01-01T01:00:00Z</time>
      </trkpt>
      <trkpt lat="63.39390983" lon="10.47752767">
        <ele>244.757</ele>
        <time>1970-01-01T01:00:00Z</time>
      </trkpt>
      <trkpt lat="63.39391433" lon="10.47749183">
        <ele>244.757</ele>
        <time>1970-01-01T01:00:00Z</time>
      </trkpt>
      <trkpt lat="63.39391917" lon="10.477452">
        <ele>244.757</ele>
        <time>1970-01-01T01:00:00Z</time>
      </trkpt>
      <trkpt lat="63.39392617" lon="10.477411">
        <ele>244.757</ele>
        <time>1970-01-01T01:00:00Z</time>
      </trkpt>
      <trkpt lat="63.393933" lon="10.4773755">
        <ele>244.605</ele>
        <time>1970-01-01T01:00:00Z</time>
      </trkpt>
      <trkpt lat="63.39393983" lon="10.47734">
        <ele>244.605</ele>
        <time>1970-01-01T01:00:00Z</time>
      </trkpt>
      <trkpt lat="63.39394583" lon="10.47730683">
        <ele>244.605</ele>
        <time>1970-01-01T01:00:00Z</time>
      </trkpt>
      <trkpt lat="63.39395217" lon="10.47727317">
        <ele>244.605</ele>
        <time>1970-01-01T01:00:00Z</time>
      </trkpt>
      <trkpt lat="63.393959" lon="10.47723983">
        <ele>244.453</ele>
        <time>1970-01-01T01:00:00Z</time>
      </trkpt>
      <trkpt lat="63.39396533" lon="10.4772055">
        <ele>244.453</ele>
        <time>1970-01-01T01:00:00Z</time>
      </trkpt>
      <trkpt lat="63.39397117" lon="10.47717267">
        <ele>244.453</ele>
        <time>1970-01-01T01:00:00Z</time>
      </trkpt>
      <trkpt lat="63.3939765" lon="10.47713817">
        <ele>244.453</ele>
        <time>1970-01-01T01:00:00Z</time>
      </trkpt>
      <trkpt lat="63.393984" lon="10.47710517">
        <ele>244.3</ele>
        <time>1970-01-01T01:00:00Z</time>
      </trkpt>
      <trkpt lat="63.39399133" lon="10.47707117">
        <ele>244.3</ele>
        <time>1970-01-01T01:00:00Z</time>
      </trkpt>
      <trkpt lat="63.39399717" lon="10.47704233">
        <ele>244.148</ele>
        <time>1970-01-01T01:00:00Z</time>
      </trkpt>
      <trkpt lat="63.394001" lon="10.477013">
        <ele>244.148</ele>
        <time>1970-01-01T01:00:00Z</time>
      </trkpt>
      <trkpt lat="63.39400567" lon="10.47698583">
        <ele>244.148</ele>
        <time>1970-01-01T01:00:00Z</time>
      </trkpt>
      <trkpt lat="63.39401117" lon="10.4769555">
        <ele>244.148</ele>
        <time>1970-01-01T01:00:00Z</time>
      </trkpt>
      <trkpt lat="63.39401517" lon="10.47692433">
        <ele>243.995</ele>
        <time>1970-01-01T01:00:00Z</time>
      </trkpt>
      <trkpt lat="63.394019" lon="10.47689517">
        <ele>243.995</ele>
        <time>1970-01-01T01:00:00Z</time>
      </trkpt>
      <trkpt lat="63.39402333" lon="10.47686867">
        <ele>243.843</ele>
        <time>1970-01-01T01:00:00Z</time>
      </trkpt>
      <trkpt lat="63.39402867" lon="10.47684333">
        <ele>243.843</ele>
        <time>1970-01-01T01:00:00Z</time>
      </trkpt>
      <trkpt lat="63.39403233" lon="10.47681433">
        <ele>243.691</ele>
        <time>1970-01-01T01:00:00Z</time>
      </trkpt>
      <trkpt lat="63.3940345" lon="10.4767835">
        <ele>243.691</ele>
        <time>1970-01-01T01:00:00Z</time>
      </trkpt>
      <trkpt lat="63.39403533" lon="10.47675317">
        <ele>243.538</ele>
        <time>1970-01-01T01:00:00Z</time>
      </trkpt>
      <trkpt lat="63.39403767" lon="10.47672583">
        <ele>243.538</ele>
        <time>1970-01-01T01:00:00Z</time>
      </trkpt>
      <trkpt lat="63.394041" lon="10.47670033">
        <ele>243.386</ele>
        <time>1970-01-01T01:00:00Z</time>
      </trkpt>
      <trkpt lat="63.39404467" lon="10.47667667">
        <ele>243.386</ele>
        <time>1970-01-01T01:00:00Z</time>
      </trkpt>
      <trkpt lat="63.39404683" lon="10.47664917">
        <ele>243.081</ele>
        <time>1970-01-01T01:00:00Z</time>
      </trkpt>
      <trkpt lat="63.394047" lon="10.476618">
        <ele>243.081</ele>
        <time>1970-01-01T01:00:00Z</time>
      </trkpt>
      <trkpt lat="63.39404917" lon="10.47658467">
        <ele>242.929</ele>
        <time>1970-01-01T01:00:00Z</time>
      </trkpt>
      <trkpt lat="63.3940515" lon="10.47655617">
        <ele>242.929</ele>
        <time>1970-01-01T01:00:00Z</time>
      </trkpt>
      <trkpt lat="63.39405417" lon="10.4765315">
        <ele>242.776</ele>
        <time>1970-01-01T01:00:00Z</time>
      </trkpt>
      <trkpt lat="63.39405567" lon="10.47650683">
        <ele>242.776</ele>
        <time>1970-01-01T01:00:00Z</time>
      </trkpt>
      <trkpt lat="63.39405617" lon="10.47647883">
        <ele>242.471</ele>
        <time>1970-01-01T01:00:00Z</time>
      </trkpt>
      <trkpt lat="63.39405783" lon="10.47644833">
        <ele>242.471</ele>
        <time>1970-01-01T01:00:00Z</time>
      </trkpt>
      <trkpt lat="63.39405883" lon="10.4764185">
        <ele>242.319</ele>
        <time>1970-01-01T01:00:00Z</time>
      </trkpt>
      <trkpt lat="63.39406" lon="10.4763885">
        <ele>242.319</ele>
        <time>1970-01-01T01:00:00Z</time>
      </trkpt>
      <trkpt lat="63.39405983" lon="10.476355">
        <ele>242.167</ele>
        <time>1970-01-01T01:00:00Z</time>
      </trkpt>
      <trkpt lat="63.39405933" lon="10.476321">
        <ele>242.167</ele>
        <time>1970-01-01T01:00:00Z</time>
      </trkpt>
      <trkpt lat="63.394059" lon="10.47628633">
        <ele>242.167</ele>
        <time>1970-01-01T01:00:00Z</time>
      </trkpt>
      <trkpt lat="63.39406033" lon="10.47625367">
        <ele>242.167</ele>
        <time>1970-01-01T01:00:00Z</time>
      </trkpt>
      <trkpt lat="63.39406183" lon="10.4762165">
        <ele>242.014</ele>
        <time>1970-01-01T01:00:00Z</time>
      </trkpt>
      <trkpt lat="63.39406483" lon="10.47617833">
        <ele>242.014</ele>
        <time>1970-01-01T01:00:00Z</time>
      </trkpt>
      <trkpt lat="63.39406683" lon="10.47614033">
        <ele>242.014</ele>
        <time>1970-01-01T01:00:00Z</time>
      </trkpt>
      <trkpt lat="63.39406833" lon="10.47610767">
        <ele>242.014</ele>
        <time>1970-01-01T01:00:00Z</time>
      </trkpt>
      <trkpt lat="63.39406883" lon="10.47607517">
        <ele>241.862</ele>
        <time>1970-01-01T01:00:00Z</time>
      </trkpt>
      <trkpt lat="63.39406933" lon="10.47604533">
        <ele>241.862</ele>
        <time>1970-01-01T01:00:00Z</time>
      </trkpt>
      <trkpt lat="63.3940705" lon="10.47601217">
        <ele>241.709</ele>
        <time>1970-01-01T01:00:00Z</time>
      </trkpt>
      <trkpt lat="63.39407233" lon="10.47597733">
        <ele>241.709</ele>
        <time>1970-01-01T01:00:00Z</time>
      </trkpt>
      <trkpt lat="63.39407617" lon="10.47592833">
        <ele>241.709</ele>
        <time>1970-01-01T01:00:00Z</time>
      </trkpt>
      <trkpt lat="63.39408" lon="10.47587833">
        <ele>241.709</ele>
        <time>1970-01-01T01:00:00Z</time>
      </trkpt>
      <trkpt lat="63.39408233" lon="10.475831">
        <ele>241.557</ele>
        <time>1970-01-01T01:00:00Z</time>
      </trkpt>
      <trkpt lat="63.394081" lon="10.47579783">
        <ele>241.557</ele>
        <time>1970-01-01T01:00:00Z</time>
      </trkpt>
      <trkpt lat="63.394077" lon="10.47576567">
        <ele>241.405</ele>
        <time>1970-01-01T01:00:00Z</time>
      </trkpt>
      <trkpt lat="63.39407" lon="10.475734">
        <ele>241.405</ele>
        <time>1970-01-01T01:00:00Z</time>
      </trkpt>
      <trkpt lat="63.39406217" lon="10.47570133">
        <ele>241.252</ele>
        <time>1970-01-01T01:00:00Z</time>
      </trkpt>
      <trkpt lat="63.39405333" lon="10.47566983">
        <ele>241.252</ele>
        <time>1970-01-01T01:00:00Z</time>
      </trkpt>
      <trkpt lat="63.39404567" lon="10.47563967">
        <ele>241.1</ele>
        <time>1970-01-01T01:00:00Z</time>
      </trkpt>
      <trkpt lat="63.39403833" lon="10.47561083">
        <ele>241.1</ele>
        <time>1970-01-01T01:00:00Z</time>
      </trkpt>
      <trkpt lat="63.394032" lon="10.47558267">
        <ele>240.947</ele>
        <time>1970-01-01T01:00:00Z</time>
      </trkpt>
      <trkpt lat="63.39402483" lon="10.47555467">
        <ele>240.947</ele>
        <time>1970-01-01T01:00:00Z</time>
      </trkpt>
      <trkpt lat="63.39401633" lon="10.47552733">
        <ele>240.795</ele>
        <time>1970-01-01T01:00:00Z</time>
      </trkpt>
      <trkpt lat="63.39400683" lon="10.47550183">
        <ele>240.795</ele>
        <time>1970-01-01T01:00:00Z</time>
      </trkpt>
      <trkpt lat="63.3939975" lon="10.47547683">
        <ele>240.49</ele>
        <time>1970-01-01T01:00:00Z</time>
      </trkpt>
      <trkpt lat="63.39398967" lon="10.47544683">
        <ele>240.49</ele>
        <time>1970-01-01T01:00:00Z</time>
      </trkpt>
      <trkpt lat="63.393982" lon="10.4754135">
        <ele>240.338</ele>
        <time>1970-01-01T01:00:00Z</time>
      </trkpt>
      <trkpt lat="63.39397633" lon="10.47537833">
        <ele>240.338</ele>
        <time>1970-01-01T01:00:00Z</time>
      </trkpt>
      <trkpt lat="63.39397167" lon="10.47534433">
        <ele>240.033</ele>
        <time>1970-01-01T01:00:00Z</time>
      </trkpt>
      <trkpt lat="63.3939675" lon="10.47531433">
        <ele>240.033</ele>
        <time>1970-01-01T01:00:00Z</time>
      </trkpt>
      <trkpt lat="63.39396367" lon="10.47528417">
        <ele>239.881</ele>
        <time>1970-01-01T01:00:00Z</time>
      </trkpt>
      <trkpt lat="63.39396033" lon="10.47525433">
        <ele>239.881</ele>
        <time>1970-01-01T01:00:00Z</time>
      </trkpt>
      <trkpt lat="63.39395733" lon="10.4752265">
        <ele>239.576</ele>
        <time>1970-01-01T01:00:00Z</time>
      </trkpt>
      <trkpt lat="63.39395217" lon="10.4752025">
        <ele>239.576</ele>
        <time>1970-01-01T01:00:00Z</time>
      </trkpt>
      <trkpt lat="63.39394617" lon="10.47518">
        <ele>239.423</ele>
        <time>1970-01-01T01:00:00Z</time>
      </trkpt>
      <trkpt lat="63.39394017" lon="10.47515417">
        <ele>239.423</ele>
        <time>1970-01-01T01:00:00Z</time>
      </trkpt>
      <trkpt lat="63.39393317" lon="10.475126">
        <ele>239.118</ele>
        <time>1970-01-01T01:00:00Z</time>
      </trkpt>
      <trkpt lat="63.39392633" lon="10.475099">
        <ele>239.118</ele>
        <time>1970-01-01T01:00:00Z</time>
      </trkpt>
      <trkpt lat="63.39392133" lon="10.47507217">
        <ele>238.966</ele>
        <time>1970-01-01T01:00:00Z</time>
      </trkpt>
      <trkpt lat="63.39391867" lon="10.47504467">
        <ele>238.966</ele>
        <time>1970-01-01T01:00:00Z</time>
      </trkpt>
      <trkpt lat="63.393915" lon="10.475018">
        <ele>238.814</ele>
        <time>1970-01-01T01:00:00Z</time>
      </trkpt>
      <trkpt lat="63.39391117" lon="10.474991">
        <ele>238.814</ele>
        <time>1970-01-01T01:00:00Z</time>
      </trkpt>
      <trkpt lat="63.39390733" lon="10.47496217">
        <ele>238.509</ele>
        <time>1970-01-01T01:00:00Z</time>
      </trkpt>
      <trkpt lat="63.393906" lon="10.47493133">
        <ele>238.509</ele>
        <time>1970-01-01T01:00:00Z</time>
      </trkpt>
      <trkpt lat="63.39390433" lon="10.4748985">
        <ele>238.356</ele>
        <time>1970-01-01T01:00:00Z</time>
      </trkpt>
      <trkpt lat="63.39390283" lon="10.4748675">
        <ele>238.356</ele>
        <time>1970-01-01T01:00:00Z</time>
      </trkpt>
      <trkpt lat="63.393901" lon="10.4748395">
        <ele>238.052</ele>
        <time>1970-01-01T01:00:00Z</time>
      </trkpt>
      <trkpt lat="63.39389917" lon="10.47481367">
        <ele>238.052</ele>
        <time>1970-01-01T01:00:00Z</time>
      </trkpt>
      <trkpt lat="63.39389683" lon="10.4747895">
        <ele>237.899</ele>
        <time>1970-01-01T01:00:00Z</time>
      </trkpt>
      <trkpt lat="63.39389467" lon="10.474761">
        <ele>237.899</ele>
        <time>1970-01-01T01:00:00Z</time>
      </trkpt>
      <trkpt lat="63.39389367" lon="10.47473283">
        <ele>237.594</ele>
        <time>1970-01-01T01:00:00Z</time>
      </trkpt>
      <trkpt lat="63.393894" lon="10.474705">
        <ele>237.594</ele>
        <time>1970-01-01T01:00:00Z</time>
      </trkpt>
      <trkpt lat="63.393896" lon="10.474682">
        <ele>237.29</ele>
        <time>1970-01-01T01:00:00Z</time>
      </trkpt>
      <trkpt lat="63.39389667" lon="10.47465917">
        <ele>237.29</ele>
        <time>1970-01-01T01:00:00Z</time>
      </trkpt>
      <trkpt lat="63.393896" lon="10.47463317">
        <ele>236.985</ele>
        <time>1970-01-01T01:00:00Z</time>
      </trkpt>
      <trkpt lat="63.39389417" lon="10.4746025">
        <ele>236.985</ele>
        <time>1970-01-01T01:00:00Z</time>
      </trkpt>
      <trkpt lat="63.39389417" lon="10.47457567">
        <ele>236.68</ele>
        <time>1970-01-01T01:00:00Z</time>
      </trkpt>
      <trkpt lat="63.393894" lon="10.47455367">
        <ele>236.68</ele>
        <time>1970-01-01T01:00:00Z</time>
      </trkpt>
      <trkpt lat="63.39389267" lon="10.47453183">
        <ele>236.375</ele>
        <time>1970-01-01T01:00:00Z</time>
      </trkpt>
      <trkpt lat="63.39389" lon="10.474509">
        <ele>236.375</ele>
        <time>1970-01-01T01:00:00Z</time>
      </trkpt>
      <trkpt lat="63.39388733" lon="10.47448517">
        <ele>236.07</ele>
        <time>1970-01-01T01:00:00Z</time>
      </trkpt>
      <trkpt lat="63.39388517" lon="10.47446367">
        <ele>236.07</ele>
        <time>1970-01-01T01:00:00Z</time>
      </trkpt>
      <trkpt lat="63.39388167" lon="10.47444333">
        <ele>235.766</ele>
        <time>1970-01-01T01:00:00Z</time>
      </trkpt>
      <trkpt lat="63.39387683" lon="10.47442133">
        <ele>235.766</ele>
        <time>1970-01-01T01:00:00Z</time>
      </trkpt>
      <trkpt lat="63.39387033" lon="10.47439467">
        <ele>235.461</ele>
        <time>1970-01-01T01:00:00Z</time>
      </trkpt>
      <trkpt lat="63.39386433" lon="10.4743585">
        <ele>235.461</ele>
        <time>1970-01-01T01:00:00Z</time>
      </trkpt>
      <trkpt lat="63.393859" lon="10.4743195">
        <ele>235.156</ele>
        <time>1970-01-01T01:00:00Z</time>
      </trkpt>
      <trkpt lat="63.3938555" lon="10.474284">
        <ele>235.156</ele>
        <time>1970-01-01T01:00:00Z</time>
      </trkpt>
      <trkpt lat="63.39385167" lon="10.47425433">
        <ele>234.851</ele>
        <time>1970-01-01T01:00:00Z</time>
      </trkpt>
      <trkpt lat="63.393848" lon="10.47422717">
        <ele>234.851</ele>
        <time>1970-01-01T01:00:00Z</time>
      </trkpt>
      <trkpt lat="63.3938435" lon="10.4741935">
        <ele>234.546</ele>
        <time>1970-01-01T01:00:00Z</time>
      </trkpt>
      <trkpt lat="63.3938395" lon="10.47415833">
        <ele>234.546</ele>
        <time>1970-01-01T01:00:00Z</time>
      </trkpt>
      <trkpt lat="63.39383567" lon="10.47411983">
        <ele>234.242</ele>
        <time>1970-01-01T01:00:00Z</time>
      </trkpt>
      <trkpt lat="63.39383317" lon="10.47408967">
        <ele>234.242</ele>
        <time>1970-01-01T01:00:00Z</time>
      </trkpt>
      <trkpt lat="63.39383117" lon="10.47406033">
        <ele>233.784</ele>
        <time>1970-01-01T01:00:00Z</time>
      </trkpt>
      <trkpt lat="63.3938295" lon="10.47403417">
        <ele>233.784</ele>
        <time>1970-01-01T01:00:00Z</time>
      </trkpt>
      <trkpt lat="63.39382783" lon="10.47400833">
        <ele>233.48</ele>
        <time>1970-01-01T01:00:00Z</time>
      </trkpt>
      <trkpt lat="63.39382667" lon="10.47398217">
        <ele>233.48</ele>
        <time>1970-01-01T01:00:00Z</time>
      </trkpt>
      <trkpt lat="63.3938265" lon="10.473955">
        <ele>233.175</ele>
        <time>1970-01-01T01:00:00Z</time>
      </trkpt>
      <trkpt lat="63.393827" lon="10.473923">
        <ele>233.175</ele>
        <time>1970-01-01T01:00:00Z</time>
      </trkpt>
      <trkpt lat="63.3938275" lon="10.47389067">
        <ele>232.87</ele>
        <time>1970-01-01T01:00:00Z</time>
      </trkpt>
      <trkpt lat="63.39382567" lon="10.47385817">
        <ele>232.87</ele>
        <time>1970-01-01T01:00:00Z</time>
      </trkpt>
      <trkpt lat="63.39382267" lon="10.47382717">
        <ele>232.413</ele>
        <time>1970-01-01T01:00:00Z</time>
      </trkpt>
      <trkpt lat="63.39381883" lon="10.47379767">
        <ele>232.413</ele>
        <time>1970-01-01T01:00:00Z</time>
      </trkpt>
      <trkpt lat="63.39381533" lon="10.473771">
        <ele>231.956</ele>
        <time>1970-01-01T01:00:00Z</time>
      </trkpt>
      <trkpt lat="63.39381267" lon="10.47374533">
        <ele>231.956</ele>
        <time>1970-01-01T01:00:00Z</time>
      </trkpt>
      <trkpt lat="63.39381017" lon="10.47371833">
        <ele>231.498</ele>
        <time>1970-01-01T01:00:00Z</time>
      </trkpt>
      <trkpt lat="63.39380833" lon="10.47369133">
        <ele>231.498</ele>
        <time>1970-01-01T01:00:00Z</time>
      </trkpt>
      <trkpt lat="63.39380583" lon="10.47366533">
        <ele>231.041</ele>
        <time>1970-01-01T01:00:00Z</time>
      </trkpt>
      <trkpt lat="63.3938045" lon="10.47363967">
        <ele>231.041</ele>
        <time>1970-01-01T01:00:00Z</time>
      </trkpt>
      <trkpt lat="63.39380267" lon="10.473616">
        <ele>230.584</ele>
        <time>1970-01-01T01:00:00Z</time>
      </trkpt>
      <trkpt lat="63.39380083" lon="10.47359283">
        <ele>230.584</ele>
        <time>1970-01-01T01:00:00Z</time>
      </trkpt>
      <trkpt lat="63.39379933" lon="10.47356883">
        <ele>230.127</ele>
        <time>1970-01-01T01:00:00Z</time>
      </trkpt>
      <trkpt lat="63.39379833" lon="10.473542">
        <ele>230.127</ele>
        <time>1970-01-01T01:00:00Z</time>
      </trkpt>
      <trkpt lat="63.39379783" lon="10.47350733">
        <ele>229.67</ele>
        <time>1970-01-01T01:00:00Z</time>
      </trkpt>
      <trkpt lat="63.39379533" lon="10.47346867">
        <ele>229.67</ele>
        <time>1970-01-01T01:00:00Z</time>
      </trkpt>
      <trkpt lat="63.3937935" lon="10.4734265">
        <ele>229.06</ele>
        <time>1970-01-01T01:00:00Z</time>
      </trkpt>
      <trkpt lat="63.39379117" lon="10.47338733">
        <ele>229.06</ele>
        <time>1970-01-01T01:00:00Z</time>
      </trkpt>
      <trkpt lat="63.39378983" lon="10.47335117">
        <ele>228.603</ele>
        <time>1970-01-01T01:00:00Z</time>
      </trkpt>
      <trkpt lat="63.39378817" lon="10.47331633">
        <ele>228.603</ele>
        <time>1970-01-01T01:00:00Z</time>
      </trkpt>
      <trkpt lat="63.393787" lon="10.47328383">
        <ele>228.146</ele>
        <time>1970-01-01T01:00:00Z</time>
      </trkpt>
      <trkpt lat="63.39378533" lon="10.4732515">
        <ele>228.146</ele>
        <time>1970-01-01T01:00:00Z</time>
      </trkpt>
      <trkpt lat="63.39378617" lon="10.47321867">
        <ele>227.688</ele>
        <time>1970-01-01T01:00:00Z</time>
      </trkpt>
      <trkpt lat="63.39378583" lon="10.473188">
        <ele>227.688</ele>
        <time>1970-01-01T01:00:00Z</time>
      </trkpt>
      <trkpt lat="63.393787" lon="10.47315933">
        <ele>227.231</ele>
        <time>1970-01-01T01:00:00Z</time>
      </trkpt>
      <trkpt lat="63.39378633" lon="10.47313483">
        <ele>227.231</ele>
        <time>1970-01-01T01:00:00Z</time>
      </trkpt>
      <trkpt lat="63.3937875" lon="10.47311">
        <ele>226.774</ele>
        <time>1970-01-01T01:00:00Z</time>
      </trkpt>
      <trkpt lat="63.3937875" lon="10.4730825">
        <ele>226.774</ele>
        <time>1970-01-01T01:00:00Z</time>
      </trkpt>
      <trkpt lat="63.3937855" lon="10.473051">
        <ele>226.317</ele>
        <time>1970-01-01T01:00:00Z</time>
      </trkpt>
      <trkpt lat="63.39378267" lon="10.47301867">
        <ele>226.317</ele>
        <time>1970-01-01T01:00:00Z</time>
      </trkpt>
      <trkpt lat="63.39378" lon="10.47298583">
        <ele>225.86</ele>
        <time>1970-01-01T01:00:00Z</time>
      </trkpt>
      <trkpt lat="63.39377917" lon="10.4729515">
        <ele>225.86</ele>
        <time>1970-01-01T01:00:00Z</time>
      </trkpt>
      <trkpt lat="63.39377783" lon="10.472918">
        <ele>225.555</ele>
        <time>1970-01-01T01:00:00Z</time>
      </trkpt>
      <trkpt lat="63.3937765" lon="10.472891">
        <ele>225.555</ele>
        <time>1970-01-01T01:00:00Z</time>
      </trkpt>
      <trkpt lat="63.39377467" lon="10.47286733">
        <ele>225.098</ele>
        <time>1970-01-01T01:00:00Z</time>
      </trkpt>
      <trkpt lat="63.393774" lon="10.47284483">
        <ele>225.098</ele>
        <time>1970-01-01T01:00:00Z</time>
      </trkpt>
      <trkpt lat="63.39377133" lon="10.47282017">
        <ele>224.945</ele>
        <time>1970-01-01T01:00:00Z</time>
      </trkpt>
      <trkpt lat="63.39376733" lon="10.47279467">
        <ele>224.945</ele>
        <time>1970-01-01T01:00:00Z</time>
      </trkpt>
      <trkpt lat="63.39376233" lon="10.47276567">
        <ele>224.64</ele>
        <time>1970-01-01T01:00:00Z</time>
      </trkpt>
      <trkpt lat="63.39375867" lon="10.4727355">
        <ele>224.64</ele>
        <time>1970-01-01T01:00:00Z</time>
      </trkpt>
      <trkpt lat="63.3937565" lon="10.47270683">
        <ele>224.336</ele>
        <time>1970-01-01T01:00:00Z</time>
      </trkpt>
      <trkpt lat="63.3937555" lon="10.47268083">
        <ele>224.336</ele>
        <time>1970-01-01T01:00:00Z</time>
      </trkpt>
      <trkpt lat="63.39375617" lon="10.47265717">
        <ele>224.031</ele>
        <time>1970-01-01T01:00:00Z</time>
      </trkpt>
      <trkpt lat="63.39375633" lon="10.47263167">
        <ele>224.031</ele>
        <time>1970-01-01T01:00:00Z</time>
      </trkpt>
      <trkpt lat="63.39375667" lon="10.472607">
        <ele>223.726</ele>
        <time>1970-01-01T01:00:00Z</time>
      </trkpt>
      <trkpt lat="63.39375733" lon="10.472582">
        <ele>223.726</ele>
        <time>1970-01-01T01:00:00Z</time>
      </trkpt>
      <trkpt lat="63.39375817" lon="10.47256167">
        <ele>223.421</ele>
        <time>1970-01-01T01:00:00Z</time>
      </trkpt>
      <trkpt lat="63.393758" lon="10.47254317">
        <ele>223.421</ele>
        <time>1970-01-01T01:00:00Z</time>
      </trkpt>
      <trkpt lat="63.39375717" lon="10.47252183">
        <ele>223.269</ele>
        <time>1970-01-01T01:00:00Z</time>
      </trkpt>
      <trkpt lat="63.39375733" lon="10.47249283">
        <ele>223.269</ele>
        <time>1970-01-01T01:00:00Z</time>
      </trkpt>
      <trkpt lat="63.39375867" lon="10.47245983">
        <ele>222.964</ele>
        <time>1970-01-01T01:00:00Z</time>
      </trkpt>
      <trkpt lat="63.39375983" lon="10.4724285">
        <ele>222.964</ele>
        <time>1970-01-01T01:00:00Z</time>
      </trkpt>
      <trkpt lat="63.393759" lon="10.47240483">
        <ele>222.812</ele>
        <time>1970-01-01T01:00:00Z</time>
      </trkpt>
      <trkpt lat="63.39375783" lon="10.4723825">
        <ele>222.812</ele>
        <time>1970-01-01T01:00:00Z</time>
      </trkpt>
      <trkpt lat="63.39375767" lon="10.47235733">
        <ele>222.507</ele>
        <time>1970-01-01T01:00:00Z</time>
      </trkpt>
      <trkpt lat="63.3937595" lon="10.472329">
        <ele>222.507</ele>
        <time>1970-01-01T01:00:00Z</time>
      </trkpt>
      <trkpt lat="63.39376283" lon="10.47230317">
        <ele>222.354</ele>
        <time>1970-01-01T01:00:00Z</time>
      </trkpt>
      <trkpt lat="63.39376517" lon="10.47228133">
        <ele>222.354</ele>
        <time>1970-01-01T01:00:00Z</time>
      </trkpt>
      <trkpt lat="63.3937675" lon="10.47226317">
        <ele>222.049</ele>
        <time>1970-01-01T01:00:00Z</time>
      </trkpt>
      <trkpt lat="63.393768" lon="10.47224517">
        <ele>222.049</ele>
        <time>1970-01-01T01:00:00Z</time>
      </trkpt>
      <trkpt lat="63.3937675" lon="10.47222367">
        <ele>221.745</ele>
        <time>1970-01-01T01:00:00Z</time>
      </trkpt>
      <trkpt lat="63.39376683" lon="10.47219833">
        <ele>221.745</ele>
        <time>1970-01-01T01:00:00Z</time>
      </trkpt>
      <trkpt lat="63.393767" lon="10.4721705">
        <ele>221.44</ele>
        <time>1970-01-01T01:00:00Z</time>
      </trkpt>
      <trkpt lat="63.39376767" lon="10.4721445">
        <ele>221.44</ele>
        <time>1970-01-01T01:00:00Z</time>
      </trkpt>
      <trkpt lat="63.39377017" lon="10.472118">
        <ele>220.983</ele>
        <time>1970-01-01T01:00:00Z</time>
      </trkpt>
      <trkpt lat="63.39377267" lon="10.47209483">
        <ele>220.983</ele>
        <time>1970-01-01T01:00:00Z</time>
      </trkpt>
      <trkpt lat="63.39377433" lon="10.47206733">
        <ele>220.678</ele>
        <time>1970-01-01T01:00:00Z</time>
      </trkpt>
      <trkpt lat="63.39377417" lon="10.47203867">
        <ele>220.678</ele>
        <time>1970-01-01T01:00:00Z</time>
      </trkpt>
      <trkpt lat="63.39377533" lon="10.472007">
        <ele>220.221</ele>
        <time>1970-01-01T01:00:00Z</time>
      </trkpt>
      <trkpt lat="63.3937775" lon="10.471978">
        <ele>220.221</ele>
        <time>1970-01-01T01:00:00Z</time>
      </trkpt>
      <trkpt lat="63.39378183" lon="10.47195133">
        <ele>219.763</ele>
        <time>1970-01-01T01:00:00Z</time>
      </trkpt>
      <trkpt lat="63.39378567" lon="10.47192167">
        <ele>219.763</ele>
        <time>1970-01-01T01:00:00Z</time>
      </trkpt>
      <trkpt lat="63.39378983" lon="10.47188833">
        <ele>219.306</ele>
        <time>1970-01-01T01:00:00Z</time>
      </trkpt>
      <trkpt lat="63.393791" lon="10.47185383">
        <ele>219.306</ele>
        <time>1970-01-01T01:00:00Z</time>
      </trkpt>
      <trkpt lat="63.39379117" lon="10.47181883">
        <ele>218.849</ele>
        <time>1970-01-01T01:00:00Z</time>
      </trkpt>
      <trkpt lat="63.39379183" lon="10.47178483">
        <ele>218.849</ele>
        <time>1970-01-01T01:00:00Z</time>
      </trkpt>
      <trkpt lat="63.3937935" lon="10.47174733">
        <ele>218.392</ele>
        <time>1970-01-01T01:00:00Z</time>
      </trkpt>
      <trkpt lat="63.39379583" lon="10.4717135">
        <ele>218.392</ele>
        <time>1970-01-01T01:00:00Z</time>
      </trkpt>
      <trkpt lat="63.39379867" lon="10.47168383">
        <ele>217.935</ele>
        <time>1970-01-01T01:00:00Z</time>
      </trkpt>
      <trkpt lat="63.393803" lon="10.47165683">
        <ele>217.935</ele>
        <time>1970-01-01T01:00:00Z</time>
      </trkpt>
      <trkpt lat="63.39380833" lon="10.47162917">
        <ele>217.325</ele>
        <time>1970-01-01T01:00:00Z</time>
      </trkpt>
      <trkpt lat="63.39381367" lon="10.47160233">
        <ele>217.325</ele>
        <time>1970-01-01T01:00:00Z</time>
      </trkpt>
      <trkpt lat="63.39382167" lon="10.47157517">
        <ele>216.868</ele>
        <time>1970-01-01T01:00:00Z</time>
      </trkpt>
      <trkpt lat="63.39383017" lon="10.47154733">
        <ele>216.868</ele>
        <time>1970-01-01T01:00:00Z</time>
      </trkpt>
      <trkpt lat="63.39383967" lon="10.47151667">
        <ele>216.411</ele>
        <time>1970-01-01T01:00:00Z</time>
      </trkpt>
      <trkpt lat="63.39384733" lon="10.47148917">
        <ele>216.411</ele>
        <time>1970-01-01T01:00:00Z</time>
      </trkpt>
      <trkpt lat="63.39385483" lon="10.4714625">
        <ele>215.953</ele>
        <time>1970-01-01T01:00:00Z</time>
      </trkpt>
      <trkpt lat="63.39386217" lon="10.47143633">
        <ele>215.953</ele>
        <time>1970-01-01T01:00:00Z</time>
      </trkpt>
      <trkpt lat="63.39386633" lon="10.47140967">
        <ele>215.649</ele>
        <time>1970-01-01T01:00:00Z</time>
      </trkpt>
      <trkpt lat="63.39387017" lon="10.47138033">
        <ele>215.649</ele>
        <time>1970-01-01T01:00:00Z</time>
      </trkpt>
      <trkpt lat="63.393874" lon="10.47135017">
        <ele>215.344</ele>
        <time>1970-01-01T01:00:00Z</time>
      </trkpt>
      <trkpt lat="63.39388" lon="10.47132">
        <ele>215.344</ele>
        <time>1970-01-01T01:00:00Z</time>
      </trkpt>
      <trkpt lat="63.39388533" lon="10.47128933">
        <ele>215.039</ele>
        <time>1970-01-01T01:00:00Z</time>
      </trkpt>
      <trkpt lat="63.39389" lon="10.4712585">
        <ele>215.039</ele>
        <time>1970-01-01T01:00:00Z</time>
      </trkpt>
      <trkpt lat="63.39389483" lon="10.4712265">
        <ele>214.734</ele>
        <time>1970-01-01T01:00:00Z</time>
      </trkpt>
      <trkpt lat="63.39390067" lon="10.47119583">
        <ele>214.734</ele>
        <time>1970-01-01T01:00:00Z</time>
      </trkpt>
      <trkpt lat="63.39390517" lon="10.471166">
        <ele>214.429</ele>
        <time>1970-01-01T01:00:00Z</time>
      </trkpt>
      <trkpt lat="63.39390817" lon="10.47113533">
        <ele>214.429</ele>
        <time>1970-01-01T01:00:00Z</time>
      </trkpt>
      <trkpt lat="63.39391067" lon="10.47110283">
        <ele>214.125</ele>
        <time>1970-01-01T01:00:00Z</time>
      </trkpt>
      <trkpt lat="63.39391467" lon="10.4710745">
        <ele>214.125</ele>
        <time>1970-01-01T01:00:00Z</time>
      </trkpt>
      <trkpt lat="63.393921" lon="10.47104533">
        <ele>213.82</ele>
        <time>1970-01-01T01:00:00Z</time>
      </trkpt>
      <trkpt lat="63.39392867" lon="10.47101833">
        <ele>213.82</ele>
        <time>1970-01-01T01:00:00Z</time>
      </trkpt>
      <trkpt lat="63.3939365" lon="10.470986">
        <ele>213.667</ele>
        <time>1970-01-01T01:00:00Z</time>
      </trkpt>
      <trkpt lat="63.39394317" lon="10.470953">
        <ele>213.667</ele>
        <time>1970-01-01T01:00:00Z</time>
      </trkpt>
      <trkpt lat="63.393949" lon="10.47091883">
        <ele>213.363</ele>
        <time>1970-01-01T01:00:00Z</time>
      </trkpt>
      <trkpt lat="63.39395567" lon="10.47088717">
        <ele>213.363</ele>
        <time>1970-01-01T01:00:00Z</time>
      </trkpt>
      <trkpt lat="63.39396233" lon="10.4708575">
        <ele>213.058</ele>
        <time>1970-01-01T01:00:00Z</time>
      </trkpt>
      <trkpt lat="63.39397317" lon="10.470828">
        <ele>213.058</ele>
        <time>1970-01-01T01:00:00Z</time>
      </trkpt>
      <trkpt lat="63.393984" lon="10.47079833">
        <ele>212.905</ele>
        <time>1970-01-01T01:00:00Z</time>
      </trkpt>
      <trkpt lat="63.39399617" lon="10.47076817">
        <ele>212.905</ele>
        <time>1970-01-01T01:00:00Z</time>
      </trkpt>
      <trkpt lat="63.39400617" lon="10.47074233">
        <ele>212.601</ele>
        <time>1970-01-01T01:00:00Z</time>
      </trkpt>
      <trkpt lat="63.39401417" lon="10.47071633">
        <ele>212.601</ele>
        <time>1970-01-01T01:00:00Z</time>
      </trkpt>
      <trkpt lat="63.39402167" lon="10.47069283">
        <ele>212.448</ele>
        <time>1970-01-01T01:00:00Z</time>
      </trkpt>
      <trkpt lat="63.394028" lon="10.4706675">
        <ele>212.448</ele>
        <time>1970-01-01T01:00:00Z</time>
      </trkpt>
      <trkpt lat="63.39403533" lon="10.4706395">
        <ele>212.143</ele>
        <time>1970-01-01T01:00:00Z</time>
      </trkpt>
      <trkpt lat="63.39404083" lon="10.47060683">
        <ele>212.143</ele>
        <time>1970-01-01T01:00:00Z</time>
      </trkpt>
      <trkpt lat="63.39404867" lon="10.47057367">
        <ele>211.839</ele>
        <time>1970-01-01T01:00:00Z</time>
      </trkpt>
      <trkpt lat="63.394056" lon="10.47054467">
        <ele>211.839</ele>
        <time>1970-01-01T01:00:00Z</time>
      </trkpt>
      <trkpt lat="63.39406517" lon="10.47051767">
        <ele>211.381</ele>
        <time>1970-01-01T01:00:00Z</time>
      </trkpt>
      <trkpt lat="63.39407233" lon="10.47049233">
        <ele>211.381</ele>
        <time>1970-01-01T01:00:00Z</time>
      </trkpt>
      <trkpt lat="63.39408017" lon="10.47046517">
        <ele>211.077</ele>
        <time>1970-01-01T01:00:00Z</time>
      </trkpt>
      <trkpt lat="63.394089" lon="10.47044233">
        <ele>211.077</ele>
        <time>1970-01-01T01:00:00Z</time>
      </trkpt>
      <trkpt lat="63.3940985" lon="10.47041983">
        <ele>210.772</ele>
        <time>1970-01-01T01:00:00Z</time>
      </trkpt>
      <trkpt lat="63.39410983" lon="10.47040117">
        <ele>210.772</ele>
        <time>1970-01-01T01:00:00Z</time>
      </trkpt>
      <trkpt lat="63.3941215" lon="10.4703785">
        <ele>210.315</ele>
        <time>1970-01-01T01:00:00Z</time>
      </trkpt>
      <trkpt lat="63.3941335" lon="10.470354">
        <ele>210.315</ele>
        <time>1970-01-01T01:00:00Z</time>
      </trkpt>
      <trkpt lat="63.39414483" lon="10.47033333">
        <ele>210.01</ele>
        <time>1970-01-01T01:00:00Z</time>
      </trkpt>
      <trkpt lat="63.39415533" lon="10.47031483">
        <ele>210.01</ele>
        <time>1970-01-01T01:00:00Z</time>
      </trkpt>
      <trkpt lat="63.39416533" lon="10.47029833">
        <ele>209.705</ele>
        <time>1970-01-01T01:00:00Z</time>
      </trkpt>
      <trkpt lat="63.39417867" lon="10.47027483">
        <ele>209.705</ele>
        <time>1970-01-01T01:00:00Z</time>
      </trkpt>
      <trkpt lat="63.39419333" lon="10.47024733">
        <ele>209.248</ele>
        <time>1970-01-01T01:00:00Z</time>
      </trkpt>
      <trkpt lat="63.394208" lon="10.47021483">
        <ele>209.248</ele>
        <time>1970-01-01T01:00:00Z</time>
      </trkpt>
      <trkpt lat="63.39421933" lon="10.470182">
        <ele>208.791</ele>
        <time>1970-01-01T01:00:00Z</time>
      </trkpt>
      <trkpt lat="63.39423067" lon="10.4701465">
        <ele>208.791</ele>
        <time>1970-01-01T01:00:00Z</time>
      </trkpt>
      <trkpt lat="63.39424067" lon="10.47011417">
        <ele>208.333</ele>
        <time>1970-01-01T01:00:00Z</time>
      </trkpt>
      <trkpt lat="63.394252" lon="10.4700875">
        <ele>208.333</ele>
        <time>1970-01-01T01:00:00Z</time>
      </trkpt>
      <trkpt lat="63.3942645" lon="10.47006867">
        <ele>207.876</ele>
        <time>1970-01-01T01:00:00Z</time>
      </trkpt>
      <trkpt lat="63.39427833" lon="10.47005083">
        <ele>207.876</ele>
        <time>1970-01-01T01:00:00Z</time>
      </trkpt>
      <trkpt lat="63.394291" lon="10.470029">
        <ele>207.419</ele>
        <time>1970-01-01T01:00:00Z</time>
      </trkpt>
      <trkpt lat="63.39430167" lon="10.4700055">
        <ele>207.419</ele>
        <time>1970-01-01T01:00:00Z</time>
      </trkpt>
      <trkpt lat="63.39431267" lon="10.46998367">
        <ele>206.962</ele>
        <time>1970-01-01T01:00:00Z</time>
      </trkpt>
      <trkpt lat="63.39432433" lon="10.4699615">
        <ele>206.962</ele>
        <time>1970-01-01T01:00:00Z</time>
      </trkpt>
      <trkpt lat="63.39433817" lon="10.46994033">
        <ele>206.505</ele>
        <time>1970-01-01T01:00:00Z</time>
      </trkpt>
      <trkpt lat="63.39435283" lon="10.4699185">
        <ele>206.505</ele>
        <time>1970-01-01T01:00:00Z</time>
      </trkpt>
      <trkpt lat="63.39436633" lon="10.46989833">
        <ele>206.2</ele>
        <time>1970-01-01T01:00:00Z</time>
      </trkpt>
      <trkpt lat="63.39437833" lon="10.46987767">
        <ele>206.2</ele>
        <time>1970-01-01T01:00:00Z</time>
      </trkpt>
      <trkpt lat="63.39439017" lon="10.4698565">
        <ele>205.742</ele>
        <time>1970-01-01T01:00:00Z</time>
      </trkpt>
      <trkpt lat="63.39440133" lon="10.4698325">
        <ele>205.742</ele>
        <time>1970-01-01T01:00:00Z</time>
      </trkpt>
      <trkpt lat="63.39441367" lon="10.46980967">
        <ele>205.285</ele>
        <time>1970-01-01T01:00:00Z</time>
      </trkpt>
      <trkpt lat="63.39442583" lon="10.46978933">
        <ele>205.285</ele>
        <time>1970-01-01T01:00:00Z</time>
      </trkpt>
      <trkpt lat="63.39444" lon="10.46976833">
        <ele>204.98</ele>
        <time>1970-01-01T01:00:00Z</time>
      </trkpt>
      <trkpt lat="63.394454" lon="10.46974483">
        <ele>204.98</ele>
        <time>1970-01-01T01:00:00Z</time>
      </trkpt>
      <trkpt lat="63.39446833" lon="10.46971833">
        <ele>204.523</ele>
        <time>1970-01-01T01:00:00Z</time>
      </trkpt>
      <trkpt lat="63.3944825" lon="10.4696935">
        <ele>204.523</ele>
        <time>1970-01-01T01:00:00Z</time>
      </trkpt>
      <trkpt lat="63.3944965" lon="10.469671">
        <ele>204.218</ele>
        <time>1970-01-01T01:00:00Z</time>
      </trkpt>
      <trkpt lat="63.39451067" lon="10.46964933">
        <ele>204.218</ele>
        <time>1970-01-01T01:00:00Z</time>
      </trkpt>
      <trkpt lat="63.39452333" lon="10.46962633">
        <ele>203.761</ele>
        <time>1970-01-01T01:00:00Z</time>
      </trkpt>
      <trkpt lat="63.394538" lon="10.46960533">
        <ele>203.761</ele>
        <time>1970-01-01T01:00:00Z</time>
      </trkpt>
      <trkpt lat="63.3945505" lon="10.46959">
        <ele>203.304</ele>
        <time>1970-01-01T01:00:00Z</time>
      </trkpt>
      <trkpt lat="63.394564" lon="10.4695785">
        <ele>203.304</ele>
        <time>1970-01-01T01:00:00Z</time>
      </trkpt>
      <trkpt lat="63.39457517" lon="10.46956567">
        <ele>202.999</ele>
        <time>1970-01-01T01:00:00Z</time>
      </trkpt>
      <trkpt lat="63.3945875" lon="10.46954833">
        <ele>202.999</ele>
        <time>1970-01-01T01:00:00Z</time>
      </trkpt>
      <trkpt lat="63.39460383" lon="10.46953433">
        <ele>202.542</ele>
        <time>1970-01-01T01:00:00Z</time>
      </trkpt>
      <trkpt lat="63.3946215" lon="10.4695225">
        <ele>202.542</ele>
        <time>1970-01-01T01:00:00Z</time>
      </trkpt>
      <trkpt lat="63.39463983" lon="10.4695115">
        <ele>202.085</ele>
        <time>1970-01-01T01:00:00Z</time>
      </trkpt>
      <trkpt lat="63.39465483" lon="10.46950233">
        <ele>202.085</ele>
        <time>1970-01-01T01:00:00Z</time>
      </trkpt>
      <trkpt lat="63.39467017" lon="10.46949617">
        <ele>201.628</ele>
        <time>1970-01-01T01:00:00Z</time>
      </trkpt>
      <trkpt lat="63.394686" lon="10.46949333">
        <ele>201.628</ele>
        <time>1970-01-01T01:00:00Z</time>
      </trkpt>
      <trkpt lat="63.39470367" lon="10.469491">
        <ele>201.17</ele>
        <time>1970-01-01T01:00:00Z</time>
      </trkpt>
      <trkpt lat="63.39472" lon="10.469486">
        <ele>201.17</ele>
        <time>1970-01-01T01:00:00Z</time>
      </trkpt>
      <trkpt lat="63.39473717" lon="10.46947817">
        <ele>200.713</ele>
        <time>1970-01-01T01:00:00Z</time>
      </trkpt>
      <trkpt lat="63.394753" lon="10.4694675">
        <ele>200.713</ele>
        <time>1970-01-01T01:00:00Z</time>
      </trkpt>
      <trkpt lat="63.39476933" lon="10.46945817">
        <ele>200.256</ele>
        <time>1970-01-01T01:00:00Z</time>
      </trkpt>
      <trkpt lat="63.39478383" lon="10.46945283">
        <ele>200.256</ele>
        <time>1970-01-01T01:00:00Z</time>
      </trkpt>
      <trkpt lat="63.39479767" lon="10.46944967">
        <ele>199.646</ele>
        <time>1970-01-01T01:00:00Z</time>
      </trkpt>
      <trkpt lat="63.39481167" lon="10.46944967">
        <ele>199.646</ele>
        <time>1970-01-01T01:00:00Z</time>
      </trkpt>
      <trkpt lat="63.394826" lon="10.46944933">
        <ele>199.189</ele>
        <time>1970-01-01T01:00:00Z</time>
      </trkpt>
      <trkpt lat="63.39484083" lon="10.46944933">
        <ele>199.189</ele>
        <time>1970-01-01T01:00:00Z</time>
      </trkpt>
      <trkpt lat="63.39485583" lon="10.46944817">
        <ele>198.732</ele>
        <time>1970-01-01T01:00:00Z</time>
      </trkpt>
      <trkpt lat="63.39486983" lon="10.4694395">
        <ele>198.732</ele>
        <time>1970-01-01T01:00:00Z</time>
      </trkpt>
      <trkpt lat="63.3948825" lon="10.46942883">
        <ele>198.122</ele>
        <time>1970-01-01T01:00:00Z</time>
      </trkpt>
      <trkpt lat="63.39489733" lon="10.469417">
        <ele>198.122</ele>
        <time>1970-01-01T01:00:00Z</time>
      </trkpt>
      <trkpt lat="63.39491317" lon="10.469413">
        <ele>197.665</ele>
        <time>1970-01-01T01:00:00Z</time>
      </trkpt>
      <trkpt lat="63.39493217" lon="10.4694095">
        <ele>197.665</ele>
        <time>1970-01-01T01:00:00Z</time>
      </trkpt>
      <trkpt lat="63.39494933" lon="10.469405">
        <ele>197.056</ele>
        <time>1970-01-01T01:00:00Z</time>
      </trkpt>
      <trkpt lat="63.39496333" lon="10.46939917">
        <ele>197.056</ele>
        <time>1970-01-01T01:00:00Z</time>
      </trkpt>
      <trkpt lat="63.39497517" lon="10.46939517">
        <ele>196.598</ele>
        <time>1970-01-01T01:00:00Z</time>
      </trkpt>
      <trkpt lat="63.394988" lon="10.46939333">
        <ele>196.598</ele>
        <time>1970-01-01T01:00:00Z</time>
      </trkpt>
      <trkpt lat="63.39500383" lon="10.469393">
        <ele>196.141</ele>
        <time>1970-01-01T01:00:00Z</time>
      </trkpt>
      <trkpt lat="63.3950205" lon="10.46939083">
        <ele>196.141</ele>
        <time>1970-01-01T01:00:00Z</time>
      </trkpt>
      <trkpt lat="63.3950365" lon="10.46938567">
        <ele>195.532</ele>
        <time>1970-01-01T01:00:00Z</time>
      </trkpt>
      <trkpt lat="63.39505383" lon="10.46937867">
        <ele>195.532</ele>
        <time>1970-01-01T01:00:00Z</time>
      </trkpt>
      <trkpt lat="63.39506983" lon="10.4693725">
        <ele>195.074</ele>
        <time>1970-01-01T01:00:00Z</time>
      </trkpt>
      <trkpt lat="63.39508467" lon="10.46936733">
        <ele>195.074</ele>
        <time>1970-01-01T01:00:00Z</time>
      </trkpt>
      <trkpt lat="63.3950965" lon="10.46935633">
        <ele>194.617</ele>
        <time>1970-01-01T01:00:00Z</time>
      </trkpt>
      <trkpt lat="63.39510933" lon="10.46934517">
        <ele>194.617</ele>
        <time>1970-01-01T01:00:00Z</time>
      </trkpt>
      <trkpt lat="63.395123" lon="10.469333">
        <ele>194.008</ele>
        <time>1970-01-01T01:00:00Z</time>
      </trkpt>
      <trkpt lat="63.39513933" lon="10.4693275">
        <ele>194.008</ele>
        <time>1970-01-01T01:00:00Z</time>
      </trkpt>
      <trkpt lat="63.39515683" lon="10.46931917">
        <ele>193.55</ele>
        <time>1970-01-01T01:00:00Z</time>
      </trkpt>
      <trkpt lat="63.39517367" lon="10.46930667">
        <ele>193.55</ele>
        <time>1970-01-01T01:00:00Z</time>
      </trkpt>
      <trkpt lat="63.39518917" lon="10.46929317">
        <ele>193.093</ele>
        <time>1970-01-01T01:00:00Z</time>
      </trkpt>
      <trkpt lat="63.39520133" lon="10.4692775">
        <ele>193.093</ele>
        <time>1970-01-01T01:00:00Z</time>
      </trkpt>
      <trkpt lat="63.39521333" lon="10.46926367">
        <ele>192.636</ele>
        <time>1970-01-01T01:00:00Z</time>
      </trkpt>
      <trkpt lat="63.39522483" lon="10.4692465">
        <ele>192.636</ele>
        <time>1970-01-01T01:00:00Z</time>
      </trkpt>
      <trkpt lat="63.395237" lon="10.46922867">
        <ele>192.179</ele>
        <time>1970-01-01T01:00:00Z</time>
      </trkpt>
      <trkpt lat="63.39524967" lon="10.4692105">
        <ele>192.179</ele>
        <time>1970-01-01T01:00:00Z</time>
      </trkpt>
      <trkpt lat="63.39526167" lon="10.4691945">
        <ele>191.722</ele>
        <time>1970-01-01T01:00:00Z</time>
      </trkpt>
      <trkpt lat="63.395275" lon="10.469176">
        <ele>191.722</ele>
        <time>1970-01-01T01:00:00Z</time>
      </trkpt>
      <trkpt lat="63.395288" lon="10.4691605">
        <ele>191.264</ele>
        <time>1970-01-01T01:00:00Z</time>
      </trkpt>
      <trkpt lat="63.39530067" lon="10.46914683">
        <ele>191.264</ele>
        <time>1970-01-01T01:00:00Z</time>
      </trkpt>
      <trkpt lat="63.39531233" lon="10.46913717">
        <ele>190.807</ele>
        <time>1970-01-01T01:00:00Z</time>
      </trkpt>
      <trkpt lat="63.39532483" lon="10.46912767">
        <ele>190.807</ele>
        <time>1970-01-01T01:00:00Z</time>
      </trkpt>
      <trkpt lat="63.39533867" lon="10.46911533">
        <ele>190.35</ele>
        <time>1970-01-01T01:00:00Z</time>
      </trkpt>
      <trkpt lat="63.395352" lon="10.469105">
        <ele>190.35</ele>
        <time>1970-01-01T01:00:00Z</time>
      </trkpt>
      <trkpt lat="63.39536683" lon="10.469094">
        <ele>189.893</ele>
        <time>1970-01-01T01:00:00Z</time>
      </trkpt>
      <trkpt lat="63.39538183" lon="10.46908667">
        <ele>189.893</ele>
        <time>1970-01-01T01:00:00Z</time>
      </trkpt>
      <trkpt lat="63.39539767" lon="10.46907767">
        <ele>189.436</ele>
        <time>1970-01-01T01:00:00Z</time>
      </trkpt>
      <trkpt lat="63.39541333" lon="10.4690645">
        <ele>189.436</ele>
        <time>1970-01-01T01:00:00Z</time>
      </trkpt>
      <trkpt lat="63.39542917" lon="10.46904783">
        <ele>188.978</ele>
        <time>1970-01-01T01:00:00Z</time>
      </trkpt>
      <trkpt lat="63.3954455" lon="10.469034">
        <ele>188.978</ele>
        <time>1970-01-01T01:00:00Z</time>
      </trkpt>
      <trkpt lat="63.39546167" lon="10.46902567">
        <ele>188.673</ele>
        <time>1970-01-01T01:00:00Z</time>
      </trkpt>
      <trkpt lat="63.39547883" lon="10.46902017">
        <ele>188.673</ele>
        <time>1970-01-01T01:00:00Z</time>
      </trkpt>
      <trkpt lat="63.39549417" lon="10.46901517">
        <ele>188.216</ele>
        <time>1970-01-01T01:00:00Z</time>
      </trkpt>
      <trkpt lat="63.3955085" lon="10.4690095">
        <ele>188.216</ele>
        <time>1970-01-01T01:00:00Z</time>
      </trkpt>
      <trkpt lat="63.39552233" lon="10.4690045">
        <ele>187.759</ele>
        <time>1970-01-01T01:00:00Z</time>
      </trkpt>
      <trkpt lat="63.39553817" lon="10.469">
        <ele>187.759</ele>
        <time>1970-01-01T01:00:00Z</time>
      </trkpt>
      <trkpt lat="63.3955525" lon="10.4689975">
        <ele>187.302</ele>
        <time>1970-01-01T01:00:00Z</time>
      </trkpt>
      <trkpt lat="63.39556667" lon="10.468992">
        <ele>187.302</ele>
        <time>1970-01-01T01:00:00Z</time>
      </trkpt>
      <trkpt lat="63.39558067" lon="10.46898567">
        <ele>186.845</ele>
        <time>1970-01-01T01:00:00Z</time>
      </trkpt>
      <trkpt lat="63.39559683" lon="10.46898067">
        <ele>186.845</ele>
        <time>1970-01-01T01:00:00Z</time>
      </trkpt>
      <trkpt lat="63.39561283" lon="10.46897967">
        <ele>186.387</ele>
        <time>1970-01-01T01:00:00Z</time>
      </trkpt>
      <trkpt lat="63.39562933" lon="10.46897883">
        <ele>186.387</ele>
        <time>1970-01-01T01:00:00Z</time>
      </trkpt>
      <trkpt lat="63.395644" lon="10.46897917">
        <ele>185.93</ele>
        <time>1970-01-01T01:00:00Z</time>
      </trkpt>
      <trkpt lat="63.39565767" lon="10.46897733">
        <ele>185.93</ele>
        <time>1970-01-01T01:00:00Z</time>
      </trkpt>
      <trkpt lat="63.39567117" lon="10.46898017">
        <ele>185.473</ele>
        <time>1970-01-01T01:00:00Z</time>
      </trkpt>
      <trkpt lat="63.395686" lon="10.46898533">
        <ele>185.473</ele>
        <time>1970-01-01T01:00:00Z</time>
      </trkpt>
      <trkpt lat="63.3957005" lon="10.46899333">
        <ele>185.168</ele>
        <time>1970-01-01T01:00:00Z</time>
      </trkpt>
      <trkpt lat="63.39571517" lon="10.46900233">
        <ele>185.168</ele>
        <time>1970-01-01T01:00:00Z</time>
      </trkpt>
      <trkpt lat="63.3957315" lon="10.46901117">
        <ele>184.711</ele>
        <time>1970-01-01T01:00:00Z</time>
      </trkpt>
      <trkpt lat="63.39574817" lon="10.4690215">
        <ele>184.711</ele>
        <time>1970-01-01T01:00:00Z</time>
      </trkpt>
      <trkpt lat="63.395764" lon="10.469032">
        <ele>184.406</ele>
        <time>1970-01-01T01:00:00Z</time>
      </trkpt>
      <trkpt lat="63.39577917" lon="10.46904133">
        <ele>184.406</ele>
        <time>1970-01-01T01:00:00Z</time>
      </trkpt>
      <trkpt lat="63.395796" lon="10.46905383">
        <ele>184.101</ele>
        <time>1970-01-01T01:00:00Z</time>
      </trkpt>
      <trkpt lat="63.395813" lon="10.4690615">
        <ele>184.101</ele>
        <time>1970-01-01T01:00:00Z</time>
      </trkpt>
      <trkpt lat="63.39582833" lon="10.469072">
        <ele>183.644</ele>
        <time>1970-01-01T01:00:00Z</time>
      </trkpt>
      <trkpt lat="63.39584283" lon="10.46907883">
        <ele>183.644</ele>
        <time>1970-01-01T01:00:00Z</time>
      </trkpt>
      <trkpt lat="63.39585767" lon="10.46908683">
        <ele>183.339</ele>
        <time>1970-01-01T01:00:00Z</time>
      </trkpt>
      <trkpt lat="63.395874" lon="10.469091">
        <ele>183.339</ele>
        <time>1970-01-01T01:00:00Z</time>
      </trkpt>
      <trkpt lat="63.3958895" lon="10.4690955">
        <ele>183.035</ele>
        <time>1970-01-01T01:00:00Z</time>
      </trkpt>
      <trkpt lat="63.395905" lon="10.46910583">
        <ele>183.035</ele>
        <time>1970-01-01T01:00:00Z</time>
      </trkpt>
      <trkpt lat="63.39591733" lon="10.46912">
        <ele>182.73</ele>
        <time>1970-01-01T01:00:00Z</time>
      </trkpt>
      <trkpt lat="63.39593133" lon="10.46913383">
        <ele>182.73</ele>
        <time>1970-01-01T01:00:00Z</time>
      </trkpt>
      <trkpt lat="63.3959465" lon="10.46914433">
        <ele>182.577</ele>
        <time>1970-01-01T01:00:00Z</time>
      </trkpt>
      <trkpt lat="63.39596533" lon="10.46915167">
        <ele>182.577</ele>
        <time>1970-01-01T01:00:00Z</time>
      </trkpt>
      <trkpt lat="63.395982" lon="10.46916067">
        <ele>182.273</ele>
        <time>1970-01-01T01:00:00Z</time>
      </trkpt>
      <trkpt lat="63.39599817" lon="10.46917033">
        <ele>182.273</ele>
        <time>1970-01-01T01:00:00Z</time>
      </trkpt>
      <trkpt lat="63.39601417" lon="10.46918067">
        <ele>181.968</ele>
        <time>1970-01-01T01:00:00Z</time>
      </trkpt>
      <trkpt lat="63.39603233" lon="10.46918867">
        <ele>181.968</ele>
        <time>1970-01-01T01:00:00Z</time>
      </trkpt>
      <trkpt lat="63.39605083" lon="10.4691955">
        <ele>181.663</ele>
        <time>1970-01-01T01:00:00Z</time>
      </trkpt>
      <trkpt lat="63.39606917" lon="10.469202">
        <ele>181.663</ele>
        <time>1970-01-01T01:00:00Z</time>
      </trkpt>
      <trkpt lat="63.39608467" lon="10.46920767">
        <ele>181.511</ele>
        <time>1970-01-01T01:00:00Z</time>
      </trkpt>
      <trkpt lat="63.39609933" lon="10.46921267">
        <ele>181.511</ele>
        <time>1970-01-01T01:00:00Z</time>
      </trkpt>
      <trkpt lat="63.39611233" lon="10.4692185">
        <ele>181.206</ele>
        <time>1970-01-01T01:00:00Z</time>
      </trkpt>
      <trkpt lat="63.3961275" lon="10.4692275">
        <ele>181.206</ele>
        <time>1970-01-01T01:00:00Z</time>
      </trkpt>
      <trkpt lat="63.3961415" lon="10.46923683">
        <ele>180.901</ele>
        <time>1970-01-01T01:00:00Z</time>
      </trkpt>
      <trkpt lat="63.3961565" lon="10.46924917">
        <ele>180.901</ele>
        <time>1970-01-01T01:00:00Z</time>
      </trkpt>
      <trkpt lat="63.39617" lon="10.46925683">
        <ele>180.596</ele>
        <time>1970-01-01T01:00:00Z</time>
      </trkpt>
      <trkpt lat="63.396184" lon="10.46926483">
        <ele>180.596</ele>
        <time>1970-01-01T01:00:00Z</time>
      </trkpt>
      <trkpt lat="63.39619633" lon="10.46926717">
        <ele>180.444</ele>
        <time>1970-01-01T01:00:00Z</time>
      </trkpt>
      <trkpt lat="63.39620967" lon="10.46927417">
        <ele>180.444</ele>
        <time>1970-01-01T01:00:00Z</time>
      </trkpt>
      <trkpt lat="63.39622517" lon="10.46928317">
        <ele>180.139</ele>
        <time>1970-01-01T01:00:00Z</time>
      </trkpt>
      <trkpt lat="63.396243" lon="10.4692935">
        <ele>180.139</ele>
        <time>1970-01-01T01:00:00Z</time>
      </trkpt>
      <trkpt lat="63.39625917" lon="10.4693035">
        <ele>179.834</ele>
        <time>1970-01-01T01:00:00Z</time>
      </trkpt>
      <trkpt lat="63.39627683" lon="10.46931067">
        <ele>179.834</ele>
        <time>1970-01-01T01:00:00Z</time>
      </trkpt>
      <trkpt lat="63.39629183" lon="10.469318">
        <ele>179.529</ele>
        <time>1970-01-01T01:00:00Z</time>
      </trkpt>
      <trkpt lat="63.396306" lon="10.46932667">
        <ele>179.529</ele>
        <time>1970-01-01T01:00:00Z</time>
      </trkpt>
      <trkpt lat="63.39631883" lon="10.46933683">
        <ele>179.377</ele>
        <time>1970-01-01T01:00:00Z</time>
      </trkpt>
      <trkpt lat="63.396333" lon="10.46934717">
        <ele>179.377</ele>
        <time>1970-01-01T01:00:00Z</time>
      </trkpt>
      <trkpt lat="63.39635117" lon="10.46935333">
        <ele>179.072</ele>
        <time>1970-01-01T01:00:00Z</time>
      </trkpt>
      <trkpt lat="63.39636783" lon="10.46935817">
        <ele>179.072</ele>
        <time>1970-01-01T01:00:00Z</time>
      </trkpt>
      <trkpt lat="63.39638283" lon="10.46936317">
        <ele>178.92</ele>
        <time>1970-01-01T01:00:00Z</time>
      </trkpt>
      <trkpt lat="63.39639667" lon="10.46937417">
        <ele>178.92</ele>
        <time>1970-01-01T01:00:00Z</time>
      </trkpt>
      <trkpt lat="63.396411" lon="10.4693885">
        <ele>178.615</ele>
        <time>1970-01-01T01:00:00Z</time>
      </trkpt>
      <trkpt lat="63.39642667" lon="10.46940467">
        <ele>178.615</ele>
        <time>1970-01-01T01:00:00Z</time>
      </trkpt>
      <trkpt lat="63.39644367" lon="10.46941617">
        <ele>178.463</ele>
        <time>1970-01-01T01:00:00Z</time>
      </trkpt>
      <trkpt lat="63.3964615" lon="10.469423">
        <ele>178.463</ele>
        <time>1970-01-01T01:00:00Z</time>
      </trkpt>
      <trkpt lat="63.39648233" lon="10.46942983">
        <ele>178.158</ele>
        <time>1970-01-01T01:00:00Z</time>
      </trkpt>
      <trkpt lat="63.39650217" lon="10.46944033">
        <ele>178.158</ele>
        <time>1970-01-01T01:00:00Z</time>
      </trkpt>
      <trkpt lat="63.39652367" lon="10.46945767">
        <ele>177.853</ele>
        <time>1970-01-01T01:00:00Z</time>
      </trkpt>
      <trkpt lat="63.39654217" lon="10.469474">
        <ele>177.853</ele>
        <time>1970-01-01T01:00:00Z</time>
      </trkpt>
      <trkpt lat="63.39656117" lon="10.46948867">
        <ele>177.701</ele>
        <time>1970-01-01T01:00:00Z</time>
      </trkpt>
      <trkpt lat="63.3965775" lon="10.46949717">
        <ele>177.701</ele>
        <time>1970-01-01T01:00:00Z</time>
      </trkpt>
      <trkpt lat="63.39659617" lon="10.46950417">
        <ele>177.396</ele>
        <time>1970-01-01T01:00:00Z</time>
      </trkpt>
      <trkpt lat="63.3966125" lon="10.46950633">
        <ele>177.396</ele>
        <time>1970-01-01T01:00:00Z</time>
      </trkpt>
      <trkpt lat="63.3966275" lon="10.46951067">
        <ele>177.243</ele>
        <time>1970-01-01T01:00:00Z</time>
      </trkpt>
      <trkpt lat="63.39664067" lon="10.46951917">
        <ele>177.243</ele>
        <time>1970-01-01T01:00:00Z</time>
      </trkpt>
      <trkpt lat="63.39665433" lon="10.4695315">
        <ele>176.939</ele>
        <time>1970-01-01T01:00:00Z</time>
      </trkpt>
      <trkpt lat="63.39666883" lon="10.46954017">
        <ele>176.939</ele>
        <time>1970-01-01T01:00:00Z</time>
      </trkpt>
      <trkpt lat="63.39668317" lon="10.46954667">
        <ele>176.786</ele>
        <time>1970-01-01T01:00:00Z</time>
      </trkpt>
      <trkpt lat="63.39669767" lon="10.46955283">
        <ele>176.786</ele>
        <time>1970-01-01T01:00:00Z</time>
      </trkpt>
      <trkpt lat="63.39671317" lon="10.46956367">
        <ele>176.481</ele>
        <time>1970-01-01T01:00:00Z</time>
      </trkpt>
      <trkpt lat="63.39672983" lon="10.46957167">
        <ele>176.481</ele>
        <time>1970-01-01T01:00:00Z</time>
      </trkpt>
      <trkpt lat="63.39674683" lon="10.46957933">
        <ele>176.329</ele>
        <time>1970-01-01T01:00:00Z</time>
      </trkpt>
      <trkpt lat="63.39676433" lon="10.46959233">
        <ele>176.329</ele>
        <time>1970-01-01T01:00:00Z</time>
      </trkpt>
      <trkpt lat="63.39677983" lon="10.46960983">
        <ele>176.177</ele>
        <time>1970-01-01T01:00:00Z</time>
      </trkpt>
      <trkpt lat="63.39679667" lon="10.4696275">
        <ele>176.177</ele>
        <time>1970-01-01T01:00:00Z</time>
      </trkpt>
      <trkpt lat="63.396815" lon="10.4696365">
        <ele>176.024</ele>
        <time>1970-01-01T01:00:00Z</time>
      </trkpt>
      <trkpt lat="63.39683417" lon="10.46964117">
        <ele>176.024</ele>
        <time>1970-01-01T01:00:00Z</time>
      </trkpt>
      <trkpt lat="63.39685233" lon="10.46964417">
        <ele>175.719</ele>
        <time>1970-01-01T01:00:00Z</time>
      </trkpt>
      <trkpt lat="63.39686817" lon="10.46964717">
        <ele>175.719</ele>
        <time>1970-01-01T01:00:00Z</time>
      </trkpt>
      <trkpt lat="63.39688433" lon="10.46964967">
        <ele>175.567</ele>
        <time>1970-01-01T01:00:00Z</time>
      </trkpt>
      <trkpt lat="63.39690117" lon="10.46965383">
        <ele>175.567</ele>
        <time>1970-01-01T01:00:00Z</time>
      </trkpt>
      <trkpt lat="63.396919" lon="10.46966017">
        <ele>175.415</ele>
        <time>1970-01-01T01:00:00Z</time>
      </trkpt>
      <trkpt lat="63.39693717" lon="10.46967033">
        <ele>175.415</ele>
        <time>1970-01-01T01:00:00Z</time>
      </trkpt>
      <trkpt lat="63.39695383" lon="10.46968283">
        <ele>175.11</ele>
        <time>1970-01-01T01:00:00Z</time>
      </trkpt>
      <trkpt lat="63.39696967" lon="10.46969417">
        <ele>175.11</ele>
        <time>1970-01-01T01:00:00Z</time>
      </trkpt>
      <trkpt lat="63.39698517" lon="10.46970517">
        <ele>174.957</ele>
        <time>1970-01-01T01:00:00Z</time>
      </trkpt>
      <trkpt lat="63.39700117" lon="10.4697145">
        <ele>174.957</ele>
        <time>1970-01-01T01:00:00Z</time>
      </trkpt>
      <trkpt lat="63.39701833" lon="10.46972567">
        <ele>174.805</ele>
        <time>1970-01-01T01:00:00Z</time>
      </trkpt>
      <trkpt lat="63.397036" lon="10.46973567">
        <ele>174.805</ele>
        <time>1970-01-01T01:00:00Z</time>
      </trkpt>
      <trkpt lat="63.3970535" lon="10.46974617">
        <ele>174.653</ele>
        <time>1970-01-01T01:00:00Z</time>
      </trkpt>
      <trkpt lat="63.39707" lon="10.4697555">
        <ele>174.653</ele>
        <time>1970-01-01T01:00:00Z</time>
      </trkpt>
      <trkpt lat="63.397086" lon="10.46976067">
        <ele>174.5</ele>
        <time>1970-01-01T01:00:00Z</time>
      </trkpt>
      <trkpt lat="63.39710167" lon="10.46976517">
        <ele>174.5</ele>
        <time>1970-01-01T01:00:00Z</time>
      </trkpt>
      <trkpt lat="63.39711683" lon="10.46977333">
        <ele>174.348</ele>
        <time>1970-01-01T01:00:00Z</time>
      </trkpt>
      <trkpt lat="63.3971305" lon="10.46978783">
        <ele>174.348</ele>
        <time>1970-01-01T01:00:00Z</time>
      </trkpt>
      <trkpt lat="63.397144" lon="10.46979933">
        <ele>174.348</ele>
        <time>1970-01-01T01:00:00Z</time>
      </trkpt>
      <trkpt lat="63.39715967" lon="10.4698085">
        <ele>174.348</ele>
        <time>1970-01-01T01:00:00Z</time>
      </trkpt>
      <trkpt lat="63.39717667" lon="10.4698175">
        <ele>174.195</ele>
        <time>1970-01-01T01:00:00Z</time>
      </trkpt>
      <trkpt lat="63.39719483" lon="10.46982917">
        <ele>174.195</ele>
        <time>1970-01-01T01:00:00Z</time>
      </trkpt>
      <trkpt lat="63.39721017" lon="10.46983767">
        <ele>174.043</ele>
        <time>1970-01-01T01:00:00Z</time>
      </trkpt>
      <trkpt lat="63.39722567" lon="10.46984767">
        <ele>174.043</ele>
        <time>1970-01-01T01:00:00Z</time>
      </trkpt>
      <trkpt lat="63.39724033" lon="10.4698565">
        <ele>173.891</ele>
        <time>1970-01-01T01:00:00Z</time>
      </trkpt>
      <trkpt lat="63.3972545" lon="10.4698695">
        <ele>173.891</ele>
        <time>1970-01-01T01:00:00Z</time>
      </trkpt>
      <trkpt lat="63.397267" lon="10.46987683">
        <ele>173.738</ele>
        <time>1970-01-01T01:00:00Z</time>
      </trkpt>
      <trkpt lat="63.39728117" lon="10.469887">
        <ele>173.738</ele>
        <time>1970-01-01T01:00:00Z</time>
      </trkpt>
      <trkpt lat="63.39729783" lon="10.46989433">
        <ele>173.586</ele>
        <time>1970-01-01T01:00:00Z</time>
      </trkpt>
      <trkpt lat="63.39731617" lon="10.46990183">
        <ele>173.586</ele>
        <time>1970-01-01T01:00:00Z</time>
      </trkpt>
      <trkpt lat="63.39733167" lon="10.46990517">
        <ele>173.433</ele>
        <time>1970-01-01T01:00:00Z</time>
      </trkpt>
      <trkpt lat="63.39734683" lon="10.4699105">
        <ele>173.433</ele>
        <time>1970-01-01T01:00:00Z</time>
      </trkpt>
      <trkpt lat="63.39736333" lon="10.46991533">
        <ele>173.281</ele>
        <time>1970-01-01T01:00:00Z</time>
      </trkpt>
      <trkpt lat="63.39737967" lon="10.4699205">
        <ele>173.281</ele>
        <time>1970-01-01T01:00:00Z</time>
      </trkpt>
      <trkpt lat="63.3973965" lon="10.46992567">
        <ele>173.128</ele>
        <time>1970-01-01T01:00:00Z</time>
      </trkpt>
      <trkpt lat="63.397411" lon="10.4699335">
        <ele>173.128</ele>
        <time>1970-01-01T01:00:00Z</time>
      </trkpt>
      <trkpt lat="63.39742633" lon="10.46994483">
        <ele>172.976</ele>
        <time>1970-01-01T01:00:00Z</time>
      </trkpt>
      <trkpt lat="63.39744117" lon="10.46995417">
        <ele>172.976</ele>
        <time>1970-01-01T01:00:00Z</time>
      </trkpt>
      <trkpt lat="63.39745683" lon="10.4699625">
        <ele>172.824</ele>
        <time>1970-01-01T01:00:00Z</time>
      </trkpt>
      <trkpt lat="63.39747333" lon="10.46997183">
        <ele>172.824</ele>
        <time>1970-01-01T01:00:00Z</time>
      </trkpt>
      <trkpt lat="63.39748917" lon="10.46998383">
        <ele>172.671</ele>
        <time>1970-01-01T01:00:00Z</time>
      </trkpt>
      <trkpt lat="63.3975065" lon="10.46999733">
        <ele>172.671</ele>
        <time>1970-01-01T01:00:00Z</time>
      </trkpt>
      <trkpt lat="63.39752217" lon="10.470007">
        <ele>172.519</ele>
        <time>1970-01-01T01:00:00Z</time>
      </trkpt>
      <trkpt lat="63.39753917" lon="10.47001667">
        <ele>172.519</ele>
        <time>1970-01-01T01:00:00Z</time>
      </trkpt>
      <trkpt lat="63.3975555" lon="10.47002467">
        <ele>172.366</ele>
        <time>1970-01-01T01:00:00Z</time>
      </trkpt>
      <trkpt lat="63.3975735" lon="10.4700355">
        <ele>172.366</ele>
        <time>1970-01-01T01:00:00Z</time>
      </trkpt>
      <trkpt lat="63.39759183" lon="10.47004867">
        <ele>172.214</ele>
        <time>1970-01-01T01:00:00Z</time>
      </trkpt>
      <trkpt lat="63.3976105" lon="10.47006467">
        <ele>172.214</ele>
        <time>1970-01-01T01:00:00Z</time>
      </trkpt>
      <trkpt lat="63.39762783" lon="10.470072">
        <ele>172.062</ele>
        <time>1970-01-01T01:00:00Z</time>
      </trkpt>
      <trkpt lat="63.39764217" lon="10.47008133">
        <ele>172.062</ele>
        <time>1970-01-01T01:00:00Z</time>
      </trkpt>
      <trkpt lat="63.3976555" lon="10.470091">
        <ele>171.909</ele>
        <time>1970-01-01T01:00:00Z</time>
      </trkpt>
      <trkpt lat="63.39766933" lon="10.47010917">
        <ele>171.909</ele>
        <time>1970-01-01T01:00:00Z</time>
      </trkpt>
      <trkpt lat="63.397684" lon="10.47012233">
        <ele>171.757</ele>
        <time>1970-01-01T01:00:00Z</time>
      </trkpt>
      <trkpt lat="63.3976995" lon="10.47013283">
        <ele>171.757</ele>
        <time>1970-01-01T01:00:00Z</time>
      </trkpt>
      <trkpt lat="63.39771483" lon="10.47014083">
        <ele>171.604</ele>
        <time>1970-01-01T01:00:00Z</time>
      </trkpt>
      <trkpt lat="63.3977305" lon="10.47014817">
        <ele>171.604</ele>
        <time>1970-01-01T01:00:00Z</time>
      </trkpt>
      <trkpt lat="63.39774433" lon="10.47015517">
        <ele>171.452</ele>
        <time>1970-01-01T01:00:00Z</time>
      </trkpt>
      <trkpt lat="63.39776033" lon="10.47016333">
        <ele>171.452</ele>
        <time>1970-01-01T01:00:00Z</time>
      </trkpt>
      <trkpt lat="63.39777483" lon="10.47017183">
        <ele>171.452</ele>
        <time>1970-01-01T01:00:00Z</time>
      </trkpt>
      <trkpt lat="63.397791" lon="10.47018083">
        <ele>171.452</ele>
        <time>1970-01-01T01:00:00Z</time>
      </trkpt>
      <trkpt lat="63.39780567" lon="10.47019267">
        <ele>171.3</ele>
        <time>1970-01-01T01:00:00Z</time>
      </trkpt>
      <trkpt lat="63.39782233" lon="10.4702035">
        <ele>171.3</ele>
        <time>1970-01-01T01:00:00Z</time>
      </trkpt>
      <trkpt lat="63.39783917" lon="10.47021433">
        <ele>171.147</ele>
        <time>1970-01-01T01:00:00Z</time>
      </trkpt>
      <trkpt lat="63.397856" lon="10.47022383">
        <ele>171.147</ele>
        <time>1970-01-01T01:00:00Z</time>
      </trkpt>
      <trkpt lat="63.39787317" lon="10.47023533">
        <ele>171.147</ele>
        <time>1970-01-01T01:00:00Z</time>
      </trkpt>
      <trkpt lat="63.39789017" lon="10.47024683">
        <ele>171.147</ele>
        <time>1970-01-01T01:00:00Z</time>
      </trkpt>
      <trkpt lat="63.3979085" lon="10.470258">
        <ele>170.995</ele>
        <time>1970-01-01T01:00:00Z</time>
      </trkpt>
      <trkpt lat="63.39792567" lon="10.47027017">
        <ele>170.995</ele>
        <time>1970-01-01T01:00:00Z</time>
      </trkpt>
      <trkpt lat="63.39794233" lon="10.47028183">
        <ele>170.842</ele>
        <time>1970-01-01T01:00:00Z</time>
      </trkpt>
      <trkpt lat="63.3979575" lon="10.470292">
        <ele>170.842</ele>
        <time>1970-01-01T01:00:00Z</time>
      </trkpt>
      <trkpt lat="63.397973" lon="10.47030167">
        <ele>170.69</ele>
        <time>1970-01-01T01:00:00Z</time>
      </trkpt>
      <trkpt lat="63.39798733" lon="10.47031067">
        <ele>170.69</ele>
        <time>1970-01-01T01:00:00Z</time>
      </trkpt>
      <trkpt lat="63.39800233" lon="10.4703175">
        <ele>170.69</ele>
        <time>1970-01-01T01:00:00Z</time>
      </trkpt>
      <trkpt lat="63.398018" lon="10.470327">
        <ele>170.69</ele>
        <time>1970-01-01T01:00:00Z</time>
      </trkpt>
      <trkpt lat="63.39803767" lon="10.47033917">
        <ele>170.538</ele>
        <time>1970-01-01T01:00:00Z</time>
      </trkpt>
      <trkpt lat="63.3980555" lon="10.47035383">
        <ele>170.538</ele>
        <time>1970-01-01T01:00:00Z</time>
      </trkpt>
      <trkpt lat="63.39807383" lon="10.47036633">
        <ele>170.385</ele>
        <time>1970-01-01T01:00:00Z</time>
      </trkpt>
      <trkpt lat="63.39808983" lon="10.47037717">
        <ele>170.385</ele>
        <time>1970-01-01T01:00:00Z</time>
      </trkpt>
      <trkpt lat="63.39810717" lon="10.47038817">
        <ele>170.385</ele>
        <time>1970-01-01T01:00:00Z</time>
      </trkpt>
      <trkpt lat="63.39812367" lon="10.4703985">
        <ele>170.385</ele>
        <time>1970-01-01T01:00:00Z</time>
      </trkpt>
      <trkpt lat="63.39814033" lon="10.47040833">
        <ele>170.233</ele>
        <time>1970-01-01T01:00:00Z</time>
      </trkpt>
      <trkpt lat="63.39815667" lon="10.47041817">
        <ele>170.233</ele>
        <time>1970-01-01T01:00:00Z</time>
      </trkpt>
      <trkpt lat="63.39817317" lon="10.47042817">
        <ele>170.08</ele>
        <time>1970-01-01T01:00:00Z</time>
      </trkpt>
      <trkpt lat="63.39818817" lon="10.47043867">
        <ele>170.08</ele>
        <time>1970-01-01T01:00:00Z</time>
      </trkpt>
      <trkpt lat="63.39820317" lon="10.470449">
        <ele>169.928</ele>
        <time>1970-01-01T01:00:00Z</time>
      </trkpt>
      <trkpt lat="63.398216" lon="10.4704575">
        <ele>169.928</ele>
        <time>1970-01-01T01:00:00Z</time>
      </trkpt>
      <trkpt lat="63.39822983" lon="10.4704655">
        <ele>169.928</ele>
        <time>1970-01-01T01:00:00Z</time>
      </trkpt>
      <trkpt lat="63.3982435" lon="10.4704735">
        <ele>169.928</ele>
        <time>1970-01-01T01:00:00Z</time>
      </trkpt>
      <trkpt lat="63.3982585" lon="10.47048317">
        <ele>169.776</ele>
        <time>1970-01-01T01:00:00Z</time>
      </trkpt>
      <trkpt lat="63.39827383" lon="10.47049417">
        <ele>169.776</ele>
        <time>1970-01-01T01:00:00Z</time>
      </trkpt>
      <trkpt lat="63.39829033" lon="10.47050067">
        <ele>169.623</ele>
        <time>1970-01-01T01:00:00Z</time>
      </trkpt>
      <trkpt lat="63.39830917" lon="10.47050967">
        <ele>169.623</ele>
        <time>1970-01-01T01:00:00Z</time>
      </trkpt>
      <trkpt lat="63.3983265" lon="10.47052">
        <ele>169.623</ele>
        <time>1970-01-01T01:00:00Z</time>
      </trkpt>
      <trkpt lat="63.3983425" lon="10.47053583">
        <ele>169.623</ele>
        <time>1970-01-01T01:00:00Z</time>
      </trkpt>
      <trkpt lat="63.39835733" lon="10.47054983">
        <ele>169.471</ele>
        <time>1970-01-01T01:00:00Z</time>
      </trkpt>
      <trkpt lat="63.39837333" lon="10.47056117">
        <ele>169.471</ele>
        <time>1970-01-01T01:00:00Z</time>
      </trkpt>
      <trkpt lat="63.39838933" lon="10.47057067">
        <ele>169.471</ele>
        <time>1970-01-01T01:00:00Z</time>
      </trkpt>
      <trkpt lat="63.39840517" lon="10.47057983">
        <ele>169.471</ele>
        <time>1970-01-01T01:00:00Z</time>
      </trkpt>
      <trkpt lat="63.39842167" lon="10.47058617">
        <ele>169.318</ele>
        <time>1970-01-01T01:00:00Z</time>
      </trkpt>
      <trkpt lat="63.398437" lon="10.470594">
        <ele>169.318</ele>
        <time>1970-01-01T01:00:00Z</time>
      </trkpt>
      <trkpt lat="63.39845317" lon="10.470597">
        <ele>169.318</ele>
        <time>1970-01-01T01:00:00Z</time>
      </trkpt>
      <trkpt lat="63.39846967" lon="10.47060167">
        <ele>169.318</ele>
        <time>1970-01-01T01:00:00Z</time>
      </trkpt>
      <trkpt lat="63.39848533" lon="10.47060417">
        <ele>169.166</ele>
        <time>1970-01-01T01:00:00Z</time>
      </trkpt>
      <trkpt lat="63.39849983" lon="10.47061217">
        <ele>169.166</ele>
        <time>1970-01-01T01:00:00Z</time>
      </trkpt>
      <trkpt lat="63.39851317" lon="10.47061983">
        <ele>169.166</ele>
        <time>1970-01-01T01:00:00Z</time>
      </trkpt>
      <trkpt lat="63.3985285" lon="10.4706275">
        <ele>169.166</ele>
        <time>1970-01-01T01:00:00Z</time>
      </trkpt>
      <trkpt lat="63.3985455" lon="10.4706365">
        <ele>169.014</ele>
        <time>1970-01-01T01:00:00Z</time>
      </trkpt>
      <trkpt lat="63.39856317" lon="10.4706445">
        <ele>169.014</ele>
        <time>1970-01-01T01:00:00Z</time>
      </trkpt>
      <trkpt lat="63.39858083" lon="10.47065467">
        <ele>169.014</ele>
        <time>1970-01-01T01:00:00Z</time>
      </trkpt>
      <trkpt lat="63.398596" lon="10.47065967">
        <ele>169.014</ele>
        <time>1970-01-01T01:00:00Z</time>
      </trkpt>
      <trkpt lat="63.39861067" lon="10.47067033">
        <ele>169.014</ele>
        <time>1970-01-01T01:00:00Z</time>
      </trkpt>
      <trkpt lat="63.398626" lon="10.47068067">
        <ele>169.014</ele>
        <time>1970-01-01T01:00:00Z</time>
      </trkpt>
      <trkpt lat="63.39864217" lon="10.4706945">
        <ele>168.861</ele>
        <time>1970-01-01T01:00:00Z</time>
      </trkpt>
      <trkpt lat="63.39865817" lon="10.47070483">
        <ele>168.861</ele>
        <time>1970-01-01T01:00:00Z</time>
      </trkpt>
      <trkpt lat="63.39867383" lon="10.47071533">
        <ele>168.861</ele>
        <time>1970-01-01T01:00:00Z</time>
      </trkpt>
      <trkpt lat="63.39868917" lon="10.47072783">
        <ele>168.861</ele>
        <time>1970-01-01T01:00:00Z</time>
      </trkpt>
      <trkpt lat="63.39870483" lon="10.47074133">
        <ele>168.709</ele>
        <time>1970-01-01T01:00:00Z</time>
      </trkpt>
      <trkpt lat="63.398719" lon="10.470752">
        <ele>168.709</ele>
        <time>1970-01-01T01:00:00Z</time>
      </trkpt>
      <trkpt lat="63.3987355" lon="10.47075867">
        <ele>168.709</ele>
        <time>1970-01-01T01:00:00Z</time>
      </trkpt>
      <trkpt lat="63.39875183" lon="10.47076583">
        <ele>168.709</ele>
        <time>1970-01-01T01:00:00Z</time>
      </trkpt>
      <trkpt lat="63.398768" lon="10.47077483">
        <ele>168.556</ele>
        <time>1970-01-01T01:00:00Z</time>
      </trkpt>
      <trkpt lat="63.39878167" lon="10.47078167">
        <ele>168.556</ele>
        <time>1970-01-01T01:00:00Z</time>
      </trkpt>
      <trkpt lat="63.3987955" lon="10.470787">
        <ele>168.556</ele>
        <time>1970-01-01T01:00:00Z</time>
      </trkpt>
      <trkpt lat="63.398811" lon="10.4707945">
        <ele>168.556</ele>
        <time>1970-01-01T01:00:00Z</time>
      </trkpt>
      <trkpt lat="63.39882683" lon="10.470806">
        <ele>168.404</ele>
        <time>1970-01-01T01:00:00Z</time>
      </trkpt>
      <trkpt lat="63.398843" lon="10.47081683">
        <ele>168.404</ele>
        <time>1970-01-01T01:00:00Z</time>
      </trkpt>
      <trkpt lat="63.39885917" lon="10.47082283">
        <ele>168.404</ele>
        <time>1970-01-01T01:00:00Z</time>
      </trkpt>
      <trkpt lat="63.3988745" lon="10.47083167">
        <ele>168.404</ele>
        <time>1970-01-01T01:00:00Z</time>
      </trkpt>
      <trkpt lat="63.39888683" lon="10.47084033">
        <ele>168.252</ele>
        <time>1970-01-01T01:00:00Z</time>
      </trkpt>
      <trkpt lat="63.398898" lon="10.47085383">
        <ele>168.252</ele>
        <time>1970-01-01T01:00:00Z</time>
      </trkpt>
      <trkpt lat="63.39891167" lon="10.47086517">
        <ele>168.252</ele>
        <time>1970-01-01T01:00:00Z</time>
      </trkpt>
      <trkpt lat="63.398929" lon="10.47087633">
        <ele>168.252</ele>
        <time>1970-01-01T01:00:00Z</time>
      </trkpt>
      <trkpt lat="63.3989475" lon="10.47088583">
        <ele>168.099</ele>
        <time>1970-01-01T01:00:00Z</time>
      </trkpt>
      <trkpt lat="63.39896533" lon="10.47089567">
        <ele>168.099</ele>
        <time>1970-01-01T01:00:00Z</time>
      </trkpt>
      <trkpt lat="63.39898267" lon="10.4709065">
        <ele>168.099</ele>
        <time>1970-01-01T01:00:00Z</time>
      </trkpt>
      <trkpt lat="63.39899983" lon="10.470916">
        <ele>168.099</ele>
        <time>1970-01-01T01:00:00Z</time>
      </trkpt>
      <trkpt lat="63.39901767" lon="10.470922">
        <ele>167.947</ele>
        <time>1970-01-01T01:00:00Z</time>
      </trkpt>
      <trkpt lat="63.3990345" lon="10.47092533">
        <ele>167.947</ele>
        <time>1970-01-01T01:00:00Z</time>
      </trkpt>
      <trkpt lat="63.39904917" lon="10.470929">
        <ele>167.947</ele>
        <time>1970-01-01T01:00:00Z</time>
      </trkpt>
      <trkpt lat="63.39906217" lon="10.47093783">
        <ele>167.947</ele>
        <time>1970-01-01T01:00:00Z</time>
      </trkpt>
      <trkpt lat="63.39907467" lon="10.47095">
        <ele>167.947</ele>
        <time>1970-01-01T01:00:00Z</time>
      </trkpt>
      <trkpt lat="63.399089" lon="10.47096383">
        <ele>167.947</ele>
        <time>1970-01-01T01:00:00Z</time>
      </trkpt>
      <trkpt lat="63.39910317" lon="10.47097467">
        <ele>167.794</ele>
        <time>1970-01-01T01:00:00Z</time>
      </trkpt>
      <trkpt lat="63.3991185" lon="10.47098567">
        <ele>167.794</ele>
        <time>1970-01-01T01:00:00Z</time>
      </trkpt>
      <trkpt lat="63.39913333" lon="10.4710005">
        <ele>167.794</ele>
        <time>1970-01-01T01:00:00Z</time>
      </trkpt>
      <trkpt lat="63.39915" lon="10.47101233">
        <ele>167.794</ele>
        <time>1970-01-01T01:00:00Z</time>
      </trkpt>
      <trkpt lat="63.39916533" lon="10.471024">
        <ele>167.642</ele>
        <time>1970-01-01T01:00:00Z</time>
      </trkpt>
      <trkpt lat="63.39918133" lon="10.4710305">
        <ele>167.642</ele>
        <time>1970-01-01T01:00:00Z</time>
      </trkpt>
      <trkpt lat="63.399197" lon="10.4710375">
        <ele>167.642</ele>
        <time>1970-01-01T01:00:00Z</time>
      </trkpt>
      <trkpt lat="63.39921433" lon="10.4710435">
        <ele>167.642</ele>
        <time>1970-01-01T01:00:00Z</time>
      </trkpt>
      <trkpt lat="63.39923267" lon="10.47105183">
        <ele>167.642</ele>
        <time>1970-01-01T01:00:00Z</time>
      </trkpt>
      <trkpt lat="63.39924933" lon="10.4710605">
        <ele>167.642</ele>
        <time>1970-01-01T01:00:00Z</time>
      </trkpt>
      <trkpt lat="63.39926567" lon="10.47107117">
        <ele>167.49</ele>
        <time>1970-01-01T01:00:00Z</time>
      </trkpt>
      <trkpt lat="63.3992805" lon="10.471076">
        <ele>167.49</ele>
        <time>1970-01-01T01:00:00Z</time>
      </trkpt>
      <trkpt lat="63.39929667" lon="10.4710835">
        <ele>167.49</ele>
        <time>1970-01-01T01:00:00Z</time>
      </trkpt>
      <trkpt lat="63.39931133" lon="10.47109267">
        <ele>167.49</ele>
        <time>1970-01-01T01:00:00Z</time>
      </trkpt>
      <trkpt lat="63.39932517" lon="10.471106">
        <ele>167.337</ele>
        <time>1970-01-01T01:00:00Z</time>
      </trkpt>
      <trkpt lat="63.39933817" lon="10.47111833">
        <ele>167.337</ele>
        <time>1970-01-01T01:00:00Z</time>
      </trkpt>
      <trkpt lat="63.39934967" lon="10.471129">
        <ele>167.185</ele>
        <time>1970-01-01T01:00:00Z</time>
      </trkpt>
      <trkpt lat="63.3993635" lon="10.471137">
        <ele>167.185</ele>
        <time>1970-01-01T01:00:00Z</time>
      </trkpt>
      <trkpt lat="63.39937783" lon="10.471143">
        <ele>167.185</ele>
        <time>1970-01-01T01:00:00Z</time>
      </trkpt>
      <trkpt lat="63.39939433" lon="10.4711485">
        <ele>167.185</ele>
        <time>1970-01-01T01:00:00Z</time>
      </trkpt>
      <trkpt lat="63.39941" lon="10.47115633">
        <ele>167.032</ele>
        <time>1970-01-01T01:00:00Z</time>
      </trkpt>
      <trkpt lat="63.39942667" lon="10.47117017">
        <ele>167.032</ele>
        <time>1970-01-01T01:00:00Z</time>
      </trkpt>
      <trkpt lat="63.39944367" lon="10.47118783">
        <ele>166.88</ele>
        <time>1970-01-01T01:00:00Z</time>
      </trkpt>
      <trkpt lat="63.39946133" lon="10.47120633">
        <ele>166.88</ele>
        <time>1970-01-01T01:00:00Z</time>
      </trkpt>
      <trkpt lat="63.3994785" lon="10.471221">
        <ele>166.728</ele>
        <time>1970-01-01T01:00:00Z</time>
      </trkpt>
      <trkpt lat="63.39949633" lon="10.4712295">
        <ele>166.728</ele>
        <time>1970-01-01T01:00:00Z</time>
      </trkpt>
      <trkpt lat="63.39951433" lon="10.47123617">
        <ele>166.575</ele>
        <time>1970-01-01T01:00:00Z</time>
      </trkpt>
      <trkpt lat="63.39953183" lon="10.47124483">
        <ele>166.575</ele>
        <time>1970-01-01T01:00:00Z</time>
      </trkpt>
      <trkpt lat="63.3995475" lon="10.47125583">
        <ele>166.423</ele>
        <time>1970-01-01T01:00:00Z</time>
      </trkpt>
      <trkpt lat="63.39956117" lon="10.47127383">
        <ele>166.423</ele>
        <time>1970-01-01T01:00:00Z</time>
      </trkpt>
      <trkpt lat="63.39957333" lon="10.47129483">
        <ele>166.27</ele>
        <time>1970-01-01T01:00:00Z</time>
      </trkpt>
      <trkpt lat="63.399584" lon="10.4713185">
        <ele>166.27</ele>
        <time>1970-01-01T01:00:00Z</time>
      </trkpt>
      <trkpt lat="63.39959533" lon="10.4713405">
        <ele>166.118</ele>
        <time>1970-01-01T01:00:00Z</time>
      </trkpt>
      <trkpt lat="63.39960667" lon="10.4713605">
        <ele>166.118</ele>
        <time>1970-01-01T01:00:00Z</time>
      </trkpt>
      <trkpt lat="63.39961983" lon="10.47137783">
        <ele>165.966</ele>
        <time>1970-01-01T01:00:00Z</time>
      </trkpt>
      <trkpt lat="63.39963417" lon="10.4713915">
        <ele>165.966</ele>
        <time>1970-01-01T01:00:00Z</time>
      </trkpt>
      <trkpt lat="63.39965017" lon="10.47140317">
        <ele>165.813</ele>
        <time>1970-01-01T01:00:00Z</time>
      </trkpt>
      <trkpt lat="63.39966583" lon="10.47141517">
        <ele>165.813</ele>
        <time>1970-01-01T01:00:00Z</time>
      </trkpt>
      <trkpt lat="63.39968083" lon="10.4714265">
        <ele>165.508</ele>
        <time>1970-01-01T01:00:00Z</time>
      </trkpt>
      <trkpt lat="63.399695" lon="10.47143983">
        <ele>165.508</ele>
        <time>1970-01-01T01:00:00Z</time>
      </trkpt>
      <trkpt lat="63.39971033" lon="10.47145367">
        <ele>165.356</ele>
        <time>1970-01-01T01:00:00Z</time>
      </trkpt>
      <trkpt lat="63.399726" lon="10.47146817">
        <ele>165.356</ele>
        <time>1970-01-01T01:00:00Z</time>
      </trkpt>
      <trkpt lat="63.39974267" lon="10.47148167">
        <ele>165.204</ele>
        <time>1970-01-01T01:00:00Z</time>
      </trkpt>
      <trkpt lat="63.39975867" lon="10.4714965">
        <ele>165.204</ele>
        <time>1970-01-01T01:00:00Z</time>
      </trkpt>
      <trkpt lat="63.39977283" lon="10.47151867">
        <ele>165.051</ele>
        <time>1970-01-01T01:00:00Z</time>
      </trkpt>
      <trkpt lat="63.39978233" lon="10.47154983">
        <ele>165.051</ele>
        <time>1970-01-01T01:00:00Z</time>
      </trkpt>
      <trkpt lat="63.399786" lon="10.47159033">
        <ele>164.899</ele>
        <time>1970-01-01T01:00:00Z</time>
      </trkpt>
      <trkpt lat="63.3997865" lon="10.4716325">
        <ele>164.899</ele>
        <time>1970-01-01T01:00:00Z</time>
      </trkpt>
      <trkpt lat="63.399785" lon="10.471673">
        <ele>164.746</ele>
        <time>1970-01-01T01:00:00Z</time>
      </trkpt>
      <trkpt lat="63.39978433" lon="10.47171167">
        <ele>164.746</ele>
        <time>1970-01-01T01:00:00Z</time>
      </trkpt>
      <trkpt lat="63.39978317" lon="10.47174933">
        <ele>164.594</ele>
        <time>1970-01-01T01:00:00Z</time>
      </trkpt>
      <trkpt lat="63.39978367" lon="10.471788">
        <ele>164.594</ele>
        <time>1970-01-01T01:00:00Z</time>
      </trkpt>
      <trkpt lat="63.39978383" lon="10.47182433">
        <ele>164.442</ele>
        <time>1970-01-01T01:00:00Z</time>
      </trkpt>
      <trkpt lat="63.3997835" lon="10.47186033">
        <ele>164.442</ele>
        <time>1970-01-01T01:00:00Z</time>
      </trkpt>
      <trkpt lat="63.39978233" lon="10.47189433">
        <ele>164.137</ele>
        <time>1970-01-01T01:00:00Z</time>
      </trkpt>
      <trkpt lat="63.39978033" lon="10.47192767">
        <ele>164.137</ele>
        <time>1970-01-01T01:00:00Z</time>
      </trkpt>
      <trkpt lat="63.39977717" lon="10.4719625">
        <ele>163.984</ele>
        <time>1970-01-01T01:00:00Z</time>
      </trkpt>
      <trkpt lat="63.39977417" lon="10.47199967">
        <ele>163.984</ele>
        <time>1970-01-01T01:00:00Z</time>
      </trkpt>
      <trkpt lat="63.3997725" lon="10.47203717">
        <ele>163.832</ele>
        <time>1970-01-01T01:00:00Z</time>
      </trkpt>
      <trkpt lat="63.3997715" lon="10.47207583">
        <ele>163.832</ele>
        <time>1970-01-01T01:00:00Z</time>
      </trkpt>
      <trkpt lat="63.3997695" lon="10.47211433">
        <ele>163.68</ele>
        <time>1970-01-01T01:00:00Z</time>
      </trkpt>
      <trkpt lat="63.39976833" lon="10.47215617">
        <ele>163.68</ele>
        <time>1970-01-01T01:00:00Z</time>
      </trkpt>
      <trkpt lat="63.39976767" lon="10.472197">
        <ele>163.527</ele>
        <time>1970-01-01T01:00:00Z</time>
      </trkpt>
      <trkpt lat="63.39976733" lon="10.4722375">
        <ele>163.527</ele>
        <time>1970-01-01T01:00:00Z</time>
      </trkpt>
      <trkpt lat="63.3997645" lon="10.47227533">
        <ele>163.375</ele>
        <time>1970-01-01T01:00:00Z</time>
      </trkpt>
      <trkpt lat="63.39976317" lon="10.4723125">
        <ele>163.375</ele>
        <time>1970-01-01T01:00:00Z</time>
      </trkpt>
      <trkpt lat="63.39976133" lon="10.47234867">
        <ele>163.375</ele>
        <time>1970-01-01T01:00:00Z</time>
      </trkpt>
      <trkpt lat="63.39975933" lon="10.47238617">
        <ele>163.375</ele>
        <time>1970-01-01T01:00:00Z</time>
      </trkpt>
      <trkpt lat="63.39975533" lon="10.47242467">
        <ele>163.222</ele>
        <time>1970-01-01T01:00:00Z</time>
      </trkpt>
      <trkpt lat="63.399752" lon="10.472466">
        <ele>163.222</ele>
        <time>1970-01-01T01:00:00Z</time>
      </trkpt>
      <trkpt lat="63.39975083" lon="10.47250383">
        <ele>163.07</ele>
        <time>1970-01-01T01:00:00Z</time>
      </trkpt>
      <trkpt lat="63.39974967" lon="10.472537">
        <ele>163.07</ele>
        <time>1970-01-01T01:00:00Z</time>
      </trkpt>
      <trkpt lat="63.39974733" lon="10.472567">
        <ele>162.918</ele>
        <time>1970-01-01T01:00:00Z</time>
      </trkpt>
      <trkpt lat="63.39974367" lon="10.47259867">
        <ele>162.918</ele>
        <time>1970-01-01T01:00:00Z</time>
      </trkpt>
      <trkpt lat="63.39974" lon="10.47263233">
        <ele>162.765</ele>
        <time>1970-01-01T01:00:00Z</time>
      </trkpt>
      <trkpt lat="63.399736" lon="10.47266633">
        <ele>162.765</ele>
        <time>1970-01-01T01:00:00Z</time>
      </trkpt>
      <trkpt lat="63.39973267" lon="10.472703">
        <ele>162.765</ele>
        <time>1970-01-01T01:00:00Z</time>
      </trkpt>
      <trkpt lat="63.39972867" lon="10.47273983">
        <ele>162.765</ele>
        <time>1970-01-01T01:00:00Z</time>
      </trkpt>
      <trkpt lat="63.39972783" lon="10.47277617">
        <ele>162.613</ele>
        <time>1970-01-01T01:00:00Z</time>
      </trkpt>
      <trkpt lat="63.39972667" lon="10.47281033">
        <ele>162.613</ele>
        <time>1970-01-01T01:00:00Z</time>
      </trkpt>
      <trkpt lat="63.39972467" lon="10.47284883">
        <ele>162.46</ele>
        <time>1970-01-01T01:00:00Z</time>
      </trkpt>
      <trkpt lat="63.39972167" lon="10.47288667">
        <ele>162.46</ele>
        <time>1970-01-01T01:00:00Z</time>
      </trkpt>
      <trkpt lat="63.39971517" lon="10.47292667">
        <ele>162.46</ele>
        <time>1970-01-01T01:00:00Z</time>
      </trkpt>
      <trkpt lat="63.39971083" lon="10.4729625">
        <ele>162.46</ele>
        <time>1970-01-01T01:00:00Z</time>
      </trkpt>
      <trkpt lat="63.39970683" lon="10.47299917">
        <ele>162.308</ele>
        <time>1970-01-01T01:00:00Z</time>
      </trkpt>
      <trkpt lat="63.39970633" lon="10.47303333">
        <ele>162.308</ele>
        <time>1970-01-01T01:00:00Z</time>
      </trkpt>
      <trkpt lat="63.39970433" lon="10.47306833">
        <ele>162.308</ele>
        <time>1970-01-01T01:00:00Z</time>
      </trkpt>
      <trkpt lat="63.39970133" lon="10.47310333">
        <ele>162.308</ele>
        <time>1970-01-01T01:00:00Z</time>
      </trkpt>
      <trkpt lat="63.39969717" lon="10.47313933">
        <ele>162.156</ele>
        <time>1970-01-01T01:00:00Z</time>
      </trkpt>
      <trkpt lat="63.3996935" lon="10.473175">
        <ele>162.156</ele>
        <time>1970-01-01T01:00:00Z</time>
      </trkpt>
      <trkpt lat="63.399689" lon="10.47321283">
        <ele>162.156</ele>
        <time>1970-01-01T01:00:00Z</time>
      </trkpt>
      <trkpt lat="63.39968567" lon="10.47324917">
        <ele>162.156</ele>
        <time>1970-01-01T01:00:00Z</time>
      </trkpt>
      <trkpt lat="63.399683" lon="10.4732845">
        <ele>162.156</ele>
        <time>1970-01-01T01:00:00Z</time>
      </trkpt>
      <trkpt lat="63.3996815" lon="10.4733175">
        <ele>162.156</ele>
        <time>1970-01-01T01:00:00Z</time>
      </trkpt>
      <trkpt lat="63.39967967" lon="10.473348">
        <ele>162.156</ele>
        <time>1970-01-01T01:00:00Z</time>
      </trkpt>
      <trkpt lat="63.39967917" lon="10.47337817">
        <ele>162.156</ele>
        <time>1970-01-01T01:00:00Z</time>
      </trkpt>
      <trkpt lat="63.39967933" lon="10.47340683">
        <ele>162.156</ele>
        <time>1970-01-01T01:00:00Z</time>
      </trkpt>
      <trkpt lat="63.3996795" lon="10.4734385">
        <ele>162.156</ele>
        <time>1970-01-01T01:00:00Z</time>
      </trkpt>
      <trkpt lat="63.399679" lon="10.4734715">
        <ele>162.003</ele>
        <time>1970-01-01T01:00:00Z</time>
      </trkpt>
      <trkpt lat="63.39967767" lon="10.47350583">
        <ele>162.003</ele>
        <time>1970-01-01T01:00:00Z</time>
      </trkpt>
      <trkpt lat="63.39967567" lon="10.47354117">
        <ele>162.003</ele>
        <time>1970-01-01T01:00:00Z</time>
      </trkpt>
      <trkpt lat="63.39967217" lon="10.47357833">
        <ele>162.003</ele>
        <time>1970-01-01T01:00:00Z</time>
      </trkpt>
      <trkpt lat="63.39966883" lon="10.47361817">
        <ele>162.003</ele>
        <time>1970-01-01T01:00:00Z</time>
      </trkpt>
      <trkpt lat="63.39966633" lon="10.47365933">
        <ele>162.003</ele>
        <time>1970-01-01T01:00:00Z</time>
      </trkpt>
      <trkpt lat="63.39966583" lon="10.47369767">
        <ele>162.003</ele>
        <time>1970-01-01T01:00:00Z</time>
      </trkpt>
      <trkpt lat="63.399667" lon="10.47373383">
        <ele>162.003</ele>
        <time>1970-01-01T01:00:00Z</time>
      </trkpt>
      <trkpt lat="63.39966917" lon="10.47376917">
        <ele>162.003</ele>
        <time>1970-01-01T01:00:00Z</time>
      </trkpt>
      <trkpt lat="63.39967167" lon="10.47380483">
        <ele>162.003</ele>
        <time>1970-01-01T01:00:00Z</time>
      </trkpt>
      <trkpt lat="63.39967217" lon="10.47384133">
        <ele>162.003</ele>
        <time>1970-01-01T01:00:00Z</time>
      </trkpt>
      <trkpt lat="63.39967183" lon="10.47387683">
        <ele>162.003</ele>
        <time>1970-01-01T01:00:00Z</time>
      </trkpt>
      <trkpt lat="63.39967267" lon="10.47391233">
        <ele>162.003</ele>
        <time>1970-01-01T01:00:00Z</time>
      </trkpt>
      <trkpt lat="63.39967633" lon="10.47394783">
        <ele>162.003</ele>
        <time>1970-01-01T01:00:00Z</time>
      </trkpt>
      <trkpt lat="63.399682" lon="10.47398583">
        <ele>162.003</ele>
        <time>1970-01-01T01:00:00Z</time>
      </trkpt>
      <trkpt lat="63.39968833" lon="10.47402183">
        <ele>162.003</ele>
        <time>1970-01-01T01:00:00Z</time>
      </trkpt>
      <trkpt lat="63.39969467" lon="10.474055">
        <ele>162.003</ele>
        <time>1970-01-01T01:00:00Z</time>
      </trkpt>
      <trkpt lat="63.399702" lon="10.47408583">
        <ele>162.003</ele>
        <time>1970-01-01T01:00:00Z</time>
      </trkpt>
      <trkpt lat="63.39971017" lon="10.47411467">
        <ele>162.003</ele>
        <time>1970-01-01T01:00:00Z</time>
      </trkpt>
      <trkpt lat="63.3997195" lon="10.47414283">
        <ele>162.003</ele>
        <time>1970-01-01T01:00:00Z</time>
      </trkpt>
      <trkpt lat="63.39972867" lon="10.47416767">
        <ele>162.003</ele>
        <time>1970-01-01T01:00:00Z</time>
      </trkpt>
      <trkpt lat="63.39973667" lon="10.47419567">
        <ele>162.003</ele>
        <time>1970-01-01T01:00:00Z</time>
      </trkpt>
      <trkpt lat="63.39974333" lon="10.47422367">
        <ele>162.003</ele>
        <time>1970-01-01T01:00:00Z</time>
      </trkpt>
      <trkpt lat="63.3997495" lon="10.47425217">
        <ele>162.003</ele>
        <time>1970-01-01T01:00:00Z</time>
      </trkpt>
      <trkpt lat="63.39975667" lon="10.47428083">
        <ele>162.156</ele>
        <time>1970-01-01T01:00:00Z</time>
      </trkpt>
      <trkpt lat="63.3997655" lon="10.47431183">
        <ele>162.156</ele>
        <time>1970-01-01T01:00:00Z</time>
      </trkpt>
      <trkpt lat="63.39977633" lon="10.47434217">
        <ele>162.156</ele>
        <time>1970-01-01T01:00:00Z</time>
      </trkpt>
      <trkpt lat="63.39978883" lon="10.4743685">
        <ele>162.156</ele>
        <time>1970-01-01T01:00:00Z</time>
      </trkpt>
      <trkpt lat="63.39980167" lon="10.474393">
        <ele>162.156</ele>
        <time>1970-01-01T01:00:00Z</time>
      </trkpt>
      <trkpt lat="63.39981367" lon="10.4744195">
        <ele>162.156</ele>
        <time>1970-01-01T01:00:00Z</time>
      </trkpt>
      <trkpt lat="63.399824" lon="10.47444517">
        <ele>162.308</ele>
        <time>1970-01-01T01:00:00Z</time>
      </trkpt>
      <trkpt lat="63.39983317" lon="10.47446833">
        <ele>162.308</ele>
        <time>1970-01-01T01:00:00Z</time>
      </trkpt>
      <trkpt lat="63.39984267" lon="10.47449267">
        <ele>162.46</ele>
        <time>1970-01-01T01:00:00Z</time>
      </trkpt>
      <trkpt lat="63.3998535" lon="10.47452183">
        <ele>162.46</ele>
        <time>1970-01-01T01:00:00Z</time>
      </trkpt>
      <trkpt lat="63.39986533" lon="10.47455183">
        <ele>162.613</ele>
        <time>1970-01-01T01:00:00Z</time>
      </trkpt>
      <trkpt lat="63.399878" lon="10.474579">
        <ele>162.613</ele>
        <time>1970-01-01T01:00:00Z</time>
      </trkpt>
      <trkpt lat="63.39989067" lon="10.47460383">
        <ele>162.613</ele>
        <time>1970-01-01T01:00:00Z</time>
      </trkpt>
      <trkpt lat="63.3999035" lon="10.47462967">
        <ele>162.613</ele>
        <time>1970-01-01T01:00:00Z</time>
      </trkpt>
      <trkpt lat="63.39991583" lon="10.474655">
        <ele>162.765</ele>
        <time>1970-01-01T01:00:00Z</time>
      </trkpt>
      <trkpt lat="63.3999275" lon="10.4746815">
        <ele>162.765</ele>
        <time>1970-01-01T01:00:00Z</time>
      </trkpt>
      <trkpt lat="63.39994067" lon="10.47470567">
        <ele>162.918</ele>
        <time>1970-01-01T01:00:00Z</time>
      </trkpt>
      <trkpt lat="63.39995383" lon="10.47473117">
        <ele>162.918</ele>
        <time>1970-01-01T01:00:00Z</time>
      </trkpt>
      <trkpt lat="63.39996717" lon="10.47474783">
        <ele>162.918</ele>
        <time>1970-01-01T01:00:00Z</time>
      </trkpt>
      <trkpt lat="63.39997983" lon="10.47476567">
        <ele>162.918</ele>
        <time>1970-01-01T01:00:00Z</time>
      </trkpt>
      <trkpt lat="63.39999183" lon="10.47478167">
        <ele>163.07</ele>
        <time>1970-01-01T01:00:00Z</time>
      </trkpt>
      <trkpt lat="63.40000367" lon="10.47480483">
        <ele>163.07</ele>
        <time>1970-01-01T01:00:00Z</time>
      </trkpt>
      <trkpt lat="63.40001433" lon="10.47482517">
        <ele>163.222</ele>
        <time>1970-01-01T01:00:00Z</time>
      </trkpt>
      <trkpt lat="63.40002717" lon="10.47484483">
        <ele>163.222</ele>
        <time>1970-01-01T01:00:00Z</time>
      </trkpt>
      <trkpt lat="63.40004067" lon="10.47485967">
        <ele>163.222</ele>
        <time>1970-01-01T01:00:00Z</time>
      </trkpt>
      <trkpt lat="63.40005483" lon="10.474876">
        <ele>163.222</ele>
        <time>1970-01-01T01:00:00Z</time>
      </trkpt>
      <trkpt lat="63.40006783" lon="10.47488917">
        <ele>163.375</ele>
        <time>1970-01-01T01:00:00Z</time>
      </trkpt>
      <trkpt lat="63.4000815" lon="10.474905">
        <ele>163.375</ele>
        <time>1970-01-01T01:00:00Z</time>
      </trkpt>
      <trkpt lat="63.40009433" lon="10.474918">
        <ele>163.527</ele>
        <time>1970-01-01T01:00:00Z</time>
      </trkpt>
      <trkpt lat="63.40010767" lon="10.47493133">
        <ele>163.527</ele>
        <time>1970-01-01T01:00:00Z</time>
      </trkpt>
      <trkpt lat="63.40011917" lon="10.47494067">
        <ele>163.527</ele>
        <time>1970-01-01T01:00:00Z</time>
      </trkpt>
      <trkpt lat="63.4001305" lon="10.47495083">
        <ele>163.527</ele>
        <time>1970-01-01T01:00:00Z</time>
      </trkpt>
      <trkpt lat="63.400144" lon="10.474964">
        <ele>163.68</ele>
        <time>1970-01-01T01:00:00Z</time>
      </trkpt>
      <trkpt lat="63.40015983" lon="10.47498033">
        <ele>163.68</ele>
        <time>1970-01-01T01:00:00Z</time>
      </trkpt>
      <trkpt lat="63.40017733" lon="10.47499817">
        <ele>163.832</ele>
        <time>1970-01-01T01:00:00Z</time>
      </trkpt>
      <trkpt lat="63.40019417" lon="10.475016">
        <ele>163.832</ele>
        <time>1970-01-01T01:00:00Z</time>
      </trkpt>
      <trkpt lat="63.40020833" lon="10.47503233">
        <ele>163.984</ele>
        <time>1970-01-01T01:00:00Z</time>
      </trkpt>
      <trkpt lat="63.4002235" lon="10.47505083">
        <ele>163.984</ele>
        <time>1970-01-01T01:00:00Z</time>
      </trkpt>
      <trkpt lat="63.40023667" lon="10.4750705">
        <ele>164.137</ele>
        <time>1970-01-01T01:00:00Z</time>
      </trkpt>
      <trkpt lat="63.40025183" lon="10.47509267">
        <ele>164.137</ele>
        <time>1970-01-01T01:00:00Z</time>
      </trkpt>
      <trkpt lat="63.40026367" lon="10.4751115">
        <ele>164.137</ele>
        <time>1970-01-01T01:00:00Z</time>
      </trkpt>
      <trkpt lat="63.40027467" lon="10.475128">
        <ele>164.137</ele>
        <time>1970-01-01T01:00:00Z</time>
      </trkpt>
      <trkpt lat="63.40028433" lon="10.47514483">
        <ele>164.289</ele>
        <time>1970-01-01T01:00:00Z</time>
      </trkpt>
      <trkpt lat="63.40029533" lon="10.47516483">
        <ele>164.289</ele>
        <time>1970-01-01T01:00:00Z</time>
      </trkpt>
      <trkpt lat="63.40030683" lon="10.475186">
        <ele>164.442</ele>
        <time>1970-01-01T01:00:00Z</time>
      </trkpt>
      <trkpt lat="63.40031783" lon="10.47520583">
        <ele>164.442</ele>
        <time>1970-01-01T01:00:00Z</time>
      </trkpt>
      <trkpt lat="63.40032983" lon="10.47522883">
        <ele>164.442</ele>
        <time>1970-01-01T01:00:00Z</time>
      </trkpt>
      <trkpt lat="63.4003425" lon="10.475254">
        <ele>164.442</ele>
        <time>1970-01-01T01:00:00Z</time>
      </trkpt>
      <trkpt lat="63.4003565" lon="10.4752825">
        <ele>164.594</ele>
        <time>1970-01-01T01:00:00Z</time>
      </trkpt>
      <trkpt lat="63.40036883" lon="10.475309">
        <ele>164.594</ele>
        <time>1970-01-01T01:00:00Z</time>
      </trkpt>
      <trkpt lat="63.40037967" lon="10.47533467">
        <ele>164.594</ele>
        <time>1970-01-01T01:00:00Z</time>
      </trkpt>
      <trkpt lat="63.40039" lon="10.475362">
        <ele>164.594</ele>
        <time>1970-01-01T01:00:00Z</time>
      </trkpt>
      <trkpt lat="63.40039967" lon="10.47538983">
        <ele>164.746</ele>
        <time>1970-01-01T01:00:00Z</time>
      </trkpt>
      <trkpt lat="63.40040967" lon="10.4754195">
        <ele>164.746</ele>
        <time>1970-01-01T01:00:00Z</time>
      </trkpt>
      <trkpt lat="63.40041867" lon="10.47544883">
        <ele>164.746</ele>
        <time>1970-01-01T01:00:00Z</time>
      </trkpt>
      <trkpt lat="63.40042767" lon="10.47547933">
        <ele>164.746</ele>
        <time>1970-01-01T01:00:00Z</time>
      </trkpt>
      <trkpt lat="63.40043533" lon="10.47550983">
        <ele>164.899</ele>
        <time>1970-01-01T01:00:00Z</time>
      </trkpt>
      <trkpt lat="63.40044317" lon="10.47554067">
        <ele>164.899</ele>
        <time>1970-01-01T01:00:00Z</time>
      </trkpt>
      <trkpt lat="63.40045267" lon="10.47557017">
        <ele>164.899</ele>
        <time>1970-01-01T01:00:00Z</time>
      </trkpt>
      <trkpt lat="63.40046417" lon="10.47559833">
        <ele>164.899</ele>
        <time>1970-01-01T01:00:00Z</time>
      </trkpt>
      <trkpt lat="63.40047667" lon="10.47562633">
        <ele>165.051</ele>
        <time>1970-01-01T01:00:00Z</time>
      </trkpt>
      <trkpt lat="63.40048733" lon="10.4756545">
        <ele>165.051</ele>
        <time>1970-01-01T01:00:00Z</time>
      </trkpt>
      <trkpt lat="63.40049867" lon="10.475683">
        <ele>165.051</ele>
        <time>1970-01-01T01:00:00Z</time>
      </trkpt>
      <trkpt lat="63.40051" lon="10.47571033">
        <ele>165.051</ele>
        <time>1970-01-01T01:00:00Z</time>
      </trkpt>
      <trkpt lat="63.40052117" lon="10.4757365">
        <ele>165.051</ele>
        <time>1970-01-01T01:00:00Z</time>
      </trkpt>
      <trkpt lat="63.40053167" lon="10.475761">
        <ele>165.051</ele>
        <time>1970-01-01T01:00:00Z</time>
      </trkpt>
      <trkpt lat="63.40054267" lon="10.47578467">
        <ele>165.051</ele>
        <time>1970-01-01T01:00:00Z</time>
      </trkpt>
      <trkpt lat="63.40055583" lon="10.47580917">
        <ele>165.051</ele>
        <time>1970-01-01T01:00:00Z</time>
      </trkpt>
      <trkpt lat="63.40056817" lon="10.47583283">
        <ele>165.204</ele>
        <time>1970-01-01T01:00:00Z</time>
      </trkpt>
      <trkpt lat="63.40058" lon="10.47585967">
        <ele>165.204</ele>
        <time>1970-01-01T01:00:00Z</time>
      </trkpt>
      <trkpt lat="63.400591" lon="10.475885">
        <ele>165.204</ele>
        <time>1970-01-01T01:00:00Z</time>
      </trkpt>
      <trkpt lat="63.400603" lon="10.475911">
        <ele>165.204</ele>
        <time>1970-01-01T01:00:00Z</time>
      </trkpt>
      <trkpt lat="63.40061617" lon="10.47593267">
        <ele>165.204</ele>
        <time>1970-01-01T01:00:00Z</time>
      </trkpt>
      <trkpt lat="63.40062817" lon="10.47595417">
        <ele>165.204</ele>
        <time>1970-01-01T01:00:00Z</time>
      </trkpt>
      <trkpt lat="63.400639" lon="10.47597833">
        <ele>165.204</ele>
        <time>1970-01-01T01:00:00Z</time>
      </trkpt>
      <trkpt lat="63.40064783" lon="10.47600433">
        <ele>165.204</ele>
        <time>1970-01-01T01:00:00Z</time>
      </trkpt>
      <trkpt lat="63.40065867" lon="10.47602983">
        <ele>165.204</ele>
        <time>1970-01-01T01:00:00Z</time>
      </trkpt>
      <trkpt lat="63.4006705" lon="10.476058">
        <ele>165.204</ele>
        <time>1970-01-01T01:00:00Z</time>
      </trkpt>
      <trkpt lat="63.40068367" lon="10.47608667">
        <ele>165.204</ele>
        <time>1970-01-01T01:00:00Z</time>
      </trkpt>
      <trkpt lat="63.400695" lon="10.47611883">
        <ele>165.204</ele>
        <time>1970-01-01T01:00:00Z</time>
      </trkpt>
      <trkpt lat="63.40070683" lon="10.47614817">
        <ele>165.204</ele>
        <time>1970-01-01T01:00:00Z</time>
      </trkpt>
      <trkpt lat="63.40072017" lon="10.47617267">
        <ele>165.204</ele>
        <time>1970-01-01T01:00:00Z</time>
      </trkpt>
      <trkpt lat="63.4007355" lon="10.47619233">
        <ele>165.204</ele>
        <time>1970-01-01T01:00:00Z</time>
      </trkpt>
      <trkpt lat="63.40075133" lon="10.47620917">
        <ele>165.204</ele>
        <time>1970-01-01T01:00:00Z</time>
      </trkpt>
      <trkpt lat="63.40076783" lon="10.4762265">
        <ele>165.204</ele>
        <time>1970-01-01T01:00:00Z</time>
      </trkpt>
      <trkpt lat="63.4007845" lon="10.47623967">
        <ele>165.204</ele>
        <time>1970-01-01T01:00:00Z</time>
      </trkpt>
      <trkpt lat="63.40080117" lon="10.47625067">
        <ele>165.051</ele>
        <time>1970-01-01T01:00:00Z</time>
      </trkpt>
      <trkpt lat="63.400817" lon="10.47626133">
        <ele>165.051</ele>
        <time>1970-01-01T01:00:00Z</time>
      </trkpt>
      <trkpt lat="63.40083217" lon="10.4762755">
        <ele>165.051</ele>
        <time>1970-01-01T01:00:00Z</time>
      </trkpt>
      <trkpt lat="63.40084567" lon="10.47628983">
        <ele>165.051</ele>
        <time>1970-01-01T01:00:00Z</time>
      </trkpt>
      <trkpt lat="63.40085917" lon="10.47630183">
        <ele>165.051</ele>
        <time>1970-01-01T01:00:00Z</time>
      </trkpt>
      <trkpt lat="63.40087117" lon="10.47630917">
        <ele>165.051</ele>
        <time>1970-01-01T01:00:00Z</time>
      </trkpt>
      <trkpt lat="63.40088667" lon="10.47631783">
        <ele>164.899</ele>
        <time>1970-01-01T01:00:00Z</time>
      </trkpt>
      <trkpt lat="63.4009025" lon="10.47632833">
        <ele>164.899</ele>
        <time>1970-01-01T01:00:00Z</time>
      </trkpt>
      <trkpt lat="63.40092" lon="10.476342">
        <ele>164.899</ele>
        <time>1970-01-01T01:00:00Z</time>
      </trkpt>
      <trkpt lat="63.40093617" lon="10.47635517">
        <ele>164.899</ele>
        <time>1970-01-01T01:00:00Z</time>
      </trkpt>
      <trkpt lat="63.40095167" lon="10.476369">
        <ele>164.899</ele>
        <time>1970-01-01T01:00:00Z</time>
      </trkpt>
      <trkpt lat="63.40096733" lon="10.47638183">
        <ele>164.899</ele>
        <time>1970-01-01T01:00:00Z</time>
      </trkpt>
      <trkpt lat="63.40098417" lon="10.47639183">
        <ele>164.746</ele>
        <time>1970-01-01T01:00:00Z</time>
      </trkpt>
      <trkpt lat="63.40100183" lon="10.47639883">
        <ele>164.746</ele>
        <time>1970-01-01T01:00:00Z</time>
      </trkpt>
      <trkpt lat="63.40101983" lon="10.47640667">
        <ele>164.746</ele>
        <time>1970-01-01T01:00:00Z</time>
      </trkpt>
      <trkpt lat="63.4010375" lon="10.47641483">
        <ele>164.746</ele>
        <time>1970-01-01T01:00:00Z</time>
      </trkpt>
      <trkpt lat="63.401054" lon="10.47642217">
        <ele>164.746</ele>
        <time>1970-01-01T01:00:00Z</time>
      </trkpt>
      <trkpt lat="63.40107033" lon="10.47642567">
        <ele>164.746</ele>
        <time>1970-01-01T01:00:00Z</time>
      </trkpt>
      <trkpt lat="63.40108583" lon="10.47642617">
        <ele>164.594</ele>
        <time>1970-01-01T01:00:00Z</time>
      </trkpt>
      <trkpt lat="63.401101" lon="10.47642633">
        <ele>164.594</ele>
        <time>1970-01-01T01:00:00Z</time>
      </trkpt>
      <trkpt lat="63.40111633" lon="10.47642783">
        <ele>164.594</ele>
        <time>1970-01-01T01:00:00Z</time>
      </trkpt>
      <trkpt lat="63.40113083" lon="10.4764275">
        <ele>164.594</ele>
        <time>1970-01-01T01:00:00Z</time>
      </trkpt>
      <trkpt lat="63.40114567" lon="10.47642633">
        <ele>164.594</ele>
        <time>1970-01-01T01:00:00Z</time>
      </trkpt>
      <trkpt lat="63.40115917" lon="10.47642417">
        <ele>164.594</ele>
        <time>1970-01-01T01:00:00Z</time>
      </trkpt>
      <trkpt lat="63.4011725" lon="10.476422">
        <ele>164.442</ele>
        <time>1970-01-01T01:00:00Z</time>
      </trkpt>
      <trkpt lat="63.40118533" lon="10.47642117">
        <ele>164.442</ele>
        <time>1970-01-01T01:00:00Z</time>
      </trkpt>
      <trkpt lat="63.40119883" lon="10.476419">
        <ele>164.442</ele>
        <time>1970-01-01T01:00:00Z</time>
      </trkpt>
      <trkpt lat="63.401213" lon="10.476418">
        <ele>164.442</ele>
        <time>1970-01-01T01:00:00Z</time>
      </trkpt>
      <trkpt lat="63.40122933" lon="10.47641633">
        <ele>164.442</ele>
        <time>1970-01-01T01:00:00Z</time>
      </trkpt>
      <trkpt lat="63.40124583" lon="10.47641767">
        <ele>164.442</ele>
        <time>1970-01-01T01:00:00Z</time>
      </trkpt>
      <trkpt lat="63.40126333" lon="10.47642217">
        <ele>164.442</ele>
        <time>1970-01-01T01:00:00Z</time>
      </trkpt>
      <trkpt lat="63.40127883" lon="10.476425">
        <ele>164.442</ele>
        <time>1970-01-01T01:00:00Z</time>
      </trkpt>
      <trkpt lat="63.4012935" lon="10.47642533">
        <ele>164.289</ele>
        <time>1970-01-01T01:00:00Z</time>
      </trkpt>
      <trkpt lat="63.40130867" lon="10.47642467">
        <ele>164.289</ele>
        <time>1970-01-01T01:00:00Z</time>
      </trkpt>
      <trkpt lat="63.40132617" lon="10.47642433">
        <ele>164.289</ele>
        <time>1970-01-01T01:00:00Z</time>
      </trkpt>
      <trkpt lat="63.401344" lon="10.47642683">
        <ele>164.289</ele>
        <time>1970-01-01T01:00:00Z</time>
      </trkpt>
      <trkpt lat="63.4013595" lon="10.47642617">
        <ele>164.289</ele>
        <time>1970-01-01T01:00:00Z</time>
      </trkpt>
      <trkpt lat="63.4013725" lon="10.47642733">
        <ele>164.289</ele>
        <time>1970-01-01T01:00:00Z</time>
      </trkpt>
      <trkpt lat="63.40138533" lon="10.47642717">
        <ele>164.442</ele>
        <time>1970-01-01T01:00:00Z</time>
      </trkpt>
      <trkpt lat="63.40139817" lon="10.47642967">
        <ele>164.442</ele>
        <time>1970-01-01T01:00:00Z</time>
      </trkpt>
      <trkpt lat="63.401412" lon="10.47643317">
        <ele>164.442</ele>
        <time>1970-01-01T01:00:00Z</time>
      </trkpt>
      <trkpt lat="63.401426" lon="10.47644183">
        <ele>164.442</ele>
        <time>1970-01-01T01:00:00Z</time>
      </trkpt>
      <trkpt lat="63.401441" lon="10.47645533">
        <ele>164.442</ele>
        <time>1970-01-01T01:00:00Z</time>
      </trkpt>
      <trkpt lat="63.401456" lon="10.47647267">
        <ele>164.442</ele>
        <time>1970-01-01T01:00:00Z</time>
      </trkpt>
      <trkpt lat="63.40147067" lon="10.476487">
        <ele>164.442</ele>
        <time>1970-01-01T01:00:00Z</time>
      </trkpt>
      <trkpt lat="63.401485" lon="10.47649683">
        <ele>164.442</ele>
        <time>1970-01-01T01:00:00Z</time>
      </trkpt>
      <trkpt lat="63.401498" lon="10.47649883">
        <ele>164.594</ele>
        <time>1970-01-01T01:00:00Z</time>
      </trkpt>
      <trkpt lat="63.40151017" lon="10.47649667">
        <ele>164.594</ele>
        <time>1970-01-01T01:00:00Z</time>
      </trkpt>
      <trkpt lat="63.401521" lon="10.4764885">
        <ele>164.594</ele>
        <time>1970-01-01T01:00:00Z</time>
      </trkpt>
      <trkpt lat="63.4015315" lon="10.47647767">
        <ele>164.594</ele>
        <time>1970-01-01T01:00:00Z</time>
      </trkpt>
      <trkpt lat="63.40154067" lon="10.4764645">
        <ele>164.746</ele>
        <time>1970-01-01T01:00:00Z</time>
      </trkpt>
      <trkpt lat="63.40154783" lon="10.47645333">
        <ele>164.746</ele>
        <time>1970-01-01T01:00:00Z</time>
      </trkpt>
      <trkpt lat="63.40155117" lon="10.47644467">
        <ele>164.746</ele>
        <time>1970-01-01T01:00:00Z</time>
      </trkpt>
      <trkpt lat="63.40155233" lon="10.47644033">
        <ele>164.746</ele>
        <time>1970-01-01T01:00:00Z</time>
      </trkpt>
      <trkpt lat="63.4015525" lon="10.47644033">
        <ele>164.899</ele>
        <time>1970-01-01T01:00:00Z</time>
      </trkpt>
      <trkpt lat="63.401553" lon="10.47644317">
        <ele>164.899</ele>
        <time>1970-01-01T01:00:00Z</time>
      </trkpt>
      <trkpt lat="63.40155333" lon="10.4764465">
        <ele>164.899</ele>
        <time>1970-01-01T01:00:00Z</time>
      </trkpt>
      <trkpt lat="63.401554" lon="10.4764495">
        <ele>164.899</ele>
        <time>1970-01-01T01:00:00Z</time>
      </trkpt>
      <trkpt lat="63.40155467" lon="10.47645183">
        <ele>165.051</ele>
        <time>1970-01-01T01:00:00Z</time>
      </trkpt>
      <trkpt lat="63.4015555" lon="10.47645367">
        <ele>165.051</ele>
        <time>1970-01-01T01:00:00Z</time>
      </trkpt>
      <trkpt lat="63.4015565" lon="10.47645533">
        <ele>165.204</ele>
        <time>1970-01-01T01:00:00Z</time>
      </trkpt>
      <trkpt lat="63.40155767" lon="10.47645733">
        <ele>165.204</ele>
        <time>1970-01-01T01:00:00Z</time>
      </trkpt>
      <trkpt lat="63.40155883" lon="10.47645917">
        <ele>165.204</ele>
        <time>1970-01-01T01:00:00Z</time>
      </trkpt>
      <trkpt lat="63.40156017" lon="10.47646033">
        <ele>165.204</ele>
        <time>1970-01-01T01:00:00Z</time>
      </trkpt>
      <trkpt lat="63.401561" lon="10.47646083">
        <ele>165.356</ele>
        <time>1970-01-01T01:00:00Z</time>
      </trkpt>
      <trkpt lat="63.40156167" lon="10.47646067">
        <ele>165.356</ele>
        <time>1970-01-01T01:00:00Z</time>
      </trkpt>
      <trkpt lat="63.40156217" lon="10.47645983">
        <ele>165.508</ele>
        <time>1970-01-01T01:00:00Z</time>
      </trkpt>
      <trkpt lat="63.40156283" lon="10.476459">
        <ele>165.508</ele>
        <time>1970-01-01T01:00:00Z</time>
      </trkpt>
      <trkpt lat="63.4015635" lon="10.476458">
        <ele>165.508</ele>
        <time>1970-01-01T01:00:00Z</time>
      </trkpt>
      <trkpt lat="63.40156417" lon="10.47645767">
        <ele>165.508</ele>
        <time>1970-01-01T01:00:00Z</time>
      </trkpt>
      <trkpt lat="63.40156483" lon="10.4764575">
        <ele>165.661</ele>
        <time>1970-01-01T01:00:00Z</time>
      </trkpt>
      <trkpt lat="63.40156517" lon="10.47645717">
        <ele>165.661</ele>
        <time>1970-01-01T01:00:00Z</time>
      </trkpt>
      <trkpt lat="63.40156533" lon="10.4764565">
        <ele>165.813</ele>
        <time>1970-01-01T01:00:00Z</time>
      </trkpt>
      <trkpt lat="63.40156517" lon="10.47645517">
        <ele>165.813</ele>
        <time>1970-01-01T01:00:00Z</time>
      </trkpt>
      <trkpt lat="63.40156483" lon="10.47645333">
        <ele>165.813</ele>
        <time>1970-01-01T01:00:00Z</time>
      </trkpt>
      <trkpt lat="63.40156433" lon="10.47645167">
        <ele>165.813</ele>
        <time>1970-01-01T01:00:00Z</time>
      </trkpt>
      <trkpt lat="63.40156367" lon="10.47645">
        <ele>165.966</ele>
        <time>1970-01-01T01:00:00Z</time>
      </trkpt>
      <trkpt lat="63.401563" lon="10.4764485">
        <ele>165.966</ele>
        <time>1970-01-01T01:00:00Z</time>
      </trkpt>
      <trkpt lat="63.401562" lon="10.47644667">
        <ele>166.118</ele>
        <time>1970-01-01T01:00:00Z</time>
      </trkpt>
      <trkpt lat="63.40156067" lon="10.47644467">
        <ele>166.118</ele>
        <time>1970-01-01T01:00:00Z</time>
      </trkpt>
      <trkpt lat="63.4015595" lon="10.47644333">
        <ele>166.118</ele>
        <time>1970-01-01T01:00:00Z</time>
      </trkpt>
      <trkpt lat="63.4015585" lon="10.47644267">
        <ele>166.118</ele>
        <time>1970-01-01T01:00:00Z</time>
      </trkpt>
      <trkpt lat="63.40155767" lon="10.47644183">
        <ele>166.27</ele>
        <time>1970-01-01T01:00:00Z</time>
      </trkpt>
      <trkpt lat="63.40155683" lon="10.47644017">
        <ele>166.27</ele>
        <time>1970-01-01T01:00:00Z</time>
      </trkpt>
      <trkpt lat="63.40155633" lon="10.47643983">
        <ele>166.27</ele>
        <time>1970-01-01T01:00:00Z</time>
      </trkpt>
      <trkpt lat="63.40155567" lon="10.47644">
        <ele>166.27</ele>
        <time>1970-01-01T01:00:00Z</time>
      </trkpt>
      <trkpt lat="63.401556" lon="10.47644233">
        <ele>166.27</ele>
        <time>1970-01-01T01:00:00Z</time>
      </trkpt>
      <trkpt lat="63.40155617" lon="10.47644517">
        <ele>166.27</ele>
        <time>1970-01-01T01:00:00Z</time>
      </trkpt>
      <trkpt lat="63.40155667" lon="10.4764495">
        <ele>166.423</ele>
        <time>1970-01-01T01:00:00Z</time>
      </trkpt>
      <trkpt lat="63.40155667" lon="10.47645517">
        <ele>166.423</ele>
        <time>1970-01-01T01:00:00Z</time>
      </trkpt>
      <trkpt lat="63.401557" lon="10.47646383">
        <ele>166.423</ele>
        <time>1970-01-01T01:00:00Z</time>
      </trkpt>
      <trkpt lat="63.40155883" lon="10.47647717">
        <ele>166.423</ele>
        <time>1970-01-01T01:00:00Z</time>
      </trkpt>
      <trkpt lat="63.40156283" lon="10.47649483">
        <ele>166.575</ele>
        <time>1970-01-01T01:00:00Z</time>
      </trkpt>
      <trkpt lat="63.40156767" lon="10.47651783">
        <ele>166.575</ele>
        <time>1970-01-01T01:00:00Z</time>
      </trkpt>
      <trkpt lat="63.40157333" lon="10.47654433">
        <ele>166.575</ele>
        <time>1970-01-01T01:00:00Z</time>
      </trkpt>
      <trkpt lat="63.40157983" lon="10.47657333">
        <ele>166.575</ele>
        <time>1970-01-01T01:00:00Z</time>
      </trkpt>
      <trkpt lat="63.401587" lon="10.4766035">
        <ele>166.728</ele>
        <time>1970-01-01T01:00:00Z</time>
      </trkpt>
      <trkpt lat="63.401596" lon="10.47663467">
        <ele>166.728</ele>
        <time>1970-01-01T01:00:00Z</time>
      </trkpt>
      <trkpt lat="63.40160517" lon="10.4766625">
        <ele>166.728</ele>
        <time>1970-01-01T01:00:00Z</time>
      </trkpt>
      <trkpt lat="63.401616" lon="10.47668617">
        <ele>166.728</ele>
        <time>1970-01-01T01:00:00Z</time>
      </trkpt>
      <trkpt lat="63.401626" lon="10.47670883">
        <ele>166.728</ele>
        <time>1970-01-01T01:00:00Z</time>
      </trkpt>
      <trkpt lat="63.40163667" lon="10.47673217">
        <ele>166.728</ele>
        <time>1970-01-01T01:00:00Z</time>
      </trkpt>
      <trkpt lat="63.40164783" lon="10.47675767">
        <ele>166.88</ele>
        <time>1970-01-01T01:00:00Z</time>
      </trkpt>
      <trkpt lat="63.4016575" lon="10.4767815">
        <ele>166.88</ele>
        <time>1970-01-01T01:00:00Z</time>
      </trkpt>
      <trkpt lat="63.4016665" lon="10.476807">
        <ele>167.032</ele>
        <time>1970-01-01T01:00:00Z</time>
      </trkpt>
      <trkpt lat="63.4016765" lon="10.47683367">
        <ele>167.032</ele>
        <time>1970-01-01T01:00:00Z</time>
      </trkpt>
      <trkpt lat="63.40168767" lon="10.4768595">
        <ele>167.032</ele>
        <time>1970-01-01T01:00:00Z</time>
      </trkpt>
      <trkpt lat="63.40169867" lon="10.47688633">
        <ele>167.032</ele>
        <time>1970-01-01T01:00:00Z</time>
      </trkpt>
      <trkpt lat="63.40170667" lon="10.47691417">
        <ele>167.185</ele>
        <time>1970-01-01T01:00:00Z</time>
      </trkpt>
      <trkpt lat="63.40171333" lon="10.47694433">
        <ele>167.185</ele>
        <time>1970-01-01T01:00:00Z</time>
      </trkpt>
      <trkpt lat="63.40172" lon="10.47697433">
        <ele>167.185</ele>
        <time>1970-01-01T01:00:00Z</time>
      </trkpt>
      <trkpt lat="63.40172883" lon="10.47700533">
        <ele>167.185</ele>
        <time>1970-01-01T01:00:00Z</time>
      </trkpt>
      <trkpt lat="63.40173967" lon="10.477037">
        <ele>167.337</ele>
        <time>1970-01-01T01:00:00Z</time>
      </trkpt>
      <trkpt lat="63.40175183" lon="10.477069">
        <ele>167.337</ele>
        <time>1970-01-01T01:00:00Z</time>
      </trkpt>
      <trkpt lat="63.40176367" lon="10.4770985">
        <ele>167.337</ele>
        <time>1970-01-01T01:00:00Z</time>
      </trkpt>
      <trkpt lat="63.40177567" lon="10.4771265">
        <ele>167.337</ele>
        <time>1970-01-01T01:00:00Z</time>
      </trkpt>
      <trkpt lat="63.40178467" lon="10.47715183">
        <ele>167.49</ele>
        <time>1970-01-01T01:00:00Z</time>
      </trkpt>
      <trkpt lat="63.40179117" lon="10.47717617">
        <ele>167.49</ele>
        <time>1970-01-01T01:00:00Z</time>
      </trkpt>
      <trkpt lat="63.40179633" lon="10.47720283">
        <ele>167.49</ele>
        <time>1970-01-01T01:00:00Z</time>
      </trkpt>
      <trkpt lat="63.40180333" lon="10.47723267">
        <ele>167.49</ele>
        <time>1970-01-01T01:00:00Z</time>
      </trkpt>
      <trkpt lat="63.40181433" lon="10.4772645">
        <ele>167.642</ele>
        <time>1970-01-01T01:00:00Z</time>
      </trkpt>
      <trkpt lat="63.40182683" lon="10.4772915">
        <ele>167.642</ele>
        <time>1970-01-01T01:00:00Z</time>
      </trkpt>
      <trkpt lat="63.40184067" lon="10.477317">
        <ele>167.642</ele>
        <time>1970-01-01T01:00:00Z</time>
      </trkpt>
      <trkpt lat="63.40185267" lon="10.47734383">
        <ele>167.642</ele>
        <time>1970-01-01T01:00:00Z</time>
      </trkpt>
      <trkpt lat="63.401864" lon="10.4773745">
        <ele>167.794</ele>
        <time>1970-01-01T01:00:00Z</time>
      </trkpt>
      <trkpt lat="63.401874" lon="10.47740733">
        <ele>167.794</ele>
        <time>1970-01-01T01:00:00Z</time>
      </trkpt>
      <trkpt lat="63.40188667" lon="10.47743667">
        <ele>167.794</ele>
        <time>1970-01-01T01:00:00Z</time>
      </trkpt>
      <trkpt lat="63.401899" lon="10.47746617">
        <ele>167.794</ele>
        <time>1970-01-01T01:00:00Z</time>
      </trkpt>
      <trkpt lat="63.40191133" lon="10.477494">
        <ele>167.947</ele>
        <time>1970-01-01T01:00:00Z</time>
      </trkpt>
      <trkpt lat="63.40192267" lon="10.47752133">
        <ele>167.947</ele>
        <time>1970-01-01T01:00:00Z</time>
      </trkpt>
      <trkpt lat="63.4019335" lon="10.47754733">
        <ele>168.099</ele>
        <time>1970-01-01T01:00:00Z</time>
      </trkpt>
      <trkpt lat="63.40194467" lon="10.47757067">
        <ele>168.099</ele>
        <time>1970-01-01T01:00:00Z</time>
      </trkpt>
      <trkpt lat="63.40195283" lon="10.47759767">
        <ele>168.252</ele>
        <time>1970-01-01T01:00:00Z</time>
      </trkpt>
      <trkpt lat="63.40196133" lon="10.47762633">
        <ele>168.252</ele>
        <time>1970-01-01T01:00:00Z</time>
      </trkpt>
      <trkpt lat="63.40197117" lon="10.47765683">
        <ele>168.252</ele>
        <time>1970-01-01T01:00:00Z</time>
      </trkpt>
      <trkpt lat="63.40198333" lon="10.47768433">
        <ele>168.252</ele>
        <time>1970-01-01T01:00:00Z</time>
      </trkpt>
      <trkpt lat="63.40199583" lon="10.47771033">
        <ele>168.404</ele>
        <time>1970-01-01T01:00:00Z</time>
      </trkpt>
      <trkpt lat="63.40200917" lon="10.4777375">
        <ele>168.404</ele>
        <time>1970-01-01T01:00:00Z</time>
      </trkpt>
      <trkpt lat="63.4020225" lon="10.477765">
        <ele>168.404</ele>
        <time>1970-01-01T01:00:00Z</time>
      </trkpt>
      <trkpt lat="63.402035" lon="10.47779167">
        <ele>168.404</ele>
        <time>1970-01-01T01:00:00Z</time>
      </trkpt>
      <trkpt lat="63.4020455" lon="10.47781567">
        <ele>168.556</ele>
        <time>1970-01-01T01:00:00Z</time>
      </trkpt>
      <trkpt lat="63.40205633" lon="10.47783833">
        <ele>168.556</ele>
        <time>1970-01-01T01:00:00Z</time>
      </trkpt>
      <trkpt lat="63.40206883" lon="10.47786033">
        <ele>168.556</ele>
        <time>1970-01-01T01:00:00Z</time>
      </trkpt>
      <trkpt lat="63.40208383" lon="10.47788167">
        <ele>168.556</ele>
        <time>1970-01-01T01:00:00Z</time>
      </trkpt>
      <trkpt lat="63.4020985" lon="10.47790133">
        <ele>168.556</ele>
        <time>1970-01-01T01:00:00Z</time>
      </trkpt>
      <trkpt lat="63.40211717" lon="10.47792183">
        <ele>168.556</ele>
        <time>1970-01-01T01:00:00Z</time>
      </trkpt>
      <trkpt lat="63.4021325" lon="10.47794333">
        <ele>168.556</ele>
        <time>1970-01-01T01:00:00Z</time>
      </trkpt>
      <trkpt lat="63.40214817" lon="10.47796433">
        <ele>168.556</ele>
        <time>1970-01-01T01:00:00Z</time>
      </trkpt>
      <trkpt lat="63.402159" lon="10.47798267">
        <ele>168.404</ele>
        <time>1970-01-01T01:00:00Z</time>
      </trkpt>
      <trkpt lat="63.402171" lon="10.478001">
        <ele>168.404</ele>
        <time>1970-01-01T01:00:00Z</time>
      </trkpt>
      <trkpt lat="63.40218417" lon="10.47802167">
        <ele>168.404</ele>
        <time>1970-01-01T01:00:00Z</time>
      </trkpt>
      <trkpt lat="63.4021995" lon="10.478044">
        <ele>168.404</ele>
        <time>1970-01-01T01:00:00Z</time>
      </trkpt>
      <trkpt lat="63.40221583" lon="10.47806233">
        <ele>168.252</ele>
        <time>1970-01-01T01:00:00Z</time>
      </trkpt>
      <trkpt lat="63.40223067" lon="10.47807733">
        <ele>168.252</ele>
        <time>1970-01-01T01:00:00Z</time>
      </trkpt>
      <trkpt lat="63.402244" lon="10.47809017">
        <ele>168.252</ele>
        <time>1970-01-01T01:00:00Z</time>
      </trkpt>
      <trkpt lat="63.4022565" lon="10.478103">
        <ele>168.252</ele>
        <time>1970-01-01T01:00:00Z</time>
      </trkpt>
      <trkpt lat="63.40226967" lon="10.47811617">
        <ele>168.099</ele>
        <time>1970-01-01T01:00:00Z</time>
      </trkpt>
      <trkpt lat="63.402283" lon="10.4781285">
        <ele>168.099</ele>
        <time>1970-01-01T01:00:00Z</time>
      </trkpt>
      <trkpt lat="63.4022965" lon="10.47814117">
        <ele>168.099</ele>
        <time>1970-01-01T01:00:00Z</time>
      </trkpt>
      <trkpt lat="63.40231067" lon="10.47815433">
        <ele>168.099</ele>
        <time>1970-01-01T01:00:00Z</time>
      </trkpt>
      <trkpt lat="63.40232383" lon="10.47816617">
        <ele>168.099</ele>
        <time>1970-01-01T01:00:00Z</time>
      </trkpt>
      <trkpt lat="63.40233817" lon="10.4781795">
        <ele>168.099</ele>
        <time>1970-01-01T01:00:00Z</time>
      </trkpt>
      <trkpt lat="63.40235233" lon="10.47819367">
        <ele>168.099</ele>
        <time>1970-01-01T01:00:00Z</time>
      </trkpt>
      <trkpt lat="63.402369" lon="10.47820717">
        <ele>168.099</ele>
        <time>1970-01-01T01:00:00Z</time>
      </trkpt>
      <trkpt lat="63.40238617" lon="10.478218">
        <ele>168.099</ele>
        <time>1970-01-01T01:00:00Z</time>
      </trkpt>
      <trkpt lat="63.40240333" lon="10.47822567">
        <ele>168.099</ele>
        <time>1970-01-01T01:00:00Z</time>
      </trkpt>
      <trkpt lat="63.402419" lon="10.47823633">
        <ele>168.099</ele>
        <time>1970-01-01T01:00:00Z</time>
      </trkpt>
      <trkpt lat="63.40243467" lon="10.47824583">
        <ele>168.099</ele>
        <time>1970-01-01T01:00:00Z</time>
      </trkpt>
      <trkpt lat="63.40245117" lon="10.4782545">
        <ele>168.099</ele>
        <time>1970-01-01T01:00:00Z</time>
      </trkpt>
      <trkpt lat="63.4024675" lon="10.47826217">
        <ele>168.099</ele>
        <time>1970-01-01T01:00:00Z</time>
      </trkpt>
      <trkpt lat="63.40248517" lon="10.47827117">
        <ele>168.099</ele>
        <time>1970-01-01T01:00:00Z</time>
      </trkpt>
      <trkpt lat="63.40250217" lon="10.47828233">
        <ele>168.099</ele>
        <time>1970-01-01T01:00:00Z</time>
      </trkpt>
      <trkpt lat="63.4025195" lon="10.47829183">
        <ele>168.099</ele>
        <time>1970-01-01T01:00:00Z</time>
      </trkpt>
      <trkpt lat="63.40253533" lon="10.47830183">
        <ele>168.099</ele>
        <time>1970-01-01T01:00:00Z</time>
      </trkpt>
      <trkpt lat="63.402551" lon="10.4783115">
        <ele>168.099</ele>
        <time>1970-01-01T01:00:00Z</time>
      </trkpt>
      <trkpt lat="63.402566" lon="10.478324">
        <ele>168.099</ele>
        <time>1970-01-01T01:00:00Z</time>
      </trkpt>
      <trkpt lat="63.40257983" lon="10.47833667">
        <ele>168.099</ele>
        <time>1970-01-01T01:00:00Z</time>
      </trkpt>
      <trkpt lat="63.40259283" lon="10.4783505">
        <ele>168.099</ele>
        <time>1970-01-01T01:00:00Z</time>
      </trkpt>
      <trkpt lat="63.4026035" lon="10.47836217">
        <ele>168.252</ele>
        <time>1970-01-01T01:00:00Z</time>
      </trkpt>
      <trkpt lat="63.40261433" lon="10.47837467">
        <ele>168.252</ele>
        <time>1970-01-01T01:00:00Z</time>
      </trkpt>
      <trkpt lat="63.4026255" lon="10.47838533">
        <ele>168.252</ele>
        <time>1970-01-01T01:00:00Z</time>
      </trkpt>
      <trkpt lat="63.402639" lon="10.4783995">
        <ele>168.252</ele>
        <time>1970-01-01T01:00:00Z</time>
      </trkpt>
      <trkpt lat="63.40265333" lon="10.47841383">
        <ele>168.404</ele>
        <time>1970-01-01T01:00:00Z</time>
      </trkpt>
      <trkpt lat="63.40266917" lon="10.47842967">
        <ele>168.404</ele>
        <time>1970-01-01T01:00:00Z</time>
      </trkpt>
      <trkpt lat="63.402684" lon="10.47844617">
        <ele>168.404</ele>
        <time>1970-01-01T01:00:00Z</time>
      </trkpt>
      <trkpt lat="63.40269867" lon="10.47846333">
        <ele>168.404</ele>
        <time>1970-01-01T01:00:00Z</time>
      </trkpt>
      <trkpt lat="63.40271317" lon="10.47847983">
        <ele>168.556</ele>
        <time>1970-01-01T01:00:00Z</time>
      </trkpt>
      <trkpt lat="63.402728" lon="10.4784965">
        <ele>168.556</ele>
        <time>1970-01-01T01:00:00Z</time>
      </trkpt>
      <trkpt lat="63.4027425" lon="10.47851417">
        <ele>168.556</ele>
        <time>1970-01-01T01:00:00Z</time>
      </trkpt>
      <trkpt lat="63.40275567" lon="10.47853383">
        <ele>168.556</ele>
        <time>1970-01-01T01:00:00Z</time>
      </trkpt>
      <trkpt lat="63.40276867" lon="10.47855267">
        <ele>168.556</ele>
        <time>1970-01-01T01:00:00Z</time>
      </trkpt>
      <trkpt lat="63.40278167" lon="10.47856983">
        <ele>168.556</ele>
        <time>1970-01-01T01:00:00Z</time>
      </trkpt>
      <trkpt lat="63.40279433" lon="10.4785865">
        <ele>168.556</ele>
        <time>1970-01-01T01:00:00Z</time>
      </trkpt>
      <trkpt lat="63.40280683" lon="10.47860183">
        <ele>168.556</ele>
        <time>1970-01-01T01:00:00Z</time>
      </trkpt>
      <trkpt lat="63.40281917" lon="10.47861967">
        <ele>168.556</ele>
        <time>1970-01-01T01:00:00Z</time>
      </trkpt>
      <trkpt lat="63.402834" lon="10.47863567">
        <ele>168.556</ele>
        <time>1970-01-01T01:00:00Z</time>
      </trkpt>
      <trkpt lat="63.40284917" lon="10.4786515">
        <ele>168.556</ele>
        <time>1970-01-01T01:00:00Z</time>
      </trkpt>
      <trkpt lat="63.40286517" lon="10.4786675">
        <ele>168.556</ele>
        <time>1970-01-01T01:00:00Z</time>
      </trkpt>
      <trkpt lat="63.40288" lon="10.47868433">
        <ele>168.556</ele>
        <time>1970-01-01T01:00:00Z</time>
      </trkpt>
      <trkpt lat="63.40289683" lon="10.47870017">
        <ele>168.556</ele>
        <time>1970-01-01T01:00:00Z</time>
      </trkpt>
      <trkpt lat="63.40291333" lon="10.47871717">
        <ele>168.556</ele>
        <time>1970-01-01T01:00:00Z</time>
      </trkpt>
      <trkpt lat="63.40292983" lon="10.4787325">
        <ele>168.556</ele>
        <time>1970-01-01T01:00:00Z</time>
      </trkpt>
      <trkpt lat="63.40294467" lon="10.478751">
        <ele>168.556</ele>
        <time>1970-01-01T01:00:00Z</time>
      </trkpt>
      <trkpt lat="63.40295933" lon="10.478767">
        <ele>168.556</ele>
        <time>1970-01-01T01:00:00Z</time>
      </trkpt>
      <trkpt lat="63.40297567" lon="10.47878467">
        <ele>168.556</ele>
        <time>1970-01-01T01:00:00Z</time>
      </trkpt>
      <trkpt lat="63.40299183" lon="10.47880183">
        <ele>168.556</ele>
        <time>1970-01-01T01:00:00Z</time>
      </trkpt>
      <trkpt lat="63.40300833" lon="10.47881967">
        <ele>168.556</ele>
        <time>1970-01-01T01:00:00Z</time>
      </trkpt>
      <trkpt lat="63.40302317" lon="10.47883833">
        <ele>168.556</ele>
        <time>1970-01-01T01:00:00Z</time>
      </trkpt>
      <trkpt lat="63.4030375" lon="10.47885383">
        <ele>168.556</ele>
        <time>1970-01-01T01:00:00Z</time>
      </trkpt>
      <trkpt lat="63.403052" lon="10.4788695">
        <ele>168.556</ele>
        <time>1970-01-01T01:00:00Z</time>
      </trkpt>
      <trkpt lat="63.40306617" lon="10.47888383">
        <ele>168.404</ele>
        <time>1970-01-01T01:00:00Z</time>
      </trkpt>
      <trkpt lat="63.40308017" lon="10.47890067">
        <ele>168.404</ele>
        <time>1970-01-01T01:00:00Z</time>
      </trkpt>
      <trkpt lat="63.4030935" lon="10.47891817">
        <ele>168.404</ele>
        <time>1970-01-01T01:00:00Z</time>
      </trkpt>
      <trkpt lat="63.40310617" lon="10.478935">
        <ele>168.404</ele>
        <time>1970-01-01T01:00:00Z</time>
      </trkpt>
      <trkpt lat="63.40311867" lon="10.47895083">
        <ele>168.404</ele>
        <time>1970-01-01T01:00:00Z</time>
      </trkpt>
      <trkpt lat="63.40313117" lon="10.47896667">
        <ele>168.404</ele>
        <time>1970-01-01T01:00:00Z</time>
      </trkpt>
      <trkpt lat="63.40314417" lon="10.47898367">
        <ele>168.252</ele>
        <time>1970-01-01T01:00:00Z</time>
      </trkpt>
      <trkpt lat="63.40315467" lon="10.47899867">
        <ele>168.252</ele>
        <time>1970-01-01T01:00:00Z</time>
      </trkpt>
      <trkpt lat="63.4031655" lon="10.479014">
        <ele>168.252</ele>
        <time>1970-01-01T01:00:00Z</time>
      </trkpt>
      <trkpt lat="63.403177" lon="10.47903133">
        <ele>168.252</ele>
        <time>1970-01-01T01:00:00Z</time>
      </trkpt>
      <trkpt lat="63.40319333" lon="10.479052">
        <ele>168.252</ele>
        <time>1970-01-01T01:00:00Z</time>
      </trkpt>
      <trkpt lat="63.40321033" lon="10.47907167">
        <ele>168.252</ele>
        <time>1970-01-01T01:00:00Z</time>
      </trkpt>
      <trkpt lat="63.4032285" lon="10.479088">
        <ele>168.252</ele>
        <time>1970-01-01T01:00:00Z</time>
      </trkpt>
      <trkpt lat="63.403244" lon="10.4791025">
        <ele>168.252</ele>
        <time>1970-01-01T01:00:00Z</time>
      </trkpt>
      <trkpt lat="63.4032595" lon="10.47911583">
        <ele>168.252</ele>
        <time>1970-01-01T01:00:00Z</time>
      </trkpt>
      <trkpt lat="63.403274" lon="10.47913117">
        <ele>168.252</ele>
        <time>1970-01-01T01:00:00Z</time>
      </trkpt>
      <trkpt lat="63.40328933" lon="10.479145">
        <ele>168.099</ele>
        <time>1970-01-01T01:00:00Z</time>
      </trkpt>
      <trkpt lat="63.40330617" lon="10.47915983">
        <ele>168.099</ele>
        <time>1970-01-01T01:00:00Z</time>
      </trkpt>
      <trkpt lat="63.40332267" lon="10.47917233">
        <ele>168.099</ele>
        <time>1970-01-01T01:00:00Z</time>
      </trkpt>
      <trkpt lat="63.40333983" lon="10.4791855">
        <ele>168.099</ele>
        <time>1970-01-01T01:00:00Z</time>
      </trkpt>
      <trkpt lat="63.40335383" lon="10.479197">
        <ele>167.947</ele>
        <time>1970-01-01T01:00:00Z</time>
      </trkpt>
      <trkpt lat="63.40336867" lon="10.47920817">
        <ele>167.947</ele>
        <time>1970-01-01T01:00:00Z</time>
      </trkpt>
      <trkpt lat="63.40338417" lon="10.4792205">
        <ele>167.947</ele>
        <time>1970-01-01T01:00:00Z</time>
      </trkpt>
      <trkpt lat="63.4034005" lon="10.47923183">
        <ele>167.947</ele>
        <time>1970-01-01T01:00:00Z</time>
      </trkpt>
      <trkpt lat="63.40341617" lon="10.4792425">
        <ele>167.947</ele>
        <time>1970-01-01T01:00:00Z</time>
      </trkpt>
      <trkpt lat="63.40343033" lon="10.47925183">
        <ele>167.947</ele>
        <time>1970-01-01T01:00:00Z</time>
      </trkpt>
      <trkpt lat="63.40344517" lon="10.47925783">
        <ele>167.794</ele>
        <time>1970-01-01T01:00:00Z</time>
      </trkpt>
      <trkpt lat="63.40345967" lon="10.47926117">
        <ele>167.794</ele>
        <time>1970-01-01T01:00:00Z</time>
      </trkpt>
      <trkpt lat="63.40347533" lon="10.47926133">
        <ele>167.794</ele>
        <time>1970-01-01T01:00:00Z</time>
      </trkpt>
      <trkpt lat="63.40349267" lon="10.47926117">
        <ele>167.794</ele>
        <time>1970-01-01T01:00:00Z</time>
      </trkpt>
      <trkpt lat="63.40351167" lon="10.4792605">
        <ele>167.642</ele>
        <time>1970-01-01T01:00:00Z</time>
      </trkpt>
      <trkpt lat="63.40353033" lon="10.47926317">
        <ele>167.642</ele>
        <time>1970-01-01T01:00:00Z</time>
      </trkpt>
      <trkpt lat="63.40354667" lon="10.4792685">
        <ele>167.642</ele>
        <time>1970-01-01T01:00:00Z</time>
      </trkpt>
      <trkpt lat="63.40356283" lon="10.47927333">
        <ele>167.642</ele>
        <time>1970-01-01T01:00:00Z</time>
      </trkpt>
      <trkpt lat="63.403579" lon="10.479276">
        <ele>167.642</ele>
        <time>1970-01-01T01:00:00Z</time>
      </trkpt>
      <trkpt lat="63.403597" lon="10.479277">
        <ele>167.642</ele>
        <time>1970-01-01T01:00:00Z</time>
      </trkpt>
      <trkpt lat="63.403614" lon="10.47927867">
        <ele>167.49</ele>
        <time>1970-01-01T01:00:00Z</time>
      </trkpt>
      <trkpt lat="63.403631" lon="10.47927883">
        <ele>167.49</ele>
        <time>1970-01-01T01:00:00Z</time>
      </trkpt>
      <trkpt lat="63.40364583" lon="10.479277">
        <ele>167.49</ele>
        <time>1970-01-01T01:00:00Z</time>
      </trkpt>
      <trkpt lat="63.40366167" lon="10.4792745">
        <ele>167.49</ele>
        <time>1970-01-01T01:00:00Z</time>
      </trkpt>
      <trkpt lat="63.40367817" lon="10.47926867">
        <ele>167.49</ele>
        <time>1970-01-01T01:00:00Z</time>
      </trkpt>
      <trkpt lat="63.4036955" lon="10.47926233">
        <ele>167.49</ele>
        <time>1970-01-01T01:00:00Z</time>
      </trkpt>
      <trkpt lat="63.40371183" lon="10.47925317">
        <ele>167.337</ele>
        <time>1970-01-01T01:00:00Z</time>
      </trkpt>
      <trkpt lat="63.4037275" lon="10.47924483">
        <ele>167.337</ele>
        <time>1970-01-01T01:00:00Z</time>
      </trkpt>
      <trkpt lat="63.403744" lon="10.47923617">
        <ele>167.337</ele>
        <time>1970-01-01T01:00:00Z</time>
      </trkpt>
      <trkpt lat="63.40376083" lon="10.47922767">
        <ele>167.337</ele>
        <time>1970-01-01T01:00:00Z</time>
      </trkpt>
      <trkpt lat="63.40377617" lon="10.4792195">
        <ele>167.185</ele>
        <time>1970-01-01T01:00:00Z</time>
      </trkpt>
      <trkpt lat="63.4037915" lon="10.47921117">
        <ele>167.185</ele>
        <time>1970-01-01T01:00:00Z</time>
      </trkpt>
      <trkpt lat="63.40380683" lon="10.47920283">
        <ele>167.185</ele>
        <time>1970-01-01T01:00:00Z</time>
      </trkpt>
      <trkpt lat="63.4038215" lon="10.47919417">
        <ele>167.185</ele>
        <time>1970-01-01T01:00:00Z</time>
      </trkpt>
      <trkpt lat="63.40383667" lon="10.4791875">
        <ele>167.032</ele>
        <time>1970-01-01T01:00:00Z</time>
      </trkpt>
      <trkpt lat="63.40385133" lon="10.47917983">
        <ele>167.032</ele>
        <time>1970-01-01T01:00:00Z</time>
      </trkpt>
      <trkpt lat="63.4038675" lon="10.479174">
        <ele>167.032</ele>
        <time>1970-01-01T01:00:00Z</time>
      </trkpt>
      <trkpt lat="63.40388333" lon="10.479164">
        <ele>167.032</ele>
        <time>1970-01-01T01:00:00Z</time>
      </trkpt>
      <trkpt lat="63.4038995" lon="10.47915367">
        <ele>167.032</ele>
        <time>1970-01-01T01:00:00Z</time>
      </trkpt>
      <trkpt lat="63.40391517" lon="10.4791415">
        <ele>167.032</ele>
        <time>1970-01-01T01:00:00Z</time>
      </trkpt>
      <trkpt lat="63.40393" lon="10.47913083">
        <ele>166.88</ele>
        <time>1970-01-01T01:00:00Z</time>
      </trkpt>
      <trkpt lat="63.4039455" lon="10.4791215">
        <ele>166.88</ele>
        <time>1970-01-01T01:00:00Z</time>
      </trkpt>
      <trkpt lat="63.4039615" lon="10.47911183">
        <ele>166.88</ele>
        <time>1970-01-01T01:00:00Z</time>
      </trkpt>
      <trkpt lat="63.403978" lon="10.47910033">
        <ele>166.88</ele>
        <time>1970-01-01T01:00:00Z</time>
      </trkpt>
      <trkpt lat="63.40399217" lon="10.479087">
        <ele>166.728</ele>
        <time>1970-01-01T01:00:00Z</time>
      </trkpt>
      <trkpt lat="63.404006" lon="10.47907283">
        <ele>166.728</ele>
        <time>1970-01-01T01:00:00Z</time>
      </trkpt>
      <trkpt lat="63.40401833" lon="10.47905833">
        <ele>166.575</ele>
        <time>1970-01-01T01:00:00Z</time>
      </trkpt>
      <trkpt lat="63.40403317" lon="10.47904133">
        <ele>166.575</ele>
        <time>1970-01-01T01:00:00Z</time>
      </trkpt>
      <trkpt lat="63.40404767" lon="10.47901883">
        <ele>166.575</ele>
        <time>1970-01-01T01:00:00Z</time>
      </trkpt>
      <trkpt lat="63.40405967" lon="10.47899283">
        <ele>166.575</ele>
        <time>1970-01-01T01:00:00Z</time>
      </trkpt>
      <trkpt lat="63.40406667" lon="10.47895883">
        <ele>166.423</ele>
        <time>1970-01-01T01:00:00Z</time>
      </trkpt>
      <trkpt lat="63.40406833" lon="10.47891633">
        <ele>166.423</ele>
        <time>1970-01-01T01:00:00Z</time>
      </trkpt>
      <trkpt lat="63.40406733" lon="10.4788775">
        <ele>166.423</ele>
        <time>1970-01-01T01:00:00Z</time>
      </trkpt>
      <trkpt lat="63.40406467" lon="10.478842">
        <ele>166.423</ele>
        <time>1970-01-01T01:00:00Z</time>
      </trkpt>
      <trkpt lat="63.4040615" lon="10.4788125">
        <ele>166.27</ele>
        <time>1970-01-01T01:00:00Z</time>
      </trkpt>
      <trkpt lat="63.40406017" lon="10.47877733">
        <ele>166.27</ele>
        <time>1970-01-01T01:00:00Z</time>
      </trkpt>
      <trkpt lat="63.40406083" lon="10.47874483">
        <ele>166.27</ele>
        <time>1970-01-01T01:00:00Z</time>
      </trkpt>
      <trkpt lat="63.404065" lon="10.47871333">
        <ele>166.27</ele>
        <time>1970-01-01T01:00:00Z</time>
      </trkpt>
      <trkpt lat="63.404069" lon="10.47868133">
        <ele>166.118</ele>
        <time>1970-01-01T01:00:00Z</time>
      </trkpt>
      <trkpt lat="63.4040735" lon="10.478647">
        <ele>166.118</ele>
        <time>1970-01-01T01:00:00Z</time>
      </trkpt>
      <trkpt lat="63.40407817" lon="10.47861617">
        <ele>166.118</ele>
        <time>1970-01-01T01:00:00Z</time>
      </trkpt>
      <trkpt lat="63.40408383" lon="10.47858717">
        <ele>166.118</ele>
        <time>1970-01-01T01:00:00Z</time>
      </trkpt>
      <trkpt lat="63.404091" lon="10.47855983">
        <ele>165.966</ele>
        <time>1970-01-01T01:00:00Z</time>
      </trkpt>
      <trkpt lat="63.40409883" lon="10.478533">
        <ele>165.966</ele>
        <time>1970-01-01T01:00:00Z</time>
      </trkpt>
      <trkpt lat="63.404109" lon="10.4785075">
        <ele>165.966</ele>
        <time>1970-01-01T01:00:00Z</time>
      </trkpt>
      <trkpt lat="63.40411917" lon="10.47848583">
        <ele>165.966</ele>
        <time>1970-01-01T01:00:00Z</time>
      </trkpt>
      <trkpt lat="63.4041305" lon="10.478466">
        <ele>165.813</ele>
        <time>1970-01-01T01:00:00Z</time>
      </trkpt>
      <trkpt lat="63.40414283" lon="10.47844833">
        <ele>165.813</ele>
        <time>1970-01-01T01:00:00Z</time>
      </trkpt>
      <trkpt lat="63.40415567" lon="10.47843217">
        <ele>165.813</ele>
        <time>1970-01-01T01:00:00Z</time>
      </trkpt>
      <trkpt lat="63.4041715" lon="10.478419">
        <ele>165.813</ele>
        <time>1970-01-01T01:00:00Z</time>
      </trkpt>
      <trkpt lat="63.40418783" lon="10.47841067">
        <ele>165.661</ele>
        <time>1970-01-01T01:00:00Z</time>
      </trkpt>
      <trkpt lat="63.40420533" lon="10.47840483">
        <ele>165.661</ele>
        <time>1970-01-01T01:00:00Z</time>
      </trkpt>
      <trkpt lat="63.404221" lon="10.47839967">
        <ele>165.661</ele>
        <time>1970-01-01T01:00:00Z</time>
      </trkpt>
      <trkpt lat="63.4042365" lon="10.47839367">
        <ele>165.661</ele>
        <time>1970-01-01T01:00:00Z</time>
      </trkpt>
      <trkpt lat="63.4042525" lon="10.478388">
        <ele>165.508</ele>
        <time>1970-01-01T01:00:00Z</time>
      </trkpt>
      <trkpt lat="63.4042685" lon="10.47838367">
        <ele>165.508</ele>
        <time>1970-01-01T01:00:00Z</time>
      </trkpt>
      <trkpt lat="63.40428417" lon="10.478379">
        <ele>165.508</ele>
        <time>1970-01-01T01:00:00Z</time>
      </trkpt>
      <trkpt lat="63.4043" lon="10.47837567">
        <ele>165.508</ele>
        <time>1970-01-01T01:00:00Z</time>
      </trkpt>
      <trkpt lat="63.40431667" lon="10.47837067">
        <ele>165.508</ele>
        <time>1970-01-01T01:00:00Z</time>
      </trkpt>
      <trkpt lat="63.40433417" lon="10.4783665">
        <ele>165.508</ele>
        <time>1970-01-01T01:00:00Z</time>
      </trkpt>
      <trkpt lat="63.40435117" lon="10.47836133">
        <ele>165.356</ele>
        <time>1970-01-01T01:00:00Z</time>
      </trkpt>
      <trkpt lat="63.40436817" lon="10.4783585">
        <ele>165.356</ele>
        <time>1970-01-01T01:00:00Z</time>
      </trkpt>
      <trkpt lat="63.40438483" lon="10.47835333">
        <ele>165.356</ele>
        <time>1970-01-01T01:00:00Z</time>
      </trkpt>
      <trkpt lat="63.40440067" lon="10.4783495">
        <ele>165.356</ele>
        <time>1970-01-01T01:00:00Z</time>
      </trkpt>
      <trkpt lat="63.40441617" lon="10.47834517">
        <ele>165.356</ele>
        <time>1970-01-01T01:00:00Z</time>
      </trkpt>
      <trkpt lat="63.40443117" lon="10.47834267">
        <ele>165.356</ele>
        <time>1970-01-01T01:00:00Z</time>
      </trkpt>
      <trkpt lat="63.40444667" lon="10.47834033">
        <ele>165.356</ele>
        <time>1970-01-01T01:00:00Z</time>
      </trkpt>
      <trkpt lat="63.40446117" lon="10.478338">
        <ele>165.356</ele>
        <time>1970-01-01T01:00:00Z</time>
      </trkpt>
      <trkpt lat="63.40447567" lon="10.478335">
        <ele>165.356</ele>
        <time>1970-01-01T01:00:00Z</time>
      </trkpt>
      <trkpt lat="63.404491" lon="10.47833133">
        <ele>165.356</ele>
        <time>1970-01-01T01:00:00Z</time>
      </trkpt>
      <trkpt lat="63.40450683" lon="10.47832767">
        <ele>165.204</ele>
        <time>1970-01-01T01:00:00Z</time>
      </trkpt>
      <trkpt lat="63.40452317" lon="10.47832467">
        <ele>165.204</ele>
        <time>1970-01-01T01:00:00Z</time>
      </trkpt>
      <trkpt lat="63.4045385" lon="10.4783205">
        <ele>165.204</ele>
        <time>1970-01-01T01:00:00Z</time>
      </trkpt>
      <trkpt lat="63.4045545" lon="10.47831433">
        <ele>165.204</ele>
        <time>1970-01-01T01:00:00Z</time>
      </trkpt>
      <trkpt lat="63.40457083" lon="10.47831017">
        <ele>165.051</ele>
        <time>1970-01-01T01:00:00Z</time>
      </trkpt>
      <trkpt lat="63.4045875" lon="10.4783065">
        <ele>165.051</ele>
        <time>1970-01-01T01:00:00Z</time>
      </trkpt>
      <trkpt lat="63.40460567" lon="10.47830367">
        <ele>165.051</ele>
        <time>1970-01-01T01:00:00Z</time>
      </trkpt>
      <trkpt lat="63.40462283" lon="10.47830683">
        <ele>165.051</ele>
        <time>1970-01-01T01:00:00Z</time>
      </trkpt>
      <trkpt lat="63.40464" lon="10.47831317">
        <ele>164.899</ele>
        <time>1970-01-01T01:00:00Z</time>
      </trkpt>
      <trkpt lat="63.40465517" lon="10.47832083">
        <ele>164.899</ele>
        <time>1970-01-01T01:00:00Z</time>
      </trkpt>
      <trkpt lat="63.40467133" lon="10.4783235">
        <ele>164.746</ele>
        <time>1970-01-01T01:00:00Z</time>
      </trkpt>
      <trkpt lat="63.4046875" lon="10.47832683">
        <ele>164.746</ele>
        <time>1970-01-01T01:00:00Z</time>
      </trkpt>
      <trkpt lat="63.40470333" lon="10.47833467">
        <ele>164.746</ele>
        <time>1970-01-01T01:00:00Z</time>
      </trkpt>
      <trkpt lat="63.40471717" lon="10.47834383">
        <ele>164.746</ele>
        <time>1970-01-01T01:00:00Z</time>
      </trkpt>
      <trkpt lat="63.40473183" lon="10.47835817">
        <ele>164.594</ele>
        <time>1970-01-01T01:00:00Z</time>
      </trkpt>
      <trkpt lat="63.40474683" lon="10.47837483">
        <ele>164.594</ele>
        <time>1970-01-01T01:00:00Z</time>
      </trkpt>
      <trkpt lat="63.4047625" lon="10.47839267">
        <ele>164.442</ele>
        <time>1970-01-01T01:00:00Z</time>
      </trkpt>
      <trkpt lat="63.40477683" lon="10.47840967">
        <ele>164.442</ele>
        <time>1970-01-01T01:00:00Z</time>
      </trkpt>
      <trkpt lat="63.4047915" lon="10.478423">
        <ele>164.289</ele>
        <time>1970-01-01T01:00:00Z</time>
      </trkpt>
      <trkpt lat="63.40480667" lon="10.47843633">
        <ele>164.289</ele>
        <time>1970-01-01T01:00:00Z</time>
      </trkpt>
      <trkpt lat="63.40482283" lon="10.47844883">
        <ele>164.137</ele>
        <time>1970-01-01T01:00:00Z</time>
      </trkpt>
      <trkpt lat="63.40483767" lon="10.47846383">
        <ele>164.137</ele>
        <time>1970-01-01T01:00:00Z</time>
      </trkpt>
      <trkpt lat="63.40485167" lon="10.47847833">
        <ele>164.137</ele>
        <time>1970-01-01T01:00:00Z</time>
      </trkpt>
      <trkpt lat="63.40486517" lon="10.47849117">
        <ele>164.137</ele>
        <time>1970-01-01T01:00:00Z</time>
      </trkpt>
      <trkpt lat="63.40487817" lon="10.4785025">
        <ele>163.984</ele>
        <time>1970-01-01T01:00:00Z</time>
      </trkpt>
      <trkpt lat="63.40489117" lon="10.47851417">
        <ele>163.984</ele>
        <time>1970-01-01T01:00:00Z</time>
      </trkpt>
      <trkpt lat="63.40490417" lon="10.47852817">
        <ele>163.832</ele>
        <time>1970-01-01T01:00:00Z</time>
      </trkpt>
      <trkpt lat="63.404919" lon="10.4785435">
        <ele>163.832</ele>
        <time>1970-01-01T01:00:00Z</time>
      </trkpt>
      <trkpt lat="63.40493317" lon="10.47855817">
        <ele>163.832</ele>
        <time>1970-01-01T01:00:00Z</time>
      </trkpt>
      <trkpt lat="63.40494683" lon="10.47857267">
        <ele>163.832</ele>
        <time>1970-01-01T01:00:00Z</time>
      </trkpt>
      <trkpt lat="63.4049605" lon="10.47858967">
        <ele>163.68</ele>
        <time>1970-01-01T01:00:00Z</time>
      </trkpt>
      <trkpt lat="63.40497617" lon="10.4786115">
        <ele>163.68</ele>
        <time>1970-01-01T01:00:00Z</time>
      </trkpt>
      <trkpt lat="63.40499183" lon="10.47863217">
        <ele>163.527</ele>
        <time>1970-01-01T01:00:00Z</time>
      </trkpt>
      <trkpt lat="63.4050095" lon="10.47865133">
        <ele>163.527</ele>
        <time>1970-01-01T01:00:00Z</time>
      </trkpt>
      <trkpt lat="63.40502667" lon="10.4786655">
        <ele>163.375</ele>
        <time>1970-01-01T01:00:00Z</time>
      </trkpt>
      <trkpt lat="63.40504383" lon="10.47868067">
        <ele>163.375</ele>
        <time>1970-01-01T01:00:00Z</time>
      </trkpt>
      <trkpt lat="63.40505933" lon="10.47869333">
        <ele>163.375</ele>
        <time>1970-01-01T01:00:00Z</time>
      </trkpt>
      <trkpt lat="63.4050745" lon="10.47870567">
        <ele>163.375</ele>
        <time>1970-01-01T01:00:00Z</time>
      </trkpt>
      <trkpt lat="63.4050905" lon="10.47871783">
        <ele>163.222</ele>
        <time>1970-01-01T01:00:00Z</time>
      </trkpt>
      <trkpt lat="63.40510583" lon="10.47873067">
        <ele>163.222</ele>
        <time>1970-01-01T01:00:00Z</time>
      </trkpt>
      <trkpt lat="63.40512133" lon="10.47874383">
        <ele>163.07</ele>
        <time>1970-01-01T01:00:00Z</time>
      </trkpt>
      <trkpt lat="63.4051365" lon="10.478756">
        <ele>163.07</ele>
        <time>1970-01-01T01:00:00Z</time>
      </trkpt>
      <trkpt lat="63.4051515" lon="10.47876833">
        <ele>163.07</ele>
        <time>1970-01-01T01:00:00Z</time>
      </trkpt>
      <trkpt lat="63.4051655" lon="10.4787815">
        <ele>163.07</ele>
        <time>1970-01-01T01:00:00Z</time>
      </trkpt>
      <trkpt lat="63.40517883" lon="10.4787945">
        <ele>162.918</ele>
        <time>1970-01-01T01:00:00Z</time>
      </trkpt>
      <trkpt lat="63.405193" lon="10.47880617">
        <ele>162.918</ele>
        <time>1970-01-01T01:00:00Z</time>
      </trkpt>
      <trkpt lat="63.40521083" lon="10.4788145">
        <ele>162.765</ele>
        <time>1970-01-01T01:00:00Z</time>
      </trkpt>
      <trkpt lat="63.40523017" lon="10.478822">
        <ele>162.765</ele>
        <time>1970-01-01T01:00:00Z</time>
      </trkpt>
      <trkpt lat="63.4052495" lon="10.47882817">
        <ele>162.613</ele>
        <time>1970-01-01T01:00:00Z</time>
      </trkpt>
      <trkpt lat="63.40526617" lon="10.47883383">
        <ele>162.613</ele>
        <time>1970-01-01T01:00:00Z</time>
      </trkpt>
      <trkpt lat="63.4052815" lon="10.47883767">
        <ele>162.46</ele>
        <time>1970-01-01T01:00:00Z</time>
      </trkpt>
      <trkpt lat="63.40529617" lon="10.47884017">
        <ele>162.46</ele>
        <time>1970-01-01T01:00:00Z</time>
      </trkpt>
      <trkpt lat="63.40531033" lon="10.47884533">
        <ele>162.46</ele>
        <time>1970-01-01T01:00:00Z</time>
      </trkpt>
      <trkpt lat="63.40532367" lon="10.47885433">
        <ele>162.46</ele>
        <time>1970-01-01T01:00:00Z</time>
      </trkpt>
      <trkpt lat="63.40533733" lon="10.4788645">
        <ele>162.308</ele>
        <time>1970-01-01T01:00:00Z</time>
      </trkpt>
      <trkpt lat="63.40535183" lon="10.47887183">
        <ele>162.308</ele>
        <time>1970-01-01T01:00:00Z</time>
      </trkpt>
      <trkpt lat="63.4053675" lon="10.47887633">
        <ele>162.308</ele>
        <time>1970-01-01T01:00:00Z</time>
      </trkpt>
      <trkpt lat="63.40538283" lon="10.47887917">
        <ele>162.308</ele>
        <time>1970-01-01T01:00:00Z</time>
      </trkpt>
      <trkpt lat="63.40539733" lon="10.4788835">
        <ele>162.156</ele>
        <time>1970-01-01T01:00:00Z</time>
      </trkpt>
      <trkpt lat="63.40541217" lon="10.47888883">
        <ele>162.156</ele>
        <time>1970-01-01T01:00:00Z</time>
      </trkpt>
      <trkpt lat="63.40542733" lon="10.4788955">
        <ele>162.003</ele>
        <time>1970-01-01T01:00:00Z</time>
      </trkpt>
      <trkpt lat="63.405443" lon="10.47890267">
        <ele>162.003</ele>
        <time>1970-01-01T01:00:00Z</time>
      </trkpt>
      <trkpt lat="63.405457" lon="10.478908">
        <ele>161.851</ele>
        <time>1970-01-01T01:00:00Z</time>
      </trkpt>
      <trkpt lat="63.40546767" lon="10.47891367">
        <ele>161.851</ele>
        <time>1970-01-01T01:00:00Z</time>
      </trkpt>
      <trkpt lat="63.40548" lon="10.47892">
        <ele>161.851</ele>
        <time>1970-01-01T01:00:00Z</time>
      </trkpt>
      <trkpt lat="63.4054935" lon="10.47892533">
        <ele>161.851</ele>
        <time>1970-01-01T01:00:00Z</time>
      </trkpt>
      <trkpt lat="63.40550917" lon="10.47892867">
        <ele>161.698</ele>
        <time>1970-01-01T01:00:00Z</time>
      </trkpt>
      <trkpt lat="63.40552367" lon="10.47893033">
        <ele>161.698</ele>
        <time>1970-01-01T01:00:00Z</time>
      </trkpt>
      <trkpt lat="63.4055385" lon="10.47893383">
        <ele>161.546</ele>
        <time>1970-01-01T01:00:00Z</time>
      </trkpt>
      <trkpt lat="63.40555483" lon="10.47893967">
        <ele>161.546</ele>
        <time>1970-01-01T01:00:00Z</time>
      </trkpt>
      <trkpt lat="63.405571" lon="10.47894583">
        <ele>161.394</ele>
        <time>1970-01-01T01:00:00Z</time>
      </trkpt>
      <trkpt lat="63.40558717" lon="10.47895233">
        <ele>161.394</ele>
        <time>1970-01-01T01:00:00Z</time>
      </trkpt>
      <trkpt lat="63.40560367" lon="10.47895967">
        <ele>161.394</ele>
        <time>1970-01-01T01:00:00Z</time>
      </trkpt>
      <trkpt lat="63.4056195" lon="10.4789665">
        <ele>161.394</ele>
        <time>1970-01-01T01:00:00Z</time>
      </trkpt>
      <trkpt lat="63.40563583" lon="10.47897233">
        <ele>161.241</ele>
        <time>1970-01-01T01:00:00Z</time>
      </trkpt>
      <trkpt lat="63.40565167" lon="10.47897883">
        <ele>161.241</ele>
        <time>1970-01-01T01:00:00Z</time>
      </trkpt>
      <trkpt lat="63.40566767" lon="10.47898683">
        <ele>161.089</ele>
        <time>1970-01-01T01:00:00Z</time>
      </trkpt>
      <trkpt lat="63.405683" lon="10.47899583">
        <ele>161.089</ele>
        <time>1970-01-01T01:00:00Z</time>
      </trkpt>
      <trkpt lat="63.40569783" lon="10.47900583">
        <ele>161.089</ele>
        <time>1970-01-01T01:00:00Z</time>
      </trkpt>
      <trkpt lat="63.40571267" lon="10.479017">
        <ele>161.089</ele>
        <time>1970-01-01T01:00:00Z</time>
      </trkpt>
      <trkpt lat="63.4057285" lon="10.4790285">
        <ele>160.936</ele>
        <time>1970-01-01T01:00:00Z</time>
      </trkpt>
      <trkpt lat="63.4057455" lon="10.47903883">
        <ele>160.936</ele>
        <time>1970-01-01T01:00:00Z</time>
      </trkpt>
      <trkpt lat="63.40576433" lon="10.47905033">
        <ele>160.784</ele>
        <time>1970-01-01T01:00:00Z</time>
      </trkpt>
      <trkpt lat="63.405781" lon="10.4790635">
        <ele>160.784</ele>
        <time>1970-01-01T01:00:00Z</time>
      </trkpt>
      <trkpt lat="63.40579683" lon="10.4790765">
        <ele>160.784</ele>
        <time>1970-01-01T01:00:00Z</time>
      </trkpt>
      <trkpt lat="63.40581033" lon="10.479085">
        <ele>160.784</ele>
        <time>1970-01-01T01:00:00Z</time>
      </trkpt>
      <trkpt lat="63.40582483" lon="10.479092">
        <ele>160.632</ele>
        <time>1970-01-01T01:00:00Z</time>
      </trkpt>
      <trkpt lat="63.40583867" lon="10.47909817">
        <ele>160.632</ele>
        <time>1970-01-01T01:00:00Z</time>
      </trkpt>
      <trkpt lat="63.40585233" lon="10.47910683">
        <ele>160.632</ele>
        <time>1970-01-01T01:00:00Z</time>
      </trkpt>
      <trkpt lat="63.40586583" lon="10.479116">
        <ele>160.632</ele>
        <time>1970-01-01T01:00:00Z</time>
      </trkpt>
      <trkpt lat="63.405879" lon="10.47912483">
        <ele>160.632</ele>
        <time>1970-01-01T01:00:00Z</time>
      </trkpt>
      <trkpt lat="63.40589233" lon="10.47913383">
        <ele>160.632</ele>
        <time>1970-01-01T01:00:00Z</time>
      </trkpt>
      <trkpt lat="63.40590767" lon="10.479144">
        <ele>160.479</ele>
        <time>1970-01-01T01:00:00Z</time>
      </trkpt>
      <trkpt lat="63.40592367" lon="10.47915367">
        <ele>160.479</ele>
        <time>1970-01-01T01:00:00Z</time>
      </trkpt>
      <trkpt lat="63.40594017" lon="10.47916267">
        <ele>160.479</ele>
        <time>1970-01-01T01:00:00Z</time>
      </trkpt>
      <trkpt lat="63.40595683" lon="10.47916967">
        <ele>160.479</ele>
        <time>1970-01-01T01:00:00Z</time>
      </trkpt>
      <trkpt lat="63.405972" lon="10.4791745">
        <ele>160.479</ele>
        <time>1970-01-01T01:00:00Z</time>
      </trkpt>
      <trkpt lat="63.40598917" lon="10.47918117">
        <ele>160.479</ele>
        <time>1970-01-01T01:00:00Z</time>
      </trkpt>
      <trkpt lat="63.4060065" lon="10.47918683">
        <ele>160.479</ele>
        <time>1970-01-01T01:00:00Z</time>
      </trkpt>
      <trkpt lat="63.40602517" lon="10.4791935">
        <ele>160.479</ele>
        <time>1970-01-01T01:00:00Z</time>
      </trkpt>
      <trkpt lat="63.40604217" lon="10.47919633">
        <ele>160.479</ele>
        <time>1970-01-01T01:00:00Z</time>
      </trkpt>
      <trkpt lat="63.4060585" lon="10.47920033">
        <ele>160.479</ele>
        <time>1970-01-01T01:00:00Z</time>
      </trkpt>
      <trkpt lat="63.40607533" lon="10.479206">
        <ele>160.479</ele>
        <time>1970-01-01T01:00:00Z</time>
      </trkpt>
      <trkpt lat="63.406091" lon="10.479213">
        <ele>160.479</ele>
        <time>1970-01-01T01:00:00Z</time>
      </trkpt>
      <trkpt lat="63.4061055" lon="10.4792205">
        <ele>160.327</ele>
        <time>1970-01-01T01:00:00Z</time>
      </trkpt>
      <trkpt lat="63.40611883" lon="10.47922717">
        <ele>160.327</ele>
        <time>1970-01-01T01:00:00Z</time>
      </trkpt>
      <trkpt lat="63.406133" lon="10.479234">
        <ele>160.327</ele>
        <time>1970-01-01T01:00:00Z</time>
      </trkpt>
      <trkpt lat="63.40614867" lon="10.47924117">
        <ele>160.327</ele>
        <time>1970-01-01T01:00:00Z</time>
      </trkpt>
      <trkpt lat="63.406166" lon="10.47924733">
        <ele>160.327</ele>
        <time>1970-01-01T01:00:00Z</time>
      </trkpt>
      <trkpt lat="63.4061835" lon="10.47925283">
        <ele>160.327</ele>
        <time>1970-01-01T01:00:00Z</time>
      </trkpt>
      <trkpt lat="63.40620033" lon="10.47925983">
        <ele>160.327</ele>
        <time>1970-01-01T01:00:00Z</time>
      </trkpt>
      <trkpt lat="63.40621683" lon="10.479267">
        <ele>160.327</ele>
        <time>1970-01-01T01:00:00Z</time>
      </trkpt>
      <trkpt lat="63.4062335" lon="10.479276">
        <ele>160.327</ele>
        <time>1970-01-01T01:00:00Z</time>
      </trkpt>
      <trkpt lat="63.40624883" lon="10.47928117">
        <ele>160.327</ele>
        <time>1970-01-01T01:00:00Z</time>
      </trkpt>
      <trkpt lat="63.40626317" lon="10.4792865">
        <ele>160.327</ele>
        <time>1970-01-01T01:00:00Z</time>
      </trkpt>
      <trkpt lat="63.40627667" lon="10.47928917">
        <ele>160.327</ele>
        <time>1970-01-01T01:00:00Z</time>
      </trkpt>
      <trkpt lat="63.40629133" lon="10.47929333">
        <ele>160.327</ele>
        <time>1970-01-01T01:00:00Z</time>
      </trkpt>
      <trkpt lat="63.40630633" lon="10.47929783">
        <ele>160.327</ele>
        <time>1970-01-01T01:00:00Z</time>
      </trkpt>
      <trkpt lat="63.40632083" lon="10.4793035">
        <ele>160.327</ele>
        <time>1970-01-01T01:00:00Z</time>
      </trkpt>
      <trkpt lat="63.40633633" lon="10.4793115">
        <ele>160.327</ele>
        <time>1970-01-01T01:00:00Z</time>
      </trkpt>
      <trkpt lat="63.4063505" lon="10.47932033">
        <ele>160.327</ele>
        <time>1970-01-01T01:00:00Z</time>
      </trkpt>
      <trkpt lat="63.406365" lon="10.4793285">
        <ele>160.327</ele>
        <time>1970-01-01T01:00:00Z</time>
      </trkpt>
      <trkpt lat="63.40637833" lon="10.47933317">
        <ele>160.327</ele>
        <time>1970-01-01T01:00:00Z</time>
      </trkpt>
      <trkpt lat="63.40639367" lon="10.47933867">
        <ele>160.327</ele>
        <time>1970-01-01T01:00:00Z</time>
      </trkpt>
      <trkpt lat="63.40640967" lon="10.479346">
        <ele>160.327</ele>
        <time>1970-01-01T01:00:00Z</time>
      </trkpt>
      <trkpt lat="63.40642667" lon="10.4793565">
        <ele>160.327</ele>
        <time>1970-01-01T01:00:00Z</time>
      </trkpt>
      <trkpt lat="63.4064435" lon="10.479365">
        <ele>160.327</ele>
        <time>1970-01-01T01:00:00Z</time>
      </trkpt>
      <trkpt lat="63.4064595" lon="10.4793735">
        <ele>160.327</ele>
        <time>1970-01-01T01:00:00Z</time>
      </trkpt>
      <trkpt lat="63.406475" lon="10.47937867">
        <ele>160.327</ele>
        <time>1970-01-01T01:00:00Z</time>
      </trkpt>
      <trkpt lat="63.40649" lon="10.47938817">
        <ele>160.327</ele>
        <time>1970-01-01T01:00:00Z</time>
      </trkpt>
      <trkpt lat="63.406505" lon="10.47939417">
        <ele>160.327</ele>
        <time>1970-01-01T01:00:00Z</time>
      </trkpt>
      <trkpt lat="63.40652167" lon="10.47940033">
        <ele>160.327</ele>
        <time>1970-01-01T01:00:00Z</time>
      </trkpt>
      <trkpt lat="63.40653883" lon="10.4794015">
        <ele>160.327</ele>
        <time>1970-01-01T01:00:00Z</time>
      </trkpt>
      <trkpt lat="63.4065565" lon="10.479406">
        <ele>160.327</ele>
        <time>1970-01-01T01:00:00Z</time>
      </trkpt>
      <trkpt lat="63.40657283" lon="10.47941067">
        <ele>160.479</ele>
        <time>1970-01-01T01:00:00Z</time>
      </trkpt>
      <trkpt lat="63.40658883" lon="10.47941717">
        <ele>160.479</ele>
        <time>1970-01-01T01:00:00Z</time>
      </trkpt>
      <trkpt lat="63.40660417" lon="10.4794225">
        <ele>160.479</ele>
        <time>1970-01-01T01:00:00Z</time>
      </trkpt>
      <trkpt lat="63.4066195" lon="10.47943117">
        <ele>160.479</ele>
        <time>1970-01-01T01:00:00Z</time>
      </trkpt>
      <trkpt lat="63.40663467" lon="10.47943767">
        <ele>160.479</ele>
        <time>1970-01-01T01:00:00Z</time>
      </trkpt>
      <trkpt lat="63.40665067" lon="10.47944183">
        <ele>160.479</ele>
        <time>1970-01-01T01:00:00Z</time>
      </trkpt>
      <trkpt lat="63.40666583" lon="10.47944283">
        <ele>160.479</ele>
        <time>1970-01-01T01:00:00Z</time>
      </trkpt>
      <trkpt lat="63.4066805" lon="10.4794435">
        <ele>160.479</ele>
        <time>1970-01-01T01:00:00Z</time>
      </trkpt>
      <trkpt lat="63.40669433" lon="10.479445">
        <ele>160.479</ele>
        <time>1970-01-01T01:00:00Z</time>
      </trkpt>
      <trkpt lat="63.406708" lon="10.47944567">
        <ele>160.479</ele>
        <time>1970-01-01T01:00:00Z</time>
      </trkpt>
      <trkpt lat="63.4067215" lon="10.47944633">
        <ele>160.479</ele>
        <time>1970-01-01T01:00:00Z</time>
      </trkpt>
      <trkpt lat="63.4067365" lon="10.47944683">
        <ele>160.479</ele>
        <time>1970-01-01T01:00:00Z</time>
      </trkpt>
      <trkpt lat="63.40675283" lon="10.47944717">
        <ele>160.479</ele>
        <time>1970-01-01T01:00:00Z</time>
      </trkpt>
      <trkpt lat="63.4067685" lon="10.47944367">
        <ele>160.479</ele>
        <time>1970-01-01T01:00:00Z</time>
      </trkpt>
      <trkpt lat="63.40678317" lon="10.47943783">
        <ele>160.479</ele>
        <time>1970-01-01T01:00:00Z</time>
      </trkpt>
      <trkpt lat="63.40679717" lon="10.4794305">
        <ele>160.479</ele>
        <time>1970-01-01T01:00:00Z</time>
      </trkpt>
      <trkpt lat="63.406812" lon="10.47942483">
        <ele>160.632</ele>
        <time>1970-01-01T01:00:00Z</time>
      </trkpt>
      <trkpt lat="63.4068275" lon="10.47941517">
        <ele>160.632</ele>
        <time>1970-01-01T01:00:00Z</time>
      </trkpt>
      <trkpt lat="63.4068435" lon="10.47940567">
        <ele>160.632</ele>
        <time>1970-01-01T01:00:00Z</time>
      </trkpt>
      <trkpt lat="63.40686033" lon="10.47939683">
        <ele>160.632</ele>
        <time>1970-01-01T01:00:00Z</time>
      </trkpt>
      <trkpt lat="63.4068775" lon="10.47939">
        <ele>160.632</ele>
        <time>1970-01-01T01:00:00Z</time>
      </trkpt>
      <trkpt lat="63.40689383" lon="10.47938167">
        <ele>160.632</ele>
        <time>1970-01-01T01:00:00Z</time>
      </trkpt>
      <trkpt lat="63.406909" lon="10.479372">
        <ele>160.632</ele>
        <time>1970-01-01T01:00:00Z</time>
      </trkpt>
      <trkpt lat="63.4069245" lon="10.47936167">
        <ele>160.632</ele>
        <time>1970-01-01T01:00:00Z</time>
      </trkpt>
      <trkpt lat="63.40694083" lon="10.47934867">
        <ele>160.632</ele>
        <time>1970-01-01T01:00:00Z</time>
      </trkpt>
      <trkpt lat="63.40695683" lon="10.47933383">
        <ele>160.632</ele>
        <time>1970-01-01T01:00:00Z</time>
      </trkpt>
      <trkpt lat="63.40697233" lon="10.47931933">
        <ele>160.632</ele>
        <time>1970-01-01T01:00:00Z</time>
      </trkpt>
      <trkpt lat="63.4069875" lon="10.4793065">
        <ele>160.632</ele>
        <time>1970-01-01T01:00:00Z</time>
      </trkpt>
      <trkpt lat="63.40700317" lon="10.47929433">
        <ele>160.632</ele>
        <time>1970-01-01T01:00:00Z</time>
      </trkpt>
      <trkpt lat="63.40701733" lon="10.47928333">
        <ele>160.632</ele>
        <time>1970-01-01T01:00:00Z</time>
      </trkpt>
      <trkpt lat="63.4070315" lon="10.4792745">
        <ele>160.632</ele>
        <time>1970-01-01T01:00:00Z</time>
      </trkpt>
      <trkpt lat="63.407046" lon="10.47926467">
        <ele>160.632</ele>
        <time>1970-01-01T01:00:00Z</time>
      </trkpt>
      <trkpt lat="63.40706217" lon="10.47925367">
        <ele>160.784</ele>
        <time>1970-01-01T01:00:00Z</time>
      </trkpt>
      <trkpt lat="63.40707917" lon="10.47924067">
        <ele>160.784</ele>
        <time>1970-01-01T01:00:00Z</time>
      </trkpt>
      <trkpt lat="63.40709633" lon="10.4792295">
        <ele>160.784</ele>
        <time>1970-01-01T01:00:00Z</time>
      </trkpt>
      <trkpt lat="63.40711217" lon="10.47921733">
        <ele>160.784</ele>
        <time>1970-01-01T01:00:00Z</time>
      </trkpt>
      <trkpt lat="63.4071265" lon="10.479205">
        <ele>160.784</ele>
        <time>1970-01-01T01:00:00Z</time>
      </trkpt>
      <trkpt lat="63.4071405" lon="10.4791905">
        <ele>160.784</ele>
        <time>1970-01-01T01:00:00Z</time>
      </trkpt>
      <trkpt lat="63.40715567" lon="10.47917533">
        <ele>160.936</ele>
        <time>1970-01-01T01:00:00Z</time>
      </trkpt>
      <trkpt lat="63.40717117" lon="10.47916033">
        <ele>160.936</ele>
        <time>1970-01-01T01:00:00Z</time>
      </trkpt>
      <trkpt lat="63.40718667" lon="10.4791455">
        <ele>160.936</ele>
        <time>1970-01-01T01:00:00Z</time>
      </trkpt>
      <trkpt lat="63.407201" lon="10.47913">
        <ele>160.936</ele>
        <time>1970-01-01T01:00:00Z</time>
      </trkpt>
      <trkpt lat="63.407216" lon="10.47911067">
        <ele>160.936</ele>
        <time>1970-01-01T01:00:00Z</time>
      </trkpt>
      <trkpt lat="63.4072285" lon="10.47909133">
        <ele>160.936</ele>
        <time>1970-01-01T01:00:00Z</time>
      </trkpt>
      <trkpt lat="63.40724383" lon="10.479065">
        <ele>160.936</ele>
        <time>1970-01-01T01:00:00Z</time>
      </trkpt>
      <trkpt lat="63.40725783" lon="10.4790375">
        <ele>160.936</ele>
        <time>1970-01-01T01:00:00Z</time>
      </trkpt>
      <trkpt lat="63.40727417" lon="10.479007">
        <ele>161.089</ele>
        <time>1970-01-01T01:00:00Z</time>
      </trkpt>
      <trkpt lat="63.40728633" lon="10.478983">
        <ele>161.089</ele>
        <time>1970-01-01T01:00:00Z</time>
      </trkpt>
      <trkpt lat="63.40729767" lon="10.47896117">
        <ele>161.089</ele>
        <time>1970-01-01T01:00:00Z</time>
      </trkpt>
      <trkpt lat="63.40730833" lon="10.47893833">
        <ele>161.089</ele>
        <time>1970-01-01T01:00:00Z</time>
      </trkpt>
      <trkpt lat="63.40731967" lon="10.478915">
        <ele>161.089</ele>
        <time>1970-01-01T01:00:00Z</time>
      </trkpt>
      <trkpt lat="63.40733133" lon="10.47889183">
        <ele>161.089</ele>
        <time>1970-01-01T01:00:00Z</time>
      </trkpt>
      <trkpt lat="63.40734317" lon="10.478869">
        <ele>161.241</ele>
        <time>1970-01-01T01:00:00Z</time>
      </trkpt>
      <trkpt lat="63.407356" lon="10.47884467">
        <ele>161.241</ele>
        <time>1970-01-01T01:00:00Z</time>
      </trkpt>
      <trkpt lat="63.40736867" lon="10.478819">
        <ele>161.241</ele>
        <time>1970-01-01T01:00:00Z</time>
      </trkpt>
      <trkpt lat="63.407382" lon="10.47879467">
        <ele>161.241</ele>
        <time>1970-01-01T01:00:00Z</time>
      </trkpt>
      <trkpt lat="63.4073945" lon="10.47877117">
        <ele>161.241</ele>
        <time>1970-01-01T01:00:00Z</time>
      </trkpt>
      <trkpt lat="63.40740783" lon="10.47875083">
        <ele>161.241</ele>
        <time>1970-01-01T01:00:00Z</time>
      </trkpt>
      <trkpt lat="63.40741933" lon="10.478731">
        <ele>161.241</ele>
        <time>1970-01-01T01:00:00Z</time>
      </trkpt>
      <trkpt lat="63.40743017" lon="10.47871083">
        <ele>161.241</ele>
        <time>1970-01-01T01:00:00Z</time>
      </trkpt>
      <trkpt lat="63.4074405" lon="10.47868983">
        <ele>161.241</ele>
        <time>1970-01-01T01:00:00Z</time>
      </trkpt>
      <trkpt lat="63.40745167" lon="10.4786685">
        <ele>161.241</ele>
        <time>1970-01-01T01:00:00Z</time>
      </trkpt>
      <trkpt lat="63.40746367" lon="10.47865233">
        <ele>161.241</ele>
        <time>1970-01-01T01:00:00Z</time>
      </trkpt>
      <trkpt lat="63.40747667" lon="10.47863317">
        <ele>161.241</ele>
        <time>1970-01-01T01:00:00Z</time>
      </trkpt>
      <trkpt lat="63.40749017" lon="10.47860983">
        <ele>161.241</ele>
        <time>1970-01-01T01:00:00Z</time>
      </trkpt>
      <trkpt lat="63.40750267" lon="10.4785825">
        <ele>161.241</ele>
        <time>1970-01-01T01:00:00Z</time>
      </trkpt>
      <trkpt lat="63.4075145" lon="10.47855867">
        <ele>161.241</ele>
        <time>1970-01-01T01:00:00Z</time>
      </trkpt>
      <trkpt lat="63.40752733" lon="10.47853883">
        <ele>161.241</ele>
        <time>1970-01-01T01:00:00Z</time>
      </trkpt>
      <trkpt lat="63.40754033" lon="10.47851883">
        <ele>161.241</ele>
        <time>1970-01-01T01:00:00Z</time>
      </trkpt>
      <trkpt lat="63.4075535" lon="10.4784965">
        <ele>161.241</ele>
        <time>1970-01-01T01:00:00Z</time>
      </trkpt>
      <trkpt lat="63.40756617" lon="10.47847283">
        <ele>161.394</ele>
        <time>1970-01-01T01:00:00Z</time>
      </trkpt>
      <trkpt lat="63.40757933" lon="10.4784465">
        <ele>161.394</ele>
        <time>1970-01-01T01:00:00Z</time>
      </trkpt>
      <trkpt lat="63.40759033" lon="10.47841817">
        <ele>161.394</ele>
        <time>1970-01-01T01:00:00Z</time>
      </trkpt>
      <trkpt lat="63.407598" lon="10.47838717">
        <ele>161.394</ele>
        <time>1970-01-01T01:00:00Z</time>
      </trkpt>
      <trkpt lat="63.40760317" lon="10.47835467">
        <ele>161.394</ele>
        <time>1970-01-01T01:00:00Z</time>
      </trkpt>
      <trkpt lat="63.40760817" lon="10.478322">
        <ele>161.394</ele>
        <time>1970-01-01T01:00:00Z</time>
      </trkpt>
      <trkpt lat="63.40761383" lon="10.478289">
        <ele>161.546</ele>
        <time>1970-01-01T01:00:00Z</time>
      </trkpt>
      <trkpt lat="63.407618" lon="10.4782575">
        <ele>161.546</ele>
        <time>1970-01-01T01:00:00Z</time>
      </trkpt>
      <trkpt lat="63.40761967" lon="10.47822483">
        <ele>161.546</ele>
        <time>1970-01-01T01:00:00Z</time>
      </trkpt>
      <trkpt lat="63.40762167" lon="10.47819167">
        <ele>161.546</ele>
        <time>1970-01-01T01:00:00Z</time>
      </trkpt>
      <trkpt lat="63.40762267" lon="10.4781585">
        <ele>161.698</ele>
        <time>1970-01-01T01:00:00Z</time>
      </trkpt>
      <trkpt lat="63.4076245" lon="10.47812583">
        <ele>161.698</ele>
        <time>1970-01-01T01:00:00Z</time>
      </trkpt>
      <trkpt lat="63.40762383" lon="10.4780955">
        <ele>161.698</ele>
        <time>1970-01-01T01:00:00Z</time>
      </trkpt>
      <trkpt lat="63.40762183" lon="10.47806067">
        <ele>161.698</ele>
        <time>1970-01-01T01:00:00Z</time>
      </trkpt>
      <trkpt lat="63.40762083" lon="10.47802383">
        <ele>161.851</ele>
        <time>1970-01-01T01:00:00Z</time>
      </trkpt>
      <trkpt lat="63.4076195" lon="10.4779835">
        <ele>161.851</ele>
        <time>1970-01-01T01:00:00Z</time>
      </trkpt>
      <trkpt lat="63.40762033" lon="10.4779445">
        <ele>161.851</ele>
        <time>1970-01-01T01:00:00Z</time>
      </trkpt>
      <trkpt lat="63.407619" lon="10.47790717">
        <ele>161.851</ele>
        <time>1970-01-01T01:00:00Z</time>
      </trkpt>
      <trkpt lat="63.40761917" lon="10.47787033">
        <ele>162.003</ele>
        <time>1970-01-01T01:00:00Z</time>
      </trkpt>
      <trkpt lat="63.4076185" lon="10.477831">
        <ele>162.003</ele>
        <time>1970-01-01T01:00:00Z</time>
      </trkpt>
      <trkpt lat="63.4076195" lon="10.47779567">
        <ele>162.003</ele>
        <time>1970-01-01T01:00:00Z</time>
      </trkpt>
      <trkpt lat="63.40762133" lon="10.47776067">
        <ele>162.003</ele>
        <time>1970-01-01T01:00:00Z</time>
      </trkpt>
      <trkpt lat="63.40762133" lon="10.4777255">
        <ele>162.003</ele>
        <time>1970-01-01T01:00:00Z</time>
      </trkpt>
      <trkpt lat="63.40762167" lon="10.47768533">
        <ele>162.003</ele>
        <time>1970-01-01T01:00:00Z</time>
      </trkpt>
      <trkpt lat="63.40762133" lon="10.47764583">
        <ele>162.156</ele>
        <time>1970-01-01T01:00:00Z</time>
      </trkpt>
      <trkpt lat="63.40762317" lon="10.47761133">
        <ele>162.156</ele>
        <time>1970-01-01T01:00:00Z</time>
      </trkpt>
      <trkpt lat="63.40762433" lon="10.47757833">
        <ele>162.156</ele>
        <time>1970-01-01T01:00:00Z</time>
      </trkpt>
      <trkpt lat="63.40762517" lon="10.477545">
        <ele>162.156</ele>
        <time>1970-01-01T01:00:00Z</time>
      </trkpt>
      <trkpt lat="63.40762533" lon="10.47750967">
        <ele>162.308</ele>
        <time>1970-01-01T01:00:00Z</time>
      </trkpt>
      <trkpt lat="63.40762467" lon="10.47747417">
        <ele>162.308</ele>
        <time>1970-01-01T01:00:00Z</time>
      </trkpt>
      <trkpt lat="63.407624" lon="10.47743717">
        <ele>162.308</ele>
        <time>1970-01-01T01:00:00Z</time>
      </trkpt>
      <trkpt lat="63.40762433" lon="10.4773985">
        <ele>162.308</ele>
        <time>1970-01-01T01:00:00Z</time>
      </trkpt>
      <trkpt lat="63.40762533" lon="10.47735767">
        <ele>162.308</ele>
        <time>1970-01-01T01:00:00Z</time>
      </trkpt>
      <trkpt lat="63.4076255" lon="10.47731567">
        <ele>162.308</ele>
        <time>1970-01-01T01:00:00Z</time>
      </trkpt>
      <trkpt lat="63.40762783" lon="10.47727917">
        <ele>162.46</ele>
        <time>1970-01-01T01:00:00Z</time>
      </trkpt>
      <trkpt lat="63.40762933" lon="10.47724267">
        <ele>162.46</ele>
        <time>1970-01-01T01:00:00Z</time>
      </trkpt>
      <trkpt lat="63.40763067" lon="10.47721117">
        <ele>162.46</ele>
        <time>1970-01-01T01:00:00Z</time>
      </trkpt>
      <trkpt lat="63.40762917" lon="10.47717683">
        <ele>162.46</ele>
        <time>1970-01-01T01:00:00Z</time>
      </trkpt>
      <trkpt lat="63.4076285" lon="10.47714167">
        <ele>162.613</ele>
        <time>1970-01-01T01:00:00Z</time>
      </trkpt>
      <trkpt lat="63.40762983" lon="10.47710483">
        <ele>162.613</ele>
        <time>1970-01-01T01:00:00Z</time>
      </trkpt>
      <trkpt lat="63.407632" lon="10.47706733">
        <ele>162.613</ele>
        <time>1970-01-01T01:00:00Z</time>
      </trkpt>
      <trkpt lat="63.40763333" lon="10.47703233">
        <ele>162.613</ele>
        <time>1970-01-01T01:00:00Z</time>
      </trkpt>
      <trkpt lat="63.40763433" lon="10.4769965">
        <ele>162.613</ele>
        <time>1970-01-01T01:00:00Z</time>
      </trkpt>
      <trkpt lat="63.40763283" lon="10.47696083">
        <ele>162.613</ele>
        <time>1970-01-01T01:00:00Z</time>
      </trkpt>
      <trkpt lat="63.40763217" lon="10.476927">
        <ele>162.613</ele>
        <time>1970-01-01T01:00:00Z</time>
      </trkpt>
      <trkpt lat="63.4076315" lon="10.4768935">
        <ele>162.613</ele>
        <time>1970-01-01T01:00:00Z</time>
      </trkpt>
      <trkpt lat="63.40763433" lon="10.4768595">
        <ele>162.765</ele>
        <time>1970-01-01T01:00:00Z</time>
      </trkpt>
      <trkpt lat="63.407638" lon="10.47682383">
        <ele>162.765</ele>
        <time>1970-01-01T01:00:00Z</time>
      </trkpt>
      <trkpt lat="63.4076435" lon="10.47678883">
        <ele>162.765</ele>
        <time>1970-01-01T01:00:00Z</time>
      </trkpt>
      <trkpt lat="63.40764733" lon="10.47675617">
        <ele>162.765</ele>
        <time>1970-01-01T01:00:00Z</time>
      </trkpt>
      <trkpt lat="63.40764983" lon="10.47672317">
        <ele>162.765</ele>
        <time>1970-01-01T01:00:00Z</time>
      </trkpt>
      <trkpt lat="63.4076495" lon="10.47668933">
        <ele>162.765</ele>
        <time>1970-01-01T01:00:00Z</time>
      </trkpt>
      <trkpt lat="63.40765" lon="10.476652">
        <ele>162.765</ele>
        <time>1970-01-01T01:00:00Z</time>
      </trkpt>
      <trkpt lat="63.40765083" lon="10.47661467">
        <ele>162.765</ele>
        <time>1970-01-01T01:00:00Z</time>
      </trkpt>
      <trkpt lat="63.40765233" lon="10.47657533">
        <ele>162.918</ele>
        <time>1970-01-01T01:00:00Z</time>
      </trkpt>
      <trkpt lat="63.407654" lon="10.4765355">
        <ele>162.918</ele>
        <time>1970-01-01T01:00:00Z</time>
      </trkpt>
      <trkpt lat="63.40765583" lon="10.47649717">
        <ele>162.918</ele>
        <time>1970-01-01T01:00:00Z</time>
      </trkpt>
      <trkpt lat="63.407657" lon="10.47646133">
        <ele>162.918</ele>
        <time>1970-01-01T01:00:00Z</time>
      </trkpt>
      <trkpt lat="63.4076585" lon="10.47642717">
        <ele>162.918</ele>
        <time>1970-01-01T01:00:00Z</time>
      </trkpt>
      <trkpt lat="63.407661" lon="10.4763945">
        <ele>162.918</ele>
        <time>1970-01-01T01:00:00Z</time>
      </trkpt>
      <trkpt lat="63.40766583" lon="10.47636283">
        <ele>162.918</ele>
        <time>1970-01-01T01:00:00Z</time>
      </trkpt>
      <trkpt lat="63.407672" lon="10.47632983">
        <ele>162.918</ele>
        <time>1970-01-01T01:00:00Z</time>
      </trkpt>
      <trkpt lat="63.40767767" lon="10.476294">
        <ele>162.918</ele>
        <time>1970-01-01T01:00:00Z</time>
      </trkpt>
      <trkpt lat="63.407681" lon="10.47625683">
        <ele>162.918</ele>
        <time>1970-01-01T01:00:00Z</time>
      </trkpt>
      <trkpt lat="63.40768317" lon="10.47622017">
        <ele>162.918</ele>
        <time>1970-01-01T01:00:00Z</time>
      </trkpt>
      <trkpt lat="63.40768533" lon="10.47618483">
        <ele>162.918</ele>
        <time>1970-01-01T01:00:00Z</time>
      </trkpt>
      <trkpt lat="63.40768967" lon="10.47615083">
        <ele>162.918</ele>
        <time>1970-01-01T01:00:00Z</time>
      </trkpt>
      <trkpt lat="63.407694" lon="10.47611767">
        <ele>162.918</ele>
        <time>1970-01-01T01:00:00Z</time>
      </trkpt>
      <trkpt lat="63.40769783" lon="10.4760865">
        <ele>162.918</ele>
        <time>1970-01-01T01:00:00Z</time>
      </trkpt>
      <trkpt lat="63.40769933" lon="10.4760515">
        <ele>162.918</ele>
        <time>1970-01-01T01:00:00Z</time>
      </trkpt>
      <trkpt lat="63.40770133" lon="10.47601883">
        <ele>162.918</ele>
        <time>1970-01-01T01:00:00Z</time>
      </trkpt>
      <trkpt lat="63.40770267" lon="10.47598">
        <ele>162.918</ele>
        <time>1970-01-01T01:00:00Z</time>
      </trkpt>
      <trkpt lat="63.40770433" lon="10.475941">
        <ele>162.918</ele>
        <time>1970-01-01T01:00:00Z</time>
      </trkpt>
      <trkpt lat="63.4077065" lon="10.47590033">
        <ele>162.918</ele>
        <time>1970-01-01T01:00:00Z</time>
      </trkpt>
      <trkpt lat="63.40770967" lon="10.47586317">
        <ele>162.918</ele>
        <time>1970-01-01T01:00:00Z</time>
      </trkpt>
      <trkpt lat="63.40771433" lon="10.47582933">
        <ele>162.918</ele>
        <time>1970-01-01T01:00:00Z</time>
      </trkpt>
      <trkpt lat="63.40771767" lon="10.47579483">
        <ele>162.918</ele>
        <time>1970-01-01T01:00:00Z</time>
      </trkpt>
      <trkpt lat="63.407721" lon="10.47576067">
        <ele>162.918</ele>
        <time>1970-01-01T01:00:00Z</time>
      </trkpt>
      <trkpt lat="63.40772283" lon="10.47572567">
        <ele>162.765</ele>
        <time>1970-01-01T01:00:00Z</time>
      </trkpt>
      <trkpt lat="63.4077255" lon="10.4756895">
        <ele>162.765</ele>
        <time>1970-01-01T01:00:00Z</time>
      </trkpt>
      <trkpt lat="63.40772817" lon="10.475655">
        <ele>162.765</ele>
        <time>1970-01-01T01:00:00Z</time>
      </trkpt>
      <trkpt lat="63.40773017" lon="10.47562033">
        <ele>162.765</ele>
        <time>1970-01-01T01:00:00Z</time>
      </trkpt>
      <trkpt lat="63.40773133" lon="10.47559317">
        <ele>162.765</ele>
        <time>1970-01-01T01:00:00Z</time>
      </trkpt>
      <trkpt lat="63.407731" lon="10.47556417">
        <ele>162.765</ele>
        <time>1970-01-01T01:00:00Z</time>
      </trkpt>
      <trkpt lat="63.40773217" lon="10.47553267">
        <ele>162.765</ele>
        <time>1970-01-01T01:00:00Z</time>
      </trkpt>
      <trkpt lat="63.40773417" lon="10.4754905">
        <ele>162.765</ele>
        <time>1970-01-01T01:00:00Z</time>
      </trkpt>
      <trkpt lat="63.40773633" lon="10.47545167">
        <ele>162.765</ele>
        <time>1970-01-01T01:00:00Z</time>
      </trkpt>
      <trkpt lat="63.40773783" lon="10.475415">
        <ele>162.765</ele>
        <time>1970-01-01T01:00:00Z</time>
      </trkpt>
      <trkpt lat="63.40773767" lon="10.47538217">
        <ele>162.765</ele>
        <time>1970-01-01T01:00:00Z</time>
      </trkpt>
      <trkpt lat="63.407738" lon="10.47534733">
        <ele>162.765</ele>
        <time>1970-01-01T01:00:00Z</time>
      </trkpt>
      <trkpt lat="63.40773767" lon="10.47531367">
        <ele>162.765</ele>
        <time>1970-01-01T01:00:00Z</time>
      </trkpt>
      <trkpt lat="63.40773783" lon="10.475279">
        <ele>162.765</ele>
        <time>1970-01-01T01:00:00Z</time>
      </trkpt>
      <trkpt lat="63.40773733" lon="10.47524233">
        <ele>162.765</ele>
        <time>1970-01-01T01:00:00Z</time>
      </trkpt>
      <trkpt lat="63.40773683" lon="10.47520367">
        <ele>162.765</ele>
        <time>1970-01-01T01:00:00Z</time>
      </trkpt>
      <trkpt lat="63.4077375" lon="10.47516617">
        <ele>162.918</ele>
        <time>1970-01-01T01:00:00Z</time>
      </trkpt>
      <trkpt lat="63.40773783" lon="10.475131">
        <ele>162.918</ele>
        <time>1970-01-01T01:00:00Z</time>
      </trkpt>
      <trkpt lat="63.407739" lon="10.47509783">
        <ele>162.918</ele>
        <time>1970-01-01T01:00:00Z</time>
      </trkpt>
      <trkpt lat="63.40773867" lon="10.475069">
        <ele>162.918</ele>
        <time>1970-01-01T01:00:00Z</time>
      </trkpt>
      <trkpt lat="63.40773817" lon="10.47503933">
        <ele>162.918</ele>
        <time>1970-01-01T01:00:00Z</time>
      </trkpt>
      <trkpt lat="63.4077375" lon="10.47501">
        <ele>162.918</ele>
        <time>1970-01-01T01:00:00Z</time>
      </trkpt>
      <trkpt lat="63.40773883" lon="10.47497817">
        <ele>162.918</ele>
        <time>1970-01-01T01:00:00Z</time>
      </trkpt>
      <trkpt lat="63.40774167" lon="10.47494217">
        <ele>162.918</ele>
        <time>1970-01-01T01:00:00Z</time>
      </trkpt>
      <trkpt lat="63.40774267" lon="10.47490717">
        <ele>162.918</ele>
        <time>1970-01-01T01:00:00Z</time>
      </trkpt>
      <trkpt lat="63.40774233" lon="10.47486833">
        <ele>162.918</ele>
        <time>1970-01-01T01:00:00Z</time>
      </trkpt>
      <trkpt lat="63.40774033" lon="10.47483517">
        <ele>163.07</ele>
        <time>1970-01-01T01:00:00Z</time>
      </trkpt>
      <trkpt lat="63.40773883" lon="10.4747995">
        <ele>163.07</ele>
        <time>1970-01-01T01:00:00Z</time>
      </trkpt>
      <trkpt lat="63.40773683" lon="10.47476467">
        <ele>163.07</ele>
        <time>1970-01-01T01:00:00Z</time>
      </trkpt>
      <trkpt lat="63.40773567" lon="10.47472867">
        <ele>163.07</ele>
        <time>1970-01-01T01:00:00Z</time>
      </trkpt>
      <trkpt lat="63.40773633" lon="10.4746945">
        <ele>163.07</ele>
        <time>1970-01-01T01:00:00Z</time>
      </trkpt>
      <trkpt lat="63.40773817" lon="10.47466433">
        <ele>163.07</ele>
        <time>1970-01-01T01:00:00Z</time>
      </trkpt>
      <trkpt lat="63.40774133" lon="10.47463417">
        <ele>163.07</ele>
        <time>1970-01-01T01:00:00Z</time>
      </trkpt>
      <trkpt lat="63.40774483" lon="10.47460333">
        <ele>163.07</ele>
        <time>1970-01-01T01:00:00Z</time>
      </trkpt>
      <trkpt lat="63.40774767" lon="10.47457183">
        <ele>163.222</ele>
        <time>1970-01-01T01:00:00Z</time>
      </trkpt>
      <trkpt lat="63.40774833" lon="10.47454183">
        <ele>163.222</ele>
        <time>1970-01-01T01:00:00Z</time>
      </trkpt>
      <trkpt lat="63.4077485" lon="10.47451333">
        <ele>163.222</ele>
        <time>1970-01-01T01:00:00Z</time>
      </trkpt>
      <trkpt lat="63.40774833" lon="10.4744835">
        <ele>163.222</ele>
        <time>1970-01-01T01:00:00Z</time>
      </trkpt>
      <trkpt lat="63.40774833" lon="10.47445483">
        <ele>163.375</ele>
        <time>1970-01-01T01:00:00Z</time>
      </trkpt>
      <trkpt lat="63.40774917" lon="10.47442483">
        <ele>163.375</ele>
        <time>1970-01-01T01:00:00Z</time>
      </trkpt>
      <trkpt lat="63.40775217" lon="10.474394">
        <ele>163.375</ele>
        <time>1970-01-01T01:00:00Z</time>
      </trkpt>
      <trkpt lat="63.40775833" lon="10.47435917">
        <ele>163.375</ele>
        <time>1970-01-01T01:00:00Z</time>
      </trkpt>
      <trkpt lat="63.40776433" lon="10.47432633">
        <ele>163.375</ele>
        <time>1970-01-01T01:00:00Z</time>
      </trkpt>
      <trkpt lat="63.4077705" lon="10.47429433">
        <ele>163.375</ele>
        <time>1970-01-01T01:00:00Z</time>
      </trkpt>
      <trkpt lat="63.407775" lon="10.474263">
        <ele>163.527</ele>
        <time>1970-01-01T01:00:00Z</time>
      </trkpt>
      <trkpt lat="63.40777867" lon="10.47422683">
        <ele>163.527</ele>
        <time>1970-01-01T01:00:00Z</time>
      </trkpt>
      <trkpt lat="63.40777817" lon="10.47418983">
        <ele>163.527</ele>
        <time>1970-01-01T01:00:00Z</time>
      </trkpt>
      <trkpt lat="63.40777467" lon="10.47415417">
        <ele>163.527</ele>
        <time>1970-01-01T01:00:00Z</time>
      </trkpt>
      <trkpt lat="63.40776967" lon="10.47411933">
        <ele>163.527</ele>
        <time>1970-01-01T01:00:00Z</time>
      </trkpt>
      <trkpt lat="63.40776933" lon="10.474083">
        <ele>163.527</ele>
        <time>1970-01-01T01:00:00Z</time>
      </trkpt>
      <trkpt lat="63.40777317" lon="10.4740435">
        <ele>163.527</ele>
        <time>1970-01-01T01:00:00Z</time>
      </trkpt>
      <trkpt lat="63.40777967" lon="10.47400317">
        <ele>163.527</ele>
        <time>1970-01-01T01:00:00Z</time>
      </trkpt>
      <trkpt lat="63.40778567" lon="10.4739655">
        <ele>163.527</ele>
        <time>1970-01-01T01:00:00Z</time>
      </trkpt>
      <trkpt lat="63.40779067" lon="10.47393233">
        <ele>163.527</ele>
        <time>1970-01-01T01:00:00Z</time>
      </trkpt>
      <trkpt lat="63.40779517" lon="10.4739045">
        <ele>163.375</ele>
        <time>1970-01-01T01:00:00Z</time>
      </trkpt>
      <trkpt lat="63.40779983" lon="10.47388117">
        <ele>163.375</ele>
        <time>1970-01-01T01:00:00Z</time>
      </trkpt>
      <trkpt lat="63.40780283" lon="10.47385733">
        <ele>163.375</ele>
        <time>1970-01-01T01:00:00Z</time>
      </trkpt>
      <trkpt lat="63.40780417" lon="10.4738305">
        <ele>163.375</ele>
        <time>1970-01-01T01:00:00Z</time>
      </trkpt>
      <trkpt lat="63.40780417" lon="10.47380217">
        <ele>163.375</ele>
        <time>1970-01-01T01:00:00Z</time>
      </trkpt>
      <trkpt lat="63.4078025" lon="10.47377317">
        <ele>163.375</ele>
        <time>1970-01-01T01:00:00Z</time>
      </trkpt>
      <trkpt lat="63.4077995" lon="10.47374567">
        <ele>163.375</ele>
        <time>1970-01-01T01:00:00Z</time>
      </trkpt>
      <trkpt lat="63.4077955" lon="10.4737185">
        <ele>163.375</ele>
        <time>1970-01-01T01:00:00Z</time>
      </trkpt>
      <trkpt lat="63.40779467" lon="10.4736865">
        <ele>163.375</ele>
        <time>1970-01-01T01:00:00Z</time>
      </trkpt>
      <trkpt lat="63.407795" lon="10.47365333">
        <ele>163.375</ele>
        <time>1970-01-01T01:00:00Z</time>
      </trkpt>
      <trkpt lat="63.40779567" lon="10.47361617">
        <ele>163.222</ele>
        <time>1970-01-01T01:00:00Z</time>
      </trkpt>
      <trkpt lat="63.407795" lon="10.47358433">
        <ele>163.222</ele>
        <time>1970-01-01T01:00:00Z</time>
      </trkpt>
      <trkpt lat="63.40779317" lon="10.47355283">
        <ele>163.222</ele>
        <time>1970-01-01T01:00:00Z</time>
      </trkpt>
      <trkpt lat="63.40779133" lon="10.47352283">
        <ele>163.222</ele>
        <time>1970-01-01T01:00:00Z</time>
      </trkpt>
      <trkpt lat="63.4077905" lon="10.4734925">
        <ele>163.07</ele>
        <time>1970-01-01T01:00:00Z</time>
      </trkpt>
      <trkpt lat="63.4077895" lon="10.47346383">
        <ele>163.07</ele>
        <time>1970-01-01T01:00:00Z</time>
      </trkpt>
      <trkpt lat="63.40778983" lon="10.47343533">
        <ele>163.07</ele>
        <time>1970-01-01T01:00:00Z</time>
      </trkpt>
      <trkpt lat="63.4077895" lon="10.47340817">
        <ele>163.07</ele>
        <time>1970-01-01T01:00:00Z</time>
      </trkpt>
      <trkpt lat="63.40778967" lon="10.47338383">
        <ele>162.918</ele>
        <time>1970-01-01T01:00:00Z</time>
      </trkpt>
      <trkpt lat="63.40778883" lon="10.47335917">
        <ele>162.918</ele>
        <time>1970-01-01T01:00:00Z</time>
      </trkpt>
      <trkpt lat="63.40779017" lon="10.47333417">
        <ele>162.765</ele>
        <time>1970-01-01T01:00:00Z</time>
      </trkpt>
      <trkpt lat="63.40779317" lon="10.47330867">
        <ele>162.765</ele>
        <time>1970-01-01T01:00:00Z</time>
      </trkpt>
      <trkpt lat="63.407797" lon="10.47328667">
        <ele>162.765</ele>
        <time>1970-01-01T01:00:00Z</time>
      </trkpt>
      <trkpt lat="63.40779767" lon="10.4732655">
        <ele>162.765</ele>
        <time>1970-01-01T01:00:00Z</time>
      </trkpt>
      <trkpt lat="63.4077975" lon="10.47324083">
        <ele>162.765</ele>
        <time>1970-01-01T01:00:00Z</time>
      </trkpt>
      <trkpt lat="63.40779717" lon="10.47321383">
        <ele>162.765</ele>
        <time>1970-01-01T01:00:00Z</time>
      </trkpt>
      <trkpt lat="63.40779667" lon="10.47318833">
        <ele>162.765</ele>
        <time>1970-01-01T01:00:00Z</time>
      </trkpt>
      <trkpt lat="63.40779467" lon="10.473166">
        <ele>162.765</ele>
        <time>1970-01-01T01:00:00Z</time>
      </trkpt>
      <trkpt lat="63.4077925" lon="10.47314633">
        <ele>162.765</ele>
        <time>1970-01-01T01:00:00Z</time>
      </trkpt>
      <trkpt lat="63.4077915" lon="10.473127">
        <ele>162.765</ele>
        <time>1970-01-01T01:00:00Z</time>
      </trkpt>
      <trkpt lat="63.40779067" lon="10.47310783">
        <ele>162.765</ele>
        <time>1970-01-01T01:00:00Z</time>
      </trkpt>
      <trkpt lat="63.40779133" lon="10.47308583">
        <ele>162.765</ele>
        <time>1970-01-01T01:00:00Z</time>
      </trkpt>
      <trkpt lat="63.40779133" lon="10.4730605">
        <ele>162.613</ele>
        <time>1970-01-01T01:00:00Z</time>
      </trkpt>
      <trkpt lat="63.4077915" lon="10.4730315">
        <ele>162.613</ele>
        <time>1970-01-01T01:00:00Z</time>
      </trkpt>
      <trkpt lat="63.40779083" lon="10.47300167">
        <ele>162.613</ele>
        <time>1970-01-01T01:00:00Z</time>
      </trkpt>
      <trkpt lat="63.40779067" lon="10.47297267">
        <ele>162.613</ele>
        <time>1970-01-01T01:00:00Z</time>
      </trkpt>
      <trkpt lat="63.40779017" lon="10.472942">
        <ele>162.613</ele>
        <time>1970-01-01T01:00:00Z</time>
      </trkpt>
      <trkpt lat="63.4077875" lon="10.47291467">
        <ele>162.613</ele>
        <time>1970-01-01T01:00:00Z</time>
      </trkpt>
      <trkpt lat="63.40778333" lon="10.47288817">
        <ele>162.613</ele>
        <time>1970-01-01T01:00:00Z</time>
      </trkpt>
      <trkpt lat="63.40777983" lon="10.47286417">
        <ele>162.613</ele>
        <time>1970-01-01T01:00:00Z</time>
      </trkpt>
      <trkpt lat="63.40777683" lon="10.47283833">
        <ele>162.46</ele>
        <time>1970-01-01T01:00:00Z</time>
      </trkpt>
      <trkpt lat="63.40777617" lon="10.4728095">
        <ele>162.46</ele>
        <time>1970-01-01T01:00:00Z</time>
      </trkpt>
      <trkpt lat="63.40777367" lon="10.47278">
        <ele>162.46</ele>
        <time>1970-01-01T01:00:00Z</time>
      </trkpt>
      <trkpt lat="63.40777233" lon="10.472748">
        <ele>162.46</ele>
        <time>1970-01-01T01:00:00Z</time>
      </trkpt>
      <trkpt lat="63.40777067" lon="10.47271767">
        <ele>162.46</ele>
        <time>1970-01-01T01:00:00Z</time>
      </trkpt>
      <trkpt lat="63.4077715" lon="10.47268833">
        <ele>162.46</ele>
        <time>1970-01-01T01:00:00Z</time>
      </trkpt>
      <trkpt lat="63.4077725" lon="10.47266183">
        <ele>162.46</ele>
        <time>1970-01-01T01:00:00Z</time>
      </trkpt>
      <trkpt lat="63.40777383" lon="10.47263717">
        <ele>162.46</ele>
        <time>1970-01-01T01:00:00Z</time>
      </trkpt>
      <trkpt lat="63.4077755" lon="10.47261417">
        <ele>162.308</ele>
        <time>1970-01-01T01:00:00Z</time>
      </trkpt>
      <trkpt lat="63.40777967" lon="10.472595">
        <ele>162.308</ele>
        <time>1970-01-01T01:00:00Z</time>
      </trkpt>
      <trkpt lat="63.4077835" lon="10.47258183">
        <ele>162.308</ele>
        <time>1970-01-01T01:00:00Z</time>
      </trkpt>
      <trkpt lat="63.407787" lon="10.4725735">
        <ele>162.308</ele>
        <time>1970-01-01T01:00:00Z</time>
      </trkpt>
      <trkpt lat="63.407788" lon="10.47256483">
        <ele>162.308</ele>
        <time>1970-01-01T01:00:00Z</time>
      </trkpt>
      <trkpt lat="63.40778733" lon="10.472553">
        <ele>162.308</ele>
        <time>1970-01-01T01:00:00Z</time>
      </trkpt>
      <trkpt lat="63.4077875" lon="10.47253817">
        <ele>162.308</ele>
        <time>1970-01-01T01:00:00Z</time>
      </trkpt>
      <trkpt lat="63.40778917" lon="10.47252083">
        <ele>162.308</ele>
        <time>1970-01-01T01:00:00Z</time>
      </trkpt>
      <trkpt lat="63.40779367" lon="10.4725025">
        <ele>162.308</ele>
        <time>1970-01-01T01:00:00Z</time>
      </trkpt>
      <trkpt lat="63.40779967" lon="10.47248817">
        <ele>162.308</ele>
        <time>1970-01-01T01:00:00Z</time>
      </trkpt>
      <trkpt lat="63.40780383" lon="10.47248">
        <ele>162.308</ele>
        <time>1970-01-01T01:00:00Z</time>
      </trkpt>
      <trkpt lat="63.40780683" lon="10.47247683">
        <ele>162.308</ele>
        <time>1970-01-01T01:00:00Z</time>
      </trkpt>
      <trkpt lat="63.40780717" lon="10.47247417">
        <ele>162.308</ele>
        <time>1970-01-01T01:00:00Z</time>
      </trkpt>
      <trkpt lat="63.40780867" lon="10.47246717">
        <ele>162.308</ele>
        <time>1970-01-01T01:00:00Z</time>
      </trkpt>
      <trkpt lat="63.4078115" lon="10.47245633">
        <ele>162.46</ele>
        <time>1970-01-01T01:00:00Z</time>
      </trkpt>
      <trkpt lat="63.4078155" lon="10.47244083">
        <ele>162.46</ele>
        <time>1970-01-01T01:00:00Z</time>
      </trkpt>
      <trkpt lat="63.40782033" lon="10.47242383">
        <ele>162.46</ele>
        <time>1970-01-01T01:00:00Z</time>
      </trkpt>
      <trkpt lat="63.407826" lon="10.47240483">
        <ele>162.46</ele>
        <time>1970-01-01T01:00:00Z</time>
      </trkpt>
      <trkpt lat="63.40783217" lon="10.472387">
        <ele>162.613</ele>
        <time>1970-01-01T01:00:00Z</time>
      </trkpt>
      <trkpt lat="63.407839" lon="10.47237167">
        <ele>162.613</ele>
        <time>1970-01-01T01:00:00Z</time>
      </trkpt>
      <trkpt lat="63.40784483" lon="10.47236117">
        <ele>162.765</ele>
        <time>1970-01-01T01:00:00Z</time>
      </trkpt>
      <trkpt lat="63.407852" lon="10.472358">
        <ele>162.765</ele>
        <time>1970-01-01T01:00:00Z</time>
      </trkpt>
      <trkpt lat="63.40785867" lon="10.47236">
        <ele>162.918</ele>
        <time>1970-01-01T01:00:00Z</time>
      </trkpt>
      <trkpt lat="63.40786367" lon="10.47236733">
        <ele>162.918</ele>
        <time>1970-01-01T01:00:00Z</time>
      </trkpt>
      <trkpt lat="63.40786617" lon="10.47237317">
        <ele>163.07</ele>
        <time>1970-01-01T01:00:00Z</time>
      </trkpt>
      <trkpt lat="63.40786767" lon="10.47237767">
        <ele>163.07</ele>
        <time>1970-01-01T01:00:00Z</time>
      </trkpt>
      <trkpt lat="63.40787033" lon="10.47237867">
        <ele>163.222</ele>
        <time>1970-01-01T01:00:00Z</time>
      </trkpt>
      <trkpt lat="63.407874" lon="10.47237983">
        <ele>163.222</ele>
        <time>1970-01-01T01:00:00Z</time>
      </trkpt>
      <trkpt lat="63.4078775" lon="10.47238067">
        <ele>163.222</ele>
        <time>1970-01-01T01:00:00Z</time>
      </trkpt>
      <trkpt lat="63.40788033" lon="10.47238233">
        <ele>163.222</ele>
        <time>1970-01-01T01:00:00Z</time>
      </trkpt>
      <trkpt lat="63.40788217" lon="10.47238333">
        <ele>163.222</ele>
        <time>1970-01-01T01:00:00Z</time>
      </trkpt>
      <trkpt lat="63.4078835" lon="10.47238417">
        <ele>163.222</ele>
        <time>1970-01-01T01:00:00Z</time>
      </trkpt>
      <trkpt lat="63.4078845" lon="10.47238517">
        <ele>163.222</ele>
        <time>1970-01-01T01:00:00Z</time>
      </trkpt>
      <trkpt lat="63.40788533" lon="10.472386">
        <ele>163.222</ele>
        <time>1970-01-01T01:00:00Z</time>
      </trkpt>
      <trkpt lat="63.40788633" lon="10.472387">
        <ele>163.375</ele>
        <time>1970-01-01T01:00:00Z</time>
      </trkpt>
      <trkpt lat="63.40788717" lon="10.472388">
        <ele>163.375</ele>
        <time>1970-01-01T01:00:00Z</time>
      </trkpt>
      <trkpt lat="63.407888" lon="10.47238917">
        <ele>163.375</ele>
        <time>1970-01-01T01:00:00Z</time>
      </trkpt>
      <trkpt lat="63.40788883" lon="10.47239017">
        <ele>163.375</ele>
        <time>1970-01-01T01:00:00Z</time>
      </trkpt>
      <trkpt lat="63.40788983" lon="10.47239083">
        <ele>163.375</ele>
        <time>1970-01-01T01:00:00Z</time>
      </trkpt>
      <trkpt lat="63.40789083" lon="10.47239133">
        <ele>163.375</ele>
        <time>1970-01-01T01:00:00Z</time>
      </trkpt>
      <trkpt lat="63.407892" lon="10.472392">
        <ele>163.527</ele>
        <time>1970-01-01T01:00:00Z</time>
      </trkpt>
      <trkpt lat="63.40789283" lon="10.47239283">
        <ele>163.527</ele>
        <time>1970-01-01T01:00:00Z</time>
      </trkpt>
      <trkpt lat="63.4078935" lon="10.4723935">
        <ele>163.527</ele>
        <time>1970-01-01T01:00:00Z</time>
      </trkpt>
      <trkpt lat="63.407894" lon="10.4723935">
        <ele>163.527</ele>
        <time>1970-01-01T01:00:00Z</time>
      </trkpt>
      <trkpt lat="63.40789467" lon="10.4723935">
        <ele>163.527</ele>
        <time>1970-01-01T01:00:00Z</time>
      </trkpt>
      <trkpt lat="63.40789567" lon="10.47239317">
        <ele>163.527</ele>
        <time>1970-01-01T01:00:00Z</time>
      </trkpt>
      <trkpt lat="63.40789667" lon="10.47239317">
        <ele>163.68</ele>
        <time>1970-01-01T01:00:00Z</time>
      </trkpt>
      <trkpt lat="63.407898" lon="10.4723935">
        <ele>163.68</ele>
        <time>1970-01-01T01:00:00Z</time>
      </trkpt>
      <trkpt lat="63.407899" lon="10.47239417">
        <ele>163.68</ele>
        <time>1970-01-01T01:00:00Z</time>
      </trkpt>
      <trkpt lat="63.40789967" lon="10.47239483">
        <ele>163.68</ele>
        <time>1970-01-01T01:00:00Z</time>
      </trkpt>
      <trkpt lat="63.4078995" lon="10.47239467">
        <ele>163.68</ele>
        <time>1970-01-01T01:00:00Z</time>
      </trkpt>
      <trkpt lat="63.40789767" lon="10.47239083">
        <ele>163.68</ele>
        <time>1970-01-01T01:00:00Z</time>
      </trkpt>
      <trkpt lat="63.40789467" lon="10.472385">
        <ele>163.68</ele>
        <time>1970-01-01T01:00:00Z</time>
      </trkpt>
      <trkpt lat="63.40789083" lon="10.47237583">
        <ele>163.68</ele>
        <time>1970-01-01T01:00:00Z</time>
      </trkpt>
      <trkpt lat="63.40788633" lon="10.47236867">
        <ele>163.832</ele>
        <time>1970-01-01T01:00:00Z</time>
      </trkpt>
      <trkpt lat="63.4078815" lon="10.47236233">
        <ele>163.832</ele>
        <time>1970-01-01T01:00:00Z</time>
      </trkpt>
      <trkpt lat="63.4078775" lon="10.472359">
        <ele>163.832</ele>
        <time>1970-01-01T01:00:00Z</time>
      </trkpt>
      <trkpt lat="63.40787433" lon="10.472358">
        <ele>163.832</ele>
        <time>1970-01-01T01:00:00Z</time>
      </trkpt>
      <trkpt lat="63.40787183" lon="10.4723585">
        <ele>163.832</ele>
        <time>1970-01-01T01:00:00Z</time>
      </trkpt>
      <trkpt lat="63.40786817" lon="10.47235967">
        <ele>163.832</ele>
        <time>1970-01-01T01:00:00Z</time>
      </trkpt>
      <trkpt lat="63.40786333" lon="10.47235483">
        <ele>163.832</ele>
        <time>1970-01-01T01:00:00Z</time>
      </trkpt>
      <trkpt lat="63.40785767" lon="10.47234617">
        <ele>163.832</ele>
        <time>1970-01-01T01:00:00Z</time>
      </trkpt>
      <trkpt lat="63.407852" lon="10.472333">
        <ele>163.832</ele>
        <time>1970-01-01T01:00:00Z</time>
      </trkpt>
      <trkpt lat="63.40784833" lon="10.47231933">
        <ele>163.832</ele>
        <time>1970-01-01T01:00:00Z</time>
      </trkpt>
      <trkpt lat="63.4078465" lon="10.47230883">
        <ele>163.832</ele>
        <time>1970-01-01T01:00:00Z</time>
      </trkpt>
      <trkpt lat="63.407847" lon="10.472304">
        <ele>163.832</ele>
        <time>1970-01-01T01:00:00Z</time>
      </trkpt>
      <trkpt lat="63.40784733" lon="10.47230367">
        <ele>163.984</ele>
        <time>1970-01-01T01:00:00Z</time>
      </trkpt>
      <trkpt lat="63.40784783" lon="10.47230483">
        <ele>163.984</ele>
        <time>1970-01-01T01:00:00Z</time>
      </trkpt>
      <trkpt lat="63.4078485" lon="10.47230217">
        <ele>163.984</ele>
        <time>1970-01-01T01:00:00Z</time>
      </trkpt>
      <trkpt lat="63.40785" lon="10.4722985">
        <ele>163.984</ele>
        <time>1970-01-01T01:00:00Z</time>
      </trkpt>
      <trkpt lat="63.40785283" lon="10.47228883">
        <ele>163.984</ele>
        <time>1970-01-01T01:00:00Z</time>
      </trkpt>
      <trkpt lat="63.40785667" lon="10.47227367">
        <ele>163.984</ele>
        <time>1970-01-01T01:00:00Z</time>
      </trkpt>
      <trkpt lat="63.4078615" lon="10.47225517">
        <ele>164.137</ele>
        <time>1970-01-01T01:00:00Z</time>
      </trkpt>
      <trkpt lat="63.40786683" lon="10.472236">
        <ele>164.137</ele>
        <time>1970-01-01T01:00:00Z</time>
      </trkpt>
      <trkpt lat="63.40787417" lon="10.47221783">
        <ele>164.137</ele>
        <time>1970-01-01T01:00:00Z</time>
      </trkpt>
      <trkpt lat="63.4078815" lon="10.4721985">
        <ele>164.137</ele>
        <time>1970-01-01T01:00:00Z</time>
      </trkpt>
      <trkpt lat="63.407888" lon="10.4721775">
        <ele>164.289</ele>
        <time>1970-01-01T01:00:00Z</time>
      </trkpt>
      <trkpt lat="63.40789317" lon="10.47215667">
        <ele>164.289</ele>
        <time>1970-01-01T01:00:00Z</time>
      </trkpt>
      <trkpt lat="63.40789833" lon="10.4721365">
        <ele>164.442</ele>
        <time>1970-01-01T01:00:00Z</time>
      </trkpt>
      <trkpt lat="63.407904" lon="10.472116">
        <ele>164.442</ele>
        <time>1970-01-01T01:00:00Z</time>
      </trkpt>
      <trkpt lat="63.40790983" lon="10.472095">
        <ele>164.442</ele>
        <time>1970-01-01T01:00:00Z</time>
      </trkpt>
      <trkpt lat="63.4079165" lon="10.47207167">
        <ele>164.442</ele>
        <time>1970-01-01T01:00:00Z</time>
      </trkpt>
      <trkpt lat="63.407925" lon="10.47204717">
        <ele>164.594</ele>
        <time>1970-01-01T01:00:00Z</time>
      </trkpt>
      <trkpt lat="63.4079345" lon="10.47202367">
        <ele>164.594</ele>
        <time>1970-01-01T01:00:00Z</time>
      </trkpt>
      <trkpt lat="63.4079435" lon="10.47200083">
        <ele>164.746</ele>
        <time>1970-01-01T01:00:00Z</time>
      </trkpt>
      <trkpt lat="63.40795133" lon="10.47197883">
        <ele>164.746</ele>
        <time>1970-01-01T01:00:00Z</time>
      </trkpt>
      <trkpt lat="63.4079615" lon="10.47195717">
        <ele>164.899</ele>
        <time>1970-01-01T01:00:00Z</time>
      </trkpt>
      <trkpt lat="63.40797417" lon="10.47193517">
        <ele>164.899</ele>
        <time>1970-01-01T01:00:00Z</time>
      </trkpt>
      <trkpt lat="63.40798933" lon="10.47191433">
        <ele>164.899</ele>
        <time>1970-01-01T01:00:00Z</time>
      </trkpt>
      <trkpt lat="63.408004" lon="10.47189367">
        <ele>164.899</ele>
        <time>1970-01-01T01:00:00Z</time>
      </trkpt>
      <trkpt lat="63.40801917" lon="10.47187783">
        <ele>165.051</ele>
        <time>1970-01-01T01:00:00Z</time>
      </trkpt>
      <trkpt lat="63.40803317" lon="10.471864">
        <ele>165.051</ele>
        <time>1970-01-01T01:00:00Z</time>
      </trkpt>
      <trkpt lat="63.40804733" lon="10.47185017">
        <ele>165.051</ele>
        <time>1970-01-01T01:00:00Z</time>
      </trkpt>
      <trkpt lat="63.40806133" lon="10.47183367">
        <ele>165.051</ele>
        <time>1970-01-01T01:00:00Z</time>
      </trkpt>
      <trkpt lat="63.40807633" lon="10.47182017">
        <ele>165.051</ele>
        <time>1970-01-01T01:00:00Z</time>
      </trkpt>
      <trkpt lat="63.4080885" lon="10.47180467">
        <ele>165.051</ele>
        <time>1970-01-01T01:00:00Z</time>
      </trkpt>
      <trkpt lat="63.4081" lon="10.4717895">
        <ele>165.051</ele>
        <time>1970-01-01T01:00:00Z</time>
      </trkpt>
      <trkpt lat="63.40811" lon="10.47177017">
        <ele>165.051</ele>
        <time>1970-01-01T01:00:00Z</time>
      </trkpt>
      <trkpt lat="63.40812217" lon="10.47175333">
        <ele>165.051</ele>
        <time>1970-01-01T01:00:00Z</time>
      </trkpt>
      <trkpt lat="63.40813367" lon="10.4717335">
        <ele>165.051</ele>
        <time>1970-01-01T01:00:00Z</time>
      </trkpt>
      <trkpt lat="63.40814667" lon="10.47171333">
        <ele>165.051</ele>
        <time>1970-01-01T01:00:00Z</time>
      </trkpt>
      <trkpt lat="63.40816117" lon="10.47169767">
        <ele>165.051</ele>
        <time>1970-01-01T01:00:00Z</time>
      </trkpt>
      <trkpt lat="63.40817767" lon="10.47168733">
        <ele>165.051</ele>
        <time>1970-01-01T01:00:00Z</time>
      </trkpt>
      <trkpt lat="63.40819467" lon="10.47167783">
        <ele>165.051</ele>
        <time>1970-01-01T01:00:00Z</time>
      </trkpt>
      <trkpt lat="63.40821067" lon="10.471669">
        <ele>165.051</ele>
        <time>1970-01-01T01:00:00Z</time>
      </trkpt>
      <trkpt lat="63.40822467" lon="10.4716585">
        <ele>165.051</ele>
        <time>1970-01-01T01:00:00Z</time>
      </trkpt>
      <trkpt lat="63.40823833" lon="10.47165067">
        <ele>165.051</ele>
        <time>1970-01-01T01:00:00Z</time>
      </trkpt>
      <trkpt lat="63.40825067" lon="10.47164">
        <ele>165.051</ele>
        <time>1970-01-01T01:00:00Z</time>
      </trkpt>
      <trkpt lat="63.40826383" lon="10.47163133">
        <ele>165.051</ele>
        <time>1970-01-01T01:00:00Z</time>
      </trkpt>
      <trkpt lat="63.40827583" lon="10.4716235">
        <ele>165.051</ele>
        <time>1970-01-01T01:00:00Z</time>
      </trkpt>
      <trkpt lat="63.40828717" lon="10.4716185">
        <ele>165.051</ele>
        <time>1970-01-01T01:00:00Z</time>
      </trkpt>
      <trkpt lat="63.40829933" lon="10.47161717">
        <ele>165.051</ele>
        <time>1970-01-01T01:00:00Z</time>
      </trkpt>
      <trkpt lat="63.4083135" lon="10.47161367">
        <ele>165.051</ele>
        <time>1970-01-01T01:00:00Z</time>
      </trkpt>
      <trkpt lat="63.40833133" lon="10.47160083">
        <ele>165.051</ele>
        <time>1970-01-01T01:00:00Z</time>
      </trkpt>
      <trkpt lat="63.40834717" lon="10.47157733">
        <ele>165.051</ele>
        <time>1970-01-01T01:00:00Z</time>
      </trkpt>
      <trkpt lat="63.40836333" lon="10.47155517">
        <ele>165.051</ele>
        <time>1970-01-01T01:00:00Z</time>
      </trkpt>
      <trkpt lat="63.40837717" lon="10.47153833">
        <ele>164.899</ele>
        <time>1970-01-01T01:00:00Z</time>
      </trkpt>
      <trkpt lat="63.408392" lon="10.47152667">
        <ele>164.899</ele>
        <time>1970-01-01T01:00:00Z</time>
      </trkpt>
      <trkpt lat="63.40840383" lon="10.47151783">
        <ele>164.899</ele>
        <time>1970-01-01T01:00:00Z</time>
      </trkpt>
      <trkpt lat="63.40841517" lon="10.47151">
        <ele>164.899</ele>
        <time>1970-01-01T01:00:00Z</time>
      </trkpt>
      <trkpt lat="63.408426" lon="10.471504">
        <ele>164.746</ele>
        <time>1970-01-01T01:00:00Z</time>
      </trkpt>
      <trkpt lat="63.408437" lon="10.471495">
        <ele>164.746</ele>
        <time>1970-01-01T01:00:00Z</time>
      </trkpt>
      <trkpt lat="63.40844817" lon="10.471483">
        <ele>164.746</ele>
        <time>1970-01-01T01:00:00Z</time>
      </trkpt>
      <trkpt lat="63.40846033" lon="10.47146767">
        <ele>164.746</ele>
        <time>1970-01-01T01:00:00Z</time>
      </trkpt>
      <trkpt lat="63.40847267" lon="10.47145">
        <ele>164.746</ele>
        <time>1970-01-01T01:00:00Z</time>
      </trkpt>
      <trkpt lat="63.40848467" lon="10.471433">
        <ele>164.746</ele>
        <time>1970-01-01T01:00:00Z</time>
      </trkpt>
      <trkpt lat="63.40849517" lon="10.47141283">
        <ele>164.594</ele>
        <time>1970-01-01T01:00:00Z</time>
      </trkpt>
      <trkpt lat="63.40850633" lon="10.4713895">
        <ele>164.594</ele>
        <time>1970-01-01T01:00:00Z</time>
      </trkpt>
      <trkpt lat="63.408516" lon="10.47136567">
        <ele>164.594</ele>
        <time>1970-01-01T01:00:00Z</time>
      </trkpt>
      <trkpt lat="63.40852517" lon="10.47134183">
        <ele>164.594</ele>
        <time>1970-01-01T01:00:00Z</time>
      </trkpt>
      <trkpt lat="63.40853517" lon="10.4713175">
        <ele>164.746</ele>
        <time>1970-01-01T01:00:00Z</time>
      </trkpt>
      <trkpt lat="63.40854933" lon="10.47129333">
        <ele>164.746</ele>
        <time>1970-01-01T01:00:00Z</time>
      </trkpt>
      <trkpt lat="63.40856767" lon="10.47127533">
        <ele>164.746</ele>
        <time>1970-01-01T01:00:00Z</time>
      </trkpt>
      <trkpt lat="63.40858317" lon="10.47125633">
        <ele>164.746</ele>
        <time>1970-01-01T01:00:00Z</time>
      </trkpt>
      <trkpt lat="63.408594" lon="10.4712285">
        <ele>164.746</ele>
        <time>1970-01-01T01:00:00Z</time>
      </trkpt>
      <trkpt lat="63.40859917" lon="10.47118933">
        <ele>164.746</ele>
        <time>1970-01-01T01:00:00Z</time>
      </trkpt>
      <trkpt lat="63.40860333" lon="10.47114933">
        <ele>164.746</ele>
        <time>1970-01-01T01:00:00Z</time>
      </trkpt>
      <trkpt lat="63.40860667" lon="10.47110933">
        <ele>164.746</ele>
        <time>1970-01-01T01:00:00Z</time>
      </trkpt>
      <trkpt lat="63.40861083" lon="10.47107033">
        <ele>164.746</ele>
        <time>1970-01-01T01:00:00Z</time>
      </trkpt>
      <trkpt lat="63.40861633" lon="10.47103367">
        <ele>164.746</ele>
        <time>1970-01-01T01:00:00Z</time>
      </trkpt>
      <trkpt lat="63.408626" lon="10.4710015">
        <ele>164.746</ele>
        <time>1970-01-01T01:00:00Z</time>
      </trkpt>
      <trkpt lat="63.4086375" lon="10.47097317">
        <ele>164.746</ele>
        <time>1970-01-01T01:00:00Z</time>
      </trkpt>
      <trkpt lat="63.40865133" lon="10.47094167">
        <ele>164.899</ele>
        <time>1970-01-01T01:00:00Z</time>
      </trkpt>
      <trkpt lat="63.40866967" lon="10.47091583">
        <ele>164.899</ele>
        <time>1970-01-01T01:00:00Z</time>
      </trkpt>
      <trkpt lat="63.4086885" lon="10.47089717">
        <ele>164.899</ele>
        <time>1970-01-01T01:00:00Z</time>
      </trkpt>
      <trkpt lat="63.40870683" lon="10.47088433">
        <ele>164.899</ele>
        <time>1970-01-01T01:00:00Z</time>
      </trkpt>
      <trkpt lat="63.408718" lon="10.47086983">
        <ele>165.051</ele>
        <time>1970-01-01T01:00:00Z</time>
      </trkpt>
      <trkpt lat="63.40872683" lon="10.470851">
        <ele>165.051</ele>
        <time>1970-01-01T01:00:00Z</time>
      </trkpt>
      <trkpt lat="63.40873433" lon="10.470832">
        <ele>165.051</ele>
        <time>1970-01-01T01:00:00Z</time>
      </trkpt>
      <trkpt lat="63.40873933" lon="10.470817">
        <ele>165.051</ele>
        <time>1970-01-01T01:00:00Z</time>
      </trkpt>
      <trkpt lat="63.40874217" lon="10.4708085">
        <ele>165.051</ele>
        <time>1970-01-01T01:00:00Z</time>
      </trkpt>
      <trkpt lat="63.40874217" lon="10.47080217">
        <ele>165.051</ele>
        <time>1970-01-01T01:00:00Z</time>
      </trkpt>
      <trkpt lat="63.408744" lon="10.47079117">
        <ele>164.899</ele>
        <time>1970-01-01T01:00:00Z</time>
      </trkpt>
      <trkpt lat="63.4087485" lon="10.47077783">
        <ele>164.899</ele>
        <time>1970-01-01T01:00:00Z</time>
      </trkpt>
      <trkpt lat="63.4087555" lon="10.47076383">
        <ele>164.746</ele>
        <time>1970-01-01T01:00:00Z</time>
      </trkpt>
      <trkpt lat="63.40876333" lon="10.47075067">
        <ele>164.746</ele>
        <time>1970-01-01T01:00:00Z</time>
      </trkpt>
      <trkpt lat="63.40877383" lon="10.47074">
        <ele>164.594</ele>
        <time>1970-01-01T01:00:00Z</time>
      </trkpt>
      <trkpt lat="63.40878833" lon="10.47073733">
        <ele>164.594</ele>
        <time>1970-01-01T01:00:00Z</time>
      </trkpt>
      <trkpt lat="63.40880667" lon="10.47074833">
        <ele>164.442</ele>
        <time>1970-01-01T01:00:00Z</time>
      </trkpt>
      <trkpt lat="63.40882833" lon="10.470766">
        <ele>164.442</ele>
        <time>1970-01-01T01:00:00Z</time>
      </trkpt>
      <trkpt lat="63.408849" lon="10.47078483">
        <ele>164.289</ele>
        <time>1970-01-01T01:00:00Z</time>
      </trkpt>
      <trkpt lat="63.40886933" lon="10.47080867">
        <ele>164.289</ele>
        <time>1970-01-01T01:00:00Z</time>
      </trkpt>
      <trkpt lat="63.408887" lon="10.47083217">
        <ele>164.137</ele>
        <time>1970-01-01T01:00:00Z</time>
      </trkpt>
      <trkpt lat="63.40890283" lon="10.47085667">
        <ele>164.137</ele>
        <time>1970-01-01T01:00:00Z</time>
      </trkpt>
      <trkpt lat="63.408919" lon="10.47087117">
        <ele>163.984</ele>
        <time>1970-01-01T01:00:00Z</time>
      </trkpt>
      <trkpt lat="63.40893483" lon="10.47088667">
        <ele>163.984</ele>
        <time>1970-01-01T01:00:00Z</time>
      </trkpt>
      <trkpt lat="63.40895183" lon="10.470903">
        <ele>163.984</ele>
        <time>1970-01-01T01:00:00Z</time>
      </trkpt>
      <trkpt lat="63.40896933" lon="10.47092533">
        <ele>163.984</ele>
        <time>1970-01-01T01:00:00Z</time>
      </trkpt>
      <trkpt lat="63.4089865" lon="10.470946">
        <ele>163.984</ele>
        <time>1970-01-01T01:00:00Z</time>
      </trkpt>
      <trkpt lat="63.40900333" lon="10.4709675">
        <ele>163.984</ele>
        <time>1970-01-01T01:00:00Z</time>
      </trkpt>
      <trkpt lat="63.40901917" lon="10.470986">
        <ele>164.137</ele>
        <time>1970-01-01T01:00:00Z</time>
      </trkpt>
      <trkpt lat="63.409034" lon="10.47100617">
        <ele>164.137</ele>
        <time>1970-01-01T01:00:00Z</time>
      </trkpt>
      <trkpt lat="63.40904783" lon="10.4710245">
        <ele>164.442</ele>
        <time>1970-01-01T01:00:00Z</time>
      </trkpt>
      <trkpt lat="63.4090615" lon="10.47104083">
        <ele>164.442</ele>
        <time>1970-01-01T01:00:00Z</time>
      </trkpt>
      <trkpt lat="63.4090755" lon="10.4710535">
        <ele>164.746</ele>
        <time>1970-01-01T01:00:00Z</time>
      </trkpt>
      <trkpt lat="63.40909083" lon="10.471068">
        <ele>164.746</ele>
        <time>1970-01-01T01:00:00Z</time>
      </trkpt>
      <trkpt lat="63.40910667" lon="10.4710845">
        <ele>165.204</ele>
        <time>1970-01-01T01:00:00Z</time>
      </trkpt>
      <trkpt lat="63.40912333" lon="10.47110133">
        <ele>165.204</ele>
        <time>1970-01-01T01:00:00Z</time>
      </trkpt>
      <trkpt lat="63.4091385" lon="10.47111667">
        <ele>165.813</ele>
        <time>1970-01-01T01:00:00Z</time>
      </trkpt>
      <trkpt lat="63.40915233" lon="10.47113">
        <ele>165.813</ele>
        <time>1970-01-01T01:00:00Z</time>
      </trkpt>
      <trkpt lat="63.40916567" lon="10.47114267">
        <ele>166.27</ele>
        <time>1970-01-01T01:00:00Z</time>
      </trkpt>
      <trkpt lat="63.409178" lon="10.471157">
        <ele>166.27</ele>
        <time>1970-01-01T01:00:00Z</time>
      </trkpt>
      <trkpt lat="63.40919067" lon="10.47117117">
        <ele>166.88</ele>
        <time>1970-01-01T01:00:00Z</time>
      </trkpt>
      <trkpt lat="63.4092015" lon="10.47118617">
        <ele>166.88</ele>
        <time>1970-01-01T01:00:00Z</time>
      </trkpt>
      <trkpt lat="63.40921317" lon="10.47119967">
        <ele>167.642</ele>
        <time>1970-01-01T01:00:00Z</time>
      </trkpt>
      <trkpt lat="63.40922383" lon="10.47121317">
        <ele>167.642</ele>
        <time>1970-01-01T01:00:00Z</time>
      </trkpt>
      <trkpt lat="63.40923617" lon="10.4712255">
        <ele>168.252</ele>
        <time>1970-01-01T01:00:00Z</time>
      </trkpt>
      <trkpt lat="63.40924917" lon="10.47123833">
        <ele>168.252</ele>
        <time>1970-01-01T01:00:00Z</time>
      </trkpt>
      <trkpt lat="63.4092635" lon="10.47124983">
        <ele>168.861</ele>
        <time>1970-01-01T01:00:00Z</time>
      </trkpt>
      <trkpt lat="63.40927683" lon="10.47125917">
        <ele>168.861</ele>
        <time>1970-01-01T01:00:00Z</time>
      </trkpt>
      <trkpt lat="63.40928917" lon="10.47126433">
        <ele>169.623</ele>
        <time>1970-01-01T01:00:00Z</time>
      </trkpt>
      <trkpt lat="63.40929983" lon="10.47127">
        <ele>169.623</ele>
        <time>1970-01-01T01:00:00Z</time>
      </trkpt>
      <trkpt lat="63.40931217" lon="10.47127983">
        <ele>170.233</ele>
        <time>1970-01-01T01:00:00Z</time>
      </trkpt>
      <trkpt lat="63.40932817" lon="10.47129517">
        <ele>170.233</ele>
        <time>1970-01-01T01:00:00Z</time>
      </trkpt>
      <trkpt lat="63.40934567" lon="10.471309">
        <ele>170.995</ele>
        <time>1970-01-01T01:00:00Z</time>
      </trkpt>
      <trkpt lat="63.4093625" lon="10.47132067">
        <ele>170.995</ele>
        <time>1970-01-01T01:00:00Z</time>
      </trkpt>
      <trkpt lat="63.409378" lon="10.47133333">
        <ele>171.604</ele>
        <time>1970-01-01T01:00:00Z</time>
      </trkpt>
      <trkpt lat="63.40939267" lon="10.47135083">
        <ele>171.604</ele>
        <time>1970-01-01T01:00:00Z</time>
      </trkpt>
      <trkpt lat="63.40940667" lon="10.47136983">
        <ele>172.214</ele>
        <time>1970-01-01T01:00:00Z</time>
      </trkpt>
      <trkpt lat="63.40941983" lon="10.47138183">
        <ele>172.214</ele>
        <time>1970-01-01T01:00:00Z</time>
      </trkpt>
      <trkpt lat="63.40943483" lon="10.47138483">
        <ele>172.824</ele>
        <time>1970-01-01T01:00:00Z</time>
      </trkpt>
      <trkpt lat="63.4094495" lon="10.4713785">
        <ele>172.824</ele>
        <time>1970-01-01T01:00:00Z</time>
      </trkpt>
      <trkpt lat="63.4094625" lon="10.47136867">
        <ele>173.433</ele>
        <time>1970-01-01T01:00:00Z</time>
      </trkpt>
      <trkpt lat="63.409474" lon="10.47135783">
        <ele>173.433</ele>
        <time>1970-01-01T01:00:00Z</time>
      </trkpt>
      <trkpt lat="63.40948567" lon="10.47134617">
        <ele>173.891</ele>
        <time>1970-01-01T01:00:00Z</time>
      </trkpt>
      <trkpt lat="63.409498" lon="10.4713325">
        <ele>173.891</ele>
        <time>1970-01-01T01:00:00Z</time>
      </trkpt>
      <trkpt lat="63.40950967" lon="10.47131883">
        <ele>174.348</ele>
        <time>1970-01-01T01:00:00Z</time>
      </trkpt>
      <trkpt lat="63.409521" lon="10.47131">
        <ele>174.348</ele>
        <time>1970-01-01T01:00:00Z</time>
      </trkpt>
      <trkpt lat="63.409531" lon="10.47130317">
        <ele>174.805</ele>
        <time>1970-01-01T01:00:00Z</time>
      </trkpt>
      <trkpt lat="63.4095405" lon="10.47129717">
        <ele>174.805</ele>
        <time>1970-01-01T01:00:00Z</time>
      </trkpt>
      <trkpt lat="63.40954933" lon="10.4712925">
        <ele>175.11</ele>
        <time>1970-01-01T01:00:00Z</time>
      </trkpt>
      <trkpt lat="63.40955833" lon="10.47129">
        <ele>175.11</ele>
        <time>1970-01-01T01:00:00Z</time>
      </trkpt>
      <trkpt lat="63.40956717" lon="10.47128717">
        <ele>175.415</ele>
        <time>1970-01-01T01:00:00Z</time>
      </trkpt>
      <trkpt lat="63.4095785" lon="10.471278">
        <ele>175.415</ele>
        <time>1970-01-01T01:00:00Z</time>
      </trkpt>
      <trkpt lat="63.4095915" lon="10.4712675">
        <ele>175.719</ele>
        <time>1970-01-01T01:00:00Z</time>
      </trkpt>
      <trkpt lat="63.40960633" lon="10.47125783">
        <ele>175.719</ele>
        <time>1970-01-01T01:00:00Z</time>
      </trkpt>
      <trkpt lat="63.40961983" lon="10.47125383">
        <ele>175.872</ele>
        <time>1970-01-01T01:00:00Z</time>
      </trkpt>
      <trkpt lat="63.40963083" lon="10.47125333">
        <ele>175.872</ele>
        <time>1970-01-01T01:00:00Z</time>
      </trkpt>
      <trkpt lat="63.40964083" lon="10.4712545">
        <ele>176.024</ele>
        <time>1970-01-01T01:00:00Z</time>
      </trkpt>
      <trkpt lat="63.40965067" lon="10.47125683">
        <ele>176.024</ele>
        <time>1970-01-01T01:00:00Z</time>
      </trkpt>
      <trkpt lat="63.409662" lon="10.4712605">
        <ele>176.024</ele>
        <time>1970-01-01T01:00:00Z</time>
      </trkpt>
      <trkpt lat="63.409674" lon="10.47126667">
        <ele>176.024</ele>
        <time>1970-01-01T01:00:00Z</time>
      </trkpt>
      <trkpt lat="63.409688" lon="10.47127283">
        <ele>176.024</ele>
        <time>1970-01-01T01:00:00Z</time>
      </trkpt>
      <trkpt lat="63.409701" lon="10.4712795">
        <ele>176.024</ele>
        <time>1970-01-01T01:00:00Z</time>
      </trkpt>
      <trkpt lat="63.40971383" lon="10.4712875">
        <ele>176.024</ele>
        <time>1970-01-01T01:00:00Z</time>
      </trkpt>
      <trkpt lat="63.40972633" lon="10.47129483">
        <ele>176.024</ele>
        <time>1970-01-01T01:00:00Z</time>
      </trkpt>
      <trkpt lat="63.4097405" lon="10.47129783">
        <ele>175.872</ele>
        <time>1970-01-01T01:00:00Z</time>
      </trkpt>
      <trkpt lat="63.40975417" lon="10.47129783">
        <ele>175.872</ele>
        <time>1970-01-01T01:00:00Z</time>
      </trkpt>
      <trkpt lat="63.40976767" lon="10.47129417">
        <ele>175.872</ele>
        <time>1970-01-01T01:00:00Z</time>
      </trkpt>
      <trkpt lat="63.40977983" lon="10.471285">
        <ele>175.872</ele>
        <time>1970-01-01T01:00:00Z</time>
      </trkpt>
      <trkpt lat="63.40979067" lon="10.47127033">
        <ele>175.719</ele>
        <time>1970-01-01T01:00:00Z</time>
      </trkpt>
      <trkpt lat="63.40980117" lon="10.471251">
        <ele>175.719</ele>
        <time>1970-01-01T01:00:00Z</time>
      </trkpt>
      <trkpt lat="63.4098145" lon="10.4712325">
        <ele>175.567</ele>
        <time>1970-01-01T01:00:00Z</time>
      </trkpt>
      <trkpt lat="63.40982967" lon="10.4712145">
        <ele>175.567</ele>
        <time>1970-01-01T01:00:00Z</time>
      </trkpt>
      <trkpt lat="63.40984417" lon="10.47119967">
        <ele>175.567</ele>
        <time>1970-01-01T01:00:00Z</time>
      </trkpt>
      <trkpt lat="63.40985683" lon="10.47118533">
        <ele>175.567</ele>
        <time>1970-01-01T01:00:00Z</time>
      </trkpt>
      <trkpt lat="63.4098705" lon="10.4711725">
        <ele>175.415</ele>
        <time>1970-01-01T01:00:00Z</time>
      </trkpt>
      <trkpt lat="63.4098825" lon="10.4711595">
        <ele>175.415</ele>
        <time>1970-01-01T01:00:00Z</time>
      </trkpt>
      <trkpt lat="63.409894" lon="10.47114633">
        <ele>175.262</ele>
        <time>1970-01-01T01:00:00Z</time>
      </trkpt>
      <trkpt lat="63.40990483" lon="10.47113117">
        <ele>175.262</ele>
        <time>1970-01-01T01:00:00Z</time>
      </trkpt>
      <trkpt lat="63.40991667" lon="10.471117">
        <ele>175.11</ele>
        <time>1970-01-01T01:00:00Z</time>
      </trkpt>
      <trkpt lat="63.40992933" lon="10.47110467">
        <ele>175.11</ele>
        <time>1970-01-01T01:00:00Z</time>
      </trkpt>
      <trkpt lat="63.409941" lon="10.47109417">
        <ele>174.957</ele>
        <time>1970-01-01T01:00:00Z</time>
      </trkpt>
      <trkpt lat="63.40995217" lon="10.47108217">
        <ele>174.957</ele>
        <time>1970-01-01T01:00:00Z</time>
      </trkpt>
      <trkpt lat="63.409961" lon="10.47106883">
        <ele>174.957</ele>
        <time>1970-01-01T01:00:00Z</time>
      </trkpt>
      <trkpt lat="63.40996883" lon="10.47104517">
        <ele>174.957</ele>
        <time>1970-01-01T01:00:00Z</time>
      </trkpt>
      <trkpt lat="63.4099765" lon="10.471022">
        <ele>174.805</ele>
        <time>1970-01-01T01:00:00Z</time>
      </trkpt>
      <trkpt lat="63.4099855" lon="10.4709975">
        <ele>174.805</ele>
        <time>1970-01-01T01:00:00Z</time>
      </trkpt>
      <trkpt lat="63.40999883" lon="10.4709815">
        <ele>174.5</ele>
        <time>1970-01-01T01:00:00Z</time>
      </trkpt>
      <trkpt lat="63.41001317" lon="10.47096467">
        <ele>174.5</ele>
        <time>1970-01-01T01:00:00Z</time>
      </trkpt>
      <trkpt lat="63.410028" lon="10.47094133">
        <ele>174.348</ele>
        <time>1970-01-01T01:00:00Z</time>
      </trkpt>
      <trkpt lat="63.41003917" lon="10.47091417">
        <ele>174.348</ele>
        <time>1970-01-01T01:00:00Z</time>
      </trkpt>
      <trkpt lat="63.410051" lon="10.47088317">
        <ele>174.195</ele>
        <time>1970-01-01T01:00:00Z</time>
      </trkpt>
      <trkpt lat="63.4100645" lon="10.47085733">
        <ele>174.195</ele>
        <time>1970-01-01T01:00:00Z</time>
      </trkpt>
      <trkpt lat="63.41007817" lon="10.47083233">
        <ele>173.891</ele>
        <time>1970-01-01T01:00:00Z</time>
      </trkpt>
      <trkpt lat="63.41009317" lon="10.47080833">
        <ele>173.891</ele>
        <time>1970-01-01T01:00:00Z</time>
      </trkpt>
      <trkpt lat="63.4101065" lon="10.47078367">
        <ele>173.738</ele>
        <time>1970-01-01T01:00:00Z</time>
      </trkpt>
      <trkpt lat="63.4101195" lon="10.4707605">
        <ele>173.738</ele>
        <time>1970-01-01T01:00:00Z</time>
      </trkpt>
      <trkpt lat="63.41013083" lon="10.47073967">
        <ele>173.433</ele>
        <time>1970-01-01T01:00:00Z</time>
      </trkpt>
      <trkpt lat="63.41014133" lon="10.47072417">
        <ele>173.433</ele>
        <time>1970-01-01T01:00:00Z</time>
      </trkpt>
      <trkpt lat="63.41015033" lon="10.47071867">
        <ele>173.128</ele>
        <time>1970-01-01T01:00:00Z</time>
      </trkpt>
      <trkpt lat="63.41015667" lon="10.47072">
        <ele>173.128</ele>
        <time>1970-01-01T01:00:00Z</time>
      </trkpt>
      <trkpt lat="63.41016167" lon="10.47072517">
        <ele>172.824</ele>
        <time>1970-01-01T01:00:00Z</time>
      </trkpt>
      <trkpt lat="63.4101655" lon="10.47073133">
        <ele>172.824</ele>
        <time>1970-01-01T01:00:00Z</time>
      </trkpt>
      <trkpt lat="63.4101705" lon="10.47073933">
        <ele>172.519</ele>
        <time>1970-01-01T01:00:00Z</time>
      </trkpt>
      <trkpt lat="63.41017867" lon="10.47075067">
        <ele>172.519</ele>
        <time>1970-01-01T01:00:00Z</time>
      </trkpt>
      <trkpt lat="63.41018933" lon="10.47076133">
        <ele>172.062</ele>
        <time>1970-01-01T01:00:00Z</time>
      </trkpt>
      <trkpt lat="63.41020017" lon="10.47077633">
        <ele>172.062</ele>
        <time>1970-01-01T01:00:00Z</time>
      </trkpt>
      <trkpt lat="63.41020883" lon="10.47079">
        <ele>171.757</ele>
        <time>1970-01-01T01:00:00Z</time>
      </trkpt>
      <trkpt lat="63.410218" lon="10.470805">
        <ele>171.757</ele>
        <time>1970-01-01T01:00:00Z</time>
      </trkpt>
      <trkpt lat="63.41022867" lon="10.47081833">
        <ele>171.3</ele>
        <time>1970-01-01T01:00:00Z</time>
      </trkpt>
      <trkpt lat="63.41024083" lon="10.4708345">
        <ele>171.3</ele>
        <time>1970-01-01T01:00:00Z</time>
      </trkpt>
      <trkpt lat="63.41025367" lon="10.47085083">
        <ele>170.995</ele>
        <time>1970-01-01T01:00:00Z</time>
      </trkpt>
      <trkpt lat="63.41026683" lon="10.47086517">
        <ele>170.995</ele>
        <time>1970-01-01T01:00:00Z</time>
      </trkpt>
      <trkpt lat="63.41028067" lon="10.47087917">
        <ele>170.538</ele>
        <time>1970-01-01T01:00:00Z</time>
      </trkpt>
      <trkpt lat="63.41029517" lon="10.4708915">
        <ele>170.538</ele>
        <time>1970-01-01T01:00:00Z</time>
      </trkpt>
      <trkpt lat="63.410309" lon="10.4709035">
        <ele>170.233</ele>
        <time>1970-01-01T01:00:00Z</time>
      </trkpt>
      <trkpt lat="63.41032217" lon="10.47090817">
        <ele>170.233</ele>
        <time>1970-01-01T01:00:00Z</time>
      </trkpt>
      <trkpt lat="63.41033467" lon="10.47090383">
        <ele>169.928</ele>
        <time>1970-01-01T01:00:00Z</time>
      </trkpt>
      <trkpt lat="63.41034567" lon="10.47088767">
        <ele>169.928</ele>
        <time>1970-01-01T01:00:00Z</time>
      </trkpt>
      <trkpt lat="63.41035667" lon="10.47086667">
        <ele>169.623</ele>
        <time>1970-01-01T01:00:00Z</time>
      </trkpt>
      <trkpt lat="63.41036733" lon="10.4708465">
        <ele>169.623</ele>
        <time>1970-01-01T01:00:00Z</time>
      </trkpt>
      <trkpt lat="63.410379" lon="10.47083033">
        <ele>169.318</ele>
        <time>1970-01-01T01:00:00Z</time>
      </trkpt>
      <trkpt lat="63.41039133" lon="10.47081483">
        <ele>169.318</ele>
        <time>1970-01-01T01:00:00Z</time>
      </trkpt>
      <trkpt lat="63.4104055" lon="10.470802">
        <ele>169.014</ele>
        <time>1970-01-01T01:00:00Z</time>
      </trkpt>
      <trkpt lat="63.41042133" lon="10.4707955">
        <ele>169.014</ele>
        <time>1970-01-01T01:00:00Z</time>
      </trkpt>
      <trkpt lat="63.41043767" lon="10.47079433">
        <ele>168.709</ele>
        <time>1970-01-01T01:00:00Z</time>
      </trkpt>
      <trkpt lat="63.41045283" lon="10.4707915">
        <ele>168.709</ele>
        <time>1970-01-01T01:00:00Z</time>
      </trkpt>
      <trkpt lat="63.4104665" lon="10.470782">
        <ele>168.404</ele>
        <time>1970-01-01T01:00:00Z</time>
      </trkpt>
      <trkpt lat="63.4104795" lon="10.470767">
        <ele>168.404</ele>
        <time>1970-01-01T01:00:00Z</time>
      </trkpt>
      <trkpt lat="63.41049133" lon="10.4707495">
        <ele>168.099</ele>
        <time>1970-01-01T01:00:00Z</time>
      </trkpt>
      <trkpt lat="63.410503" lon="10.47073167">
        <ele>168.099</ele>
        <time>1970-01-01T01:00:00Z</time>
      </trkpt>
      <trkpt lat="63.41051383" lon="10.47071483">
        <ele>167.947</ele>
        <time>1970-01-01T01:00:00Z</time>
      </trkpt>
      <trkpt lat="63.41052383" lon="10.47069633">
        <ele>167.947</ele>
        <time>1970-01-01T01:00:00Z</time>
      </trkpt>
      <trkpt lat="63.41053067" lon="10.47067217">
        <ele>167.642</ele>
        <time>1970-01-01T01:00:00Z</time>
      </trkpt>
      <trkpt lat="63.41053467" lon="10.47064317">
        <ele>167.642</ele>
        <time>1970-01-01T01:00:00Z</time>
      </trkpt>
      <trkpt lat="63.41053817" lon="10.4706115">
        <ele>167.49</ele>
        <time>1970-01-01T01:00:00Z</time>
      </trkpt>
      <trkpt lat="63.41054183" lon="10.47057933">
        <ele>167.49</ele>
        <time>1970-01-01T01:00:00Z</time>
      </trkpt>
      <trkpt lat="63.41054517" lon="10.47054767">
        <ele>167.185</ele>
        <time>1970-01-01T01:00:00Z</time>
      </trkpt>
      <trkpt lat="63.41054667" lon="10.47051467">
        <ele>167.185</ele>
        <time>1970-01-01T01:00:00Z</time>
      </trkpt>
      <trkpt lat="63.41054983" lon="10.470481">
        <ele>167.032</ele>
        <time>1970-01-01T01:00:00Z</time>
      </trkpt>
      <trkpt lat="63.41055367" lon="10.47044533">
        <ele>167.032</ele>
        <time>1970-01-01T01:00:00Z</time>
      </trkpt>
      <trkpt lat="63.41055817" lon="10.47041083">
        <ele>166.728</ele>
        <time>1970-01-01T01:00:00Z</time>
      </trkpt>
      <trkpt lat="63.41056017" lon="10.47037767">
        <ele>166.728</ele>
        <time>1970-01-01T01:00:00Z</time>
      </trkpt>
      <trkpt lat="63.41056367" lon="10.47034367">
        <ele>166.575</ele>
        <time>1970-01-01T01:00:00Z</time>
      </trkpt>
      <trkpt lat="63.41056683" lon="10.4703075">
        <ele>166.575</ele>
        <time>1970-01-01T01:00:00Z</time>
      </trkpt>
      <trkpt lat="63.41057233" lon="10.47027233">
        <ele>166.423</ele>
        <time>1970-01-01T01:00:00Z</time>
      </trkpt>
      <trkpt lat="63.41057667" lon="10.47023767">
        <ele>166.423</ele>
        <time>1970-01-01T01:00:00Z</time>
      </trkpt>
      <trkpt lat="63.41058233" lon="10.47020583">
        <ele>166.27</ele>
        <time>1970-01-01T01:00:00Z</time>
      </trkpt>
      <trkpt lat="63.41058617" lon="10.4701735">
        <ele>166.27</ele>
        <time>1970-01-01T01:00:00Z</time>
      </trkpt>
      <trkpt lat="63.41059067" lon="10.470148">
        <ele>165.966</ele>
        <time>1970-01-01T01:00:00Z</time>
      </trkpt>
      <trkpt lat="63.41059733" lon="10.4701285">
        <ele>165.966</ele>
        <time>1970-01-01T01:00:00Z</time>
      </trkpt>
      <trkpt lat="63.41060667" lon="10.47011317">
        <ele>165.813</ele>
        <time>1970-01-01T01:00:00Z</time>
      </trkpt>
      <trkpt lat="63.4106165" lon="10.47010167">
        <ele>165.813</ele>
        <time>1970-01-01T01:00:00Z</time>
      </trkpt>
      <trkpt lat="63.410626" lon="10.47009433">
        <ele>165.661</ele>
        <time>1970-01-01T01:00:00Z</time>
      </trkpt>
      <trkpt lat="63.41063467" lon="10.47009067">
        <ele>165.661</ele>
        <time>1970-01-01T01:00:00Z</time>
      </trkpt>
      <trkpt lat="63.41064283" lon="10.47009083">
        <ele>165.356</ele>
        <time>1970-01-01T01:00:00Z</time>
      </trkpt>
      <trkpt lat="63.41065067" lon="10.47009233">
        <ele>165.356</ele>
        <time>1970-01-01T01:00:00Z</time>
      </trkpt>
      <trkpt lat="63.4106575" lon="10.47010083">
        <ele>165.051</ele>
        <time>1970-01-01T01:00:00Z</time>
      </trkpt>
      <trkpt lat="63.410664" lon="10.47010933">
        <ele>165.051</ele>
        <time>1970-01-01T01:00:00Z</time>
      </trkpt>
      <trkpt lat="63.41067183" lon="10.4701175">
        <ele>164.899</ele>
        <time>1970-01-01T01:00:00Z</time>
      </trkpt>
      <trkpt lat="63.41068" lon="10.47011733">
        <ele>164.899</ele>
        <time>1970-01-01T01:00:00Z</time>
      </trkpt>
      <trkpt lat="63.410688" lon="10.47012133">
        <ele>164.594</ele>
        <time>1970-01-01T01:00:00Z</time>
      </trkpt>
      <trkpt lat="63.41069633" lon="10.47012533">
        <ele>164.594</ele>
        <time>1970-01-01T01:00:00Z</time>
      </trkpt>
      <trkpt lat="63.410706" lon="10.47013633">
        <ele>164.289</ele>
        <time>1970-01-01T01:00:00Z</time>
      </trkpt>
      <trkpt lat="63.4107155" lon="10.47014617">
        <ele>164.289</ele>
        <time>1970-01-01T01:00:00Z</time>
      </trkpt>
      <trkpt lat="63.41072217" lon="10.470157">
        <ele>164.137</ele>
        <time>1970-01-01T01:00:00Z</time>
      </trkpt>
      <trkpt lat="63.41072667" lon="10.47016533">
        <ele>164.137</ele>
        <time>1970-01-01T01:00:00Z</time>
      </trkpt>
      <trkpt lat="63.410735" lon="10.4701665">
        <ele>163.832</ele>
        <time>1970-01-01T01:00:00Z</time>
      </trkpt>
      <trkpt lat="63.41074683" lon="10.470167">
        <ele>163.832</ele>
        <time>1970-01-01T01:00:00Z</time>
      </trkpt>
      <trkpt lat="63.41076233" lon="10.47016683">
        <ele>163.527</ele>
        <time>1970-01-01T01:00:00Z</time>
      </trkpt>
      <trkpt lat="63.41077617" lon="10.47016883">
        <ele>163.527</ele>
        <time>1970-01-01T01:00:00Z</time>
      </trkpt>
      <trkpt lat="63.41079117" lon="10.47017317">
        <ele>163.375</ele>
        <time>1970-01-01T01:00:00Z</time>
      </trkpt>
      <trkpt lat="63.410806" lon="10.47017833">
        <ele>163.375</ele>
        <time>1970-01-01T01:00:00Z</time>
      </trkpt>
      <trkpt lat="63.410821" lon="10.47018267">
        <ele>163.07</ele>
        <time>1970-01-01T01:00:00Z</time>
      </trkpt>
      <trkpt lat="63.41083583" lon="10.4701875">
        <ele>163.07</ele>
        <time>1970-01-01T01:00:00Z</time>
      </trkpt>
      <trkpt lat="63.41085217" lon="10.47019367">
        <ele>162.765</ele>
        <time>1970-01-01T01:00:00Z</time>
      </trkpt>
      <trkpt lat="63.410873" lon="10.4702105">
        <ele>162.765</ele>
        <time>1970-01-01T01:00:00Z</time>
      </trkpt>
      <trkpt lat="63.4108935" lon="10.4702305">
        <ele>162.613</ele>
        <time>1970-01-01T01:00:00Z</time>
      </trkpt>
      <trkpt lat="63.410912" lon="10.4702505">
        <ele>162.613</ele>
        <time>1970-01-01T01:00:00Z</time>
      </trkpt>
      <trkpt lat="63.41092783" lon="10.4702695">
        <ele>162.308</ele>
        <time>1970-01-01T01:00:00Z</time>
      </trkpt>
      <trkpt lat="63.410943" lon="10.47028767">
        <ele>162.308</ele>
        <time>1970-01-01T01:00:00Z</time>
      </trkpt>
      <trkpt lat="63.41095983" lon="10.47030933">
        <ele>162.156</ele>
        <time>1970-01-01T01:00:00Z</time>
      </trkpt>
      <trkpt lat="63.41097533" lon="10.47032883">
        <ele>162.156</ele>
        <time>1970-01-01T01:00:00Z</time>
      </trkpt>
      <trkpt lat="63.41099217" lon="10.470352">
        <ele>161.851</ele>
        <time>1970-01-01T01:00:00Z</time>
      </trkpt>
      <trkpt lat="63.41100917" lon="10.47037883">
        <ele>161.851</ele>
        <time>1970-01-01T01:00:00Z</time>
      </trkpt>
      <trkpt lat="63.41102783" lon="10.47041383">
        <ele>161.546</ele>
        <time>1970-01-01T01:00:00Z</time>
      </trkpt>
      <trkpt lat="63.41104617" lon="10.47044783">
        <ele>161.546</ele>
        <time>1970-01-01T01:00:00Z</time>
      </trkpt>
      <trkpt lat="63.41106583" lon="10.47048617">
        <ele>161.241</ele>
        <time>1970-01-01T01:00:00Z</time>
      </trkpt>
      <trkpt lat="63.41108583" lon="10.47052333">
        <ele>161.241</ele>
        <time>1970-01-01T01:00:00Z</time>
      </trkpt>
      <trkpt lat="63.41110433" lon="10.47056117">
        <ele>160.936</ele>
        <time>1970-01-01T01:00:00Z</time>
      </trkpt>
      <trkpt lat="63.41112117" lon="10.47059067">
        <ele>160.936</ele>
        <time>1970-01-01T01:00:00Z</time>
      </trkpt>
      <trkpt lat="63.41113633" lon="10.47061517">
        <ele>160.632</ele>
        <time>1970-01-01T01:00:00Z</time>
      </trkpt>
      <trkpt lat="63.41115083" lon="10.47063617">
        <ele>160.632</ele>
        <time>1970-01-01T01:00:00Z</time>
      </trkpt>
      <trkpt lat="63.41116433" lon="10.47065767">
        <ele>160.174</ele>
        <time>1970-01-01T01:00:00Z</time>
      </trkpt>
      <trkpt lat="63.4111795" lon="10.470676">
        <ele>160.174</ele>
        <time>1970-01-01T01:00:00Z</time>
      </trkpt>
      <trkpt lat="63.411195" lon="10.47069467">
        <ele>159.87</ele>
        <time>1970-01-01T01:00:00Z</time>
      </trkpt>
      <trkpt lat="63.41121183" lon="10.47071467">
        <ele>159.87</ele>
        <time>1970-01-01T01:00:00Z</time>
      </trkpt>
      <trkpt lat="63.4112265" lon="10.4707365">
        <ele>159.412</ele>
        <time>1970-01-01T01:00:00Z</time>
      </trkpt>
      <trkpt lat="63.41124183" lon="10.47076083">
        <ele>159.412</ele>
        <time>1970-01-01T01:00:00Z</time>
      </trkpt>
      <trkpt lat="63.411258" lon="10.47078567">
        <ele>158.955</ele>
        <time>1970-01-01T01:00:00Z</time>
      </trkpt>
      <trkpt lat="63.411277" lon="10.47080967">
        <ele>158.955</ele>
        <time>1970-01-01T01:00:00Z</time>
      </trkpt>
      <trkpt lat="63.41129783" lon="10.47083183">
        <ele>158.498</ele>
        <time>1970-01-01T01:00:00Z</time>
      </trkpt>
      <trkpt lat="63.41131833" lon="10.47085267">
        <ele>158.498</ele>
        <time>1970-01-01T01:00:00Z</time>
      </trkpt>
      <trkpt lat="63.41133533" lon="10.4708745">
        <ele>158.041</ele>
        <time>1970-01-01T01:00:00Z</time>
      </trkpt>
      <trkpt lat="63.41134717" lon="10.470897">
        <ele>158.041</ele>
        <time>1970-01-01T01:00:00Z</time>
      </trkpt>
      <trkpt lat="63.41135833" lon="10.47091867">
        <ele>157.584</ele>
        <time>1970-01-01T01:00:00Z</time>
      </trkpt>
      <trkpt lat="63.4113705" lon="10.470939">
        <ele>157.584</ele>
        <time>1970-01-01T01:00:00Z</time>
      </trkpt>
      <trkpt lat="63.4113855" lon="10.47095667">
        <ele>156.974</ele>
        <time>1970-01-01T01:00:00Z</time>
      </trkpt>
      <trkpt lat="63.4113995" lon="10.470973">
        <ele>156.974</ele>
        <time>1970-01-01T01:00:00Z</time>
      </trkpt>
      <trkpt lat="63.4114125" lon="10.47098767">
        <ele>156.517</ele>
        <time>1970-01-01T01:00:00Z</time>
      </trkpt>
      <trkpt lat="63.41142533" lon="10.47100067">
        <ele>156.517</ele>
        <time>1970-01-01T01:00:00Z</time>
      </trkpt>
      <trkpt lat="63.41143717" lon="10.47101217">
        <ele>155.907</ele>
        <time>1970-01-01T01:00:00Z</time>
      </trkpt>
      <trkpt lat="63.41144967" lon="10.4710255">
        <ele>155.907</ele>
        <time>1970-01-01T01:00:00Z</time>
      </trkpt>
      <trkpt lat="63.411462" lon="10.47103983">
        <ele>155.45</ele>
        <time>1970-01-01T01:00:00Z</time>
      </trkpt>
      <trkpt lat="63.4114775" lon="10.4710515">
        <ele>155.45</ele>
        <time>1970-01-01T01:00:00Z</time>
      </trkpt>
      <trkpt lat="63.41149167" lon="10.4710605">
        <ele>154.993</ele>
        <time>1970-01-01T01:00:00Z</time>
      </trkpt>
      <trkpt lat="63.41150783" lon="10.47107817">
        <ele>154.993</ele>
        <time>1970-01-01T01:00:00Z</time>
      </trkpt>
      <trkpt lat="63.411522" lon="10.47109883">
        <ele>154.535</ele>
        <time>1970-01-01T01:00:00Z</time>
      </trkpt>
      <trkpt lat="63.41153617" lon="10.47111783">
        <ele>154.535</ele>
        <time>1970-01-01T01:00:00Z</time>
      </trkpt>
      <trkpt lat="63.411548" lon="10.47113017">
        <ele>154.231</ele>
        <time>1970-01-01T01:00:00Z</time>
      </trkpt>
      <trkpt lat="63.41156067" lon="10.47114983">
        <ele>154.231</ele>
        <time>1970-01-01T01:00:00Z</time>
      </trkpt>
      <trkpt lat="63.41157333" lon="10.47117333">
        <ele>153.926</ele>
        <time>1970-01-01T01:00:00Z</time>
      </trkpt>
      <trkpt lat="63.41158983" lon="10.47119783">
        <ele>153.926</ele>
        <time>1970-01-01T01:00:00Z</time>
      </trkpt>
      <trkpt lat="63.41160483" lon="10.47121633">
        <ele>153.621</ele>
        <time>1970-01-01T01:00:00Z</time>
      </trkpt>
      <trkpt lat="63.41161983" lon="10.47123633">
        <ele>153.621</ele>
        <time>1970-01-01T01:00:00Z</time>
      </trkpt>
      <trkpt lat="63.41163083" lon="10.47125633">
        <ele>153.316</ele>
        <time>1970-01-01T01:00:00Z</time>
      </trkpt>
      <trkpt lat="63.4116425" lon="10.471278">
        <ele>153.316</ele>
        <time>1970-01-01T01:00:00Z</time>
      </trkpt>
      <trkpt lat="63.41165517" lon="10.471297">
        <ele>153.011</ele>
        <time>1970-01-01T01:00:00Z</time>
      </trkpt>
      <trkpt lat="63.41166833" lon="10.4713145">
        <ele>153.011</ele>
        <time>1970-01-01T01:00:00Z</time>
      </trkpt>
      <trkpt lat="63.41168133" lon="10.4713315">
        <ele>152.707</ele>
        <time>1970-01-01T01:00:00Z</time>
      </trkpt>
      <trkpt lat="63.411694" lon="10.47134783">
        <ele>152.707</ele>
        <time>1970-01-01T01:00:00Z</time>
      </trkpt>
      <trkpt lat="63.41170733" lon="10.47136383">
        <ele>152.554</ele>
        <time>1970-01-01T01:00:00Z</time>
      </trkpt>
      <trkpt lat="63.41172167" lon="10.47137967">
        <ele>152.554</ele>
        <time>1970-01-01T01:00:00Z</time>
      </trkpt>
      <trkpt lat="63.41173817" lon="10.471398">
        <ele>152.249</ele>
        <time>1970-01-01T01:00:00Z</time>
      </trkpt>
      <trkpt lat="63.41175383" lon="10.471415">
        <ele>152.249</ele>
        <time>1970-01-01T01:00:00Z</time>
      </trkpt>
      <trkpt lat="63.41176917" lon="10.4714355">
        <ele>152.249</ele>
        <time>1970-01-01T01:00:00Z</time>
      </trkpt>
      <trkpt lat="63.411781" lon="10.47145817">
        <ele>152.249</ele>
        <time>1970-01-01T01:00:00Z</time>
      </trkpt>
      <trkpt lat="63.41179233" lon="10.471486">
        <ele>152.097</ele>
        <time>1970-01-01T01:00:00Z</time>
      </trkpt>
      <trkpt lat="63.41180383" lon="10.47151183">
        <ele>152.097</ele>
        <time>1970-01-01T01:00:00Z</time>
      </trkpt>
      <trkpt lat="63.4118175" lon="10.47153317">
        <ele>151.945</ele>
        <time>1970-01-01T01:00:00Z</time>
      </trkpt>
      <trkpt lat="63.411832" lon="10.47155317">
        <ele>151.945</ele>
        <time>1970-01-01T01:00:00Z</time>
      </trkpt>
      <trkpt lat="63.4118455" lon="10.471574">
        <ele>151.945</ele>
        <time>1970-01-01T01:00:00Z</time>
      </trkpt>
      <trkpt lat="63.41185783" lon="10.471601">
        <ele>151.945</ele>
        <time>1970-01-01T01:00:00Z</time>
      </trkpt>
      <trkpt lat="63.41186733" lon="10.4716275">
        <ele>151.792</ele>
        <time>1970-01-01T01:00:00Z</time>
      </trkpt>
      <trkpt lat="63.41187583" lon="10.4716535">
        <ele>151.792</ele>
        <time>1970-01-01T01:00:00Z</time>
      </trkpt>
      <trkpt lat="63.41188417" lon="10.4716775">
        <ele>151.792</ele>
        <time>1970-01-01T01:00:00Z</time>
      </trkpt>
      <trkpt lat="63.41189483" lon="10.4717015">
        <ele>151.792</ele>
        <time>1970-01-01T01:00:00Z</time>
      </trkpt>
      <trkpt lat="63.41190567" lon="10.47172483">
        <ele>151.64</ele>
        <time>1970-01-01T01:00:00Z</time>
      </trkpt>
      <trkpt lat="63.41191867" lon="10.47174467">
        <ele>151.64</ele>
        <time>1970-01-01T01:00:00Z</time>
      </trkpt>
      <trkpt lat="63.41193133" lon="10.47176133">
        <ele>151.64</ele>
        <time>1970-01-01T01:00:00Z</time>
      </trkpt>
      <trkpt lat="63.41194283" lon="10.47177417">
        <ele>151.64</ele>
        <time>1970-01-01T01:00:00Z</time>
      </trkpt>
      <trkpt lat="63.41195233" lon="10.4717865">
        <ele>151.487</ele>
        <time>1970-01-01T01:00:00Z</time>
      </trkpt>
      <trkpt lat="63.41196067" lon="10.47179767">
        <ele>151.487</ele>
        <time>1970-01-01T01:00:00Z</time>
      </trkpt>
      <trkpt lat="63.4119715" lon="10.4718045">
        <ele>151.335</ele>
        <time>1970-01-01T01:00:00Z</time>
      </trkpt>
      <trkpt lat="63.41198183" lon="10.4718105">
        <ele>151.335</ele>
        <time>1970-01-01T01:00:00Z</time>
      </trkpt>
      <trkpt lat="63.41199383" lon="10.4718135">
        <ele>151.335</ele>
        <time>1970-01-01T01:00:00Z</time>
      </trkpt>
      <trkpt lat="63.41200317" lon="10.47181433">
        <ele>151.335</ele>
        <time>1970-01-01T01:00:00Z</time>
      </trkpt>
      <trkpt lat="63.4120135" lon="10.47181233">
        <ele>151.183</ele>
        <time>1970-01-01T01:00:00Z</time>
      </trkpt>
      <trkpt lat="63.4120245" lon="10.47180867">
        <ele>151.183</ele>
        <time>1970-01-01T01:00:00Z</time>
      </trkpt>
      <trkpt lat="63.412038" lon="10.471806">
        <ele>151.183</ele>
        <time>1970-01-01T01:00:00Z</time>
      </trkpt>
      <trkpt lat="63.41205283" lon="10.47180217">
        <ele>151.183</ele>
        <time>1970-01-01T01:00:00Z</time>
      </trkpt>
      <trkpt lat="63.41206767" lon="10.47179967">
        <ele>151.03</ele>
        <time>1970-01-01T01:00:00Z</time>
      </trkpt>
      <trkpt lat="63.41208183" lon="10.47179617">
        <ele>151.03</ele>
        <time>1970-01-01T01:00:00Z</time>
      </trkpt>
      <trkpt lat="63.412094" lon="10.47179167">
        <ele>150.878</ele>
        <time>1970-01-01T01:00:00Z</time>
      </trkpt>
      <trkpt lat="63.41210433" lon="10.47178683">
        <ele>150.878</ele>
        <time>1970-01-01T01:00:00Z</time>
      </trkpt>
      <trkpt lat="63.41211417" lon="10.47178517">
        <ele>150.725</ele>
        <time>1970-01-01T01:00:00Z</time>
      </trkpt>
      <trkpt lat="63.41212517" lon="10.471785">
        <ele>150.725</ele>
        <time>1970-01-01T01:00:00Z</time>
      </trkpt>
      <trkpt lat="63.41213933" lon="10.47178033">
        <ele>150.725</ele>
        <time>1970-01-01T01:00:00Z</time>
      </trkpt>
      <trkpt lat="63.41215567" lon="10.4717735">
        <ele>150.725</ele>
        <time>1970-01-01T01:00:00Z</time>
      </trkpt>
      <trkpt lat="63.41217333" lon="10.4717705">
        <ele>150.573</ele>
        <time>1970-01-01T01:00:00Z</time>
      </trkpt>
      <trkpt lat="63.41219167" lon="10.47177367">
        <ele>150.573</ele>
        <time>1970-01-01T01:00:00Z</time>
      </trkpt>
      <trkpt lat="63.41220833" lon="10.47177817">
        <ele>150.421</ele>
        <time>1970-01-01T01:00:00Z</time>
      </trkpt>
      <trkpt lat="63.412223" lon="10.47177867">
        <ele>150.421</ele>
        <time>1970-01-01T01:00:00Z</time>
      </trkpt>
      <trkpt lat="63.41223717" lon="10.47177683">
        <ele>150.421</ele>
        <time>1970-01-01T01:00:00Z</time>
      </trkpt>
      <trkpt lat="63.412253" lon="10.471774">
        <ele>150.421</ele>
        <time>1970-01-01T01:00:00Z</time>
      </trkpt>
      <trkpt lat="63.41226933" lon="10.47176983">
        <ele>150.268</ele>
        <time>1970-01-01T01:00:00Z</time>
      </trkpt>
      <trkpt lat="63.41228367" lon="10.4717665">
        <ele>150.268</ele>
        <time>1970-01-01T01:00:00Z</time>
      </trkpt>
      <trkpt lat="63.41229783" lon="10.47176333">
        <ele>150.268</ele>
        <time>1970-01-01T01:00:00Z</time>
      </trkpt>
      <trkpt lat="63.4123115" lon="10.47176117">
        <ele>150.268</ele>
        <time>1970-01-01T01:00:00Z</time>
      </trkpt>
      <trkpt lat="63.412326" lon="10.471758">
        <ele>150.116</ele>
        <time>1970-01-01T01:00:00Z</time>
      </trkpt>
      <trkpt lat="63.41234" lon="10.47175467">
        <ele>150.116</ele>
        <time>1970-01-01T01:00:00Z</time>
      </trkpt>
      <trkpt lat="63.41235467" lon="10.471755">
        <ele>150.116</ele>
        <time>1970-01-01T01:00:00Z</time>
      </trkpt>
      <trkpt lat="63.41236917" lon="10.471757">
        <ele>150.116</ele>
        <time>1970-01-01T01:00:00Z</time>
      </trkpt>
      <trkpt lat="63.41238433" lon="10.47176067">
        <ele>149.963</ele>
        <time>1970-01-01T01:00:00Z</time>
      </trkpt>
      <trkpt lat="63.41240083" lon="10.4717665">
        <ele>149.963</ele>
        <time>1970-01-01T01:00:00Z</time>
      </trkpt>
      <trkpt lat="63.41241733" lon="10.47177567">
        <ele>149.811</ele>
        <time>1970-01-01T01:00:00Z</time>
      </trkpt>
      <trkpt lat="63.412431" lon="10.471788">
        <ele>149.811</ele>
        <time>1970-01-01T01:00:00Z</time>
      </trkpt>
      <trkpt lat="63.412442" lon="10.47180183">
        <ele>149.659</ele>
        <time>1970-01-01T01:00:00Z</time>
      </trkpt>
      <trkpt lat="63.41245083" lon="10.47181783">
        <ele>149.659</ele>
        <time>1970-01-01T01:00:00Z</time>
      </trkpt>
      <trkpt lat="63.41245733" lon="10.47183717">
        <ele>149.506</ele>
        <time>1970-01-01T01:00:00Z</time>
      </trkpt>
      <trkpt lat="63.4124595" lon="10.47186433">
        <ele>149.506</ele>
        <time>1970-01-01T01:00:00Z</time>
      </trkpt>
      <trkpt lat="63.41245933" lon="10.47189217">
        <ele>149.354</ele>
        <time>1970-01-01T01:00:00Z</time>
      </trkpt>
      <trkpt lat="63.41245933" lon="10.47191733">
        <ele>149.354</ele>
        <time>1970-01-01T01:00:00Z</time>
      </trkpt>
      <trkpt lat="63.41246083" lon="10.47193233">
        <ele>149.201</ele>
        <time>1970-01-01T01:00:00Z</time>
      </trkpt>
      <trkpt lat="63.41246267" lon="10.4719425">
        <ele>149.201</ele>
        <time>1970-01-01T01:00:00Z</time>
      </trkpt>
      <trkpt lat="63.41246383" lon="10.47194817">
        <ele>149.049</ele>
        <time>1970-01-01T01:00:00Z</time>
      </trkpt>
      <trkpt lat="63.41246433" lon="10.47195017">
        <ele>149.049</ele>
        <time>1970-01-01T01:00:00Z</time>
      </trkpt>
      <trkpt lat="63.41246417" lon="10.47195033">
        <ele>148.897</ele>
        <time>1970-01-01T01:00:00Z</time>
      </trkpt>
    </trkseg>
  </trk>
</gpx>